<?xml version="1.0" encoding="UTF-8" standalone="no" ?>
<gpx xmlns="http://www.topografix.com/GPX/1/1" xmlns:xsi="http://www.w3.org/2001/XMLSchema-instance" xsi:schemaLocation="http://www.topografix.com/GPX/1/1 http://www.topografix.com/GPX/1/1/gpx.xsd" version="1.1" creator="VisuGPX - https://www.visugpx.com">
  <metadata>
    <name>La meridienne verte 2009</name>
    <desc><![CDATA[Randonnée VTT issoire, parcours de 60Km "La meridienne verte 2009"]]></desc>
  </metadata>
  <trk>
    <name><![CDATA[La méridienne verte]]></name>
    <cmt><![CDATA[Avec Chouchou, Régis, gilbert et gérard my.
Roulant avec des cotes pas trop dures]]></cmt>
    <trkseg>
      <trkpt lat="45.55096" lon="3.27196">
        <ele>383.22265625</ele>
        <time>2009-06-14T05:56:44Z</time>
      </trkpt>
      <trkpt lat="45.55092" lon="3.2717">
        <ele>383.70324707031</ele>
        <time>2009-06-14T05:56:53Z</time>
      </trkpt>
      <trkpt lat="45.55095" lon="3.27147">
        <ele>384.66479492188</ele>
        <time>2009-06-14T05:57:00Z</time>
      </trkpt>
      <trkpt lat="45.55108" lon="3.27134">
        <ele>385.6259765625</ele>
        <time>2009-06-14T05:57:06Z</time>
      </trkpt>
      <trkpt lat="45.55128" lon="3.2712">
        <ele>386.10668945312</ele>
        <time>2009-06-14T05:57:13Z</time>
      </trkpt>
      <trkpt lat="45.55157" lon="3.27102">
        <ele>386.10668945312</ele>
        <time>2009-06-14T05:57:22Z</time>
      </trkpt>
      <trkpt lat="45.55188" lon="3.27082">
        <ele>386.58740234375</ele>
        <time>2009-06-14T05:57:31Z</time>
      </trkpt>
      <trkpt lat="45.55217" lon="3.27065">
        <ele>387.06799316406</ele>
        <time>2009-06-14T05:57:40Z</time>
      </trkpt>
      <trkpt lat="45.55231" lon="3.27068">
        <ele>386.10668945312</ele>
        <time>2009-06-14T05:57:44Z</time>
      </trkpt>
      <trkpt lat="45.55249" lon="3.27088">
        <ele>384.66479492188</ele>
        <time>2009-06-14T05:57:49Z</time>
      </trkpt>
      <trkpt lat="45.55273" lon="3.27103">
        <ele>383.70324707031</ele>
        <time>2009-06-14T05:57:54Z</time>
      </trkpt>
      <trkpt lat="45.55308" lon="3.27116">
        <ele>384.66479492188</ele>
        <time>2009-06-14T05:58:02Z</time>
      </trkpt>
      <trkpt lat="45.55331" lon="3.27115">
        <ele>385.6259765625</ele>
        <time>2009-06-14T05:58:08Z</time>
      </trkpt>
      <trkpt lat="45.55341" lon="3.27104">
        <ele>385.6259765625</ele>
        <time>2009-06-14T05:58:12Z</time>
      </trkpt>
      <trkpt lat="45.55349" lon="3.27083">
        <ele>386.10668945312</ele>
        <time>2009-06-14T05:58:17Z</time>
      </trkpt>
      <trkpt lat="45.55364" lon="3.27061">
        <ele>385.6259765625</ele>
        <time>2009-06-14T05:58:23Z</time>
      </trkpt>
      <trkpt lat="45.55366" lon="3.27039">
        <ele>386.10668945312</ele>
        <time>2009-06-14T05:58:28Z</time>
      </trkpt>
      <trkpt lat="45.55357" lon="3.27014">
        <ele>386.58740234375</ele>
        <time>2009-06-14T05:58:34Z</time>
      </trkpt>
      <trkpt lat="45.55349" lon="3.27005">
        <ele>386.58740234375</ele>
        <time>2009-06-14T05:58:39Z</time>
      </trkpt>
      <trkpt lat="45.55339" lon="3.27003">
        <ele>386.58740234375</ele>
        <time>2009-06-14T05:58:44Z</time>
      </trkpt>
      <trkpt lat="45.55322" lon="3.27008">
        <ele>386.10668945312</ele>
        <time>2009-06-14T05:58:49Z</time>
      </trkpt>
      <trkpt lat="45.55317" lon="3.27008">
        <ele>386.58740234375</ele>
        <time>2009-06-14T05:58:50Z</time>
      </trkpt>
      <trkpt lat="45.55302" lon="3.27001">
        <ele>387.06799316406</ele>
        <time>2009-06-14T05:58:54Z</time>
      </trkpt>
      <trkpt lat="45.55291" lon="3.2699">
        <ele>388.029296875</ele>
        <time>2009-06-14T05:58:58Z</time>
      </trkpt>
      <trkpt lat="45.55285" lon="3.26985">
        <ele>388.99060058594</ele>
        <time>2009-06-14T05:59:00Z</time>
      </trkpt>
      <trkpt lat="45.5527" lon="3.26961">
        <ele>389.47119140625</ele>
        <time>2009-06-14T05:59:07Z</time>
      </trkpt>
      <trkpt lat="45.55256" lon="3.26931">
        <ele>390.91320800781</ele>
        <time>2009-06-14T05:59:14Z</time>
      </trkpt>
      <trkpt lat="45.55252" lon="3.26921">
        <ele>391.39379882812</ele>
        <time>2009-06-14T05:59:16Z</time>
      </trkpt>
      <trkpt lat="45.55238" lon="3.2687">
        <ele>391.87451171875</ele>
        <time>2009-06-14T05:59:25Z</time>
      </trkpt>
      <trkpt lat="45.55219" lon="3.26788">
        <ele>390.4326171875</ele>
        <time>2009-06-14T05:59:38Z</time>
      </trkpt>
      <trkpt lat="45.55206" lon="3.26737">
        <ele>389.47119140625</ele>
        <time>2009-06-14T05:59:45Z</time>
      </trkpt>
      <trkpt lat="45.55195" lon="3.2669">
        <ele>388.51000976562</ele>
        <time>2009-06-14T05:59:51Z</time>
      </trkpt>
      <trkpt lat="45.5519" lon="3.26666">
        <ele>388.029296875</ele>
        <time>2009-06-14T05:59:54Z</time>
      </trkpt>
      <trkpt lat="45.55186" lon="3.2665">
        <ele>387.06799316406</ele>
        <time>2009-06-14T05:59:56Z</time>
      </trkpt>
      <trkpt lat="45.55171" lon="3.26588">
        <ele>387.54858398438</ele>
        <time>2009-06-14T06:00:04Z</time>
      </trkpt>
      <trkpt lat="45.55165" lon="3.26565">
        <ele>387.54858398438</ele>
        <time>2009-06-14T06:00:07Z</time>
      </trkpt>
      <trkpt lat="45.55164" lon="3.26557">
        <ele>387.54858398438</ele>
        <time>2009-06-14T06:00:08Z</time>
      </trkpt>
      <trkpt lat="45.55148" lon="3.26485">
        <ele>387.06799316406</ele>
        <time>2009-06-14T06:00:17Z</time>
      </trkpt>
      <trkpt lat="45.55147" lon="3.26471">
        <ele>388.029296875</ele>
        <time>2009-06-14T06:00:19Z</time>
      </trkpt>
      <trkpt lat="45.55151" lon="3.26445">
        <ele>388.029296875</ele>
        <time>2009-06-14T06:00:23Z</time>
      </trkpt>
      <trkpt lat="45.55152" lon="3.26417">
        <ele>387.54858398438</ele>
        <time>2009-06-14T06:00:27Z</time>
      </trkpt>
      <trkpt lat="45.55141" lon="3.26402">
        <ele>388.029296875</ele>
        <time>2009-06-14T06:00:30Z</time>
      </trkpt>
      <trkpt lat="45.5513" lon="3.26399">
        <ele>387.54858398438</ele>
        <time>2009-06-14T06:00:32Z</time>
      </trkpt>
      <trkpt lat="45.5512" lon="3.26399">
        <ele>388.029296875</ele>
        <time>2009-06-14T06:00:34Z</time>
      </trkpt>
      <trkpt lat="45.55101" lon="3.26389">
        <ele>388.029296875</ele>
        <time>2009-06-14T06:00:38Z</time>
      </trkpt>
      <trkpt lat="45.55098" lon="3.26382">
        <ele>388.51000976562</ele>
        <time>2009-06-14T06:00:39Z</time>
      </trkpt>
      <trkpt lat="45.55068" lon="3.263">
        <ele>387.54858398438</ele>
        <time>2009-06-14T06:00:50Z</time>
      </trkpt>
      <trkpt lat="45.55037" lon="3.26228">
        <ele>387.54858398438</ele>
        <time>2009-06-14T06:01:00Z</time>
      </trkpt>
      <trkpt lat="45.55009" lon="3.26166">
        <ele>388.029296875</ele>
        <time>2009-06-14T06:01:09Z</time>
      </trkpt>
      <trkpt lat="45.54979" lon="3.26095">
        <ele>388.51000976562</ele>
        <time>2009-06-14T06:01:19Z</time>
      </trkpt>
      <trkpt lat="45.54958" lon="3.26025">
        <ele>388.51000976562</ele>
        <time>2009-06-14T06:01:28Z</time>
      </trkpt>
      <trkpt lat="45.54941" lon="3.25955">
        <ele>388.99060058594</ele>
        <time>2009-06-14T06:01:37Z</time>
      </trkpt>
      <trkpt lat="45.54926" lon="3.25892">
        <ele>388.99060058594</ele>
        <time>2009-06-14T06:01:45Z</time>
      </trkpt>
      <trkpt lat="45.54907" lon="3.2584">
        <ele>389.47119140625</ele>
        <time>2009-06-14T06:01:52Z</time>
      </trkpt>
      <trkpt lat="45.54879" lon="3.25796">
        <ele>389.47119140625</ele>
        <time>2009-06-14T06:01:59Z</time>
      </trkpt>
      <trkpt lat="45.54863" lon="3.25774">
        <ele>389.95190429688</ele>
        <time>2009-06-14T06:02:03Z</time>
      </trkpt>
      <trkpt lat="45.54855" lon="3.25754">
        <ele>390.91320800781</ele>
        <time>2009-06-14T06:02:06Z</time>
      </trkpt>
      <trkpt lat="45.54838" lon="3.25736">
        <ele>390.91320800781</ele>
        <time>2009-06-14T06:02:10Z</time>
      </trkpt>
      <trkpt lat="45.54825" lon="3.25721">
        <ele>390.91320800781</ele>
        <time>2009-06-14T06:02:13Z</time>
      </trkpt>
      <trkpt lat="45.54795" lon="3.25662">
        <ele>391.87451171875</ele>
        <time>2009-06-14T06:02:22Z</time>
      </trkpt>
      <trkpt lat="45.5478" lon="3.2561">
        <ele>392.35534667969</ele>
        <time>2009-06-14T06:02:29Z</time>
      </trkpt>
      <trkpt lat="45.54769" lon="3.25531">
        <ele>393.79724121094</ele>
        <time>2009-06-14T06:02:39Z</time>
      </trkpt>
      <trkpt lat="45.54763" lon="3.25469">
        <ele>395.71984863281</ele>
        <time>2009-06-14T06:02:48Z</time>
      </trkpt>
      <trkpt lat="45.54759" lon="3.25437">
        <ele>397.64245605469</ele>
        <time>2009-06-14T06:02:53Z</time>
      </trkpt>
      <trkpt lat="45.54751" lon="3.25398">
        <ele>398.12316894531</ele>
        <time>2009-06-14T06:02:59Z</time>
      </trkpt>
      <trkpt lat="45.54743" lon="3.2538">
        <ele>398.60375976562</ele>
        <time>2009-06-14T06:03:02Z</time>
      </trkpt>
      <trkpt lat="45.54712" lon="3.2534">
        <ele>398.12316894531</ele>
        <time>2009-06-14T06:03:10Z</time>
      </trkpt>
      <trkpt lat="45.54701" lon="3.25333">
        <ele>398.12316894531</ele>
        <time>2009-06-14T06:03:12Z</time>
      </trkpt>
      <trkpt lat="45.54659" lon="3.25325">
        <ele>395.71984863281</ele>
        <time>2009-06-14T06:03:19Z</time>
      </trkpt>
      <trkpt lat="45.54622" lon="3.25328">
        <ele>392.35534667969</ele>
        <time>2009-06-14T06:03:24Z</time>
      </trkpt>
      <trkpt lat="45.54564" lon="3.25335">
        <ele>389.95190429688</ele>
        <time>2009-06-14T06:03:31Z</time>
      </trkpt>
      <trkpt lat="45.54533" lon="3.25337">
        <ele>389.47119140625</ele>
        <time>2009-06-14T06:03:35Z</time>
      </trkpt>
      <trkpt lat="45.54483" lon="3.25341">
        <ele>390.4326171875</ele>
        <time>2009-06-14T06:03:42Z</time>
      </trkpt>
      <trkpt lat="45.54464" lon="3.25344">
        <ele>390.4326171875</ele>
        <time>2009-06-14T06:03:45Z</time>
      </trkpt>
      <trkpt lat="45.54444" lon="3.25346">
        <ele>389.95190429688</ele>
        <time>2009-06-14T06:03:48Z</time>
      </trkpt>
      <trkpt lat="45.54438" lon="3.25346">
        <ele>390.4326171875</ele>
        <time>2009-06-14T06:03:49Z</time>
      </trkpt>
      <trkpt lat="45.54426" lon="3.25347">
        <ele>390.91320800781</ele>
        <time>2009-06-14T06:03:51Z</time>
      </trkpt>
      <trkpt lat="45.54406" lon="3.25331">
        <ele>390.91320800781</ele>
        <time>2009-06-14T06:03:55Z</time>
      </trkpt>
      <trkpt lat="45.54402" lon="3.25308">
        <ele>391.39379882812</ele>
        <time>2009-06-14T06:03:58Z</time>
      </trkpt>
      <trkpt lat="45.54402" lon="3.25271">
        <ele>392.8359375</ele>
        <time>2009-06-14T06:04:04Z</time>
      </trkpt>
      <trkpt lat="45.54401" lon="3.25268">
        <ele>392.8359375</ele>
        <time>2009-06-14T06:04:05Z</time>
      </trkpt>
      <trkpt lat="45.54396" lon="3.25266">
        <ele>393.79724121094</ele>
        <time>2009-06-14T06:04:09Z</time>
      </trkpt>
      <trkpt lat="45.54396" lon="3.25275">
        <ele>392.8359375</ele>
        <time>2009-06-14T06:04:11Z</time>
      </trkpt>
      <trkpt lat="45.54397" lon="3.2529">
        <ele>391.87451171875</ele>
        <time>2009-06-14T06:04:14Z</time>
      </trkpt>
      <trkpt lat="45.54397" lon="3.25327">
        <ele>391.39379882812</ele>
        <time>2009-06-14T06:04:20Z</time>
      </trkpt>
      <trkpt lat="45.54397" lon="3.25338">
        <ele>391.87451171875</ele>
        <time>2009-06-14T06:04:22Z</time>
      </trkpt>
      <trkpt lat="45.54387" lon="3.25356">
        <ele>389.95190429688</ele>
        <time>2009-06-14T06:04:26Z</time>
      </trkpt>
      <trkpt lat="45.54382" lon="3.25358">
        <ele>389.95190429688</ele>
        <time>2009-06-14T06:04:27Z</time>
      </trkpt>
      <trkpt lat="45.54354" lon="3.25361">
        <ele>388.99060058594</ele>
        <time>2009-06-14T06:04:32Z</time>
      </trkpt>
      <trkpt lat="45.54335" lon="3.25376">
        <ele>387.54858398438</ele>
        <time>2009-06-14T06:04:36Z</time>
      </trkpt>
      <trkpt lat="45.54334" lon="3.25392">
        <ele>387.54858398438</ele>
        <time>2009-06-14T06:04:38Z</time>
      </trkpt>
      <trkpt lat="45.54336" lon="3.25416">
        <ele>386.58740234375</ele>
        <time>2009-06-14T06:04:41Z</time>
      </trkpt>
      <trkpt lat="45.54337" lon="3.25445">
        <ele>388.029296875</ele>
        <time>2009-06-14T06:04:45Z</time>
      </trkpt>
      <trkpt lat="45.54345" lon="3.25517">
        <ele>387.54858398438</ele>
        <time>2009-06-14T06:04:53Z</time>
      </trkpt>
      <trkpt lat="45.54346" lon="3.25525">
        <ele>387.06799316406</ele>
        <time>2009-06-14T06:04:54Z</time>
      </trkpt>
      <trkpt lat="45.5436" lon="3.25561">
        <ele>387.54858398438</ele>
        <time>2009-06-14T06:04:59Z</time>
      </trkpt>
      <trkpt lat="45.54374" lon="3.25601">
        <ele>388.029296875</ele>
        <time>2009-06-14T06:05:05Z</time>
      </trkpt>
      <trkpt lat="45.54372" lon="3.25617">
        <ele>387.54858398438</ele>
        <time>2009-06-14T06:05:08Z</time>
      </trkpt>
      <trkpt lat="45.5436" lon="3.25634">
        <ele>385.6259765625</ele>
        <time>2009-06-14T06:05:12Z</time>
      </trkpt>
      <trkpt lat="45.54359" lon="3.25655">
        <ele>385.14538574219</ele>
        <time>2009-06-14T06:05:15Z</time>
      </trkpt>
      <trkpt lat="45.54364" lon="3.2567">
        <ele>384.66479492188</ele>
        <time>2009-06-14T06:05:17Z</time>
      </trkpt>
      <trkpt lat="45.54373" lon="3.25703">
        <ele>385.6259765625</ele>
        <time>2009-06-14T06:05:22Z</time>
      </trkpt>
      <trkpt lat="45.5437" lon="3.25708">
        <ele>385.6259765625</ele>
        <time>2009-06-14T06:05:24Z</time>
      </trkpt>
      <trkpt lat="45.54357" lon="3.25714">
        <ele>384.66479492188</ele>
        <time>2009-06-14T06:05:28Z</time>
      </trkpt>
      <trkpt lat="45.54346" lon="3.25722">
        <ele>384.18408203125</ele>
        <time>2009-06-14T06:05:31Z</time>
      </trkpt>
      <trkpt lat="45.54337" lon="3.25745">
        <ele>383.70324707031</ele>
        <time>2009-06-14T06:05:35Z</time>
      </trkpt>
      <trkpt lat="45.54337" lon="3.25751">
        <ele>383.70324707031</ele>
        <time>2009-06-14T06:05:36Z</time>
      </trkpt>
      <trkpt lat="45.54333" lon="3.25802">
        <ele>383.22265625</ele>
        <time>2009-06-14T06:05:43Z</time>
      </trkpt>
      <trkpt lat="45.5433" lon="3.25825">
        <ele>383.22265625</ele>
        <time>2009-06-14T06:05:46Z</time>
      </trkpt>
      <trkpt lat="45.54324" lon="3.2586">
        <ele>382.74206542969</ele>
        <time>2009-06-14T06:05:51Z</time>
      </trkpt>
      <trkpt lat="45.54321" lon="3.25874">
        <ele>382.26135253906</ele>
        <time>2009-06-14T06:05:53Z</time>
      </trkpt>
      <trkpt lat="45.5432" lon="3.25888">
        <ele>383.70324707031</ele>
        <time>2009-06-14T06:05:55Z</time>
      </trkpt>
      <trkpt lat="45.54319" lon="3.25915">
        <ele>382.74206542969</ele>
        <time>2009-06-14T06:05:58Z</time>
      </trkpt>
      <trkpt lat="45.54331" lon="3.25946">
        <ele>382.26135253906</ele>
        <time>2009-06-14T06:06:02Z</time>
      </trkpt>
      <trkpt lat="45.54347" lon="3.25953">
        <ele>381.78063964844</ele>
        <time>2009-06-14T06:06:05Z</time>
      </trkpt>
      <trkpt lat="45.54376" lon="3.25956">
        <ele>381.78063964844</ele>
        <time>2009-06-14T06:06:10Z</time>
      </trkpt>
      <trkpt lat="45.54395" lon="3.25972">
        <ele>381.78063964844</ele>
        <time>2009-06-14T06:06:14Z</time>
      </trkpt>
      <trkpt lat="45.54398" lon="3.25978">
        <ele>381.78063964844</ele>
        <time>2009-06-14T06:06:15Z</time>
      </trkpt>
      <trkpt lat="45.54404" lon="3.25991">
        <ele>381.78063964844</ele>
        <time>2009-06-14T06:06:17Z</time>
      </trkpt>
      <trkpt lat="45.5441" lon="3.26006">
        <ele>382.26135253906</ele>
        <time>2009-06-14T06:06:19Z</time>
      </trkpt>
      <trkpt lat="45.54419" lon="3.26026">
        <ele>382.26135253906</ele>
        <time>2009-06-14T06:06:22Z</time>
      </trkpt>
      <trkpt lat="45.54426" lon="3.26063">
        <ele>382.26135253906</ele>
        <time>2009-06-14T06:06:27Z</time>
      </trkpt>
      <trkpt lat="45.54427" lon="3.26141">
        <ele>380.33874511719</ele>
        <time>2009-06-14T06:06:36Z</time>
      </trkpt>
      <trkpt lat="45.54428" lon="3.26159">
        <ele>380.33874511719</ele>
        <time>2009-06-14T06:06:38Z</time>
      </trkpt>
      <trkpt lat="45.54427" lon="3.26201">
        <ele>380.81945800781</ele>
        <time>2009-06-14T06:06:43Z</time>
      </trkpt>
      <trkpt lat="45.54432" lon="3.26229">
        <ele>380.81945800781</ele>
        <time>2009-06-14T06:06:47Z</time>
      </trkpt>
      <trkpt lat="45.54454" lon="3.26278">
        <ele>380.81945800781</ele>
        <time>2009-06-14T06:06:54Z</time>
      </trkpt>
      <trkpt lat="45.54471" lon="3.26335">
        <ele>380.81945800781</ele>
        <time>2009-06-14T06:07:01Z</time>
      </trkpt>
      <trkpt lat="45.54475" lon="3.2637">
        <ele>382.26135253906</ele>
        <time>2009-06-14T06:07:06Z</time>
      </trkpt>
      <trkpt lat="45.54477" lon="3.2639">
        <ele>382.26135253906</ele>
        <time>2009-06-14T06:07:11Z</time>
      </trkpt>
      <trkpt lat="45.5448" lon="3.26408">
        <ele>382.74206542969</ele>
        <time>2009-06-14T06:07:16Z</time>
      </trkpt>
      <trkpt lat="45.54483" lon="3.26423">
        <ele>382.74206542969</ele>
        <time>2009-06-14T06:07:22Z</time>
      </trkpt>
      <trkpt lat="45.54483" lon="3.26427">
        <ele>383.22265625</ele>
        <time>2009-06-14T06:07:27Z</time>
      </trkpt>
      <trkpt lat="45.54485" lon="3.26427">
        <ele>383.22265625</ele>
        <time>2009-06-14T06:07:39Z</time>
      </trkpt>
      <trkpt lat="45.54486" lon="3.26433">
        <ele>383.22265625</ele>
        <time>2009-06-14T06:07:59Z</time>
      </trkpt>
      <trkpt lat="45.54487" lon="3.26434">
        <ele>383.22265625</ele>
        <time>2009-06-14T06:08:07Z</time>
      </trkpt>
      <trkpt lat="45.54489" lon="3.2643">
        <ele>383.22265625</ele>
        <time>2009-06-14T06:08:12Z</time>
      </trkpt>
      <trkpt lat="45.54485" lon="3.26415">
        <ele>382.74206542969</ele>
        <time>2009-06-14T06:08:18Z</time>
      </trkpt>
      <trkpt lat="45.54482" lon="3.26391">
        <ele>381.78063964844</ele>
        <time>2009-06-14T06:08:24Z</time>
      </trkpt>
      <trkpt lat="45.54477" lon="3.2637">
        <ele>382.74206542969</ele>
        <time>2009-06-14T06:08:30Z</time>
      </trkpt>
      <trkpt lat="45.54468" lon="3.26365">
        <ele>383.22265625</ele>
        <time>2009-06-14T06:08:35Z</time>
      </trkpt>
      <trkpt lat="45.54461" lon="3.26362">
        <ele>383.22265625</ele>
        <time>2009-06-14T06:08:38Z</time>
      </trkpt>
      <trkpt lat="45.54451" lon="3.26363">
        <ele>383.70324707031</ele>
        <time>2009-06-14T06:08:44Z</time>
      </trkpt>
      <trkpt lat="45.54448" lon="3.26364">
        <ele>383.70324707031</ele>
        <time>2009-06-14T06:08:45Z</time>
      </trkpt>
      <trkpt lat="45.54436" lon="3.26373">
        <ele>384.18408203125</ele>
        <time>2009-06-14T06:08:50Z</time>
      </trkpt>
      <trkpt lat="45.54418" lon="3.26384">
        <ele>383.70324707031</ele>
        <time>2009-06-14T06:08:57Z</time>
      </trkpt>
      <trkpt lat="45.54396" lon="3.26396">
        <ele>382.26135253906</ele>
        <time>2009-06-14T06:09:03Z</time>
      </trkpt>
      <trkpt lat="45.54366" lon="3.26409">
        <ele>382.74206542969</ele>
        <time>2009-06-14T06:09:10Z</time>
      </trkpt>
      <trkpt lat="45.54328" lon="3.26422">
        <ele>383.70324707031</ele>
        <time>2009-06-14T06:09:19Z</time>
      </trkpt>
      <trkpt lat="45.54311" lon="3.26428">
        <ele>385.14538574219</ele>
        <time>2009-06-14T06:09:23Z</time>
      </trkpt>
      <trkpt lat="45.54294" lon="3.2643">
        <ele>385.6259765625</ele>
        <time>2009-06-14T06:09:27Z</time>
      </trkpt>
      <trkpt lat="45.54272" lon="3.26431">
        <ele>386.58740234375</ele>
        <time>2009-06-14T06:09:33Z</time>
      </trkpt>
      <trkpt lat="45.54269" lon="3.26429">
        <ele>386.58740234375</ele>
        <time>2009-06-14T06:09:34Z</time>
      </trkpt>
      <trkpt lat="45.54263" lon="3.26402">
        <ele>387.06799316406</ele>
        <time>2009-06-14T06:09:39Z</time>
      </trkpt>
      <trkpt lat="45.54253" lon="3.26335">
        <ele>388.51000976562</ele>
        <time>2009-06-14T06:09:49Z</time>
      </trkpt>
      <trkpt lat="45.54247" lon="3.26288">
        <ele>389.47119140625</ele>
        <time>2009-06-14T06:09:56Z</time>
      </trkpt>
      <trkpt lat="45.54242" lon="3.26255">
        <ele>389.95190429688</ele>
        <time>2009-06-14T06:10:01Z</time>
      </trkpt>
      <trkpt lat="45.5423" lon="3.26178">
        <ele>390.91320800781</ele>
        <time>2009-06-14T06:10:12Z</time>
      </trkpt>
      <trkpt lat="45.5422" lon="3.26098">
        <ele>391.87451171875</ele>
        <time>2009-06-14T06:10:23Z</time>
      </trkpt>
      <trkpt lat="45.54211" lon="3.26038">
        <ele>392.35534667969</ele>
        <time>2009-06-14T06:10:31Z</time>
      </trkpt>
      <trkpt lat="45.542" lon="3.25957">
        <ele>391.87451171875</ele>
        <time>2009-06-14T06:10:41Z</time>
      </trkpt>
      <trkpt lat="45.54194" lon="3.25916">
        <ele>391.87451171875</ele>
        <time>2009-06-14T06:10:46Z</time>
      </trkpt>
      <trkpt lat="45.54182" lon="3.25831">
        <ele>392.8359375</ele>
        <time>2009-06-14T06:10:56Z</time>
      </trkpt>
      <trkpt lat="45.54173" lon="3.25759">
        <ele>392.35534667969</ele>
        <time>2009-06-14T06:11:04Z</time>
      </trkpt>
      <trkpt lat="45.54158" lon="3.25651">
        <ele>392.35534667969</ele>
        <time>2009-06-14T06:11:16Z</time>
      </trkpt>
      <trkpt lat="45.54146" lon="3.25571">
        <ele>393.31652832031</ele>
        <time>2009-06-14T06:11:25Z</time>
      </trkpt>
      <trkpt lat="45.54139" lon="3.25519">
        <ele>394.27795410156</ele>
        <time>2009-06-14T06:11:31Z</time>
      </trkpt>
      <trkpt lat="45.54131" lon="3.2546">
        <ele>394.75854492188</ele>
        <time>2009-06-14T06:11:38Z</time>
      </trkpt>
      <trkpt lat="45.54128" lon="3.25436">
        <ele>395.23913574219</ele>
        <time>2009-06-14T06:11:41Z</time>
      </trkpt>
      <trkpt lat="45.54128" lon="3.25404">
        <ele>394.75854492188</ele>
        <time>2009-06-14T06:11:45Z</time>
      </trkpt>
      <trkpt lat="45.54123" lon="3.25382">
        <ele>394.27795410156</ele>
        <time>2009-06-14T06:11:48Z</time>
      </trkpt>
      <trkpt lat="45.54119" lon="3.2533">
        <ele>393.79724121094</ele>
        <time>2009-06-14T06:11:54Z</time>
      </trkpt>
      <trkpt lat="45.54119" lon="3.25321">
        <ele>393.79724121094</ele>
        <time>2009-06-14T06:11:55Z</time>
      </trkpt>
      <trkpt lat="45.54115" lon="3.25258">
        <ele>393.79724121094</ele>
        <time>2009-06-14T06:12:02Z</time>
      </trkpt>
      <trkpt lat="45.54114" lon="3.2522">
        <ele>393.31652832031</ele>
        <time>2009-06-14T06:12:06Z</time>
      </trkpt>
      <trkpt lat="45.54111" lon="3.25133">
        <ele>393.79724121094</ele>
        <time>2009-06-14T06:12:15Z</time>
      </trkpt>
      <trkpt lat="45.5411" lon="3.25114">
        <ele>393.79724121094</ele>
        <time>2009-06-14T06:12:17Z</time>
      </trkpt>
      <trkpt lat="45.54106" lon="3.25079">
        <ele>393.79724121094</ele>
        <time>2009-06-14T06:12:21Z</time>
      </trkpt>
      <trkpt lat="45.541" lon="3.2502">
        <ele>393.79724121094</ele>
        <time>2009-06-14T06:12:28Z</time>
      </trkpt>
      <trkpt lat="45.54099" lon="3.25">
        <ele>393.79724121094</ele>
        <time>2009-06-14T06:12:31Z</time>
      </trkpt>
      <trkpt lat="45.54105" lon="3.24989">
        <ele>393.79724121094</ele>
        <time>2009-06-14T06:12:35Z</time>
      </trkpt>
      <trkpt lat="45.54095" lon="3.24974">
        <ele>393.31652832031</ele>
        <time>2009-06-14T06:12:39Z</time>
      </trkpt>
      <trkpt lat="45.5409" lon="3.24958">
        <ele>393.31652832031</ele>
        <time>2009-06-14T06:12:42Z</time>
      </trkpt>
      <trkpt lat="45.54089" lon="3.24916">
        <ele>393.79724121094</ele>
        <time>2009-06-14T06:12:48Z</time>
      </trkpt>
      <trkpt lat="45.54086" lon="3.24901">
        <ele>395.71984863281</ele>
        <time>2009-06-14T06:12:53Z</time>
      </trkpt>
      <trkpt lat="45.54078" lon="3.24881">
        <ele>395.71984863281</ele>
        <time>2009-06-14T06:12:59Z</time>
      </trkpt>
      <trkpt lat="45.54068" lon="3.24867">
        <ele>395.71984863281</ele>
        <time>2009-06-14T06:13:03Z</time>
      </trkpt>
      <trkpt lat="45.54059" lon="3.24844">
        <ele>395.23913574219</ele>
        <time>2009-06-14T06:13:07Z</time>
      </trkpt>
      <trkpt lat="45.54048" lon="3.24789">
        <ele>395.23913574219</ele>
        <time>2009-06-14T06:13:14Z</time>
      </trkpt>
      <trkpt lat="45.54047" lon="3.2478">
        <ele>395.23913574219</ele>
        <time>2009-06-14T06:13:15Z</time>
      </trkpt>
      <trkpt lat="45.54034" lon="3.24729">
        <ele>394.75854492188</ele>
        <time>2009-06-14T06:13:21Z</time>
      </trkpt>
      <trkpt lat="45.54017" lon="3.24705">
        <ele>396.20056152344</ele>
        <time>2009-06-14T06:13:25Z</time>
      </trkpt>
      <trkpt lat="45.54012" lon="3.24701">
        <ele>396.68115234375</ele>
        <time>2009-06-14T06:13:26Z</time>
      </trkpt>
      <trkpt lat="45.53976" lon="3.24676">
        <ele>399.08435058594</ele>
        <time>2009-06-14T06:13:33Z</time>
      </trkpt>
      <trkpt lat="45.53972" lon="3.24672">
        <ele>399.08435058594</ele>
        <time>2009-06-14T06:13:34Z</time>
      </trkpt>
      <trkpt lat="45.53958" lon="3.24651">
        <ele>399.56506347656</ele>
        <time>2009-06-14T06:13:38Z</time>
      </trkpt>
      <trkpt lat="45.53941" lon="3.246">
        <ele>399.56506347656</ele>
        <time>2009-06-14T06:13:45Z</time>
      </trkpt>
      <trkpt lat="45.53921" lon="3.24537">
        <ele>399.56506347656</ele>
        <time>2009-06-14T06:13:53Z</time>
      </trkpt>
      <trkpt lat="45.53905" lon="3.24489">
        <ele>399.56506347656</ele>
        <time>2009-06-14T06:13:59Z</time>
      </trkpt>
      <trkpt lat="45.53885" lon="3.24424">
        <ele>400.0458984375</ele>
        <time>2009-06-14T06:14:07Z</time>
      </trkpt>
      <trkpt lat="45.5388" lon="3.24404">
        <ele>400.52648925781</ele>
        <time>2009-06-14T06:14:11Z</time>
      </trkpt>
      <trkpt lat="45.53876" lon="3.24394">
        <ele>401.00708007812</ele>
        <time>2009-06-14T06:14:14Z</time>
      </trkpt>
      <trkpt lat="45.53872" lon="3.24377">
        <ele>400.52648925781</ele>
        <time>2009-06-14T06:14:17Z</time>
      </trkpt>
      <trkpt lat="45.53859" lon="3.24339">
        <ele>400.0458984375</ele>
        <time>2009-06-14T06:14:23Z</time>
      </trkpt>
      <trkpt lat="45.53841" lon="3.24281">
        <ele>401.00708007812</ele>
        <time>2009-06-14T06:14:31Z</time>
      </trkpt>
      <trkpt lat="45.53819" lon="3.24211">
        <ele>401.00708007812</ele>
        <time>2009-06-14T06:14:40Z</time>
      </trkpt>
      <trkpt lat="45.53799" lon="3.24146">
        <ele>402.44909667969</ele>
        <time>2009-06-14T06:14:48Z</time>
      </trkpt>
      <trkpt lat="45.53777" lon="3.24079">
        <ele>401.96850585938</ele>
        <time>2009-06-14T06:14:57Z</time>
      </trkpt>
      <trkpt lat="45.53761" lon="3.24029">
        <ele>402.44909667969</ele>
        <time>2009-06-14T06:15:04Z</time>
      </trkpt>
      <trkpt lat="45.53745" lon="3.23974">
        <ele>402.9296875</ele>
        <time>2009-06-14T06:15:12Z</time>
      </trkpt>
      <trkpt lat="45.53725" lon="3.23912">
        <ele>403.89111328125</ele>
        <time>2009-06-14T06:15:21Z</time>
      </trkpt>
      <trkpt lat="45.53704" lon="3.23844">
        <ele>405.3330078125</ele>
        <time>2009-06-14T06:15:31Z</time>
      </trkpt>
      <trkpt lat="45.53687" lon="3.23788">
        <ele>407.736328125</ele>
        <time>2009-06-14T06:15:40Z</time>
      </trkpt>
      <trkpt lat="45.53672" lon="3.23742">
        <ele>410.62023925781</ele>
        <time>2009-06-14T06:15:48Z</time>
      </trkpt>
      <trkpt lat="45.53671" lon="3.23736">
        <ele>410.62023925781</ele>
        <time>2009-06-14T06:15:49Z</time>
      </trkpt>
      <trkpt lat="45.53663" lon="3.23708">
        <ele>412.54284667969</ele>
        <time>2009-06-14T06:15:54Z</time>
      </trkpt>
      <trkpt lat="45.53661" lon="3.23697">
        <ele>412.54284667969</ele>
        <time>2009-06-14T06:15:56Z</time>
      </trkpt>
      <trkpt lat="45.53666" lon="3.23667">
        <ele>412.54284667969</ele>
        <time>2009-06-14T06:16:01Z</time>
      </trkpt>
      <trkpt lat="45.53669" lon="3.23661">
        <ele>411.58166503906</ele>
        <time>2009-06-14T06:16:02Z</time>
      </trkpt>
      <trkpt lat="45.53694" lon="3.23615">
        <ele>409.17834472656</ele>
        <time>2009-06-14T06:16:09Z</time>
      </trkpt>
      <trkpt lat="45.5371" lon="3.23587">
        <ele>408.69763183594</ele>
        <time>2009-06-14T06:16:13Z</time>
      </trkpt>
      <trkpt lat="45.53733" lon="3.23546">
        <ele>407.736328125</ele>
        <time>2009-06-14T06:16:19Z</time>
      </trkpt>
      <trkpt lat="45.53757" lon="3.23502">
        <ele>405.3330078125</ele>
        <time>2009-06-14T06:16:25Z</time>
      </trkpt>
      <trkpt lat="45.53764" lon="3.23454">
        <ele>404.85229492188</ele>
        <time>2009-06-14T06:16:30Z</time>
      </trkpt>
      <trkpt lat="45.53761" lon="3.23435">
        <ele>404.85229492188</ele>
        <time>2009-06-14T06:16:32Z</time>
      </trkpt>
      <trkpt lat="45.53751" lon="3.23399">
        <ele>404.37170410156</ele>
        <time>2009-06-14T06:16:36Z</time>
      </trkpt>
      <trkpt lat="45.53747" lon="3.23381">
        <ele>404.37170410156</ele>
        <time>2009-06-14T06:16:38Z</time>
      </trkpt>
      <trkpt lat="45.53746" lon="3.23372">
        <ele>404.37170410156</ele>
        <time>2009-06-14T06:16:39Z</time>
      </trkpt>
      <trkpt lat="45.53733" lon="3.23283">
        <ele>403.89111328125</ele>
        <time>2009-06-14T06:16:49Z</time>
      </trkpt>
      <trkpt lat="45.53732" lon="3.23258">
        <ele>404.37170410156</ele>
        <time>2009-06-14T06:16:52Z</time>
      </trkpt>
      <trkpt lat="45.53738" lon="3.23208">
        <ele>404.85229492188</ele>
        <time>2009-06-14T06:16:58Z</time>
      </trkpt>
      <trkpt lat="45.53743" lon="3.23177">
        <ele>404.85229492188</ele>
        <time>2009-06-14T06:17:02Z</time>
      </trkpt>
      <trkpt lat="45.53744" lon="3.23168">
        <ele>404.85229492188</ele>
        <time>2009-06-14T06:17:03Z</time>
      </trkpt>
      <trkpt lat="45.53739" lon="3.23094">
        <ele>405.81372070312</ele>
        <time>2009-06-14T06:17:12Z</time>
      </trkpt>
      <trkpt lat="45.53738" lon="3.23036">
        <ele>405.81372070312</ele>
        <time>2009-06-14T06:17:19Z</time>
      </trkpt>
      <trkpt lat="45.53737" lon="3.22993">
        <ele>405.3330078125</ele>
        <time>2009-06-14T06:17:24Z</time>
      </trkpt>
      <trkpt lat="45.53733" lon="3.22915">
        <ele>405.81372070312</ele>
        <time>2009-06-14T06:17:33Z</time>
      </trkpt>
      <trkpt lat="45.53733" lon="3.22906">
        <ele>405.3330078125</ele>
        <time>2009-06-14T06:17:34Z</time>
      </trkpt>
      <trkpt lat="45.53736" lon="3.22831">
        <ele>406.29431152344</ele>
        <time>2009-06-14T06:17:43Z</time>
      </trkpt>
      <trkpt lat="45.53723" lon="3.22775">
        <ele>406.77490234375</ele>
        <time>2009-06-14T06:17:50Z</time>
      </trkpt>
      <trkpt lat="45.5371" lon="3.22724">
        <ele>405.81372070312</ele>
        <time>2009-06-14T06:17:56Z</time>
      </trkpt>
      <trkpt lat="45.53704" lon="3.22688">
        <ele>406.29431152344</ele>
        <time>2009-06-14T06:18:00Z</time>
      </trkpt>
      <trkpt lat="45.5369" lon="3.22639">
        <ele>405.81372070312</ele>
        <time>2009-06-14T06:18:06Z</time>
      </trkpt>
      <trkpt lat="45.53677" lon="3.22594">
        <ele>407.25561523438</ele>
        <time>2009-06-14T06:18:12Z</time>
      </trkpt>
      <trkpt lat="45.53674" lon="3.22578">
        <ele>406.77490234375</ele>
        <time>2009-06-14T06:18:14Z</time>
      </trkpt>
      <trkpt lat="45.53675" lon="3.22519">
        <ele>406.77490234375</ele>
        <time>2009-06-14T06:18:21Z</time>
      </trkpt>
      <trkpt lat="45.53676" lon="3.22454">
        <ele>407.25561523438</ele>
        <time>2009-06-14T06:18:29Z</time>
      </trkpt>
      <trkpt lat="45.53676" lon="3.22415">
        <ele>407.736328125</ele>
        <time>2009-06-14T06:18:34Z</time>
      </trkpt>
      <trkpt lat="45.53675" lon="3.22352">
        <ele>407.25561523438</ele>
        <time>2009-06-14T06:18:42Z</time>
      </trkpt>
      <trkpt lat="45.53675" lon="3.22296">
        <ele>407.736328125</ele>
        <time>2009-06-14T06:18:49Z</time>
      </trkpt>
      <trkpt lat="45.53682" lon="3.2225">
        <ele>407.736328125</ele>
        <time>2009-06-14T06:18:55Z</time>
      </trkpt>
      <trkpt lat="45.53686" lon="3.22226">
        <ele>408.21704101562</ele>
        <time>2009-06-14T06:18:58Z</time>
      </trkpt>
      <trkpt lat="45.53685" lon="3.22193">
        <ele>408.21704101562</ele>
        <time>2009-06-14T06:19:02Z</time>
      </trkpt>
      <trkpt lat="45.53672" lon="3.22122">
        <ele>408.21704101562</ele>
        <time>2009-06-14T06:19:11Z</time>
      </trkpt>
      <trkpt lat="45.53662" lon="3.22059">
        <ele>409.17834472656</ele>
        <time>2009-06-14T06:19:19Z</time>
      </trkpt>
      <trkpt lat="45.53653" lon="3.21986">
        <ele>410.1396484375</ele>
        <time>2009-06-14T06:19:28Z</time>
      </trkpt>
      <trkpt lat="45.53642" lon="3.21905">
        <ele>410.62023925781</ele>
        <time>2009-06-14T06:19:38Z</time>
      </trkpt>
      <trkpt lat="45.53633" lon="3.21841">
        <ele>411.10095214844</ele>
        <time>2009-06-14T06:19:46Z</time>
      </trkpt>
      <trkpt lat="45.53624" lon="3.21768">
        <ele>412.06225585938</ele>
        <time>2009-06-14T06:19:55Z</time>
      </trkpt>
      <trkpt lat="45.53615" lon="3.21694">
        <ele>412.54284667969</ele>
        <time>2009-06-14T06:20:04Z</time>
      </trkpt>
      <trkpt lat="45.53606" lon="3.21591">
        <ele>413.02355957031</ele>
        <time>2009-06-14T06:20:16Z</time>
      </trkpt>
      <trkpt lat="45.536" lon="3.21524">
        <ele>413.98486328125</ele>
        <time>2009-06-14T06:20:24Z</time>
      </trkpt>
      <trkpt lat="45.53594" lon="3.21467">
        <ele>414.94616699219</ele>
        <time>2009-06-14T06:20:31Z</time>
      </trkpt>
      <trkpt lat="45.5358" lon="3.21438">
        <ele>416.86889648438</ele>
        <time>2009-06-14T06:20:36Z</time>
      </trkpt>
      <trkpt lat="45.53572" lon="3.21431">
        <ele>418.79150390625</ele>
        <time>2009-06-14T06:20:38Z</time>
      </trkpt>
      <trkpt lat="45.53561" lon="3.21405">
        <ele>418.79150390625</ele>
        <time>2009-06-14T06:20:43Z</time>
      </trkpt>
      <trkpt lat="45.53559" lon="3.21386">
        <ele>418.79150390625</ele>
        <time>2009-06-14T06:20:46Z</time>
      </trkpt>
      <trkpt lat="45.53558" lon="3.21334">
        <ele>418.79150390625</ele>
        <time>2009-06-14T06:20:53Z</time>
      </trkpt>
      <trkpt lat="45.53556" lon="3.21282">
        <ele>418.79150390625</ele>
        <time>2009-06-14T06:21:00Z</time>
      </trkpt>
      <trkpt lat="45.53555" lon="3.21229">
        <ele>420.2333984375</ele>
        <time>2009-06-14T06:21:07Z</time>
      </trkpt>
      <trkpt lat="45.53558" lon="3.2117">
        <ele>421.19482421875</ele>
        <time>2009-06-14T06:21:15Z</time>
      </trkpt>
      <trkpt lat="45.53561" lon="3.21151">
        <ele>423.11743164062</ele>
        <time>2009-06-14T06:21:18Z</time>
      </trkpt>
      <trkpt lat="45.53574" lon="3.21113">
        <ele>422.15600585938</ele>
        <time>2009-06-14T06:21:24Z</time>
      </trkpt>
      <trkpt lat="45.53594" lon="3.21067">
        <ele>419.27221679688</ele>
        <time>2009-06-14T06:21:31Z</time>
      </trkpt>
      <trkpt lat="45.53605" lon="3.21043">
        <ele>418.79150390625</ele>
        <time>2009-06-14T06:21:34Z</time>
      </trkpt>
      <trkpt lat="45.53622" lon="3.21002">
        <ele>417.349609375</ele>
        <time>2009-06-14T06:21:39Z</time>
      </trkpt>
      <trkpt lat="45.53642" lon="3.20962">
        <ele>416.86889648438</ele>
        <time>2009-06-14T06:21:44Z</time>
      </trkpt>
      <trkpt lat="45.53661" lon="3.20923">
        <ele>416.86889648438</ele>
        <time>2009-06-14T06:21:49Z</time>
      </trkpt>
      <trkpt lat="45.53691" lon="3.20863">
        <ele>418.31079101562</ele>
        <time>2009-06-14T06:21:57Z</time>
      </trkpt>
      <trkpt lat="45.53709" lon="3.20821">
        <ele>418.79150390625</ele>
        <time>2009-06-14T06:22:03Z</time>
      </trkpt>
      <trkpt lat="45.53726" lon="3.20787">
        <ele>418.79150390625</ele>
        <time>2009-06-14T06:22:08Z</time>
      </trkpt>
      <trkpt lat="45.53743" lon="3.20753">
        <ele>419.75280761719</ele>
        <time>2009-06-14T06:22:13Z</time>
      </trkpt>
      <trkpt lat="45.5377" lon="3.207">
        <ele>420.2333984375</ele>
        <time>2009-06-14T06:22:21Z</time>
      </trkpt>
      <trkpt lat="45.53793" lon="3.20647">
        <ele>418.79150390625</ele>
        <time>2009-06-14T06:22:28Z</time>
      </trkpt>
      <trkpt lat="45.5381" lon="3.20564">
        <ele>418.79150390625</ele>
        <time>2009-06-14T06:22:37Z</time>
      </trkpt>
      <trkpt lat="45.53824" lon="3.20501">
        <ele>418.79150390625</ele>
        <time>2009-06-14T06:22:44Z</time>
      </trkpt>
      <trkpt lat="45.5384" lon="3.20419">
        <ele>419.75280761719</ele>
        <time>2009-06-14T06:22:53Z</time>
      </trkpt>
      <trkpt lat="45.53856" lon="3.20349">
        <ele>421.19482421875</ele>
        <time>2009-06-14T06:23:01Z</time>
      </trkpt>
      <trkpt lat="45.53879" lon="3.20286">
        <ele>422.63671875</ele>
        <time>2009-06-14T06:23:09Z</time>
      </trkpt>
      <trkpt lat="45.53897" lon="3.20236">
        <ele>423.11743164062</ele>
        <time>2009-06-14T06:23:16Z</time>
      </trkpt>
      <trkpt lat="45.53915" lon="3.20193">
        <ele>422.15600585938</ele>
        <time>2009-06-14T06:23:22Z</time>
      </trkpt>
      <trkpt lat="45.53924" lon="3.2017">
        <ele>422.63671875</ele>
        <time>2009-06-14T06:23:25Z</time>
      </trkpt>
      <trkpt lat="45.53931" lon="3.20155">
        <ele>422.63671875</ele>
        <time>2009-06-14T06:23:27Z</time>
      </trkpt>
      <trkpt lat="45.53944" lon="3.2012">
        <ele>422.63671875</ele>
        <time>2009-06-14T06:23:32Z</time>
      </trkpt>
      <trkpt lat="45.5397" lon="3.20066">
        <ele>422.63671875</ele>
        <time>2009-06-14T06:23:40Z</time>
      </trkpt>
      <trkpt lat="45.53974" lon="3.2006">
        <ele>423.11743164062</ele>
        <time>2009-06-14T06:23:41Z</time>
      </trkpt>
      <trkpt lat="45.53984" lon="3.20042">
        <ele>424.07873535156</ele>
        <time>2009-06-14T06:23:44Z</time>
      </trkpt>
      <trkpt lat="45.54017" lon="3.20007">
        <ele>423.59802246094</ele>
        <time>2009-06-14T06:23:51Z</time>
      </trkpt>
      <trkpt lat="45.54066" lon="3.19964">
        <ele>423.59802246094</ele>
        <time>2009-06-14T06:24:00Z</time>
      </trkpt>
      <trkpt lat="45.54086" lon="3.19946">
        <ele>424.55944824219</ele>
        <time>2009-06-14T06:24:04Z</time>
      </trkpt>
      <trkpt lat="45.54104" lon="3.19915">
        <ele>425.52075195312</ele>
        <time>2009-06-14T06:24:09Z</time>
      </trkpt>
      <trkpt lat="45.54108" lon="3.19898">
        <ele>425.04016113281</ele>
        <time>2009-06-14T06:24:11Z</time>
      </trkpt>
      <trkpt lat="45.54113" lon="3.19856">
        <ele>425.52075195312</ele>
        <time>2009-06-14T06:24:16Z</time>
      </trkpt>
      <trkpt lat="45.54123" lon="3.19823">
        <ele>425.04016113281</ele>
        <time>2009-06-14T06:24:20Z</time>
      </trkpt>
      <trkpt lat="45.54151" lon="3.19757">
        <ele>426.00134277344</ele>
        <time>2009-06-14T06:24:29Z</time>
      </trkpt>
      <trkpt lat="45.54173" lon="3.19718">
        <ele>426.48205566406</ele>
        <time>2009-06-14T06:24:35Z</time>
      </trkpt>
      <trkpt lat="45.54216" lon="3.19683">
        <ele>426.48205566406</ele>
        <time>2009-06-14T06:24:43Z</time>
      </trkpt>
      <trkpt lat="45.54237" lon="3.1965">
        <ele>426.00134277344</ele>
        <time>2009-06-14T06:24:48Z</time>
      </trkpt>
      <trkpt lat="45.5425" lon="3.19609">
        <ele>426.00134277344</ele>
        <time>2009-06-14T06:24:53Z</time>
      </trkpt>
      <trkpt lat="45.54276" lon="3.19573">
        <ele>426.00134277344</ele>
        <time>2009-06-14T06:24:59Z</time>
      </trkpt>
      <trkpt lat="45.54311" lon="3.1954">
        <ele>426.48205566406</ele>
        <time>2009-06-14T06:25:06Z</time>
      </trkpt>
      <trkpt lat="45.54325" lon="3.19526">
        <ele>426.48205566406</ele>
        <time>2009-06-14T06:25:09Z</time>
      </trkpt>
      <trkpt lat="45.5434" lon="3.19501">
        <ele>426.96276855469</ele>
        <time>2009-06-14T06:25:13Z</time>
      </trkpt>
      <trkpt lat="45.54358" lon="3.19446">
        <ele>427.92395019531</ele>
        <time>2009-06-14T06:25:20Z</time>
      </trkpt>
      <trkpt lat="45.5436" lon="3.19437">
        <ele>427.443359375</ele>
        <time>2009-06-14T06:25:21Z</time>
      </trkpt>
      <trkpt lat="45.54369" lon="3.19369">
        <ele>428.40466308594</ele>
        <time>2009-06-14T06:25:29Z</time>
      </trkpt>
      <trkpt lat="45.5438" lon="3.19293">
        <ele>428.88537597656</ele>
        <time>2009-06-14T06:25:38Z</time>
      </trkpt>
      <trkpt lat="45.54392" lon="3.19253">
        <ele>430.32727050781</ele>
        <time>2009-06-14T06:25:43Z</time>
      </trkpt>
      <trkpt lat="45.54422" lon="3.19179">
        <ele>429.84655761719</ele>
        <time>2009-06-14T06:25:53Z</time>
      </trkpt>
      <trkpt lat="45.54432" lon="3.19148">
        <ele>430.32727050781</ele>
        <time>2009-06-14T06:25:57Z</time>
      </trkpt>
      <trkpt lat="45.54446" lon="3.19123">
        <ele>430.32727050781</ele>
        <time>2009-06-14T06:26:01Z</time>
      </trkpt>
      <trkpt lat="45.54481" lon="3.19076">
        <ele>430.32727050781</ele>
        <time>2009-06-14T06:26:09Z</time>
      </trkpt>
      <trkpt lat="45.54515" lon="3.19029">
        <ele>430.32727050781</ele>
        <time>2009-06-14T06:26:17Z</time>
      </trkpt>
      <trkpt lat="45.5455" lon="3.18974">
        <ele>430.32727050781</ele>
        <time>2009-06-14T06:26:26Z</time>
      </trkpt>
      <trkpt lat="45.54557" lon="3.1896">
        <ele>430.80798339844</ele>
        <time>2009-06-14T06:26:28Z</time>
      </trkpt>
      <trkpt lat="45.54564" lon="3.1893">
        <ele>430.80798339844</ele>
        <time>2009-06-14T06:26:32Z</time>
      </trkpt>
      <trkpt lat="45.54581" lon="3.18889">
        <ele>431.28857421875</ele>
        <time>2009-06-14T06:26:38Z</time>
      </trkpt>
      <trkpt lat="45.54584" lon="3.18882">
        <ele>431.28857421875</ele>
        <time>2009-06-14T06:26:39Z</time>
      </trkpt>
      <trkpt lat="45.54593" lon="3.18836">
        <ele>432.73071289062</ele>
        <time>2009-06-14T06:26:45Z</time>
      </trkpt>
      <trkpt lat="45.54596" lon="3.18812">
        <ele>432.25</ele>
        <time>2009-06-14T06:26:48Z</time>
      </trkpt>
      <trkpt lat="45.54599" lon="3.18796">
        <ele>432.25</ele>
        <time>2009-06-14T06:26:50Z</time>
      </trkpt>
      <trkpt lat="45.5461" lon="3.18767">
        <ele>432.25</ele>
        <time>2009-06-14T06:26:54Z</time>
      </trkpt>
      <trkpt lat="45.5463" lon="3.18728">
        <ele>432.25</ele>
        <time>2009-06-14T06:27:00Z</time>
      </trkpt>
      <trkpt lat="45.54638" lon="3.18699">
        <ele>432.73071289062</ele>
        <time>2009-06-14T06:27:04Z</time>
      </trkpt>
      <trkpt lat="45.54638" lon="3.18675">
        <ele>432.73071289062</ele>
        <time>2009-06-14T06:27:07Z</time>
      </trkpt>
      <trkpt lat="45.54633" lon="3.18641">
        <ele>433.21130371094</ele>
        <time>2009-06-14T06:27:12Z</time>
      </trkpt>
      <trkpt lat="45.54636" lon="3.1862">
        <ele>433.21130371094</ele>
        <time>2009-06-14T06:27:15Z</time>
      </trkpt>
      <trkpt lat="45.54643" lon="3.18599">
        <ele>433.21130371094</ele>
        <time>2009-06-14T06:27:18Z</time>
      </trkpt>
      <trkpt lat="45.54658" lon="3.18574">
        <ele>433.69189453125</ele>
        <time>2009-06-14T06:27:22Z</time>
      </trkpt>
      <trkpt lat="45.54667" lon="3.18564">
        <ele>434.17260742188</ele>
        <time>2009-06-14T06:27:24Z</time>
      </trkpt>
      <trkpt lat="45.54675" lon="3.18554">
        <ele>434.17260742188</ele>
        <time>2009-06-14T06:27:26Z</time>
      </trkpt>
      <trkpt lat="45.54684" lon="3.18525">
        <ele>434.6533203125</ele>
        <time>2009-06-14T06:27:30Z</time>
      </trkpt>
      <trkpt lat="45.54685" lon="3.18517">
        <ele>435.13391113281</ele>
        <time>2009-06-14T06:27:31Z</time>
      </trkpt>
      <trkpt lat="45.54685" lon="3.18475">
        <ele>437.537109375</ele>
        <time>2009-06-14T06:27:37Z</time>
      </trkpt>
      <trkpt lat="45.54685" lon="3.18468">
        <ele>438.01782226562</ele>
        <time>2009-06-14T06:27:38Z</time>
      </trkpt>
      <trkpt lat="45.54683" lon="3.18423">
        <ele>439.45971679688</ele>
        <time>2009-06-14T06:27:46Z</time>
      </trkpt>
      <trkpt lat="45.54685" lon="3.18396">
        <ele>438.49853515625</ele>
        <time>2009-06-14T06:27:50Z</time>
      </trkpt>
      <trkpt lat="45.54695" lon="3.18346">
        <ele>437.537109375</ele>
        <time>2009-06-14T06:27:57Z</time>
      </trkpt>
      <trkpt lat="45.5471" lon="3.18304">
        <ele>437.537109375</ele>
        <time>2009-06-14T06:28:04Z</time>
      </trkpt>
      <trkpt lat="45.54735" lon="3.18249">
        <ele>437.05651855469</ele>
        <time>2009-06-14T06:28:13Z</time>
      </trkpt>
      <trkpt lat="45.54743" lon="3.1823">
        <ele>437.537109375</ele>
        <time>2009-06-14T06:28:16Z</time>
      </trkpt>
      <trkpt lat="45.54748" lon="3.18195">
        <ele>438.01782226562</ele>
        <time>2009-06-14T06:28:21Z</time>
      </trkpt>
      <trkpt lat="45.54745" lon="3.18167">
        <ele>438.01782226562</ele>
        <time>2009-06-14T06:28:25Z</time>
      </trkpt>
      <trkpt lat="45.54744" lon="3.18115">
        <ele>438.49853515625</ele>
        <time>2009-06-14T06:28:33Z</time>
      </trkpt>
      <trkpt lat="45.54742" lon="3.1811">
        <ele>438.97912597656</ele>
        <time>2009-06-14T06:28:34Z</time>
      </trkpt>
      <trkpt lat="45.5473" lon="3.18104">
        <ele>439.45971679688</ele>
        <time>2009-06-14T06:28:38Z</time>
      </trkpt>
      <trkpt lat="45.54703" lon="3.18105">
        <ele>438.97912597656</ele>
        <time>2009-06-14T06:28:45Z</time>
      </trkpt>
      <trkpt lat="45.54676" lon="3.18105">
        <ele>439.9404296875</ele>
        <time>2009-06-14T06:28:51Z</time>
      </trkpt>
      <trkpt lat="45.54626" lon="3.18104">
        <ele>440.90185546875</ele>
        <time>2009-06-14T06:29:02Z</time>
      </trkpt>
      <trkpt lat="45.54589" lon="3.18104">
        <ele>441.38244628906</ele>
        <time>2009-06-14T06:29:10Z</time>
      </trkpt>
      <trkpt lat="45.54566" lon="3.18103">
        <ele>442.34387207031</ele>
        <time>2009-06-14T06:29:15Z</time>
      </trkpt>
      <trkpt lat="45.54516" lon="3.1811">
        <ele>444.26647949219</ele>
        <time>2009-06-14T06:29:26Z</time>
      </trkpt>
      <trkpt lat="45.5448" lon="3.18118">
        <ele>444.26647949219</ele>
        <time>2009-06-14T06:29:34Z</time>
      </trkpt>
      <trkpt lat="45.54459" lon="3.1812">
        <ele>446.18908691406</ele>
        <time>2009-06-14T06:29:39Z</time>
      </trkpt>
      <trkpt lat="45.54441" lon="3.18121">
        <ele>445.70837402344</ele>
        <time>2009-06-14T06:29:43Z</time>
      </trkpt>
      <trkpt lat="45.54424" lon="3.18126">
        <ele>447.63098144531</ele>
        <time>2009-06-14T06:29:47Z</time>
      </trkpt>
      <trkpt lat="45.54375" lon="3.18141">
        <ele>450.03442382812</ele>
        <time>2009-06-14T06:29:58Z</time>
      </trkpt>
      <trkpt lat="45.54337" lon="3.18148">
        <ele>452.43762207031</ele>
        <time>2009-06-14T06:30:07Z</time>
      </trkpt>
      <trkpt lat="45.54307" lon="3.18144">
        <ele>455.80224609375</ele>
        <time>2009-06-14T06:30:15Z</time>
      </trkpt>
      <trkpt lat="45.54281" lon="3.1813">
        <ele>455.80224609375</ele>
        <time>2009-06-14T06:30:22Z</time>
      </trkpt>
      <trkpt lat="45.54246" lon="3.18107">
        <ele>457.72497558594</ele>
        <time>2009-06-14T06:30:31Z</time>
      </trkpt>
      <trkpt lat="45.54213" lon="3.18087">
        <ele>459.16687011719</ele>
        <time>2009-06-14T06:30:40Z</time>
      </trkpt>
      <trkpt lat="45.54173" lon="3.18058">
        <ele>461.08947753906</ele>
        <time>2009-06-14T06:30:51Z</time>
      </trkpt>
      <trkpt lat="45.54142" lon="3.1803">
        <ele>464.4541015625</ele>
        <time>2009-06-14T06:31:00Z</time>
      </trkpt>
      <trkpt lat="45.54108" lon="3.18001">
        <ele>466.857421875</ele>
        <time>2009-06-14T06:31:10Z</time>
      </trkpt>
      <trkpt lat="45.54092" lon="3.17982">
        <ele>466.857421875</ele>
        <time>2009-06-14T06:31:16Z</time>
      </trkpt>
      <trkpt lat="45.54088" lon="3.17971">
        <ele>465.41552734375</ele>
        <time>2009-06-14T06:31:18Z</time>
      </trkpt>
      <trkpt lat="45.54077" lon="3.17921">
        <ele>463.01208496094</ele>
        <time>2009-06-14T06:31:24Z</time>
      </trkpt>
      <trkpt lat="45.54068" lon="3.17878">
        <ele>463.49279785156</ele>
        <time>2009-06-14T06:31:29Z</time>
      </trkpt>
      <trkpt lat="45.54057" lon="3.17819">
        <ele>463.97338867188</ele>
        <time>2009-06-14T06:31:36Z</time>
      </trkpt>
      <trkpt lat="45.54049" lon="3.17776">
        <ele>463.97338867188</ele>
        <time>2009-06-14T06:31:41Z</time>
      </trkpt>
      <trkpt lat="45.54034" lon="3.17702">
        <ele>464.93481445312</ele>
        <time>2009-06-14T06:31:50Z</time>
      </trkpt>
      <trkpt lat="45.54021" lon="3.17683">
        <ele>466.37670898438</ele>
        <time>2009-06-14T06:31:54Z</time>
      </trkpt>
      <trkpt lat="45.54014" lon="3.17683">
        <ele>466.857421875</ele>
        <time>2009-06-14T06:31:56Z</time>
      </trkpt>
      <trkpt lat="45.53996" lon="3.17683">
        <ele>469.74133300781</ele>
        <time>2009-06-14T06:32:01Z</time>
      </trkpt>
      <trkpt lat="45.53978" lon="3.17682">
        <ele>472.14465332031</ele>
        <time>2009-06-14T06:32:07Z</time>
      </trkpt>
      <trkpt lat="45.5397" lon="3.17681">
        <ele>473.10607910156</ele>
        <time>2009-06-14T06:32:10Z</time>
      </trkpt>
      <trkpt lat="45.53956" lon="3.17679">
        <ele>474.06726074219</ele>
        <time>2009-06-14T06:32:15Z</time>
      </trkpt>
      <trkpt lat="45.53938" lon="3.17677">
        <ele>475.02868652344</ele>
        <time>2009-06-14T06:32:21Z</time>
      </trkpt>
      <trkpt lat="45.53928" lon="3.17677">
        <ele>476.47058105469</ele>
        <time>2009-06-14T06:32:24Z</time>
      </trkpt>
      <trkpt lat="45.53904" lon="3.17676">
        <ele>478.87390136719</ele>
        <time>2009-06-14T06:32:32Z</time>
      </trkpt>
      <trkpt lat="45.53897" lon="3.17675">
        <ele>479.83508300781</ele>
        <time>2009-06-14T06:32:34Z</time>
      </trkpt>
      <trkpt lat="45.53873" lon="3.17673">
        <ele>481.7578125</ele>
        <time>2009-06-14T06:32:42Z</time>
      </trkpt>
      <trkpt lat="45.53849" lon="3.1767">
        <ele>482.71923828125</ele>
        <time>2009-06-14T06:32:49Z</time>
      </trkpt>
      <trkpt lat="45.53812" lon="3.17663">
        <ele>484.64184570312</ele>
        <time>2009-06-14T06:32:59Z</time>
      </trkpt>
      <trkpt lat="45.53779" lon="3.17658">
        <ele>485.60302734375</ele>
        <time>2009-06-14T06:33:08Z</time>
      </trkpt>
      <trkpt lat="45.53738" lon="3.17652">
        <ele>487.04504394531</ele>
        <time>2009-06-14T06:33:19Z</time>
      </trkpt>
      <trkpt lat="45.53713" lon="3.17645">
        <ele>488.48718261719</ele>
        <time>2009-06-14T06:33:26Z</time>
      </trkpt>
      <trkpt lat="45.53705" lon="3.17631">
        <ele>489.44836425781</ele>
        <time>2009-06-14T06:33:30Z</time>
      </trkpt>
      <trkpt lat="45.53696" lon="3.17588">
        <ele>491.37097167969</ele>
        <time>2009-06-14T06:33:39Z</time>
      </trkpt>
      <trkpt lat="45.53687" lon="3.17541">
        <ele>493.77429199219</ele>
        <time>2009-06-14T06:33:49Z</time>
      </trkpt>
      <trkpt lat="45.53679" lon="3.17497">
        <ele>496.65832519531</ele>
        <time>2009-06-14T06:33:58Z</time>
      </trkpt>
      <trkpt lat="45.5367" lon="3.17443">
        <ele>497.13891601562</ele>
        <time>2009-06-14T06:34:08Z</time>
      </trkpt>
      <trkpt lat="45.53659" lon="3.1738">
        <ele>497.13891601562</ele>
        <time>2009-06-14T06:34:18Z</time>
      </trkpt>
      <trkpt lat="45.53649" lon="3.17328">
        <ele>497.13891601562</ele>
        <time>2009-06-14T06:34:26Z</time>
      </trkpt>
      <trkpt lat="45.53637" lon="3.17261">
        <ele>497.13891601562</ele>
        <time>2009-06-14T06:34:36Z</time>
      </trkpt>
      <trkpt lat="45.5363" lon="3.172">
        <ele>497.61962890625</ele>
        <time>2009-06-14T06:34:45Z</time>
      </trkpt>
      <trkpt lat="45.53629" lon="3.17156">
        <ele>499.0615234375</ele>
        <time>2009-06-14T06:34:52Z</time>
      </trkpt>
      <trkpt lat="45.53632" lon="3.17126">
        <ele>500.50354003906</ele>
        <time>2009-06-14T06:34:58Z</time>
      </trkpt>
      <trkpt lat="45.53643" lon="3.17072">
        <ele>503.8681640625</ele>
        <time>2009-06-14T06:35:09Z</time>
      </trkpt>
      <trkpt lat="45.53643" lon="3.17068">
        <ele>504.34887695312</ele>
        <time>2009-06-14T06:35:10Z</time>
      </trkpt>
      <trkpt lat="45.53649" lon="3.1704">
        <ele>507.71350097656</ele>
        <time>2009-06-14T06:35:16Z</time>
      </trkpt>
      <trkpt lat="45.53655" lon="3.17008">
        <ele>509.15539550781</ele>
        <time>2009-06-14T06:35:23Z</time>
      </trkpt>
      <trkpt lat="45.53659" lon="3.1699">
        <ele>511.07800292969</ele>
        <time>2009-06-14T06:35:27Z</time>
      </trkpt>
      <trkpt lat="45.53666" lon="3.16952">
        <ele>512.03942871094</ele>
        <time>2009-06-14T06:35:35Z</time>
      </trkpt>
      <trkpt lat="45.53673" lon="3.16901">
        <ele>513.96203613281</ele>
        <time>2009-06-14T06:35:45Z</time>
      </trkpt>
      <trkpt lat="45.53672" lon="3.16886">
        <ele>514.44262695312</ele>
        <time>2009-06-14T06:35:48Z</time>
      </trkpt>
      <trkpt lat="45.53663" lon="3.16833">
        <ele>515.40405273438</ele>
        <time>2009-06-14T06:35:57Z</time>
      </trkpt>
      <trkpt lat="45.53655" lon="3.16775">
        <ele>515.40405273438</ele>
        <time>2009-06-14T06:36:06Z</time>
      </trkpt>
      <trkpt lat="45.5365" lon="3.16729">
        <ele>514.92333984375</ele>
        <time>2009-06-14T06:36:12Z</time>
      </trkpt>
      <trkpt lat="45.53643" lon="3.16682">
        <ele>512.52001953125</ele>
        <time>2009-06-14T06:36:17Z</time>
      </trkpt>
      <trkpt lat="45.53639" lon="3.16646">
        <ele>513.00073242188</ele>
        <time>2009-06-14T06:36:21Z</time>
      </trkpt>
      <trkpt lat="45.53634" lon="3.16599">
        <ele>512.52001953125</ele>
        <time>2009-06-14T06:36:27Z</time>
      </trkpt>
      <trkpt lat="45.53627" lon="3.1655">
        <ele>513.4814453125</ele>
        <time>2009-06-14T06:36:33Z</time>
      </trkpt>
      <trkpt lat="45.53622" lon="3.16512">
        <ele>513.4814453125</ele>
        <time>2009-06-14T06:36:38Z</time>
      </trkpt>
      <trkpt lat="45.53616" lon="3.16465">
        <ele>513.96203613281</ele>
        <time>2009-06-14T06:36:44Z</time>
      </trkpt>
      <trkpt lat="45.53606" lon="3.16394">
        <ele>513.96203613281</ele>
        <time>2009-06-14T06:36:53Z</time>
      </trkpt>
      <trkpt lat="45.53595" lon="3.16366">
        <ele>513.96203613281</ele>
        <time>2009-06-14T06:36:57Z</time>
      </trkpt>
      <trkpt lat="45.53582" lon="3.16348">
        <ele>513.96203613281</ele>
        <time>2009-06-14T06:37:00Z</time>
      </trkpt>
      <trkpt lat="45.53571" lon="3.16325">
        <ele>512.03942871094</ele>
        <time>2009-06-14T06:37:03Z</time>
      </trkpt>
      <trkpt lat="45.53569" lon="3.16316">
        <ele>512.52001953125</ele>
        <time>2009-06-14T06:37:04Z</time>
      </trkpt>
      <trkpt lat="45.53557" lon="3.16271">
        <ele>515.40405273438</ele>
        <time>2009-06-14T06:37:10Z</time>
      </trkpt>
      <trkpt lat="45.53553" lon="3.1626">
        <ele>517.32666015625</ele>
        <time>2009-06-14T06:37:12Z</time>
      </trkpt>
      <trkpt lat="45.53547" lon="3.16238">
        <ele>519.24926757812</ele>
        <time>2009-06-14T06:37:16Z</time>
      </trkpt>
      <trkpt lat="45.53544" lon="3.16227">
        <ele>519.24926757812</ele>
        <time>2009-06-14T06:37:18Z</time>
      </trkpt>
      <trkpt lat="45.5354" lon="3.16217">
        <ele>519.24926757812</ele>
        <time>2009-06-14T06:37:20Z</time>
      </trkpt>
      <trkpt lat="45.53537" lon="3.16207">
        <ele>520.21057128906</ele>
        <time>2009-06-14T06:37:22Z</time>
      </trkpt>
      <trkpt lat="45.53528" lon="3.16178">
        <ele>520.21057128906</ele>
        <time>2009-06-14T06:37:27Z</time>
      </trkpt>
      <trkpt lat="45.53509" lon="3.16119">
        <ele>522.13317871094</ele>
        <time>2009-06-14T06:37:37Z</time>
      </trkpt>
      <trkpt lat="45.53504" lon="3.16093">
        <ele>520.69128417969</ele>
        <time>2009-06-14T06:37:42Z</time>
      </trkpt>
      <trkpt lat="45.53501" lon="3.16074">
        <ele>520.21057128906</ele>
        <time>2009-06-14T06:37:45Z</time>
      </trkpt>
      <trkpt lat="45.53497" lon="3.1605">
        <ele>518.7685546875</ele>
        <time>2009-06-14T06:37:48Z</time>
      </trkpt>
      <trkpt lat="45.53488" lon="3.16022">
        <ele>515.40405273438</ele>
        <time>2009-06-14T06:37:51Z</time>
      </trkpt>
      <trkpt lat="45.53468" lon="3.15984">
        <ele>518.28784179688</ele>
        <time>2009-06-14T06:37:56Z</time>
      </trkpt>
      <trkpt lat="45.53465" lon="3.15978">
        <ele>518.28784179688</ele>
        <time>2009-06-14T06:37:57Z</time>
      </trkpt>
      <trkpt lat="45.53456" lon="3.15964">
        <ele>520.21057128906</ele>
        <time>2009-06-14T06:38:00Z</time>
      </trkpt>
      <trkpt lat="45.53438" lon="3.15934">
        <ele>522.13317871094</ele>
        <time>2009-06-14T06:38:07Z</time>
      </trkpt>
      <trkpt lat="45.53416" lon="3.15897">
        <ele>522.13317871094</ele>
        <time>2009-06-14T06:38:15Z</time>
      </trkpt>
      <trkpt lat="45.53405" lon="3.15883">
        <ele>521.65258789062</ele>
        <time>2009-06-14T06:38:18Z</time>
      </trkpt>
      <trkpt lat="45.53393" lon="3.15861">
        <ele>522.13317871094</ele>
        <time>2009-06-14T06:38:22Z</time>
      </trkpt>
      <trkpt lat="45.53381" lon="3.15828">
        <ele>521.17199707031</ele>
        <time>2009-06-14T06:38:27Z</time>
      </trkpt>
      <trkpt lat="45.53377" lon="3.15817">
        <ele>522.13317871094</ele>
        <time>2009-06-14T06:38:29Z</time>
      </trkpt>
      <trkpt lat="45.53367" lon="3.15786">
        <ele>525.01721191406</ele>
        <time>2009-06-14T06:38:35Z</time>
      </trkpt>
      <trkpt lat="45.53367" lon="3.15782">
        <ele>525.49780273438</ele>
        <time>2009-06-14T06:38:36Z</time>
      </trkpt>
      <trkpt lat="45.5338" lon="3.1576">
        <ele>526.45910644531</ele>
        <time>2009-06-14T06:38:42Z</time>
      </trkpt>
      <trkpt lat="45.53392" lon="3.15759">
        <ele>527.42041015625</ele>
        <time>2009-06-14T06:38:46Z</time>
      </trkpt>
      <trkpt lat="45.53402" lon="3.15774">
        <ele>527.42041015625</ele>
        <time>2009-06-14T06:38:50Z</time>
      </trkpt>
      <trkpt lat="45.5341" lon="3.15789">
        <ele>525.97839355469</ele>
        <time>2009-06-14T06:38:53Z</time>
      </trkpt>
      <trkpt lat="45.53421" lon="3.15803">
        <ele>525.49780273438</ele>
        <time>2009-06-14T06:38:56Z</time>
      </trkpt>
      <trkpt lat="45.53456" lon="3.15827">
        <ele>526.93981933594</ele>
        <time>2009-06-14T06:39:04Z</time>
      </trkpt>
      <trkpt lat="45.53492" lon="3.15853">
        <ele>526.93981933594</ele>
        <time>2009-06-14T06:39:12Z</time>
      </trkpt>
      <trkpt lat="45.53523" lon="3.15877">
        <ele>527.42041015625</ele>
        <time>2009-06-14T06:39:19Z</time>
      </trkpt>
      <trkpt lat="45.53549" lon="3.1591">
        <ele>527.90100097656</ele>
        <time>2009-06-14T06:39:26Z</time>
      </trkpt>
      <trkpt lat="45.53565" lon="3.15928">
        <ele>527.90100097656</ele>
        <time>2009-06-14T06:39:32Z</time>
      </trkpt>
      <trkpt lat="45.53576" lon="3.1592">
        <ele>528.86254882812</ele>
        <time>2009-06-14T06:39:36Z</time>
      </trkpt>
      <trkpt lat="45.53595" lon="3.15897">
        <ele>529.82373046875</ele>
        <time>2009-06-14T06:39:43Z</time>
      </trkpt>
      <trkpt lat="45.53609" lon="3.15871">
        <ele>531.74633789062</ele>
        <time>2009-06-14T06:39:50Z</time>
      </trkpt>
      <trkpt lat="45.53617" lon="3.15844">
        <ele>533.6689453125</ele>
        <time>2009-06-14T06:39:57Z</time>
      </trkpt>
      <trkpt lat="45.53618" lon="3.15824">
        <ele>535.59155273438</ele>
        <time>2009-06-14T06:40:02Z</time>
      </trkpt>
      <trkpt lat="45.53615" lon="3.158">
        <ele>536.55310058594</ele>
        <time>2009-06-14T06:40:08Z</time>
      </trkpt>
      <trkpt lat="45.53612" lon="3.15774">
        <ele>538.95629882812</ele>
        <time>2009-06-14T06:40:15Z</time>
      </trkpt>
      <trkpt lat="45.53613" lon="3.15768">
        <ele>539.91760253906</ele>
        <time>2009-06-14T06:40:17Z</time>
      </trkpt>
      <trkpt lat="45.53614" lon="3.1575">
        <ele>541.84020996094</ele>
        <time>2009-06-14T06:40:22Z</time>
      </trkpt>
      <trkpt lat="45.53604" lon="3.15731">
        <ele>542.80151367188</ele>
        <time>2009-06-14T06:40:28Z</time>
      </trkpt>
      <trkpt lat="45.53601" lon="3.15728">
        <ele>542.80151367188</ele>
        <time>2009-06-14T06:40:29Z</time>
      </trkpt>
      <trkpt lat="45.53576" lon="3.15707">
        <ele>543.76281738281</ele>
        <time>2009-06-14T06:40:37Z</time>
      </trkpt>
      <trkpt lat="45.53563" lon="3.15695">
        <ele>543.76281738281</ele>
        <time>2009-06-14T06:40:41Z</time>
      </trkpt>
      <trkpt lat="45.53533" lon="3.15665">
        <ele>545.20483398438</ele>
        <time>2009-06-14T06:40:50Z</time>
      </trkpt>
      <trkpt lat="45.5351" lon="3.15638">
        <ele>546.64685058594</ele>
        <time>2009-06-14T06:40:58Z</time>
      </trkpt>
      <trkpt lat="45.53492" lon="3.15611">
        <ele>548.0888671875</ele>
        <time>2009-06-14T06:41:06Z</time>
      </trkpt>
      <trkpt lat="45.53473" lon="3.15577">
        <ele>550.01147460938</ele>
        <time>2009-06-14T06:41:15Z</time>
      </trkpt>
      <trkpt lat="45.53459" lon="3.15552">
        <ele>551.93408203125</ele>
        <time>2009-06-14T06:41:22Z</time>
      </trkpt>
      <trkpt lat="45.53444" lon="3.15525">
        <ele>554.33740234375</ele>
        <time>2009-06-14T06:41:30Z</time>
      </trkpt>
      <trkpt lat="45.53431" lon="3.15498">
        <ele>556.26000976562</ele>
        <time>2009-06-14T06:41:38Z</time>
      </trkpt>
      <trkpt lat="45.53419" lon="3.15477">
        <ele>557.22143554688</ele>
        <time>2009-06-14T06:41:45Z</time>
      </trkpt>
      <trkpt lat="45.53408" lon="3.15456">
        <ele>559.14404296875</ele>
        <time>2009-06-14T06:41:52Z</time>
      </trkpt>
      <trkpt lat="45.53397" lon="3.15436">
        <ele>560.5859375</ele>
        <time>2009-06-14T06:41:59Z</time>
      </trkpt>
      <trkpt lat="45.53384" lon="3.15414">
        <ele>563.95043945312</ele>
        <time>2009-06-14T06:42:07Z</time>
      </trkpt>
      <trkpt lat="45.53373" lon="3.15399">
        <ele>564.91186523438</ele>
        <time>2009-06-14T06:42:13Z</time>
      </trkpt>
      <trkpt lat="45.53357" lon="3.15385">
        <ele>566.83447265625</ele>
        <time>2009-06-14T06:42:20Z</time>
      </trkpt>
      <trkpt lat="45.53344" lon="3.15372">
        <ele>567.79565429688</ele>
        <time>2009-06-14T06:42:26Z</time>
      </trkpt>
      <trkpt lat="45.53333" lon="3.15361">
        <ele>569.23779296875</ele>
        <time>2009-06-14T06:42:32Z</time>
      </trkpt>
      <trkpt lat="45.53325" lon="3.15352">
        <ele>570.19897460938</ele>
        <time>2009-06-14T06:42:37Z</time>
      </trkpt>
      <trkpt lat="45.53312" lon="3.15336">
        <ele>571.64086914062</ele>
        <time>2009-06-14T06:42:44Z</time>
      </trkpt>
      <trkpt lat="45.53298" lon="3.15316">
        <ele>574.04443359375</ele>
        <time>2009-06-14T06:42:52Z</time>
      </trkpt>
      <trkpt lat="45.53287" lon="3.15298">
        <ele>575.005859375</ele>
        <time>2009-06-14T06:42:59Z</time>
      </trkpt>
      <trkpt lat="45.53273" lon="3.1527">
        <ele>576.44775390625</ele>
        <time>2009-06-14T06:43:09Z</time>
      </trkpt>
      <trkpt lat="45.5327" lon="3.15261">
        <ele>577.8896484375</ele>
        <time>2009-06-14T06:43:12Z</time>
      </trkpt>
      <trkpt lat="45.53267" lon="3.15249">
        <ele>579.81225585938</ele>
        <time>2009-06-14T06:43:16Z</time>
      </trkpt>
      <trkpt lat="45.53265" lon="3.15226">
        <ele>581.25439453125</ele>
        <time>2009-06-14T06:43:23Z</time>
      </trkpt>
      <trkpt lat="45.53265" lon="3.15204">
        <ele>582.6962890625</ele>
        <time>2009-06-14T06:43:30Z</time>
      </trkpt>
      <trkpt lat="45.53263" lon="3.15179">
        <ele>584.61889648438</ele>
        <time>2009-06-14T06:43:37Z</time>
      </trkpt>
      <trkpt lat="45.53257" lon="3.15158">
        <ele>586.06079101562</ele>
        <time>2009-06-14T06:43:43Z</time>
      </trkpt>
      <trkpt lat="45.53247" lon="3.1513">
        <ele>586.54150390625</ele>
        <time>2009-06-14T06:43:51Z</time>
      </trkpt>
      <trkpt lat="45.53238" lon="3.15107">
        <ele>588.46435546875</ele>
        <time>2009-06-14T06:43:58Z</time>
      </trkpt>
      <trkpt lat="45.53229" lon="3.15082">
        <ele>589.42553710938</ele>
        <time>2009-06-14T06:44:06Z</time>
      </trkpt>
      <trkpt lat="45.53221" lon="3.15057">
        <ele>591.34814453125</ele>
        <time>2009-06-14T06:44:14Z</time>
      </trkpt>
      <trkpt lat="45.53213" lon="3.15034">
        <ele>593.75146484375</ele>
        <time>2009-06-14T06:44:21Z</time>
      </trkpt>
      <trkpt lat="45.53204" lon="3.15016">
        <ele>594.71264648438</ele>
        <time>2009-06-14T06:44:27Z</time>
      </trkpt>
      <trkpt lat="45.53195" lon="3.14997">
        <ele>595.67407226562</ele>
        <time>2009-06-14T06:44:33Z</time>
      </trkpt>
      <trkpt lat="45.53183" lon="3.14973">
        <ele>596.15478515625</ele>
        <time>2009-06-14T06:44:40Z</time>
      </trkpt>
      <trkpt lat="45.5317" lon="3.14944">
        <ele>597.5966796875</ele>
        <time>2009-06-14T06:44:48Z</time>
      </trkpt>
      <trkpt lat="45.5316" lon="3.14917">
        <ele>599.03857421875</ele>
        <time>2009-06-14T06:44:55Z</time>
      </trkpt>
      <trkpt lat="45.53148" lon="3.14885">
        <ele>600.48071289062</ele>
        <time>2009-06-14T06:45:04Z</time>
      </trkpt>
      <trkpt lat="45.5314" lon="3.14863">
        <ele>601.44189453125</ele>
        <time>2009-06-14T06:45:10Z</time>
      </trkpt>
      <trkpt lat="45.53125" lon="3.14845">
        <ele>602.8837890625</ele>
        <time>2009-06-14T06:45:16Z</time>
      </trkpt>
      <trkpt lat="45.53098" lon="3.1483">
        <ele>604.326171875</ele>
        <time>2009-06-14T06:45:25Z</time>
      </trkpt>
      <trkpt lat="45.53071" lon="3.14811">
        <ele>604.806640625</ele>
        <time>2009-06-14T06:45:34Z</time>
      </trkpt>
      <trkpt lat="45.53056" lon="3.1479">
        <ele>606.72924804688</ele>
        <time>2009-06-14T06:45:41Z</time>
      </trkpt>
      <trkpt lat="45.53054" lon="3.14769">
        <ele>607.69067382812</ele>
        <time>2009-06-14T06:45:47Z</time>
      </trkpt>
      <trkpt lat="45.53056" lon="3.14745">
        <ele>609.61328125</ele>
        <time>2009-06-14T06:45:54Z</time>
      </trkpt>
      <trkpt lat="45.53059" lon="3.14716">
        <ele>611.05517578125</ele>
        <time>2009-06-14T06:46:02Z</time>
      </trkpt>
      <trkpt lat="45.53057" lon="3.14676">
        <ele>612.4970703125</ele>
        <time>2009-06-14T06:46:12Z</time>
      </trkpt>
      <trkpt lat="45.53053" lon="3.14641">
        <ele>613.93896484375</ele>
        <time>2009-06-14T06:46:20Z</time>
      </trkpt>
      <trkpt lat="45.53048" lon="3.14607">
        <ele>614.900390625</ele>
        <time>2009-06-14T06:46:28Z</time>
      </trkpt>
      <trkpt lat="45.53048" lon="3.14576">
        <ele>615.86181640625</ele>
        <time>2009-06-14T06:46:35Z</time>
      </trkpt>
      <trkpt lat="45.53049" lon="3.14548">
        <ele>615.86181640625</ele>
        <time>2009-06-14T06:46:41Z</time>
      </trkpt>
      <trkpt lat="45.5305" lon="3.14518">
        <ele>618.74560546875</ele>
        <time>2009-06-14T06:46:48Z</time>
      </trkpt>
      <trkpt lat="45.53051" lon="3.14495">
        <ele>619.70703125</ele>
        <time>2009-06-14T06:46:54Z</time>
      </trkpt>
      <trkpt lat="45.53056" lon="3.14466">
        <ele>621.14916992188</ele>
        <time>2009-06-14T06:47:01Z</time>
      </trkpt>
      <trkpt lat="45.53065" lon="3.14438">
        <ele>622.59106445312</ele>
        <time>2009-06-14T06:47:08Z</time>
      </trkpt>
      <trkpt lat="45.53081" lon="3.14402">
        <ele>623.55249023438</ele>
        <time>2009-06-14T06:47:17Z</time>
      </trkpt>
      <trkpt lat="45.53087" lon="3.14369">
        <ele>624.513671875</ele>
        <time>2009-06-14T06:47:24Z</time>
      </trkpt>
      <trkpt lat="45.53089" lon="3.14332">
        <ele>625.47485351562</ele>
        <time>2009-06-14T06:47:32Z</time>
      </trkpt>
      <trkpt lat="45.53089" lon="3.14292">
        <ele>626.9169921875</ele>
        <time>2009-06-14T06:47:41Z</time>
      </trkpt>
      <trkpt lat="45.53083" lon="3.14258">
        <ele>627.87817382812</ele>
        <time>2009-06-14T06:47:49Z</time>
      </trkpt>
      <trkpt lat="45.53078" lon="3.14231">
        <ele>631.24291992188</ele>
        <time>2009-06-14T06:47:56Z</time>
      </trkpt>
      <trkpt lat="45.53073" lon="3.14211">
        <ele>633.16528320312</ele>
        <time>2009-06-14T06:48:02Z</time>
      </trkpt>
      <trkpt lat="45.53068" lon="3.1419">
        <ele>635.08813476562</ele>
        <time>2009-06-14T06:48:08Z</time>
      </trkpt>
      <trkpt lat="45.53058" lon="3.14156">
        <ele>638.45288085938</ele>
        <time>2009-06-14T06:48:18Z</time>
      </trkpt>
      <trkpt lat="45.53057" lon="3.14153">
        <ele>638.45288085938</ele>
        <time>2009-06-14T06:48:19Z</time>
      </trkpt>
      <trkpt lat="45.5305" lon="3.14126">
        <ele>639.89477539062</ele>
        <time>2009-06-14T06:48:27Z</time>
      </trkpt>
      <trkpt lat="45.53045" lon="3.14091">
        <ele>641.33666992188</ele>
        <time>2009-06-14T06:48:36Z</time>
      </trkpt>
      <trkpt lat="45.53041" lon="3.14061">
        <ele>641.8173828125</ele>
        <time>2009-06-14T06:48:43Z</time>
      </trkpt>
      <trkpt lat="45.53033" lon="3.1402">
        <ele>642.29809570312</ele>
        <time>2009-06-14T06:48:52Z</time>
      </trkpt>
      <trkpt lat="45.53031" lon="3.13993">
        <ele>641.8173828125</ele>
        <time>2009-06-14T06:48:58Z</time>
      </trkpt>
      <trkpt lat="45.53031" lon="3.13965">
        <ele>641.33666992188</ele>
        <time>2009-06-14T06:49:04Z</time>
      </trkpt>
      <trkpt lat="45.53031" lon="3.13951">
        <ele>641.8173828125</ele>
        <time>2009-06-14T06:49:08Z</time>
      </trkpt>
      <trkpt lat="45.53027" lon="3.13938">
        <ele>642.77880859375</ele>
        <time>2009-06-14T06:49:13Z</time>
      </trkpt>
      <trkpt lat="45.53027" lon="3.13937">
        <ele>643.25927734375</ele>
        <time>2009-06-14T06:49:17Z</time>
      </trkpt>
      <trkpt lat="45.53027" lon="3.13937">
        <ele>643.73999023438</ele>
        <time>2009-06-14T06:49:22Z</time>
      </trkpt>
      <trkpt lat="45.53027" lon="3.13937">
        <ele>642.77880859375</ele>
        <time>2009-06-14T06:49:31Z</time>
      </trkpt>
      <trkpt lat="45.53027" lon="3.13937">
        <ele>643.25927734375</ele>
        <time>2009-06-14T06:49:41Z</time>
      </trkpt>
      <trkpt lat="45.53027" lon="3.13937">
        <ele>642.77880859375</ele>
        <time>2009-06-14T06:49:44Z</time>
      </trkpt>
      <trkpt lat="45.53027" lon="3.13937">
        <ele>642.77880859375</ele>
        <time>2009-06-14T06:49:45Z</time>
      </trkpt>
      <trkpt lat="45.53026" lon="3.13936">
        <ele>642.29809570312</ele>
        <time>2009-06-14T06:50:09Z</time>
      </trkpt>
      <trkpt lat="45.53026" lon="3.13935">
        <ele>642.29809570312</ele>
        <time>2009-06-14T06:50:10Z</time>
      </trkpt>
      <trkpt lat="45.53027" lon="3.13937">
        <ele>642.29809570312</ele>
        <time>2009-06-14T06:50:47Z</time>
      </trkpt>
      <trkpt lat="45.53026" lon="3.13937">
        <ele>641.8173828125</ele>
        <time>2009-06-14T06:50:58Z</time>
      </trkpt>
      <trkpt lat="45.53023" lon="3.13934">
        <ele>642.77880859375</ele>
        <time>2009-06-14T06:51:01Z</time>
      </trkpt>
      <trkpt lat="45.53017" lon="3.13929">
        <ele>642.29809570312</ele>
        <time>2009-06-14T06:51:06Z</time>
      </trkpt>
      <trkpt lat="45.5301" lon="3.13928">
        <ele>641.8173828125</ele>
        <time>2009-06-14T06:51:09Z</time>
      </trkpt>
      <trkpt lat="45.52996" lon="3.13926">
        <ele>640.37548828125</ele>
        <time>2009-06-14T06:51:13Z</time>
      </trkpt>
      <trkpt lat="45.52993" lon="3.13926">
        <ele>639.4140625</ele>
        <time>2009-06-14T06:51:14Z</time>
      </trkpt>
      <trkpt lat="45.52985" lon="3.13924">
        <ele>638.45288085938</ele>
        <time>2009-06-14T06:51:16Z</time>
      </trkpt>
      <trkpt lat="45.52972" lon="3.13921">
        <ele>637.49145507812</ele>
        <time>2009-06-14T06:51:19Z</time>
      </trkpt>
      <trkpt lat="45.52961" lon="3.1392">
        <ele>636.5302734375</ele>
        <time>2009-06-14T06:51:21Z</time>
      </trkpt>
      <trkpt lat="45.52951" lon="3.1392">
        <ele>635.56860351562</ele>
        <time>2009-06-14T06:51:23Z</time>
      </trkpt>
      <trkpt lat="45.52934" lon="3.13923">
        <ele>635.08813476562</ele>
        <time>2009-06-14T06:51:26Z</time>
      </trkpt>
      <trkpt lat="45.52911" lon="3.13934">
        <ele>633.16528320312</ele>
        <time>2009-06-14T06:51:30Z</time>
      </trkpt>
      <trkpt lat="45.52899" lon="3.1394">
        <ele>631.24291992188</ele>
        <time>2009-06-14T06:51:32Z</time>
      </trkpt>
      <trkpt lat="45.52878" lon="3.13944">
        <ele>629.80078125</ele>
        <time>2009-06-14T06:51:35Z</time>
      </trkpt>
      <trkpt lat="45.52837" lon="3.13943">
        <ele>624.513671875</ele>
        <time>2009-06-14T06:51:40Z</time>
      </trkpt>
      <trkpt lat="45.52811" lon="3.13949">
        <ele>620.18774414062</ele>
        <time>2009-06-14T06:51:43Z</time>
      </trkpt>
      <trkpt lat="45.52794" lon="3.13953">
        <ele>618.26489257812</ele>
        <time>2009-06-14T06:51:45Z</time>
      </trkpt>
      <trkpt lat="45.52785" lon="3.13955">
        <ele>617.3037109375</ele>
        <time>2009-06-14T06:51:46Z</time>
      </trkpt>
      <trkpt lat="45.52759" lon="3.13953">
        <ele>615.38110351562</ele>
        <time>2009-06-14T06:51:49Z</time>
      </trkpt>
      <trkpt lat="45.52734" lon="3.13946">
        <ele>612.97778320312</ele>
        <time>2009-06-14T06:51:52Z</time>
      </trkpt>
      <trkpt lat="45.52726" lon="3.13941">
        <ele>612.0166015625</ele>
        <time>2009-06-14T06:51:53Z</time>
      </trkpt>
      <trkpt lat="45.52713" lon="3.13929">
        <ele>611.53588867188</ele>
        <time>2009-06-14T06:51:55Z</time>
      </trkpt>
      <trkpt lat="45.52686" lon="3.13923">
        <ele>608.17138671875</ele>
        <time>2009-06-14T06:51:59Z</time>
      </trkpt>
      <trkpt lat="45.52649" lon="3.13926">
        <ele>607.2099609375</ele>
        <time>2009-06-14T06:52:05Z</time>
      </trkpt>
      <trkpt lat="45.52621" lon="3.13926">
        <ele>608.65185546875</ele>
        <time>2009-06-14T06:52:10Z</time>
      </trkpt>
      <trkpt lat="45.52616" lon="3.13926">
        <ele>608.65185546875</ele>
        <time>2009-06-14T06:52:11Z</time>
      </trkpt>
      <trkpt lat="45.52596" lon="3.13927">
        <ele>610.57446289062</ele>
        <time>2009-06-14T06:52:16Z</time>
      </trkpt>
      <trkpt lat="45.52582" lon="3.13934">
        <ele>612.0166015625</ele>
        <time>2009-06-14T06:52:20Z</time>
      </trkpt>
      <trkpt lat="45.52553" lon="3.13957">
        <ele>613.45849609375</ele>
        <time>2009-06-14T06:52:29Z</time>
      </trkpt>
      <trkpt lat="45.52524" lon="3.13976">
        <ele>614.41967773438</ele>
        <time>2009-06-14T06:52:37Z</time>
      </trkpt>
      <trkpt lat="45.52501" lon="3.13986">
        <ele>616.34228515625</ele>
        <time>2009-06-14T06:52:43Z</time>
      </trkpt>
      <trkpt lat="45.52489" lon="3.13991">
        <ele>616.34228515625</ele>
        <time>2009-06-14T06:52:46Z</time>
      </trkpt>
      <trkpt lat="45.52475" lon="3.14">
        <ele>617.3037109375</ele>
        <time>2009-06-14T06:52:50Z</time>
      </trkpt>
      <trkpt lat="45.52472" lon="3.14003">
        <ele>617.7841796875</ele>
        <time>2009-06-14T06:52:51Z</time>
      </trkpt>
      <trkpt lat="45.52469" lon="3.14006">
        <ele>617.7841796875</ele>
        <time>2009-06-14T06:52:52Z</time>
      </trkpt>
      <trkpt lat="45.52451" lon="3.14023">
        <ele>619.22631835938</ele>
        <time>2009-06-14T06:52:58Z</time>
      </trkpt>
      <trkpt lat="45.52438" lon="3.14031">
        <ele>620.66845703125</ele>
        <time>2009-06-14T06:53:02Z</time>
      </trkpt>
      <trkpt lat="45.52415" lon="3.14038">
        <ele>621.62963867188</ele>
        <time>2009-06-14T06:53:09Z</time>
      </trkpt>
      <trkpt lat="45.5238" lon="3.14052">
        <ele>624.03295898438</ele>
        <time>2009-06-14T06:53:20Z</time>
      </trkpt>
      <trkpt lat="45.52349" lon="3.14067">
        <ele>624.513671875</ele>
        <time>2009-06-14T06:53:29Z</time>
      </trkpt>
      <trkpt lat="45.52315" lon="3.14079">
        <ele>626.9169921875</ele>
        <time>2009-06-14T06:53:39Z</time>
      </trkpt>
      <trkpt lat="45.52289" lon="3.14088">
        <ele>627.87817382812</ele>
        <time>2009-06-14T06:53:47Z</time>
      </trkpt>
      <trkpt lat="45.5226" lon="3.14098">
        <ele>630.28149414062</ele>
        <time>2009-06-14T06:53:56Z</time>
      </trkpt>
      <trkpt lat="45.52233" lon="3.14111">
        <ele>630.76220703125</ele>
        <time>2009-06-14T06:54:05Z</time>
      </trkpt>
      <trkpt lat="45.52217" lon="3.14112">
        <ele>632.2041015625</ele>
        <time>2009-06-14T06:54:10Z</time>
      </trkpt>
      <trkpt lat="45.52207" lon="3.14105">
        <ele>635.56860351562</ele>
        <time>2009-06-14T06:54:14Z</time>
      </trkpt>
      <trkpt lat="45.52196" lon="3.14089">
        <ele>635.56860351562</ele>
        <time>2009-06-14T06:54:20Z</time>
      </trkpt>
      <trkpt lat="45.52182" lon="3.14062">
        <ele>637.97216796875</ele>
        <time>2009-06-14T06:54:29Z</time>
      </trkpt>
      <trkpt lat="45.52172" lon="3.14049">
        <ele>640.37548828125</ele>
        <time>2009-06-14T06:54:35Z</time>
      </trkpt>
      <trkpt lat="45.5217" lon="3.14047">
        <ele>640.85595703125</ele>
        <time>2009-06-14T06:54:36Z</time>
      </trkpt>
      <trkpt lat="45.52156" lon="3.14034">
        <ele>642.77880859375</ele>
        <time>2009-06-14T06:54:44Z</time>
      </trkpt>
      <trkpt lat="45.52144" lon="3.14028">
        <ele>645.18188476562</ele>
        <time>2009-06-14T06:54:50Z</time>
      </trkpt>
      <trkpt lat="45.52132" lon="3.14016">
        <ele>647.1044921875</ele>
        <time>2009-06-14T06:54:57Z</time>
      </trkpt>
      <trkpt lat="45.52118" lon="3.14002">
        <ele>648.06591796875</ele>
        <time>2009-06-14T06:55:05Z</time>
      </trkpt>
      <trkpt lat="45.52107" lon="3.13986">
        <ele>650.94970703125</ele>
        <time>2009-06-14T06:55:12Z</time>
      </trkpt>
      <trkpt lat="45.52098" lon="3.13972">
        <ele>652.87255859375</ele>
        <time>2009-06-14T06:55:18Z</time>
      </trkpt>
      <trkpt lat="45.52084" lon="3.13955">
        <ele>654.31469726562</ele>
        <time>2009-06-14T06:55:26Z</time>
      </trkpt>
      <trkpt lat="45.52071" lon="3.1394">
        <ele>656.23706054688</ele>
        <time>2009-06-14T06:55:33Z</time>
      </trkpt>
      <trkpt lat="45.52058" lon="3.13926">
        <ele>657.67919921875</ele>
        <time>2009-06-14T06:55:40Z</time>
      </trkpt>
      <trkpt lat="45.52042" lon="3.13912">
        <ele>659.60180664062</ele>
        <time>2009-06-14T06:55:48Z</time>
      </trkpt>
      <trkpt lat="45.52027" lon="3.13891">
        <ele>662.48559570312</ele>
        <time>2009-06-14T06:55:57Z</time>
      </trkpt>
      <trkpt lat="45.5202" lon="3.13879">
        <ele>663.92749023438</ele>
        <time>2009-06-14T06:56:02Z</time>
      </trkpt>
      <trkpt lat="45.52008" lon="3.13855">
        <ele>665.85034179688</ele>
        <time>2009-06-14T06:56:11Z</time>
      </trkpt>
      <trkpt lat="45.52005" lon="3.1385">
        <ele>666.8115234375</ele>
        <time>2009-06-14T06:56:13Z</time>
      </trkpt>
      <trkpt lat="45.51988" lon="3.13824">
        <ele>668.25366210938</ele>
        <time>2009-06-14T06:56:23Z</time>
      </trkpt>
      <trkpt lat="45.51974" lon="3.1381">
        <ele>669.21508789062</ele>
        <time>2009-06-14T06:56:30Z</time>
      </trkpt>
      <trkpt lat="45.51968" lon="3.13793">
        <ele>671.6181640625</ele>
        <time>2009-06-14T06:56:36Z</time>
      </trkpt>
      <trkpt lat="45.51958" lon="3.13774">
        <ele>673.06030273438</ele>
        <time>2009-06-14T06:56:43Z</time>
      </trkpt>
      <trkpt lat="45.51944" lon="3.13763">
        <ele>674.98291015625</ele>
        <time>2009-06-14T06:56:50Z</time>
      </trkpt>
      <trkpt lat="45.51927" lon="3.13752">
        <ele>675.94409179688</ele>
        <time>2009-06-14T06:56:58Z</time>
      </trkpt>
      <trkpt lat="45.5191" lon="3.13735">
        <ele>677.38623046875</ele>
        <time>2009-06-14T06:57:06Z</time>
      </trkpt>
      <trkpt lat="45.51899" lon="3.13714">
        <ele>679.78930664062</ele>
        <time>2009-06-14T06:57:14Z</time>
      </trkpt>
      <trkpt lat="45.51894" lon="3.13696">
        <ele>681.7119140625</ele>
        <time>2009-06-14T06:57:20Z</time>
      </trkpt>
      <trkpt lat="45.51888" lon="3.1368">
        <ele>683.63452148438</ele>
        <time>2009-06-14T06:57:26Z</time>
      </trkpt>
      <trkpt lat="45.51883" lon="3.13664">
        <ele>685.55737304688</ele>
        <time>2009-06-14T06:57:33Z</time>
      </trkpt>
      <trkpt lat="45.51881" lon="3.1365">
        <ele>686.99926757812</ele>
        <time>2009-06-14T06:57:39Z</time>
      </trkpt>
      <trkpt lat="45.51881" lon="3.13631">
        <ele>688.44140625</ele>
        <time>2009-06-14T06:57:46Z</time>
      </trkpt>
      <trkpt lat="45.5188" lon="3.13611">
        <ele>690.84448242188</ele>
        <time>2009-06-14T06:57:54Z</time>
      </trkpt>
      <trkpt lat="45.51871" lon="3.13596">
        <ele>692.76733398438</ele>
        <time>2009-06-14T06:58:01Z</time>
      </trkpt>
      <trkpt lat="45.51863" lon="3.1359">
        <ele>694.20922851562</ele>
        <time>2009-06-14T06:58:06Z</time>
      </trkpt>
      <trkpt lat="45.51853" lon="3.13582">
        <ele>695.65112304688</ele>
        <time>2009-06-14T06:58:12Z</time>
      </trkpt>
      <trkpt lat="45.5185" lon="3.13568">
        <ele>696.1318359375</ele>
        <time>2009-06-14T06:58:17Z</time>
      </trkpt>
      <trkpt lat="45.51852" lon="3.1354">
        <ele>698.05444335938</ele>
        <time>2009-06-14T06:58:25Z</time>
      </trkpt>
      <trkpt lat="45.51849" lon="3.13521">
        <ele>699.015625</ele>
        <time>2009-06-14T06:58:31Z</time>
      </trkpt>
      <trkpt lat="45.51838" lon="3.13509">
        <ele>700.9384765625</ele>
        <time>2009-06-14T06:58:37Z</time>
      </trkpt>
      <trkpt lat="45.51825" lon="3.13499">
        <ele>701.41918945312</ele>
        <time>2009-06-14T06:58:43Z</time>
      </trkpt>
      <trkpt lat="45.51826" lon="3.13487">
        <ele>702.86108398438</ele>
        <time>2009-06-14T06:58:48Z</time>
      </trkpt>
      <trkpt lat="45.51828" lon="3.13486">
        <ele>702.86108398438</ele>
        <time>2009-06-14T06:58:49Z</time>
      </trkpt>
      <trkpt lat="45.51846" lon="3.13482">
        <ele>705.7451171875</ele>
        <time>2009-06-14T06:58:57Z</time>
      </trkpt>
      <trkpt lat="45.51865" lon="3.13473">
        <ele>705.26440429688</ele>
        <time>2009-06-14T06:59:03Z</time>
      </trkpt>
      <trkpt lat="45.5189" lon="3.1346">
        <ele>704.30322265625</ele>
        <time>2009-06-14T06:59:09Z</time>
      </trkpt>
      <trkpt lat="45.51926" lon="3.13427">
        <ele>705.26440429688</ele>
        <time>2009-06-14T06:59:18Z</time>
      </trkpt>
      <trkpt lat="45.51945" lon="3.1341">
        <ele>706.2255859375</ele>
        <time>2009-06-14T06:59:23Z</time>
      </trkpt>
      <trkpt lat="45.51952" lon="3.13401">
        <ele>705.7451171875</ele>
        <time>2009-06-14T06:59:25Z</time>
      </trkpt>
      <trkpt lat="45.5196" lon="3.13391">
        <ele>705.26440429688</ele>
        <time>2009-06-14T06:59:27Z</time>
      </trkpt>
      <trkpt lat="45.51979" lon="3.13381">
        <ele>704.30322265625</ele>
        <time>2009-06-14T06:59:31Z</time>
      </trkpt>
      <trkpt lat="45.52019" lon="3.13378">
        <ele>700.9384765625</ele>
        <time>2009-06-14T06:59:37Z</time>
      </trkpt>
      <trkpt lat="45.52026" lon="3.13377">
        <ele>700.9384765625</ele>
        <time>2009-06-14T06:59:38Z</time>
      </trkpt>
      <trkpt lat="45.52034" lon="3.13377">
        <ele>700.9384765625</ele>
        <time>2009-06-14T06:59:39Z</time>
      </trkpt>
      <trkpt lat="45.52069" lon="3.13374">
        <ele>699.015625</ele>
        <time>2009-06-14T06:59:44Z</time>
      </trkpt>
      <trkpt lat="45.52105" lon="3.13365">
        <ele>694.68969726562</ele>
        <time>2009-06-14T06:59:48Z</time>
      </trkpt>
      <trkpt lat="45.52114" lon="3.13362">
        <ele>694.68969726562</ele>
        <time>2009-06-14T06:59:49Z</time>
      </trkpt>
      <trkpt lat="45.52122" lon="3.13359">
        <ele>694.68969726562</ele>
        <time>2009-06-14T06:59:50Z</time>
      </trkpt>
      <trkpt lat="45.52139" lon="3.1335">
        <ele>692.76733398438</ele>
        <time>2009-06-14T06:59:52Z</time>
      </trkpt>
      <trkpt lat="45.52155" lon="3.13325">
        <ele>692.28662109375</ele>
        <time>2009-06-14T06:59:55Z</time>
      </trkpt>
      <trkpt lat="45.5218" lon="3.13298">
        <ele>690.84448242188</ele>
        <time>2009-06-14T06:59:59Z</time>
      </trkpt>
      <trkpt lat="45.52188" lon="3.13294">
        <ele>689.88330078125</ele>
        <time>2009-06-14T07:00:00Z</time>
      </trkpt>
      <trkpt lat="45.52204" lon="3.13286">
        <ele>687.47998046875</ele>
        <time>2009-06-14T07:00:02Z</time>
      </trkpt>
      <trkpt lat="45.52259" lon="3.13277">
        <ele>683.15380859375</ele>
        <time>2009-06-14T07:00:08Z</time>
      </trkpt>
      <trkpt lat="45.52269" lon="3.13277">
        <ele>683.63452148438</ele>
        <time>2009-06-14T07:00:09Z</time>
      </trkpt>
      <trkpt lat="45.52299" lon="3.13267">
        <ele>679.30859375</ele>
        <time>2009-06-14T07:00:12Z</time>
      </trkpt>
      <trkpt lat="45.52332" lon="3.13254">
        <ele>675.46337890625</ele>
        <time>2009-06-14T07:00:15Z</time>
      </trkpt>
      <trkpt lat="45.52355" lon="3.13248">
        <ele>672.57958984375</ele>
        <time>2009-06-14T07:00:17Z</time>
      </trkpt>
      <trkpt lat="45.52364" lon="3.13245">
        <ele>673.541015625</ele>
        <time>2009-06-14T07:00:18Z</time>
      </trkpt>
      <trkpt lat="45.52381" lon="3.13227">
        <ele>674.50219726562</ele>
        <time>2009-06-14T07:00:21Z</time>
      </trkpt>
      <trkpt lat="45.52383" lon="3.13218">
        <ele>674.50219726562</ele>
        <time>2009-06-14T07:00:22Z</time>
      </trkpt>
      <trkpt lat="45.5239" lon="3.13188">
        <ele>672.09887695312</ele>
        <time>2009-06-14T07:00:25Z</time>
      </trkpt>
      <trkpt lat="45.52406" lon="3.13146">
        <ele>667.77270507812</ele>
        <time>2009-06-14T07:00:29Z</time>
      </trkpt>
      <trkpt lat="45.52412" lon="3.13135">
        <ele>667.29223632812</ele>
        <time>2009-06-14T07:00:30Z</time>
      </trkpt>
      <trkpt lat="45.5244" lon="3.1311">
        <ele>666.33081054688</ele>
        <time>2009-06-14T07:00:34Z</time>
      </trkpt>
      <trkpt lat="45.52479" lon="3.13088">
        <ele>662.48559570312</ele>
        <time>2009-06-14T07:00:39Z</time>
      </trkpt>
      <trkpt lat="45.52505" lon="3.13056">
        <ele>660.08227539062</ele>
        <time>2009-06-14T07:00:43Z</time>
      </trkpt>
      <trkpt lat="45.52514" lon="3.13032">
        <ele>660.08227539062</ele>
        <time>2009-06-14T07:00:46Z</time>
      </trkpt>
      <trkpt lat="45.52508" lon="3.13004">
        <ele>658.15991210938</ele>
        <time>2009-06-14T07:00:49Z</time>
      </trkpt>
      <trkpt lat="45.52497" lon="3.12986">
        <ele>659.12109375</ele>
        <time>2009-06-14T07:00:52Z</time>
      </trkpt>
      <trkpt lat="45.525" lon="3.12973">
        <ele>659.12109375</ele>
        <time>2009-06-14T07:00:55Z</time>
      </trkpt>
      <trkpt lat="45.52518" lon="3.12955">
        <ele>659.60180664062</ele>
        <time>2009-06-14T07:01:01Z</time>
      </trkpt>
      <trkpt lat="45.52522" lon="3.12953">
        <ele>660.56298828125</ele>
        <time>2009-06-14T07:01:03Z</time>
      </trkpt>
      <trkpt lat="45.52526" lon="3.12951">
        <ele>660.56298828125</ele>
        <time>2009-06-14T07:01:05Z</time>
      </trkpt>
      <trkpt lat="45.52533" lon="3.12941">
        <ele>662.48559570312</ele>
        <time>2009-06-14T07:01:10Z</time>
      </trkpt>
      <trkpt lat="45.52535" lon="3.1293">
        <ele>664.408203125</ele>
        <time>2009-06-14T07:01:14Z</time>
      </trkpt>
      <trkpt lat="45.52535" lon="3.12923">
        <ele>665.85034179688</ele>
        <time>2009-06-14T07:01:17Z</time>
      </trkpt>
      <trkpt lat="45.52535" lon="3.12918">
        <ele>666.33081054688</ele>
        <time>2009-06-14T07:01:19Z</time>
      </trkpt>
      <trkpt lat="45.52533" lon="3.12907">
        <ele>667.29223632812</ele>
        <time>2009-06-14T07:01:23Z</time>
      </trkpt>
      <trkpt lat="45.52534" lon="3.12896">
        <ele>668.25366210938</ele>
        <time>2009-06-14T07:01:27Z</time>
      </trkpt>
      <trkpt lat="45.52533" lon="3.12891">
        <ele>669.69580078125</ele>
        <time>2009-06-14T07:01:29Z</time>
      </trkpt>
      <trkpt lat="45.52532" lon="3.12889">
        <ele>669.69580078125</ele>
        <time>2009-06-14T07:01:30Z</time>
      </trkpt>
      <trkpt lat="45.52538" lon="3.12882">
        <ele>670.65698242188</ele>
        <time>2009-06-14T07:01:35Z</time>
      </trkpt>
      <trkpt lat="45.52546" lon="3.12888">
        <ele>670.65698242188</ele>
        <time>2009-06-14T07:01:40Z</time>
      </trkpt>
      <trkpt lat="45.5256" lon="3.1291">
        <ele>669.69580078125</ele>
        <time>2009-06-14T07:01:46Z</time>
      </trkpt>
      <trkpt lat="45.52571" lon="3.12919">
        <ele>671.1376953125</ele>
        <time>2009-06-14T07:01:50Z</time>
      </trkpt>
      <trkpt lat="45.52573" lon="3.1292">
        <ele>671.6181640625</ele>
        <time>2009-06-14T07:01:51Z</time>
      </trkpt>
      <trkpt lat="45.52591" lon="3.12927">
        <ele>674.021484375</ele>
        <time>2009-06-14T07:01:59Z</time>
      </trkpt>
      <trkpt lat="45.52597" lon="3.12931">
        <ele>675.46337890625</ele>
        <time>2009-06-14T07:02:02Z</time>
      </trkpt>
      <trkpt lat="45.52601" lon="3.12932">
        <ele>675.94409179688</ele>
        <time>2009-06-14T07:02:04Z</time>
      </trkpt>
      <trkpt lat="45.52616" lon="3.12941">
        <ele>676.90551757812</ele>
        <time>2009-06-14T07:02:11Z</time>
      </trkpt>
      <trkpt lat="45.52634" lon="3.12953">
        <ele>677.86669921875</ele>
        <time>2009-06-14T07:02:19Z</time>
      </trkpt>
      <trkpt lat="45.52651" lon="3.12962">
        <ele>679.78930664062</ele>
        <time>2009-06-14T07:02:26Z</time>
      </trkpt>
      <trkpt lat="45.52664" lon="3.1297">
        <ele>680.27001953125</ele>
        <time>2009-06-14T07:02:32Z</time>
      </trkpt>
      <trkpt lat="45.52667" lon="3.12971">
        <ele>680.75073242188</ele>
        <time>2009-06-14T07:02:34Z</time>
      </trkpt>
      <trkpt lat="45.52671" lon="3.12973">
        <ele>681.2314453125</ele>
        <time>2009-06-14T07:02:40Z</time>
      </trkpt>
      <trkpt lat="45.52671" lon="3.12974">
        <ele>680.75073242188</ele>
        <time>2009-06-14T07:02:50Z</time>
      </trkpt>
      <trkpt lat="45.52669" lon="3.12968">
        <ele>681.2314453125</ele>
        <time>2009-06-14T07:03:55Z</time>
      </trkpt>
      <trkpt lat="45.5267" lon="3.12973">
        <ele>681.2314453125</ele>
        <time>2009-06-14T07:07:15Z</time>
      </trkpt>
      <trkpt lat="45.52671" lon="3.12973">
        <ele>681.2314453125</ele>
        <time>2009-06-14T07:08:53Z</time>
      </trkpt>
      <trkpt lat="45.52671" lon="3.12973">
        <ele>681.7119140625</ele>
        <time>2009-06-14T07:08:56Z</time>
      </trkpt>
      <trkpt lat="45.52671" lon="3.12972">
        <ele>681.7119140625</ele>
        <time>2009-06-14T07:08:58Z</time>
      </trkpt>
      <trkpt lat="45.52671" lon="3.1297">
        <ele>681.7119140625</ele>
        <time>2009-06-14T07:09:00Z</time>
      </trkpt>
      <trkpt lat="45.52671" lon="3.12963">
        <ele>681.7119140625</ele>
        <time>2009-06-14T07:09:09Z</time>
      </trkpt>
      <trkpt lat="45.52672" lon="3.1296">
        <ele>681.7119140625</ele>
        <time>2009-06-14T07:09:17Z</time>
      </trkpt>
      <trkpt lat="45.52672" lon="3.1296">
        <ele>682.19262695312</ele>
        <time>2009-06-14T07:09:20Z</time>
      </trkpt>
      <trkpt lat="45.52672" lon="3.1296">
        <ele>682.19262695312</ele>
        <time>2009-06-14T07:09:22Z</time>
      </trkpt>
      <trkpt lat="45.52672" lon="3.1296">
        <ele>682.67333984375</ele>
        <time>2009-06-14T07:09:23Z</time>
      </trkpt>
      <trkpt lat="45.52673" lon="3.1296">
        <ele>681.7119140625</ele>
        <time>2009-06-14T07:09:32Z</time>
      </trkpt>
      <trkpt lat="45.52673" lon="3.1296">
        <ele>682.19262695312</ele>
        <time>2009-06-14T07:09:41Z</time>
      </trkpt>
      <trkpt lat="45.52673" lon="3.1296">
        <ele>682.19262695312</ele>
        <time>2009-06-14T07:09:47Z</time>
      </trkpt>
      <trkpt lat="45.52673" lon="3.1296">
        <ele>681.7119140625</ele>
        <time>2009-06-14T07:10:04Z</time>
      </trkpt>
      <trkpt lat="45.52673" lon="3.1296">
        <ele>682.19262695312</ele>
        <time>2009-06-14T07:10:08Z</time>
      </trkpt>
      <trkpt lat="45.52673" lon="3.1296">
        <ele>681.7119140625</ele>
        <time>2009-06-14T07:10:19Z</time>
      </trkpt>
      <trkpt lat="45.52673" lon="3.12959">
        <ele>681.2314453125</ele>
        <time>2009-06-14T07:10:27Z</time>
      </trkpt>
      <trkpt lat="45.52673" lon="3.12959">
        <ele>682.19262695312</ele>
        <time>2009-06-14T07:10:30Z</time>
      </trkpt>
      <trkpt lat="45.52674" lon="3.12959">
        <ele>682.19262695312</ele>
        <time>2009-06-14T07:10:34Z</time>
      </trkpt>
      <trkpt lat="45.52674" lon="3.12959">
        <ele>682.67333984375</ele>
        <time>2009-06-14T07:10:35Z</time>
      </trkpt>
      <trkpt lat="45.52674" lon="3.12959">
        <ele>681.7119140625</ele>
        <time>2009-06-14T07:10:40Z</time>
      </trkpt>
      <trkpt lat="45.52675" lon="3.12959">
        <ele>682.67333984375</ele>
        <time>2009-06-14T07:10:55Z</time>
      </trkpt>
      <trkpt lat="45.5268" lon="3.12951">
        <ele>684.59619140625</ele>
        <time>2009-06-14T07:11:01Z</time>
      </trkpt>
      <trkpt lat="45.5268" lon="3.12949">
        <ele>684.59619140625</ele>
        <time>2009-06-14T07:11:02Z</time>
      </trkpt>
      <trkpt lat="45.52682" lon="3.12937">
        <ele>685.55737304688</ele>
        <time>2009-06-14T07:11:08Z</time>
      </trkpt>
      <trkpt lat="45.52682" lon="3.12933">
        <ele>686.51879882812</ele>
        <time>2009-06-14T07:11:10Z</time>
      </trkpt>
      <trkpt lat="45.52676" lon="3.12923">
        <ele>688.44140625</ele>
        <time>2009-06-14T07:11:16Z</time>
      </trkpt>
      <trkpt lat="45.5267" lon="3.12915">
        <ele>688.92211914062</ele>
        <time>2009-06-14T07:11:21Z</time>
      </trkpt>
      <trkpt lat="45.52672" lon="3.12908">
        <ele>691.3251953125</ele>
        <time>2009-06-14T07:11:26Z</time>
      </trkpt>
      <trkpt lat="45.52678" lon="3.12909">
        <ele>692.28662109375</ele>
        <time>2009-06-14T07:11:31Z</time>
      </trkpt>
      <trkpt lat="45.52679" lon="3.1291">
        <ele>692.28662109375</ele>
        <time>2009-06-14T07:11:32Z</time>
      </trkpt>
      <trkpt lat="45.52691" lon="3.12912">
        <ele>693.24780273438</ele>
        <time>2009-06-14T07:11:39Z</time>
      </trkpt>
      <trkpt lat="45.52703" lon="3.12915">
        <ele>695.17041015625</ele>
        <time>2009-06-14T07:11:47Z</time>
      </trkpt>
      <trkpt lat="45.52715" lon="3.12917">
        <ele>696.1318359375</ele>
        <time>2009-06-14T07:11:54Z</time>
      </trkpt>
      <trkpt lat="45.52723" lon="3.12914">
        <ele>697.09301757812</ele>
        <time>2009-06-14T07:11:58Z</time>
      </trkpt>
      <trkpt lat="45.52729" lon="3.12915">
        <ele>698.05444335938</ele>
        <time>2009-06-14T07:12:02Z</time>
      </trkpt>
      <trkpt lat="45.52736" lon="3.12908">
        <ele>700.4580078125</ele>
        <time>2009-06-14T07:12:07Z</time>
      </trkpt>
      <trkpt lat="45.52733" lon="3.129">
        <ele>700.9384765625</ele>
        <time>2009-06-14T07:12:11Z</time>
      </trkpt>
      <trkpt lat="45.52729" lon="3.12893">
        <ele>701.89990234375</ele>
        <time>2009-06-14T07:12:15Z</time>
      </trkpt>
      <trkpt lat="45.52728" lon="3.12883">
        <ele>702.38037109375</ele>
        <time>2009-06-14T07:12:20Z</time>
      </trkpt>
      <trkpt lat="45.52727" lon="3.12881">
        <ele>702.86108398438</ele>
        <time>2009-06-14T07:12:21Z</time>
      </trkpt>
      <trkpt lat="45.52722" lon="3.12868">
        <ele>705.26440429688</ele>
        <time>2009-06-14T07:12:28Z</time>
      </trkpt>
      <trkpt lat="45.52719" lon="3.12866">
        <ele>704.78369140625</ele>
        <time>2009-06-14T07:12:30Z</time>
      </trkpt>
      <trkpt lat="45.52715" lon="3.12854">
        <ele>705.26440429688</ele>
        <time>2009-06-14T07:12:36Z</time>
      </trkpt>
      <trkpt lat="45.5271" lon="3.12847">
        <ele>706.2255859375</ele>
        <time>2009-06-14T07:12:40Z</time>
      </trkpt>
      <trkpt lat="45.52707" lon="3.12838">
        <ele>707.66772460938</ele>
        <time>2009-06-14T07:12:44Z</time>
      </trkpt>
      <trkpt lat="45.52698" lon="3.12822">
        <ele>711.0322265625</ele>
        <time>2009-06-14T07:12:52Z</time>
      </trkpt>
      <trkpt lat="45.52697" lon="3.12805">
        <ele>712.47412109375</ele>
        <time>2009-06-14T07:12:59Z</time>
      </trkpt>
      <trkpt lat="45.52705" lon="3.12784">
        <ele>714.39672851562</ele>
        <time>2009-06-14T07:13:08Z</time>
      </trkpt>
      <trkpt lat="45.52711" lon="3.12762">
        <ele>715.8388671875</ele>
        <time>2009-06-14T07:13:17Z</time>
      </trkpt>
      <trkpt lat="45.52705" lon="3.12747">
        <ele>716.80029296875</ele>
        <time>2009-06-14T07:13:23Z</time>
      </trkpt>
      <trkpt lat="45.52691" lon="3.12725">
        <ele>716.31958007812</ele>
        <time>2009-06-14T07:13:30Z</time>
      </trkpt>
      <trkpt lat="45.52668" lon="3.12692">
        <ele>717.76147460938</ele>
        <time>2009-06-14T07:13:40Z</time>
      </trkpt>
      <trkpt lat="45.52655" lon="3.12672">
        <ele>718.72290039062</ele>
        <time>2009-06-14T07:13:47Z</time>
      </trkpt>
      <trkpt lat="45.52655" lon="3.12672">
        <ele>718.72290039062</ele>
        <time>2009-06-14T07:13:55Z</time>
      </trkpt>
      <trkpt lat="45.52654" lon="3.12671">
        <ele>718.72290039062</ele>
        <time>2009-06-14T07:14:14Z</time>
      </trkpt>
      <trkpt lat="45.52654" lon="3.1267">
        <ele>719.20361328125</ele>
        <time>2009-06-14T07:14:20Z</time>
      </trkpt>
      <trkpt lat="45.52654" lon="3.1267">
        <ele>719.20361328125</ele>
        <time>2009-06-14T07:14:26Z</time>
      </trkpt>
      <trkpt lat="45.52654" lon="3.12668">
        <ele>719.20361328125</ele>
        <time>2009-06-14T07:14:36Z</time>
      </trkpt>
      <trkpt lat="45.52654" lon="3.12668">
        <ele>718.72290039062</ele>
        <time>2009-06-14T07:14:37Z</time>
      </trkpt>
      <trkpt lat="45.52645" lon="3.12657">
        <ele>719.20361328125</ele>
        <time>2009-06-14T07:14:43Z</time>
      </trkpt>
      <trkpt lat="45.5264" lon="3.12648">
        <ele>719.68432617188</ele>
        <time>2009-06-14T07:14:46Z</time>
      </trkpt>
      <trkpt lat="45.52636" lon="3.12642">
        <ele>720.6455078125</ele>
        <time>2009-06-14T07:14:48Z</time>
      </trkpt>
      <trkpt lat="45.52622" lon="3.12622">
        <ele>722.08740234375</ele>
        <time>2009-06-14T07:14:55Z</time>
      </trkpt>
      <trkpt lat="45.52612" lon="3.12608">
        <ele>723.048828125</ele>
        <time>2009-06-14T07:15:00Z</time>
      </trkpt>
      <trkpt lat="45.52608" lon="3.12599">
        <ele>723.52954101562</ele>
        <time>2009-06-14T07:15:03Z</time>
      </trkpt>
      <trkpt lat="45.52607" lon="3.12597">
        <ele>723.52954101562</ele>
        <time>2009-06-14T07:15:04Z</time>
      </trkpt>
      <trkpt lat="45.52605" lon="3.12594">
        <ele>723.52954101562</ele>
        <time>2009-06-14T07:15:08Z</time>
      </trkpt>
      <trkpt lat="45.52605" lon="3.12594">
        <ele>723.52954101562</ele>
        <time>2009-06-14T07:15:20Z</time>
      </trkpt>
      <trkpt lat="45.52605" lon="3.12596">
        <ele>723.048828125</ele>
        <time>2009-06-14T07:15:31Z</time>
      </trkpt>
      <trkpt lat="45.52605" lon="3.12598">
        <ele>724.01000976562</ele>
        <time>2009-06-14T07:16:05Z</time>
      </trkpt>
      <trkpt lat="45.52606" lon="3.12598">
        <ele>724.01000976562</ele>
        <time>2009-06-14T07:16:26Z</time>
      </trkpt>
      <trkpt lat="45.52606" lon="3.12598">
        <ele>724.01000976562</ele>
        <time>2009-06-14T07:16:39Z</time>
      </trkpt>
      <trkpt lat="45.52606" lon="3.12598">
        <ele>724.49072265625</ele>
        <time>2009-06-14T07:16:40Z</time>
      </trkpt>
      <trkpt lat="45.52606" lon="3.12599">
        <ele>724.01000976562</ele>
        <time>2009-06-14T07:16:47Z</time>
      </trkpt>
      <trkpt lat="45.52605" lon="3.12598">
        <ele>723.52954101562</ele>
        <time>2009-06-14T07:17:24Z</time>
      </trkpt>
      <trkpt lat="45.52599" lon="3.12582">
        <ele>724.49072265625</ele>
        <time>2009-06-14T07:17:30Z</time>
      </trkpt>
      <trkpt lat="45.52594" lon="3.12569">
        <ele>725.45190429688</ele>
        <time>2009-06-14T07:17:34Z</time>
      </trkpt>
      <trkpt lat="45.52591" lon="3.12558">
        <ele>725.9326171875</ele>
        <time>2009-06-14T07:17:37Z</time>
      </trkpt>
      <trkpt lat="45.52581" lon="3.12539">
        <ele>728.3359375</ele>
        <time>2009-06-14T07:17:43Z</time>
      </trkpt>
      <trkpt lat="45.52578" lon="3.12533">
        <ele>728.3359375</ele>
        <time>2009-06-14T07:17:45Z</time>
      </trkpt>
      <trkpt lat="45.52571" lon="3.1252">
        <ele>730.25854492188</ele>
        <time>2009-06-14T07:17:50Z</time>
      </trkpt>
      <trkpt lat="45.5257" lon="3.12518">
        <ele>731.21997070312</ele>
        <time>2009-06-14T07:17:51Z</time>
      </trkpt>
      <trkpt lat="45.52569" lon="3.12515">
        <ele>731.21997070312</ele>
        <time>2009-06-14T07:17:52Z</time>
      </trkpt>
      <trkpt lat="45.52564" lon="3.12506">
        <ele>732.18139648438</ele>
        <time>2009-06-14T07:17:56Z</time>
      </trkpt>
      <trkpt lat="45.52559" lon="3.12497">
        <ele>733.62329101562</ele>
        <time>2009-06-14T07:18:00Z</time>
      </trkpt>
      <trkpt lat="45.52556" lon="3.12493">
        <ele>734.58471679688</ele>
        <time>2009-06-14T07:18:02Z</time>
      </trkpt>
      <trkpt lat="45.52543" lon="3.12477">
        <ele>736.98779296875</ele>
        <time>2009-06-14T07:18:11Z</time>
      </trkpt>
      <trkpt lat="45.52531" lon="3.12458">
        <ele>739.39111328125</ele>
        <time>2009-06-14T07:18:20Z</time>
      </trkpt>
      <trkpt lat="45.52522" lon="3.1244">
        <ele>741.79443359375</ele>
        <time>2009-06-14T07:18:28Z</time>
      </trkpt>
      <trkpt lat="45.52512" lon="3.12419">
        <ele>744.19775390625</ele>
        <time>2009-06-14T07:18:37Z</time>
      </trkpt>
      <trkpt lat="45.52503" lon="3.12405">
        <ele>746.60107421875</ele>
        <time>2009-06-14T07:18:44Z</time>
      </trkpt>
      <trkpt lat="45.52492" lon="3.12388">
        <ele>748.52368164062</ele>
        <time>2009-06-14T07:18:52Z</time>
      </trkpt>
      <trkpt lat="45.52482" lon="3.1237">
        <ele>750.44653320312</ele>
        <time>2009-06-14T07:19:00Z</time>
      </trkpt>
      <trkpt lat="45.52478" lon="3.12345">
        <ele>750.44653320312</ele>
        <time>2009-06-14T07:19:08Z</time>
      </trkpt>
      <trkpt lat="45.52479" lon="3.12314">
        <ele>751.40771484375</ele>
        <time>2009-06-14T07:19:15Z</time>
      </trkpt>
      <trkpt lat="45.52481" lon="3.12276">
        <ele>751.88842773438</ele>
        <time>2009-06-14T07:19:23Z</time>
      </trkpt>
      <trkpt lat="45.52483" lon="3.12239">
        <ele>753.81103515625</ele>
        <time>2009-06-14T07:19:31Z</time>
      </trkpt>
      <trkpt lat="45.52486" lon="3.12184">
        <ele>755.2529296875</ele>
        <time>2009-06-14T07:19:43Z</time>
      </trkpt>
      <trkpt lat="45.52488" lon="3.12141">
        <ele>758.61743164062</ele>
        <time>2009-06-14T07:19:53Z</time>
      </trkpt>
      <trkpt lat="45.52488" lon="3.12137">
        <ele>758.61743164062</ele>
        <time>2009-06-14T07:19:54Z</time>
      </trkpt>
      <trkpt lat="45.52484" lon="3.12099">
        <ele>761.02075195312</ele>
        <time>2009-06-14T07:20:03Z</time>
      </trkpt>
      <trkpt lat="45.5248" lon="3.12074">
        <ele>761.98217773438</ele>
        <time>2009-06-14T07:20:10Z</time>
      </trkpt>
      <trkpt lat="45.52474" lon="3.12058">
        <ele>761.98217773438</ele>
        <time>2009-06-14T07:20:15Z</time>
      </trkpt>
      <trkpt lat="45.52459" lon="3.12037">
        <ele>762.943359375</ele>
        <time>2009-06-14T07:20:22Z</time>
      </trkpt>
      <trkpt lat="45.52449" lon="3.12029">
        <ele>763.90454101562</ele>
        <time>2009-06-14T07:20:26Z</time>
      </trkpt>
      <trkpt lat="45.52442" lon="3.12022">
        <ele>765.34692382812</ele>
        <time>2009-06-14T07:20:29Z</time>
      </trkpt>
      <trkpt lat="45.52434" lon="3.12">
        <ele>766.78881835938</ele>
        <time>2009-06-14T07:20:35Z</time>
      </trkpt>
      <trkpt lat="45.52429" lon="3.11972">
        <ele>768.71142578125</ele>
        <time>2009-06-14T07:20:42Z</time>
      </trkpt>
      <trkpt lat="45.52426" lon="3.11926">
        <ele>769.6728515625</ele>
        <time>2009-06-14T07:20:52Z</time>
      </trkpt>
      <trkpt lat="45.5242" lon="3.11886">
        <ele>771.11474609375</ele>
        <time>2009-06-14T07:21:01Z</time>
      </trkpt>
      <trkpt lat="45.52411" lon="3.11842">
        <ele>773.03735351562</ele>
        <time>2009-06-14T07:21:11Z</time>
      </trkpt>
      <trkpt lat="45.52402" lon="3.11805">
        <ele>773.99853515625</ele>
        <time>2009-06-14T07:21:19Z</time>
      </trkpt>
      <trkpt lat="45.52393" lon="3.11771">
        <ele>775.92114257812</ele>
        <time>2009-06-14T07:21:26Z</time>
      </trkpt>
      <trkpt lat="45.5238" lon="3.11716">
        <ele>777.84375</ele>
        <time>2009-06-14T07:21:37Z</time>
      </trkpt>
      <trkpt lat="45.52365" lon="3.11659">
        <ele>780.24731445312</ele>
        <time>2009-06-14T07:21:48Z</time>
      </trkpt>
      <trkpt lat="45.52343" lon="3.11612">
        <ele>781.20874023438</ele>
        <time>2009-06-14T07:21:58Z</time>
      </trkpt>
      <trkpt lat="45.52319" lon="3.1156">
        <ele>784.09252929688</ele>
        <time>2009-06-14T07:22:09Z</time>
      </trkpt>
      <trkpt lat="45.52303" lon="3.11521">
        <ele>785.53442382812</ele>
        <time>2009-06-14T07:22:17Z</time>
      </trkpt>
      <trkpt lat="45.52279" lon="3.11473">
        <ele>786.97631835938</ele>
        <time>2009-06-14T07:22:27Z</time>
      </trkpt>
      <trkpt lat="45.5226" lon="3.11426">
        <ele>788.89916992188</ele>
        <time>2009-06-14T07:22:36Z</time>
      </trkpt>
      <trkpt lat="45.52261" lon="3.11397">
        <ele>789.37963867188</ele>
        <time>2009-06-14T07:22:41Z</time>
      </trkpt>
      <trkpt lat="45.52264" lon="3.11391">
        <ele>789.8603515625</ele>
        <time>2009-06-14T07:22:42Z</time>
      </trkpt>
      <trkpt lat="45.52284" lon="3.11346">
        <ele>790.34106445312</ele>
        <time>2009-06-14T07:22:50Z</time>
      </trkpt>
      <trkpt lat="45.52313" lon="3.113">
        <ele>791.78295898438</ele>
        <time>2009-06-14T07:22:59Z</time>
      </trkpt>
      <trkpt lat="45.52334" lon="3.11261">
        <ele>793.22485351562</ele>
        <time>2009-06-14T07:23:06Z</time>
      </trkpt>
      <trkpt lat="45.52343" lon="3.11219">
        <ele>795.1474609375</ele>
        <time>2009-06-14T07:23:13Z</time>
      </trkpt>
      <trkpt lat="45.52343" lon="3.11172">
        <ele>796.10913085938</ele>
        <time>2009-06-14T07:23:20Z</time>
      </trkpt>
      <trkpt lat="45.52342" lon="3.11125">
        <ele>795.62817382812</ele>
        <time>2009-06-14T07:23:27Z</time>
      </trkpt>
      <trkpt lat="45.5234" lon="3.11102">
        <ele>794.18627929688</ele>
        <time>2009-06-14T07:23:30Z</time>
      </trkpt>
      <trkpt lat="45.52334" lon="3.11071">
        <ele>793.70556640625</ele>
        <time>2009-06-14T07:23:34Z</time>
      </trkpt>
      <trkpt lat="45.52335" lon="3.11022">
        <ele>789.8603515625</ele>
        <time>2009-06-14T07:23:39Z</time>
      </trkpt>
      <trkpt lat="45.52339" lon="3.11002">
        <ele>788.41845703125</ele>
        <time>2009-06-14T07:23:41Z</time>
      </trkpt>
      <trkpt lat="45.52334" lon="3.10963">
        <ele>783.61181640625</ele>
        <time>2009-06-14T07:23:45Z</time>
      </trkpt>
      <trkpt lat="45.5232" lon="3.1095">
        <ele>780.72802734375</ele>
        <time>2009-06-14T07:23:47Z</time>
      </trkpt>
      <trkpt lat="45.52304" lon="3.10938">
        <ele>779.28564453125</ele>
        <time>2009-06-14T07:23:49Z</time>
      </trkpt>
      <trkpt lat="45.52281" lon="3.10901">
        <ele>775.92114257812</ele>
        <time>2009-06-14T07:23:53Z</time>
      </trkpt>
      <trkpt lat="45.52279" lon="3.10888">
        <ele>773.99853515625</ele>
        <time>2009-06-14T07:23:54Z</time>
      </trkpt>
      <trkpt lat="45.52275" lon="3.10863">
        <ele>773.03735351562</ele>
        <time>2009-06-14T07:23:56Z</time>
      </trkpt>
      <trkpt lat="45.5227" lon="3.10833">
        <ele>771.59521484375</ele>
        <time>2009-06-14T07:23:59Z</time>
      </trkpt>
      <trkpt lat="45.52269" lon="3.10824">
        <ele>771.59521484375</ele>
        <time>2009-06-14T07:24:00Z</time>
      </trkpt>
      <trkpt lat="45.52268" lon="3.10817">
        <ele>771.11474609375</ele>
        <time>2009-06-14T07:24:01Z</time>
      </trkpt>
      <trkpt lat="45.52264" lon="3.1079">
        <ele>770.1533203125</ele>
        <time>2009-06-14T07:24:06Z</time>
      </trkpt>
      <trkpt lat="45.52266" lon="3.10781">
        <ele>769.6728515625</ele>
        <time>2009-06-14T07:24:10Z</time>
      </trkpt>
      <trkpt lat="45.52266" lon="3.10778">
        <ele>769.6728515625</ele>
        <time>2009-06-14T07:24:12Z</time>
      </trkpt>
      <trkpt lat="45.52268" lon="3.10777">
        <ele>769.19213867188</ele>
        <time>2009-06-14T07:24:18Z</time>
      </trkpt>
      <trkpt lat="45.52269" lon="3.10777">
        <ele>769.19213867188</ele>
        <time>2009-06-14T07:24:24Z</time>
      </trkpt>
      <trkpt lat="45.52277" lon="3.10775">
        <ele>768.23071289062</ele>
        <time>2009-06-14T07:24:28Z</time>
      </trkpt>
      <trkpt lat="45.52298" lon="3.10767">
        <ele>764.38549804688</ele>
        <time>2009-06-14T07:24:32Z</time>
      </trkpt>
      <trkpt lat="45.52313" lon="3.1076">
        <ele>761.02075195312</ele>
        <time>2009-06-14T07:24:34Z</time>
      </trkpt>
      <trkpt lat="45.52322" lon="3.10757">
        <ele>760.5400390625</ele>
        <time>2009-06-14T07:24:35Z</time>
      </trkpt>
      <trkpt lat="45.5233" lon="3.10753">
        <ele>760.5400390625</ele>
        <time>2009-06-14T07:24:36Z</time>
      </trkpt>
      <trkpt lat="45.52342" lon="3.10744">
        <ele>758.61743164062</ele>
        <time>2009-06-14T07:24:38Z</time>
      </trkpt>
      <trkpt lat="45.52352" lon="3.10725">
        <ele>754.77221679688</ele>
        <time>2009-06-14T07:24:40Z</time>
      </trkpt>
      <trkpt lat="45.52367" lon="3.10688">
        <ele>749.9658203125</ele>
        <time>2009-06-14T07:24:43Z</time>
      </trkpt>
      <trkpt lat="45.52386" lon="3.10655">
        <ele>747.08154296875</ele>
        <time>2009-06-14T07:24:46Z</time>
      </trkpt>
      <trkpt lat="45.52405" lon="3.10625">
        <ele>741.79443359375</ele>
        <time>2009-06-14T07:24:49Z</time>
      </trkpt>
      <trkpt lat="45.52423" lon="3.10593">
        <ele>739.39111328125</ele>
        <time>2009-06-14T07:24:52Z</time>
      </trkpt>
      <trkpt lat="45.52435" lon="3.10572">
        <ele>736.02661132812</ele>
        <time>2009-06-14T07:24:54Z</time>
      </trkpt>
      <trkpt lat="45.52453" lon="3.10539">
        <ele>732.662109375</ele>
        <time>2009-06-14T07:24:57Z</time>
      </trkpt>
      <trkpt lat="45.52465" lon="3.1052">
        <ele>731.21997070312</ele>
        <time>2009-06-14T07:24:59Z</time>
      </trkpt>
      <trkpt lat="45.52485" lon="3.10486">
        <ele>728.81665039062</ele>
        <time>2009-06-14T07:25:03Z</time>
      </trkpt>
      <trkpt lat="45.52508" lon="3.10447">
        <ele>725.45190429688</ele>
        <time>2009-06-14T07:25:08Z</time>
      </trkpt>
      <trkpt lat="45.52512" lon="3.10439">
        <ele>724.97143554688</ele>
        <time>2009-06-14T07:25:09Z</time>
      </trkpt>
      <trkpt lat="45.52536" lon="3.10407">
        <ele>721.12622070312</ele>
        <time>2009-06-14T07:25:14Z</time>
      </trkpt>
      <trkpt lat="45.5255" lon="3.10389">
        <ele>718.2421875</ele>
        <time>2009-06-14T07:25:17Z</time>
      </trkpt>
      <trkpt lat="45.52561" lon="3.10363">
        <ele>715.8388671875</ele>
        <time>2009-06-14T07:25:21Z</time>
      </trkpt>
      <trkpt lat="45.5257" lon="3.10341">
        <ele>712.47412109375</ele>
        <time>2009-06-14T07:25:24Z</time>
      </trkpt>
      <trkpt lat="45.52591" lon="3.10293">
        <ele>709.59033203125</ele>
        <time>2009-06-14T07:25:30Z</time>
      </trkpt>
      <trkpt lat="45.52609" lon="3.10252">
        <ele>706.2255859375</ele>
        <time>2009-06-14T07:25:35Z</time>
      </trkpt>
      <trkpt lat="45.52616" lon="3.10235">
        <ele>704.30322265625</ele>
        <time>2009-06-14T07:25:37Z</time>
      </trkpt>
      <trkpt lat="45.52628" lon="3.10208">
        <ele>700.9384765625</ele>
        <time>2009-06-14T07:25:40Z</time>
      </trkpt>
      <trkpt lat="45.52636" lon="3.10192">
        <ele>700.4580078125</ele>
        <time>2009-06-14T07:25:42Z</time>
      </trkpt>
      <trkpt lat="45.52645" lon="3.10175">
        <ele>697.09301757812</ele>
        <time>2009-06-14T07:25:44Z</time>
      </trkpt>
      <trkpt lat="45.5266" lon="3.10151">
        <ele>694.20922851562</ele>
        <time>2009-06-14T07:25:47Z</time>
      </trkpt>
      <trkpt lat="45.52669" lon="3.10135">
        <ele>690.84448242188</ele>
        <time>2009-06-14T07:25:49Z</time>
      </trkpt>
      <trkpt lat="45.52682" lon="3.10109">
        <ele>686.99926757812</ele>
        <time>2009-06-14T07:25:52Z</time>
      </trkpt>
      <trkpt lat="45.52696" lon="3.10083">
        <ele>683.63452148438</ele>
        <time>2009-06-14T07:25:55Z</time>
      </trkpt>
      <trkpt lat="45.5271" lon="3.10051">
        <ele>680.27001953125</ele>
        <time>2009-06-14T07:25:58Z</time>
      </trkpt>
      <trkpt lat="45.5273" lon="3.10006">
        <ele>680.75073242188</ele>
        <time>2009-06-14T07:26:02Z</time>
      </trkpt>
      <trkpt lat="45.52742" lon="3.09975">
        <ele>686.0380859375</ele>
        <time>2009-06-14T07:26:06Z</time>
      </trkpt>
      <trkpt lat="45.52742" lon="3.0997">
        <ele>686.0380859375</ele>
        <time>2009-06-14T07:26:07Z</time>
      </trkpt>
      <trkpt lat="45.52745" lon="3.09949">
        <ele>688.92211914062</ele>
        <time>2009-06-14T07:26:12Z</time>
      </trkpt>
      <trkpt lat="45.52745" lon="3.09945">
        <ele>689.40258789062</ele>
        <time>2009-06-14T07:26:13Z</time>
      </trkpt>
      <trkpt lat="45.52746" lon="3.09939">
        <ele>690.36401367188</ele>
        <time>2009-06-14T07:26:15Z</time>
      </trkpt>
      <trkpt lat="45.52747" lon="3.09932">
        <ele>691.80590820312</ele>
        <time>2009-06-14T07:26:18Z</time>
      </trkpt>
      <trkpt lat="45.52748" lon="3.09924">
        <ele>692.28662109375</ele>
        <time>2009-06-14T07:26:21Z</time>
      </trkpt>
      <trkpt lat="45.52748" lon="3.09915">
        <ele>693.24780273438</ele>
        <time>2009-06-14T07:26:24Z</time>
      </trkpt>
      <trkpt lat="45.52749" lon="3.0991">
        <ele>693.24780273438</ele>
        <time>2009-06-14T07:26:26Z</time>
      </trkpt>
      <trkpt lat="45.52749" lon="3.09907">
        <ele>693.728515625</ele>
        <time>2009-06-14T07:26:27Z</time>
      </trkpt>
      <trkpt lat="45.5275" lon="3.09892">
        <ele>694.68969726562</ele>
        <time>2009-06-14T07:26:33Z</time>
      </trkpt>
      <trkpt lat="45.52752" lon="3.09874">
        <ele>697.09301757812</ele>
        <time>2009-06-14T07:26:40Z</time>
      </trkpt>
      <trkpt lat="45.52754" lon="3.09856">
        <ele>698.05444335938</ele>
        <time>2009-06-14T07:26:47Z</time>
      </trkpt>
      <trkpt lat="45.52758" lon="3.0984">
        <ele>699.97705078125</ele>
        <time>2009-06-14T07:26:54Z</time>
      </trkpt>
      <trkpt lat="45.52763" lon="3.09835">
        <ele>700.9384765625</ele>
        <time>2009-06-14T07:26:59Z</time>
      </trkpt>
      <trkpt lat="45.52763" lon="3.09812">
        <ele>701.89990234375</ele>
        <time>2009-06-14T07:27:08Z</time>
      </trkpt>
      <trkpt lat="45.5276" lon="3.09798">
        <ele>702.86108398438</ele>
        <time>2009-06-14T07:27:14Z</time>
      </trkpt>
      <trkpt lat="45.52762" lon="3.0978">
        <ele>704.30322265625</ele>
        <time>2009-06-14T07:27:21Z</time>
      </trkpt>
      <trkpt lat="45.52768" lon="3.09763">
        <ele>705.7451171875</ele>
        <time>2009-06-14T07:27:28Z</time>
      </trkpt>
      <trkpt lat="45.52775" lon="3.09748">
        <ele>707.66772460938</ele>
        <time>2009-06-14T07:27:35Z</time>
      </trkpt>
      <trkpt lat="45.52786" lon="3.09736">
        <ele>709.10961914062</ele>
        <time>2009-06-14T07:27:43Z</time>
      </trkpt>
      <trkpt lat="45.52794" lon="3.09732">
        <ele>710.07080078125</ele>
        <time>2009-06-14T07:27:48Z</time>
      </trkpt>
      <trkpt lat="45.52809" lon="3.09729">
        <ele>712.95483398438</ele>
        <time>2009-06-14T07:27:57Z</time>
      </trkpt>
      <trkpt lat="45.5282" lon="3.09728">
        <ele>714.39672851562</ele>
        <time>2009-06-14T07:28:04Z</time>
      </trkpt>
      <trkpt lat="45.52832" lon="3.09726">
        <ele>716.31958007812</ele>
        <time>2009-06-14T07:28:11Z</time>
      </trkpt>
      <trkpt lat="45.52841" lon="3.09728">
        <ele>717.76147460938</ele>
        <time>2009-06-14T07:28:16Z</time>
      </trkpt>
      <trkpt lat="45.5285" lon="3.09732">
        <ele>719.68432617188</ele>
        <time>2009-06-14T07:28:22Z</time>
      </trkpt>
      <trkpt lat="45.52862" lon="3.09736">
        <ele>720.16479492188</ele>
        <time>2009-06-14T07:28:29Z</time>
      </trkpt>
      <trkpt lat="45.52872" lon="3.09731">
        <ele>720.6455078125</ele>
        <time>2009-06-14T07:28:35Z</time>
      </trkpt>
      <trkpt lat="45.52878" lon="3.09718">
        <ele>723.048828125</ele>
        <time>2009-06-14T07:28:42Z</time>
      </trkpt>
      <trkpt lat="45.52879" lon="3.0971">
        <ele>724.49072265625</ele>
        <time>2009-06-14T07:28:45Z</time>
      </trkpt>
      <trkpt lat="45.52873" lon="3.09693">
        <ele>726.41333007812</ele>
        <time>2009-06-14T07:28:53Z</time>
      </trkpt>
      <trkpt lat="45.52869" lon="3.09685">
        <ele>727.85522460938</ele>
        <time>2009-06-14T07:28:57Z</time>
      </trkpt>
      <trkpt lat="45.52863" lon="3.09672">
        <ele>730.25854492188</ele>
        <time>2009-06-14T07:29:04Z</time>
      </trkpt>
      <trkpt lat="45.52857" lon="3.09647">
        <ele>732.662109375</ele>
        <time>2009-06-14T07:29:15Z</time>
      </trkpt>
      <trkpt lat="45.52854" lon="3.09626">
        <ele>735.0654296875</ele>
        <time>2009-06-14T07:29:24Z</time>
      </trkpt>
      <trkpt lat="45.52855" lon="3.09603">
        <ele>736.50732421875</ele>
        <time>2009-06-14T07:29:33Z</time>
      </trkpt>
      <trkpt lat="45.52859" lon="3.09591">
        <ele>737.46850585938</ele>
        <time>2009-06-14T07:29:39Z</time>
      </trkpt>
      <trkpt lat="45.52868" lon="3.09588">
        <ele>738.91064453125</ele>
        <time>2009-06-14T07:29:45Z</time>
      </trkpt>
      <trkpt lat="45.52878" lon="3.09582">
        <ele>740.3525390625</ele>
        <time>2009-06-14T07:29:52Z</time>
      </trkpt>
      <trkpt lat="45.52885" lon="3.09579">
        <ele>741.79443359375</ele>
        <time>2009-06-14T07:29:57Z</time>
      </trkpt>
      <trkpt lat="45.52898" lon="3.09571">
        <ele>744.19775390625</ele>
        <time>2009-06-14T07:30:05Z</time>
      </trkpt>
      <trkpt lat="45.52906" lon="3.09563">
        <ele>746.60107421875</ele>
        <time>2009-06-14T07:30:12Z</time>
      </trkpt>
      <trkpt lat="45.52907" lon="3.09548">
        <ele>747.08154296875</ele>
        <time>2009-06-14T07:30:18Z</time>
      </trkpt>
      <trkpt lat="45.52905" lon="3.09527">
        <ele>748.52368164062</ele>
        <time>2009-06-14T07:30:26Z</time>
      </trkpt>
      <trkpt lat="45.52904" lon="3.09509">
        <ele>749.9658203125</ele>
        <time>2009-06-14T07:30:33Z</time>
      </trkpt>
      <trkpt lat="45.52898" lon="3.09482">
        <ele>751.40771484375</ele>
        <time>2009-06-14T07:30:43Z</time>
      </trkpt>
      <trkpt lat="45.52893" lon="3.09453">
        <ele>753.33032226562</ele>
        <time>2009-06-14T07:30:52Z</time>
      </trkpt>
      <trkpt lat="45.52896" lon="3.09432">
        <ele>754.29174804688</ele>
        <time>2009-06-14T07:30:59Z</time>
      </trkpt>
      <trkpt lat="45.52899" lon="3.09407">
        <ele>756.21411132812</ele>
        <time>2009-06-14T07:31:08Z</time>
      </trkpt>
      <trkpt lat="45.5291" lon="3.09386">
        <ele>759.09814453125</ele>
        <time>2009-06-14T07:31:18Z</time>
      </trkpt>
      <trkpt lat="45.52919" lon="3.09373">
        <ele>761.02075195312</ele>
        <time>2009-06-14T07:31:25Z</time>
      </trkpt>
      <trkpt lat="45.52924" lon="3.09362">
        <ele>761.98217773438</ele>
        <time>2009-06-14T07:31:31Z</time>
      </trkpt>
      <trkpt lat="45.5293" lon="3.09345">
        <ele>764.38549804688</ele>
        <time>2009-06-14T07:31:40Z</time>
      </trkpt>
      <trkpt lat="45.52934" lon="3.09328">
        <ele>766.78881835938</ele>
        <time>2009-06-14T07:31:49Z</time>
      </trkpt>
      <trkpt lat="45.52934" lon="3.09317">
        <ele>768.23071289062</ele>
        <time>2009-06-14T07:31:55Z</time>
      </trkpt>
      <trkpt lat="45.5293" lon="3.09298">
        <ele>770.1533203125</ele>
        <time>2009-06-14T07:32:04Z</time>
      </trkpt>
      <trkpt lat="45.5293" lon="3.09279">
        <ele>772.556640625</ele>
        <time>2009-06-14T07:32:13Z</time>
      </trkpt>
      <trkpt lat="45.52935" lon="3.09262">
        <ele>773.99853515625</ele>
        <time>2009-06-14T07:32:22Z</time>
      </trkpt>
      <trkpt lat="45.52942" lon="3.09245">
        <ele>777.36328125</ele>
        <time>2009-06-14T07:32:32Z</time>
      </trkpt>
      <trkpt lat="45.52946" lon="3.09236">
        <ele>778.32446289062</ele>
        <time>2009-06-14T07:32:37Z</time>
      </trkpt>
      <trkpt lat="45.5295" lon="3.09228">
        <ele>778.80517578125</ele>
        <time>2009-06-14T07:32:42Z</time>
      </trkpt>
      <trkpt lat="45.52956" lon="3.09213">
        <ele>780.72802734375</ele>
        <time>2009-06-14T07:32:51Z</time>
      </trkpt>
      <trkpt lat="45.5296" lon="3.09205">
        <ele>783.13110351562</ele>
        <time>2009-06-14T07:32:57Z</time>
      </trkpt>
      <trkpt lat="45.52964" lon="3.09193">
        <ele>784.09252929688</ele>
        <time>2009-06-14T07:33:05Z</time>
      </trkpt>
      <trkpt lat="45.52972" lon="3.09185">
        <ele>785.53442382812</ele>
        <time>2009-06-14T07:33:13Z</time>
      </trkpt>
      <trkpt lat="45.52978" lon="3.09175">
        <ele>786.49584960938</ele>
        <time>2009-06-14T07:33:21Z</time>
      </trkpt>
      <trkpt lat="45.52981" lon="3.09168">
        <ele>788.41845703125</ele>
        <time>2009-06-14T07:33:25Z</time>
      </trkpt>
      <trkpt lat="45.52987" lon="3.09158">
        <ele>790.82153320312</ele>
        <time>2009-06-14T07:33:33Z</time>
      </trkpt>
      <trkpt lat="45.52988" lon="3.09156">
        <ele>790.82153320312</ele>
        <time>2009-06-14T07:33:42Z</time>
      </trkpt>
      <trkpt lat="45.52993" lon="3.09151">
        <ele>792.263671875</ele>
        <time>2009-06-14T07:33:50Z</time>
      </trkpt>
      <trkpt lat="45.52998" lon="3.09152">
        <ele>793.70556640625</ele>
        <time>2009-06-14T07:33:56Z</time>
      </trkpt>
      <trkpt lat="45.53004" lon="3.09156">
        <ele>795.1474609375</ele>
        <time>2009-06-14T07:34:04Z</time>
      </trkpt>
      <trkpt lat="45.53006" lon="3.09158">
        <ele>796.10913085938</ele>
        <time>2009-06-14T07:34:07Z</time>
      </trkpt>
      <trkpt lat="45.53009" lon="3.09161">
        <ele>797.55102539062</ele>
        <time>2009-06-14T07:34:12Z</time>
      </trkpt>
      <trkpt lat="45.53014" lon="3.0917">
        <ele>798.99291992188</ele>
        <time>2009-06-14T07:34:20Z</time>
      </trkpt>
      <trkpt lat="45.53018" lon="3.09181">
        <ele>800.43505859375</ele>
        <time>2009-06-14T07:34:29Z</time>
      </trkpt>
      <trkpt lat="45.53024" lon="3.09189">
        <ele>801.39624023438</ele>
        <time>2009-06-14T07:34:38Z</time>
      </trkpt>
      <trkpt lat="45.53028" lon="3.09196">
        <ele>803.79956054688</ele>
        <time>2009-06-14T07:34:46Z</time>
      </trkpt>
      <trkpt lat="45.53035" lon="3.09205">
        <ele>805.24145507812</ele>
        <time>2009-06-14T07:34:55Z</time>
      </trkpt>
      <trkpt lat="45.53038" lon="3.09207">
        <ele>805.24145507812</ele>
        <time>2009-06-14T07:35:01Z</time>
      </trkpt>
      <trkpt lat="45.53038" lon="3.09207">
        <ele>805.72216796875</ele>
        <time>2009-06-14T07:35:04Z</time>
      </trkpt>
      <trkpt lat="45.53045" lon="3.09212">
        <ele>806.68334960938</ele>
        <time>2009-06-14T07:35:10Z</time>
      </trkpt>
      <trkpt lat="45.53056" lon="3.09222">
        <ele>809.08666992188</ele>
        <time>2009-06-14T07:35:20Z</time>
      </trkpt>
      <trkpt lat="45.53067" lon="3.09235">
        <ele>811.48999023438</ele>
        <time>2009-06-14T07:35:30Z</time>
      </trkpt>
      <trkpt lat="45.53076" lon="3.09245">
        <ele>813.41284179688</ele>
        <time>2009-06-14T07:35:38Z</time>
      </trkpt>
      <trkpt lat="45.5308" lon="3.09248">
        <ele>813.89331054688</ele>
        <time>2009-06-14T07:35:41Z</time>
      </trkpt>
      <trkpt lat="45.53085" lon="3.09256">
        <ele>813.89331054688</ele>
        <time>2009-06-14T07:35:46Z</time>
      </trkpt>
      <trkpt lat="45.53097" lon="3.09271">
        <ele>815.81616210938</ele>
        <time>2009-06-14T07:35:56Z</time>
      </trkpt>
      <trkpt lat="45.53107" lon="3.09286">
        <ele>817.25805664062</ele>
        <time>2009-06-14T07:36:04Z</time>
      </trkpt>
      <trkpt lat="45.53119" lon="3.09308">
        <ele>818.69995117188</ele>
        <time>2009-06-14T07:36:12Z</time>
      </trkpt>
      <trkpt lat="45.53129" lon="3.0933">
        <ele>819.66137695312</ele>
        <time>2009-06-14T07:36:19Z</time>
      </trkpt>
      <trkpt lat="45.53144" lon="3.0935">
        <ele>821.10327148438</ele>
        <time>2009-06-14T07:36:27Z</time>
      </trkpt>
      <trkpt lat="45.5316" lon="3.09368">
        <ele>823.02587890625</ele>
        <time>2009-06-14T07:36:35Z</time>
      </trkpt>
      <trkpt lat="45.53178" lon="3.09382">
        <ele>824.4677734375</ele>
        <time>2009-06-14T07:36:43Z</time>
      </trkpt>
      <trkpt lat="45.53193" lon="3.09393">
        <ele>826.87109375</ele>
        <time>2009-06-14T07:36:50Z</time>
      </trkpt>
      <trkpt lat="45.53195" lon="3.09394">
        <ele>826.87109375</ele>
        <time>2009-06-14T07:36:51Z</time>
      </trkpt>
      <trkpt lat="45.53209" lon="3.09391">
        <ele>827.83227539062</ele>
        <time>2009-06-14T07:36:57Z</time>
      </trkpt>
      <trkpt lat="45.53223" lon="3.0939">
        <ele>829.2744140625</ele>
        <time>2009-06-14T07:37:03Z</time>
      </trkpt>
      <trkpt lat="45.53244" lon="3.09388">
        <ele>832.63916015625</ele>
        <time>2009-06-14T07:37:12Z</time>
      </trkpt>
      <trkpt lat="45.5326" lon="3.09387">
        <ele>834.0810546875</ele>
        <time>2009-06-14T07:37:19Z</time>
      </trkpt>
      <trkpt lat="45.53273" lon="3.09385">
        <ele>834.56176757812</ele>
        <time>2009-06-14T07:37:25Z</time>
      </trkpt>
      <trkpt lat="45.53288" lon="3.09375">
        <ele>834.56176757812</ele>
        <time>2009-06-14T07:37:31Z</time>
      </trkpt>
      <trkpt lat="45.53307" lon="3.09349">
        <ele>833.11962890625</ele>
        <time>2009-06-14T07:37:38Z</time>
      </trkpt>
      <trkpt lat="45.53332" lon="3.09315">
        <ele>830.71655273438</ele>
        <time>2009-06-14T07:37:44Z</time>
      </trkpt>
      <trkpt lat="45.53357" lon="3.09281">
        <ele>827.83227539062</ele>
        <time>2009-06-14T07:37:49Z</time>
      </trkpt>
      <trkpt lat="45.53363" lon="3.09274">
        <ele>827.83227539062</ele>
        <time>2009-06-14T07:37:50Z</time>
      </trkpt>
      <trkpt lat="45.53379" lon="3.09252">
        <ele>826.87109375</ele>
        <time>2009-06-14T07:37:53Z</time>
      </trkpt>
      <trkpt lat="45.53412" lon="3.09209">
        <ele>825.42895507812</ele>
        <time>2009-06-14T07:37:59Z</time>
      </trkpt>
      <trkpt lat="45.5343" lon="3.09187">
        <ele>824.4677734375</ele>
        <time>2009-06-14T07:38:02Z</time>
      </trkpt>
      <trkpt lat="45.53441" lon="3.09173">
        <ele>824.94848632812</ele>
        <time>2009-06-14T07:38:04Z</time>
      </trkpt>
      <trkpt lat="45.53458" lon="3.09154">
        <ele>824.94848632812</ele>
        <time>2009-06-14T07:38:07Z</time>
      </trkpt>
      <trkpt lat="45.53487" lon="3.09135">
        <ele>825.42895507812</ele>
        <time>2009-06-14T07:38:12Z</time>
      </trkpt>
      <trkpt lat="45.53533" lon="3.09104">
        <ele>823.98706054688</ele>
        <time>2009-06-14T07:38:20Z</time>
      </trkpt>
      <trkpt lat="45.53573" lon="3.09079">
        <ele>822.54516601562</ele>
        <time>2009-06-14T07:38:28Z</time>
      </trkpt>
      <trkpt lat="45.53582" lon="3.09073">
        <ele>823.02587890625</ele>
        <time>2009-06-14T07:38:30Z</time>
      </trkpt>
      <trkpt lat="45.53603" lon="3.09049">
        <ele>822.54516601562</ele>
        <time>2009-06-14T07:38:37Z</time>
      </trkpt>
      <trkpt lat="45.53605" lon="3.09045">
        <ele>823.02587890625</ele>
        <time>2009-06-14T07:38:38Z</time>
      </trkpt>
      <trkpt lat="45.53614" lon="3.09024">
        <ele>822.064453125</ele>
        <time>2009-06-14T07:38:42Z</time>
      </trkpt>
      <trkpt lat="45.53624" lon="3.09006">
        <ele>819.1806640625</ele>
        <time>2009-06-14T07:38:45Z</time>
      </trkpt>
      <trkpt lat="45.53631" lon="3.08987">
        <ele>817.25805664062</ele>
        <time>2009-06-14T07:38:48Z</time>
      </trkpt>
      <trkpt lat="45.53631" lon="3.08957">
        <ele>815.33544921875</ele>
        <time>2009-06-14T07:38:53Z</time>
      </trkpt>
      <trkpt lat="45.53628" lon="3.08948">
        <ele>813.89331054688</ele>
        <time>2009-06-14T07:38:55Z</time>
      </trkpt>
      <trkpt lat="45.53625" lon="3.08935">
        <ele>811.00927734375</ele>
        <time>2009-06-14T07:38:57Z</time>
      </trkpt>
      <trkpt lat="45.53624" lon="3.0892">
        <ele>809.08666992188</ele>
        <time>2009-06-14T07:38:59Z</time>
      </trkpt>
      <trkpt lat="45.53622" lon="3.08902">
        <ele>805.24145507812</ele>
        <time>2009-06-14T07:39:01Z</time>
      </trkpt>
      <trkpt lat="45.53628" lon="3.08849">
        <ele>801.876953125</ele>
        <time>2009-06-14T07:39:06Z</time>
      </trkpt>
      <trkpt lat="45.53634" lon="3.08825">
        <ele>800.43505859375</ele>
        <time>2009-06-14T07:39:08Z</time>
      </trkpt>
      <trkpt lat="45.53642" lon="3.08771">
        <ele>800.91552734375</ele>
        <time>2009-06-14T07:39:13Z</time>
      </trkpt>
      <trkpt lat="45.53643" lon="3.08753">
        <ele>801.39624023438</ele>
        <time>2009-06-14T07:39:15Z</time>
      </trkpt>
      <trkpt lat="45.53645" lon="3.08725">
        <ele>803.31884765625</ele>
        <time>2009-06-14T07:39:19Z</time>
      </trkpt>
      <trkpt lat="45.53645" lon="3.08719">
        <ele>803.79956054688</ele>
        <time>2009-06-14T07:39:20Z</time>
      </trkpt>
      <trkpt lat="45.53649" lon="3.08698">
        <ele>801.876953125</ele>
        <time>2009-06-14T07:39:23Z</time>
      </trkpt>
      <trkpt lat="45.53657" lon="3.08673">
        <ele>798.03173828125</ele>
        <time>2009-06-14T07:39:26Z</time>
      </trkpt>
      <trkpt lat="45.5366" lon="3.08628">
        <ele>792.263671875</ele>
        <time>2009-06-14T07:39:30Z</time>
      </trkpt>
      <trkpt lat="45.53651" lon="3.08569">
        <ele>788.89916992188</ele>
        <time>2009-06-14T07:39:35Z</time>
      </trkpt>
      <trkpt lat="45.53646" lon="3.08524">
        <ele>787.45703125</ele>
        <time>2009-06-14T07:39:39Z</time>
      </trkpt>
      <trkpt lat="45.5364" lon="3.08438">
        <ele>784.09252929688</ele>
        <time>2009-06-14T07:39:46Z</time>
      </trkpt>
      <trkpt lat="45.53641" lon="3.08398">
        <ele>781.20874023438</ele>
        <time>2009-06-14T07:39:49Z</time>
      </trkpt>
      <trkpt lat="45.53644" lon="3.08369">
        <ele>778.80517578125</ele>
        <time>2009-06-14T07:39:51Z</time>
      </trkpt>
      <trkpt lat="45.53648" lon="3.08339">
        <ele>775.92114257812</ele>
        <time>2009-06-14T07:39:53Z</time>
      </trkpt>
      <trkpt lat="45.53652" lon="3.08307">
        <ele>772.07592773438</ele>
        <time>2009-06-14T07:39:55Z</time>
      </trkpt>
      <trkpt lat="45.53656" lon="3.08273">
        <ele>769.19213867188</ele>
        <time>2009-06-14T07:39:57Z</time>
      </trkpt>
      <trkpt lat="45.53657" lon="3.08257">
        <ele>769.19213867188</ele>
        <time>2009-06-14T07:39:58Z</time>
      </trkpt>
      <trkpt lat="45.53661" lon="3.08202">
        <ele>766.78881835938</ele>
        <time>2009-06-14T07:40:02Z</time>
      </trkpt>
      <trkpt lat="45.53663" lon="3.0817">
        <ele>763.42407226562</ele>
        <time>2009-06-14T07:40:05Z</time>
      </trkpt>
      <trkpt lat="45.53665" lon="3.08148">
        <ele>760.05932617188</ele>
        <time>2009-06-14T07:40:07Z</time>
      </trkpt>
      <trkpt lat="45.53667" lon="3.08112">
        <ele>756.69482421875</ele>
        <time>2009-06-14T07:40:10Z</time>
      </trkpt>
      <trkpt lat="45.53668" lon="3.08076">
        <ele>752.849609375</ele>
        <time>2009-06-14T07:40:13Z</time>
      </trkpt>
      <trkpt lat="45.53669" lon="3.08037">
        <ele>749.48510742188</ele>
        <time>2009-06-14T07:40:16Z</time>
      </trkpt>
      <trkpt lat="45.53669" lon="3.08008">
        <ele>749.9658203125</ele>
        <time>2009-06-14T07:40:19Z</time>
      </trkpt>
      <trkpt lat="45.5367" lon="3.08002">
        <ele>749.48510742188</ele>
        <time>2009-06-14T07:40:20Z</time>
      </trkpt>
      <trkpt lat="45.53678" lon="3.07996">
        <ele>749.48510742188</ele>
        <time>2009-06-14T07:40:24Z</time>
      </trkpt>
      <trkpt lat="45.53688" lon="3.08002">
        <ele>748.04321289062</ele>
        <time>2009-06-14T07:40:28Z</time>
      </trkpt>
      <trkpt lat="45.53702" lon="3.0801">
        <ele>746.60107421875</ele>
        <time>2009-06-14T07:40:34Z</time>
      </trkpt>
      <trkpt lat="45.53703" lon="3.08012">
        <ele>746.60107421875</ele>
        <time>2009-06-14T07:40:38Z</time>
      </trkpt>
      <trkpt lat="45.53704" lon="3.08012">
        <ele>747.08154296875</ele>
        <time>2009-06-14T07:41:00Z</time>
      </trkpt>
      <trkpt lat="45.53704" lon="3.08012">
        <ele>747.08154296875</ele>
        <time>2009-06-14T07:41:08Z</time>
      </trkpt>
      <trkpt lat="45.53705" lon="3.08012">
        <ele>746.60107421875</ele>
        <time>2009-06-14T07:41:21Z</time>
      </trkpt>
      <trkpt lat="45.53705" lon="3.08011">
        <ele>746.60107421875</ele>
        <time>2009-06-14T07:41:27Z</time>
      </trkpt>
      <trkpt lat="45.53708" lon="3.08009">
        <ele>746.60107421875</ele>
        <time>2009-06-14T07:42:06Z</time>
      </trkpt>
      <trkpt lat="45.53707" lon="3.08011">
        <ele>747.08154296875</ele>
        <time>2009-06-14T07:42:10Z</time>
      </trkpt>
      <trkpt lat="45.53706" lon="3.08012">
        <ele>746.60107421875</ele>
        <time>2009-06-14T07:42:20Z</time>
      </trkpt>
      <trkpt lat="45.53706" lon="3.08013">
        <ele>746.60107421875</ele>
        <time>2009-06-14T07:42:26Z</time>
      </trkpt>
      <trkpt lat="45.53706" lon="3.08013">
        <ele>746.12036132812</ele>
        <time>2009-06-14T07:42:28Z</time>
      </trkpt>
      <trkpt lat="45.53706" lon="3.08013">
        <ele>746.12036132812</ele>
        <time>2009-06-14T07:42:29Z</time>
      </trkpt>
      <trkpt lat="45.53706" lon="3.08013">
        <ele>746.60107421875</ele>
        <time>2009-06-14T07:42:31Z</time>
      </trkpt>
      <trkpt lat="45.53706" lon="3.08013">
        <ele>746.12036132812</ele>
        <time>2009-06-14T07:42:32Z</time>
      </trkpt>
      <trkpt lat="45.53706" lon="3.08013">
        <ele>746.12036132812</ele>
        <time>2009-06-14T07:42:33Z</time>
      </trkpt>
      <trkpt lat="45.53712" lon="3.08018">
        <ele>743.71704101562</ele>
        <time>2009-06-14T07:42:37Z</time>
      </trkpt>
      <trkpt lat="45.53716" lon="3.08019">
        <ele>743.71704101562</ele>
        <time>2009-06-14T07:42:38Z</time>
      </trkpt>
      <trkpt lat="45.53723" lon="3.0802">
        <ele>740.3525390625</ele>
        <time>2009-06-14T07:42:41Z</time>
      </trkpt>
      <trkpt lat="45.53726" lon="3.08021">
        <ele>740.3525390625</ele>
        <time>2009-06-14T07:42:42Z</time>
      </trkpt>
      <trkpt lat="45.53733" lon="3.08019">
        <ele>738.91064453125</ele>
        <time>2009-06-14T07:42:44Z</time>
      </trkpt>
      <trkpt lat="45.53748" lon="3.08004">
        <ele>735.0654296875</ele>
        <time>2009-06-14T07:42:48Z</time>
      </trkpt>
      <trkpt lat="45.53751" lon="3.08001">
        <ele>735.0654296875</ele>
        <time>2009-06-14T07:42:49Z</time>
      </trkpt>
      <trkpt lat="45.5376" lon="3.07992">
        <ele>732.662109375</ele>
        <time>2009-06-14T07:42:52Z</time>
      </trkpt>
      <trkpt lat="45.53767" lon="3.07988">
        <ele>729.29711914062</ele>
        <time>2009-06-14T07:42:54Z</time>
      </trkpt>
      <trkpt lat="45.53776" lon="3.07979">
        <ele>726.41333007812</ele>
        <time>2009-06-14T07:42:57Z</time>
      </trkpt>
      <trkpt lat="45.5378" lon="3.07956">
        <ele>723.52954101562</ele>
        <time>2009-06-14T07:43:00Z</time>
      </trkpt>
      <trkpt lat="45.53789" lon="3.07918">
        <ele>719.68432617188</ele>
        <time>2009-06-14T07:43:05Z</time>
      </trkpt>
      <trkpt lat="45.53793" lon="3.07898">
        <ele>718.2421875</ele>
        <time>2009-06-14T07:43:08Z</time>
      </trkpt>
      <trkpt lat="45.53794" lon="3.07884">
        <ele>717.76147460938</ele>
        <time>2009-06-14T07:43:10Z</time>
      </trkpt>
      <trkpt lat="45.53809" lon="3.07863">
        <ele>712.47412109375</ele>
        <time>2009-06-14T07:43:14Z</time>
      </trkpt>
      <trkpt lat="45.53824" lon="3.07857">
        <ele>711.0322265625</ele>
        <time>2009-06-14T07:43:17Z</time>
      </trkpt>
      <trkpt lat="45.53854" lon="3.07845">
        <ele>707.66772460938</ele>
        <time>2009-06-14T07:43:23Z</time>
      </trkpt>
      <trkpt lat="45.53871" lon="3.07824">
        <ele>708.1484375</ele>
        <time>2009-06-14T07:43:28Z</time>
      </trkpt>
      <trkpt lat="45.53872" lon="3.07808">
        <ele>709.59033203125</ele>
        <time>2009-06-14T07:43:31Z</time>
      </trkpt>
      <trkpt lat="45.53868" lon="3.07792">
        <ele>711.0322265625</ele>
        <time>2009-06-14T07:43:36Z</time>
      </trkpt>
      <trkpt lat="45.5386" lon="3.07777">
        <ele>711.99365234375</ele>
        <time>2009-06-14T07:43:41Z</time>
      </trkpt>
      <trkpt lat="45.53849" lon="3.07756">
        <ele>711.99365234375</ele>
        <time>2009-06-14T07:43:47Z</time>
      </trkpt>
      <trkpt lat="45.53844" lon="3.07744">
        <ele>711.0322265625</ele>
        <time>2009-06-14T07:43:50Z</time>
      </trkpt>
      <trkpt lat="45.53831" lon="3.07712">
        <ele>708.62890625</ele>
        <time>2009-06-14T07:43:56Z</time>
      </trkpt>
      <trkpt lat="45.53816" lon="3.07671">
        <ele>706.70629882812</ele>
        <time>2009-06-14T07:44:02Z</time>
      </trkpt>
      <trkpt lat="45.53799" lon="3.07646">
        <ele>705.26440429688</ele>
        <time>2009-06-14T07:44:06Z</time>
      </trkpt>
      <trkpt lat="45.53794" lon="3.07643">
        <ele>705.7451171875</ele>
        <time>2009-06-14T07:44:07Z</time>
      </trkpt>
      <trkpt lat="45.53762" lon="3.07629">
        <ele>704.30322265625</ele>
        <time>2009-06-14T07:44:13Z</time>
      </trkpt>
      <trkpt lat="45.53744" lon="3.07611">
        <ele>703.82250976562</ele>
        <time>2009-06-14T07:44:17Z</time>
      </trkpt>
      <trkpt lat="45.53736" lon="3.07598">
        <ele>703.341796875</ele>
        <time>2009-06-14T07:44:19Z</time>
      </trkpt>
      <trkpt lat="45.53727" lon="3.07586">
        <ele>702.38037109375</ele>
        <time>2009-06-14T07:44:21Z</time>
      </trkpt>
      <trkpt lat="45.53698" lon="3.07571">
        <ele>698.05444335938</ele>
        <time>2009-06-14T07:44:25Z</time>
      </trkpt>
      <trkpt lat="45.5368" lon="3.07565">
        <ele>696.61254882812</ele>
        <time>2009-06-14T07:44:27Z</time>
      </trkpt>
      <trkpt lat="45.53662" lon="3.07559">
        <ele>695.17041015625</ele>
        <time>2009-06-14T07:44:29Z</time>
      </trkpt>
      <trkpt lat="45.53611" lon="3.07538">
        <ele>695.65112304688</ele>
        <time>2009-06-14T07:44:35Z</time>
      </trkpt>
      <trkpt lat="45.5359" lon="3.07526">
        <ele>695.65112304688</ele>
        <time>2009-06-14T07:44:38Z</time>
      </trkpt>
      <trkpt lat="45.53578" lon="3.07519">
        <ele>697.09301757812</ele>
        <time>2009-06-14T07:44:40Z</time>
      </trkpt>
      <trkpt lat="45.53563" lon="3.0751">
        <ele>696.1318359375</ele>
        <time>2009-06-14T07:44:43Z</time>
      </trkpt>
      <trkpt lat="45.53549" lon="3.07484">
        <ele>695.17041015625</ele>
        <time>2009-06-14T07:44:47Z</time>
      </trkpt>
      <trkpt lat="45.53543" lon="3.07456">
        <ele>692.76733398438</ele>
        <time>2009-06-14T07:44:50Z</time>
      </trkpt>
      <trkpt lat="45.53534" lon="3.07407">
        <ele>690.36401367188</ele>
        <time>2009-06-14T07:44:55Z</time>
      </trkpt>
      <trkpt lat="45.53528" lon="3.0738">
        <ele>686.99926757812</ele>
        <time>2009-06-14T07:44:58Z</time>
      </trkpt>
      <trkpt lat="45.53527" lon="3.07372">
        <ele>686.51879882812</ele>
        <time>2009-06-14T07:44:59Z</time>
      </trkpt>
      <trkpt lat="45.53524" lon="3.07358">
        <ele>685.55737304688</ele>
        <time>2009-06-14T07:45:01Z</time>
      </trkpt>
      <trkpt lat="45.53529" lon="3.07344">
        <ele>682.67333984375</ele>
        <time>2009-06-14T07:45:04Z</time>
      </trkpt>
      <trkpt lat="45.53541" lon="3.07342">
        <ele>678.828125</ele>
        <time>2009-06-14T07:45:07Z</time>
      </trkpt>
      <trkpt lat="45.53555" lon="3.07343">
        <ele>677.86669921875</ele>
        <time>2009-06-14T07:45:09Z</time>
      </trkpt>
      <trkpt lat="45.53603" lon="3.0733">
        <ele>676.90551757812</ele>
        <time>2009-06-14T07:45:15Z</time>
      </trkpt>
      <trkpt lat="45.53634" lon="3.07303">
        <ele>677.86669921875</ele>
        <time>2009-06-14T07:45:20Z</time>
      </trkpt>
      <trkpt lat="45.53672" lon="3.07265">
        <ele>676.4248046875</ele>
        <time>2009-06-14T07:45:28Z</time>
      </trkpt>
      <trkpt lat="45.5368" lon="3.07254">
        <ele>675.94409179688</ele>
        <time>2009-06-14T07:45:30Z</time>
      </trkpt>
      <trkpt lat="45.53708" lon="3.07193">
        <ele>675.94409179688</ele>
        <time>2009-06-14T07:45:39Z</time>
      </trkpt>
      <trkpt lat="45.53718" lon="3.07164">
        <ele>675.46337890625</ele>
        <time>2009-06-14T07:45:43Z</time>
      </trkpt>
      <trkpt lat="45.53727" lon="3.07138">
        <ele>677.38623046875</ele>
        <time>2009-06-14T07:45:47Z</time>
      </trkpt>
      <trkpt lat="45.5373" lon="3.07126">
        <ele>678.828125</ele>
        <time>2009-06-14T07:45:49Z</time>
      </trkpt>
      <trkpt lat="45.53732" lon="3.07121">
        <ele>678.828125</ele>
        <time>2009-06-14T07:45:50Z</time>
      </trkpt>
      <trkpt lat="45.53737" lon="3.07105">
        <ele>679.78930664062</ele>
        <time>2009-06-14T07:45:53Z</time>
      </trkpt>
      <trkpt lat="45.5374" lon="3.07095">
        <ele>680.27001953125</ele>
        <time>2009-06-14T07:45:55Z</time>
      </trkpt>
      <trkpt lat="45.53744" lon="3.07077">
        <ele>679.78930664062</ele>
        <time>2009-06-14T07:45:58Z</time>
      </trkpt>
      <trkpt lat="45.53752" lon="3.07033">
        <ele>680.75073242188</ele>
        <time>2009-06-14T07:46:05Z</time>
      </trkpt>
      <trkpt lat="45.53755" lon="3.07011">
        <ele>683.63452148438</ele>
        <time>2009-06-14T07:46:10Z</time>
      </trkpt>
      <trkpt lat="45.53756" lon="3.06978">
        <ele>685.55737304688</ele>
        <time>2009-06-14T07:46:19Z</time>
      </trkpt>
      <trkpt lat="45.53751" lon="3.06961">
        <ele>687.47998046875</ele>
        <time>2009-06-14T07:46:24Z</time>
      </trkpt>
      <trkpt lat="45.53753" lon="3.0694">
        <ele>687.47998046875</ele>
        <time>2009-06-14T07:46:29Z</time>
      </trkpt>
      <trkpt lat="45.53762" lon="3.06904">
        <ele>688.44140625</ele>
        <time>2009-06-14T07:46:37Z</time>
      </trkpt>
      <trkpt lat="45.53773" lon="3.06857">
        <ele>688.44140625</ele>
        <time>2009-06-14T07:46:47Z</time>
      </trkpt>
      <trkpt lat="45.53774" lon="3.06852">
        <ele>688.92211914062</ele>
        <time>2009-06-14T07:46:48Z</time>
      </trkpt>
      <trkpt lat="45.53775" lon="3.06839">
        <ele>688.92211914062</ele>
        <time>2009-06-14T07:46:50Z</time>
      </trkpt>
      <trkpt lat="45.53775" lon="3.06795">
        <ele>687.96069335938</ele>
        <time>2009-06-14T07:46:56Z</time>
      </trkpt>
      <trkpt lat="45.53772" lon="3.06741">
        <ele>686.99926757812</ele>
        <time>2009-06-14T07:47:03Z</time>
      </trkpt>
      <trkpt lat="45.53771" lon="3.06726">
        <ele>686.51879882812</ele>
        <time>2009-06-14T07:47:05Z</time>
      </trkpt>
      <trkpt lat="45.53764" lon="3.06699">
        <ele>686.0380859375</ele>
        <time>2009-06-14T07:47:09Z</time>
      </trkpt>
      <trkpt lat="45.53756" lon="3.0668">
        <ele>685.07690429688</ele>
        <time>2009-06-14T07:47:12Z</time>
      </trkpt>
      <trkpt lat="45.53749" lon="3.06647">
        <ele>681.2314453125</ele>
        <time>2009-06-14T07:47:16Z</time>
      </trkpt>
      <trkpt lat="45.5375" lon="3.06626">
        <ele>678.34741210938</ele>
        <time>2009-06-14T07:47:18Z</time>
      </trkpt>
      <trkpt lat="45.5375" lon="3.06615">
        <ele>677.86669921875</ele>
        <time>2009-06-14T07:47:19Z</time>
      </trkpt>
      <trkpt lat="45.5375" lon="3.06604">
        <ele>677.86669921875</ele>
        <time>2009-06-14T07:47:20Z</time>
      </trkpt>
      <trkpt lat="45.53748" lon="3.06583">
        <ele>675.94409179688</ele>
        <time>2009-06-14T07:47:22Z</time>
      </trkpt>
      <trkpt lat="45.53746" lon="3.0656">
        <ele>673.541015625</ele>
        <time>2009-06-14T07:47:24Z</time>
      </trkpt>
      <trkpt lat="45.53746" lon="3.06548">
        <ele>674.021484375</ele>
        <time>2009-06-14T07:47:25Z</time>
      </trkpt>
      <trkpt lat="45.53748" lon="3.06524">
        <ele>673.06030273438</ele>
        <time>2009-06-14T07:47:27Z</time>
      </trkpt>
      <trkpt lat="45.53761" lon="3.06465">
        <ele>671.6181640625</ele>
        <time>2009-06-14T07:47:33Z</time>
      </trkpt>
      <trkpt lat="45.53771" lon="3.0641">
        <ele>671.6181640625</ele>
        <time>2009-06-14T07:47:39Z</time>
      </trkpt>
      <trkpt lat="45.53773" lon="3.06363">
        <ele>672.09887695312</ele>
        <time>2009-06-14T07:47:45Z</time>
      </trkpt>
      <trkpt lat="45.53777" lon="3.06332">
        <ele>672.57958984375</ele>
        <time>2009-06-14T07:47:50Z</time>
      </trkpt>
      <trkpt lat="45.5377" lon="3.06313">
        <ele>674.021484375</ele>
        <time>2009-06-14T07:47:54Z</time>
      </trkpt>
      <trkpt lat="45.53764" lon="3.06294">
        <ele>674.98291015625</ele>
        <time>2009-06-14T07:47:58Z</time>
      </trkpt>
      <trkpt lat="45.53762" lon="3.06278">
        <ele>675.94409179688</ele>
        <time>2009-06-14T07:48:01Z</time>
      </trkpt>
      <trkpt lat="45.53762" lon="3.06272">
        <ele>675.46337890625</ele>
        <time>2009-06-14T07:48:02Z</time>
      </trkpt>
      <trkpt lat="45.53761" lon="3.06267">
        <ele>675.46337890625</ele>
        <time>2009-06-14T07:48:03Z</time>
      </trkpt>
      <trkpt lat="45.5376" lon="3.06261">
        <ele>675.94409179688</ele>
        <time>2009-06-14T07:48:04Z</time>
      </trkpt>
      <trkpt lat="45.53756" lon="3.06232">
        <ele>676.90551757812</ele>
        <time>2009-06-14T07:48:09Z</time>
      </trkpt>
      <trkpt lat="45.53754" lon="3.06209">
        <ele>677.38623046875</ele>
        <time>2009-06-14T07:48:13Z</time>
      </trkpt>
      <trkpt lat="45.53752" lon="3.06186">
        <ele>678.34741210938</ele>
        <time>2009-06-14T07:48:17Z</time>
      </trkpt>
      <trkpt lat="45.53749" lon="3.06163">
        <ele>679.30859375</ele>
        <time>2009-06-14T07:48:21Z</time>
      </trkpt>
      <trkpt lat="45.53747" lon="3.06134">
        <ele>678.828125</ele>
        <time>2009-06-14T07:48:26Z</time>
      </trkpt>
      <trkpt lat="45.53743" lon="3.06112">
        <ele>680.27001953125</ele>
        <time>2009-06-14T07:48:30Z</time>
      </trkpt>
      <trkpt lat="45.53728" lon="3.06079">
        <ele>682.19262695312</ele>
        <time>2009-06-14T07:48:37Z</time>
      </trkpt>
      <trkpt lat="45.53704" lon="3.06041">
        <ele>684.59619140625</ele>
        <time>2009-06-14T07:48:47Z</time>
      </trkpt>
      <trkpt lat="45.53682" lon="3.06016">
        <ele>685.55737304688</ele>
        <time>2009-06-14T07:48:55Z</time>
      </trkpt>
      <trkpt lat="45.53662" lon="3.05991">
        <ele>686.0380859375</ele>
        <time>2009-06-14T07:49:02Z</time>
      </trkpt>
      <trkpt lat="45.53635" lon="3.05961">
        <ele>687.47998046875</ele>
        <time>2009-06-14T07:49:11Z</time>
      </trkpt>
      <trkpt lat="45.53623" lon="3.05942">
        <ele>688.44140625</ele>
        <time>2009-06-14T07:49:16Z</time>
      </trkpt>
      <trkpt lat="45.53617" lon="3.05916">
        <ele>688.44140625</ele>
        <time>2009-06-14T07:49:21Z</time>
      </trkpt>
      <trkpt lat="45.53596" lon="3.05877">
        <ele>689.88330078125</ele>
        <time>2009-06-14T07:49:29Z</time>
      </trkpt>
      <trkpt lat="45.53588" lon="3.05863">
        <ele>688.92211914062</ele>
        <time>2009-06-14T07:49:32Z</time>
      </trkpt>
      <trkpt lat="45.53583" lon="3.05831">
        <ele>686.99926757812</ele>
        <time>2009-06-14T07:49:37Z</time>
      </trkpt>
      <trkpt lat="45.53575" lon="3.05803">
        <ele>686.99926757812</ele>
        <time>2009-06-14T07:49:41Z</time>
      </trkpt>
      <trkpt lat="45.53572" lon="3.05796">
        <ele>686.99926757812</ele>
        <time>2009-06-14T07:49:42Z</time>
      </trkpt>
      <trkpt lat="45.5356" lon="3.05753">
        <ele>689.88330078125</ele>
        <time>2009-06-14T07:49:49Z</time>
      </trkpt>
      <trkpt lat="45.53556" lon="3.05713">
        <ele>691.3251953125</ele>
        <time>2009-06-14T07:49:56Z</time>
      </trkpt>
      <trkpt lat="45.53556" lon="3.05707">
        <ele>691.3251953125</ele>
        <time>2009-06-14T07:49:57Z</time>
      </trkpt>
      <trkpt lat="45.53556" lon="3.05664">
        <ele>690.84448242188</ele>
        <time>2009-06-14T07:50:04Z</time>
      </trkpt>
      <trkpt lat="45.5355" lon="3.05619">
        <ele>690.84448242188</ele>
        <time>2009-06-14T07:50:10Z</time>
      </trkpt>
      <trkpt lat="45.5355" lon="3.05565">
        <ele>688.44140625</ele>
        <time>2009-06-14T07:50:17Z</time>
      </trkpt>
      <trkpt lat="45.53552" lon="3.05536">
        <ele>685.55737304688</ele>
        <time>2009-06-14T07:50:20Z</time>
      </trkpt>
      <trkpt lat="45.53556" lon="3.05493">
        <ele>682.19262695312</ele>
        <time>2009-06-14T07:50:24Z</time>
      </trkpt>
      <trkpt lat="45.53558" lon="3.05482">
        <ele>681.7119140625</ele>
        <time>2009-06-14T07:50:25Z</time>
      </trkpt>
      <trkpt lat="45.53559" lon="3.05447">
        <ele>680.27001953125</ele>
        <time>2009-06-14T07:50:28Z</time>
      </trkpt>
      <trkpt lat="45.53558" lon="3.05423">
        <ele>679.30859375</ele>
        <time>2009-06-14T07:50:30Z</time>
      </trkpt>
      <trkpt lat="45.53549" lon="3.05396">
        <ele>680.27001953125</ele>
        <time>2009-06-14T07:50:33Z</time>
      </trkpt>
      <trkpt lat="45.53544" lon="3.05382">
        <ele>682.19262695312</ele>
        <time>2009-06-14T07:50:35Z</time>
      </trkpt>
      <trkpt lat="45.53537" lon="3.05344">
        <ele>682.19262695312</ele>
        <time>2009-06-14T07:50:41Z</time>
      </trkpt>
      <trkpt lat="45.53532" lon="3.05291">
        <ele>680.27001953125</ele>
        <time>2009-06-14T07:50:48Z</time>
      </trkpt>
      <trkpt lat="45.53532" lon="3.05256">
        <ele>679.30859375</ele>
        <time>2009-06-14T07:50:52Z</time>
      </trkpt>
      <trkpt lat="45.53531" lon="3.05238">
        <ele>678.34741210938</ele>
        <time>2009-06-14T07:50:54Z</time>
      </trkpt>
      <trkpt lat="45.53528" lon="3.0522">
        <ele>677.38623046875</ele>
        <time>2009-06-14T07:50:56Z</time>
      </trkpt>
      <trkpt lat="45.53517" lon="3.05159">
        <ele>675.94409179688</ele>
        <time>2009-06-14T07:51:03Z</time>
      </trkpt>
      <trkpt lat="45.53503" lon="3.05129">
        <ele>675.94409179688</ele>
        <time>2009-06-14T07:51:07Z</time>
      </trkpt>
      <trkpt lat="45.53486" lon="3.051">
        <ele>677.86669921875</ele>
        <time>2009-06-14T07:51:12Z</time>
      </trkpt>
      <trkpt lat="45.5348" lon="3.05084">
        <ele>678.34741210938</ele>
        <time>2009-06-14T07:51:15Z</time>
      </trkpt>
      <trkpt lat="45.53472" lon="3.05064">
        <ele>678.828125</ele>
        <time>2009-06-14T07:51:19Z</time>
      </trkpt>
      <trkpt lat="45.53469" lon="3.05055">
        <ele>679.30859375</ele>
        <time>2009-06-14T07:51:21Z</time>
      </trkpt>
      <trkpt lat="45.53468" lon="3.05046">
        <ele>678.34741210938</ele>
        <time>2009-06-14T07:51:23Z</time>
      </trkpt>
      <trkpt lat="45.53468" lon="3.0504">
        <ele>677.86669921875</ele>
        <time>2009-06-14T07:51:24Z</time>
      </trkpt>
      <trkpt lat="45.53468" lon="3.05033">
        <ele>675.46337890625</ele>
        <time>2009-06-14T07:51:25Z</time>
      </trkpt>
      <trkpt lat="45.53468" lon="3.05013">
        <ele>674.021484375</ele>
        <time>2009-06-14T07:51:28Z</time>
      </trkpt>
      <trkpt lat="45.53473" lon="3.0499">
        <ele>670.65698242188</ele>
        <time>2009-06-14T07:51:32Z</time>
      </trkpt>
      <trkpt lat="45.53475" lon="3.04964">
        <ele>667.29223632812</ele>
        <time>2009-06-14T07:51:36Z</time>
      </trkpt>
      <trkpt lat="45.53469" lon="3.04948">
        <ele>663.92749023438</ele>
        <time>2009-06-14T07:51:40Z</time>
      </trkpt>
      <trkpt lat="45.53468" lon="3.04945">
        <ele>663.92749023438</ele>
        <time>2009-06-14T07:51:41Z</time>
      </trkpt>
      <trkpt lat="45.53465" lon="3.04934">
        <ele>662.00512695312</ele>
        <time>2009-06-14T07:51:45Z</time>
      </trkpt>
      <trkpt lat="45.53463" lon="3.04927">
        <ele>660.08227539062</ele>
        <time>2009-06-14T07:51:47Z</time>
      </trkpt>
      <trkpt lat="45.53458" lon="3.04914">
        <ele>656.7177734375</ele>
        <time>2009-06-14T07:51:51Z</time>
      </trkpt>
      <trkpt lat="45.53461" lon="3.04895">
        <ele>652.87255859375</ele>
        <time>2009-06-14T07:51:56Z</time>
      </trkpt>
      <trkpt lat="45.5347" lon="3.04883">
        <ele>649.98852539062</ele>
        <time>2009-06-14T07:52:00Z</time>
      </trkpt>
      <trkpt lat="45.53475" lon="3.04876">
        <ele>648.06591796875</ele>
        <time>2009-06-14T07:52:03Z</time>
      </trkpt>
      <trkpt lat="45.53477" lon="3.04874">
        <ele>648.06591796875</ele>
        <time>2009-06-14T07:52:04Z</time>
      </trkpt>
      <trkpt lat="45.53479" lon="3.0487">
        <ele>648.54638671875</ele>
        <time>2009-06-14T07:52:09Z</time>
      </trkpt>
      <trkpt lat="45.53478" lon="3.04868">
        <ele>648.06591796875</ele>
        <time>2009-06-14T07:52:21Z</time>
      </trkpt>
      <trkpt lat="45.53478" lon="3.04867">
        <ele>648.54638671875</ele>
        <time>2009-06-14T07:52:30Z</time>
      </trkpt>
      <trkpt lat="45.53478" lon="3.04866">
        <ele>648.54638671875</ele>
        <time>2009-06-14T07:52:36Z</time>
      </trkpt>
      <trkpt lat="45.53478" lon="3.04866">
        <ele>648.54638671875</ele>
        <time>2009-06-14T07:52:42Z</time>
      </trkpt>
      <trkpt lat="45.53478" lon="3.04866">
        <ele>648.06591796875</ele>
        <time>2009-06-14T07:53:09Z</time>
      </trkpt>
      <trkpt lat="45.53478" lon="3.04866">
        <ele>648.54638671875</ele>
        <time>2009-06-14T07:53:13Z</time>
      </trkpt>
      <trkpt lat="45.53478" lon="3.04866">
        <ele>648.06591796875</ele>
        <time>2009-06-14T07:53:14Z</time>
      </trkpt>
      <trkpt lat="45.53478" lon="3.04866">
        <ele>648.06591796875</ele>
        <time>2009-06-14T07:53:18Z</time>
      </trkpt>
      <trkpt lat="45.53478" lon="3.04866">
        <ele>648.06591796875</ele>
        <time>2009-06-14T07:53:49Z</time>
      </trkpt>
      <trkpt lat="45.53478" lon="3.04866">
        <ele>647.58520507812</ele>
        <time>2009-06-14T07:53:54Z</time>
      </trkpt>
      <trkpt lat="45.53478" lon="3.04867">
        <ele>648.54638671875</ele>
        <time>2009-06-14T07:54:30Z</time>
      </trkpt>
      <trkpt lat="45.53479" lon="3.04866">
        <ele>648.54638671875</ele>
        <time>2009-06-14T07:54:44Z</time>
      </trkpt>
      <trkpt lat="45.53479" lon="3.04866">
        <ele>648.06591796875</ele>
        <time>2009-06-14T07:54:46Z</time>
      </trkpt>
      <trkpt lat="45.53479" lon="3.04866">
        <ele>648.06591796875</ele>
        <time>2009-06-14T07:54:47Z</time>
      </trkpt>
      <trkpt lat="45.5348" lon="3.04865">
        <ele>648.54638671875</ele>
        <time>2009-06-14T07:54:56Z</time>
      </trkpt>
      <trkpt lat="45.53479" lon="3.04866">
        <ele>647.58520507812</ele>
        <time>2009-06-14T07:55:09Z</time>
      </trkpt>
      <trkpt lat="45.53479" lon="3.04866">
        <ele>648.06591796875</ele>
        <time>2009-06-14T07:55:12Z</time>
      </trkpt>
      <trkpt lat="45.5349" lon="3.04859">
        <ele>645.66259765625</ele>
        <time>2009-06-14T07:55:17Z</time>
      </trkpt>
      <trkpt lat="45.53503" lon="3.04853">
        <ele>645.66259765625</ele>
        <time>2009-06-14T07:55:20Z</time>
      </trkpt>
      <trkpt lat="45.53513" lon="3.04847">
        <ele>645.66259765625</ele>
        <time>2009-06-14T07:55:23Z</time>
      </trkpt>
      <trkpt lat="45.53519" lon="3.04841">
        <ele>644.701171875</ele>
        <time>2009-06-14T07:55:25Z</time>
      </trkpt>
      <trkpt lat="45.53522" lon="3.04836">
        <ele>644.220703125</ele>
        <time>2009-06-14T07:55:26Z</time>
      </trkpt>
      <trkpt lat="45.53526" lon="3.04823">
        <ele>643.25927734375</ele>
        <time>2009-06-14T07:55:28Z</time>
      </trkpt>
      <trkpt lat="45.53528" lon="3.04807">
        <ele>642.77880859375</ele>
        <time>2009-06-14T07:55:31Z</time>
      </trkpt>
      <trkpt lat="45.53523" lon="3.04798">
        <ele>640.37548828125</ele>
        <time>2009-06-14T07:55:34Z</time>
      </trkpt>
      <trkpt lat="45.53507" lon="3.04777">
        <ele>636.04956054688</ele>
        <time>2009-06-14T07:55:39Z</time>
      </trkpt>
      <trkpt lat="45.53494" lon="3.04754">
        <ele>633.64599609375</ele>
        <time>2009-06-14T07:55:44Z</time>
      </trkpt>
      <trkpt lat="45.53495" lon="3.04752">
        <ele>633.16528320312</ele>
        <time>2009-06-14T07:55:46Z</time>
      </trkpt>
      <trkpt lat="45.53503" lon="3.04757">
        <ele>629.80078125</ele>
        <time>2009-06-14T07:55:50Z</time>
      </trkpt>
      <trkpt lat="45.53506" lon="3.04758">
        <ele>628.83959960938</ele>
        <time>2009-06-14T07:55:51Z</time>
      </trkpt>
      <trkpt lat="45.5351" lon="3.04758">
        <ele>627.39770507812</ele>
        <time>2009-06-14T07:55:52Z</time>
      </trkpt>
      <trkpt lat="45.53528" lon="3.04758">
        <ele>624.03295898438</ele>
        <time>2009-06-14T07:55:58Z</time>
      </trkpt>
      <trkpt lat="45.53532" lon="3.04758">
        <ele>623.07177734375</ele>
        <time>2009-06-14T07:55:59Z</time>
      </trkpt>
      <trkpt lat="45.53545" lon="3.04752">
        <ele>619.22631835938</ele>
        <time>2009-06-14T07:56:03Z</time>
      </trkpt>
      <trkpt lat="45.53559" lon="3.04746">
        <ele>615.86181640625</ele>
        <time>2009-06-14T07:56:07Z</time>
      </trkpt>
      <trkpt lat="45.53568" lon="3.04744">
        <ele>612.97778320312</ele>
        <time>2009-06-14T07:56:10Z</time>
      </trkpt>
      <trkpt lat="45.53571" lon="3.04743">
        <ele>611.05517578125</ele>
        <time>2009-06-14T07:56:11Z</time>
      </trkpt>
      <trkpt lat="45.53585" lon="3.04739">
        <ele>608.17138671875</ele>
        <time>2009-06-14T07:56:15Z</time>
      </trkpt>
      <trkpt lat="45.53599" lon="3.04739">
        <ele>605.28735351562</ele>
        <time>2009-06-14T07:56:18Z</time>
      </trkpt>
      <trkpt lat="45.53603" lon="3.04739">
        <ele>603.84521484375</ele>
        <time>2009-06-14T07:56:19Z</time>
      </trkpt>
      <trkpt lat="45.5361" lon="3.04731">
        <ele>602.40307617188</ele>
        <time>2009-06-14T07:56:22Z</time>
      </trkpt>
      <trkpt lat="45.53605" lon="3.04716">
        <ele>600.48071289062</ele>
        <time>2009-06-14T07:56:25Z</time>
      </trkpt>
      <trkpt lat="45.53596" lon="3.04699">
        <ele>598.07739257812</ele>
        <time>2009-06-14T07:56:29Z</time>
      </trkpt>
      <trkpt lat="45.53591" lon="3.04688">
        <ele>597.11596679688</ele>
        <time>2009-06-14T07:56:33Z</time>
      </trkpt>
      <trkpt lat="45.53585" lon="3.04677">
        <ele>594.71264648438</ele>
        <time>2009-06-14T07:56:37Z</time>
      </trkpt>
      <trkpt lat="45.53585" lon="3.0467">
        <ele>594.23217773438</ele>
        <time>2009-06-14T07:56:39Z</time>
      </trkpt>
      <trkpt lat="45.53597" lon="3.04654">
        <ele>591.82885742188</ele>
        <time>2009-06-14T07:56:44Z</time>
      </trkpt>
      <trkpt lat="45.536" lon="3.04648">
        <ele>589.90625</ele>
        <time>2009-06-14T07:56:46Z</time>
      </trkpt>
      <trkpt lat="45.53609" lon="3.04651">
        <ele>587.50268554688</ele>
        <time>2009-06-14T07:56:50Z</time>
      </trkpt>
      <trkpt lat="45.53624" lon="3.04659">
        <ele>586.06079101562</ele>
        <time>2009-06-14T07:56:53Z</time>
      </trkpt>
      <trkpt lat="45.53633" lon="3.04663">
        <ele>585.099609375</ele>
        <time>2009-06-14T07:56:55Z</time>
      </trkpt>
      <trkpt lat="45.53656" lon="3.04676">
        <ele>579.81225585938</ele>
        <time>2009-06-14T07:57:00Z</time>
      </trkpt>
      <trkpt lat="45.53661" lon="3.04679">
        <ele>579.81225585938</ele>
        <time>2009-06-14T07:57:01Z</time>
      </trkpt>
      <trkpt lat="45.53683" lon="3.04687">
        <ele>576.92846679688</ele>
        <time>2009-06-14T07:57:06Z</time>
      </trkpt>
      <trkpt lat="45.5369" lon="3.0469">
        <ele>576.44775390625</ele>
        <time>2009-06-14T07:57:08Z</time>
      </trkpt>
      <trkpt lat="45.53693" lon="3.04682">
        <ele>575.486328125</ele>
        <time>2009-06-14T07:57:12Z</time>
      </trkpt>
      <trkpt lat="45.53689" lon="3.0465">
        <ele>570.6796875</ele>
        <time>2009-06-14T07:57:17Z</time>
      </trkpt>
      <trkpt lat="45.53693" lon="3.04595">
        <ele>566.83447265625</ele>
        <time>2009-06-14T07:57:22Z</time>
      </trkpt>
      <trkpt lat="45.53693" lon="3.04586">
        <ele>567.79565429688</ele>
        <time>2009-06-14T07:57:23Z</time>
      </trkpt>
      <trkpt lat="45.53699" lon="3.0456">
        <ele>566.35375976562</ele>
        <time>2009-06-14T07:57:26Z</time>
      </trkpt>
      <trkpt lat="45.53708" lon="3.04546">
        <ele>565.392578125</ele>
        <time>2009-06-14T07:57:28Z</time>
      </trkpt>
      <trkpt lat="45.53721" lon="3.04527">
        <ele>566.35375976562</ele>
        <time>2009-06-14T07:57:31Z</time>
      </trkpt>
      <trkpt lat="45.53725" lon="3.04522">
        <ele>566.83447265625</ele>
        <time>2009-06-14T07:57:32Z</time>
      </trkpt>
      <trkpt lat="45.53736" lon="3.04509">
        <ele>565.392578125</ele>
        <time>2009-06-14T07:57:36Z</time>
      </trkpt>
      <trkpt lat="45.53756" lon="3.04501">
        <ele>565.87329101562</ele>
        <time>2009-06-14T07:57:41Z</time>
      </trkpt>
      <trkpt lat="45.53778" lon="3.04501">
        <ele>564.43115234375</ele>
        <time>2009-06-14T07:57:46Z</time>
      </trkpt>
      <trkpt lat="45.53803" lon="3.04509">
        <ele>563.46997070312</ele>
        <time>2009-06-14T07:57:51Z</time>
      </trkpt>
      <trkpt lat="45.53832" lon="3.04523">
        <ele>563.46997070312</ele>
        <time>2009-06-14T07:57:57Z</time>
      </trkpt>
      <trkpt lat="45.53863" lon="3.04536">
        <ele>563.46997070312</ele>
        <time>2009-06-14T07:58:03Z</time>
      </trkpt>
      <trkpt lat="45.53892" lon="3.04545">
        <ele>562.50854492188</ele>
        <time>2009-06-14T07:58:09Z</time>
      </trkpt>
      <trkpt lat="45.53905" lon="3.04548">
        <ele>563.46997070312</ele>
        <time>2009-06-14T07:58:12Z</time>
      </trkpt>
      <trkpt lat="45.53909" lon="3.04548">
        <ele>563.95043945312</ele>
        <time>2009-06-14T07:58:13Z</time>
      </trkpt>
      <trkpt lat="45.53923" lon="3.04546">
        <ele>563.46997070312</ele>
        <time>2009-06-14T07:58:18Z</time>
      </trkpt>
      <trkpt lat="45.53938" lon="3.04545">
        <ele>564.43115234375</ele>
        <time>2009-06-14T07:58:23Z</time>
      </trkpt>
      <trkpt lat="45.5396" lon="3.04544">
        <ele>563.95043945312</ele>
        <time>2009-06-14T07:58:29Z</time>
      </trkpt>
      <trkpt lat="45.53975" lon="3.04543">
        <ele>564.43115234375</ele>
        <time>2009-06-14T07:58:33Z</time>
      </trkpt>
      <trkpt lat="45.53983" lon="3.04543">
        <ele>564.91186523438</ele>
        <time>2009-06-14T07:58:35Z</time>
      </trkpt>
      <trkpt lat="45.53987" lon="3.04542">
        <ele>564.91186523438</ele>
        <time>2009-06-14T07:58:36Z</time>
      </trkpt>
      <trkpt lat="45.53991" lon="3.04541">
        <ele>564.43115234375</ele>
        <time>2009-06-14T07:58:37Z</time>
      </trkpt>
      <trkpt lat="45.54012" lon="3.04549">
        <ele>564.43115234375</ele>
        <time>2009-06-14T07:58:42Z</time>
      </trkpt>
      <trkpt lat="45.54021" lon="3.0457">
        <ele>563.46997070312</ele>
        <time>2009-06-14T07:58:46Z</time>
      </trkpt>
      <trkpt lat="45.54022" lon="3.04583">
        <ele>563.95043945312</ele>
        <time>2009-06-14T07:58:48Z</time>
      </trkpt>
      <trkpt lat="45.54027" lon="3.04655">
        <ele>563.95043945312</ele>
        <time>2009-06-14T07:58:59Z</time>
      </trkpt>
      <trkpt lat="45.54029" lon="3.04669">
        <ele>563.46997070312</ele>
        <time>2009-06-14T07:59:01Z</time>
      </trkpt>
      <trkpt lat="45.54047" lon="3.04718">
        <ele>563.46997070312</ele>
        <time>2009-06-14T07:59:09Z</time>
      </trkpt>
      <trkpt lat="45.5407" lon="3.04763">
        <ele>562.9892578125</ele>
        <time>2009-06-14T07:59:17Z</time>
      </trkpt>
      <trkpt lat="45.5409" lon="3.04805">
        <ele>562.50854492188</ele>
        <time>2009-06-14T07:59:24Z</time>
      </trkpt>
      <trkpt lat="45.54115" lon="3.04855">
        <ele>562.50854492188</ele>
        <time>2009-06-14T07:59:33Z</time>
      </trkpt>
      <trkpt lat="45.54121" lon="3.04868">
        <ele>562.50854492188</ele>
        <time>2009-06-14T07:59:36Z</time>
      </trkpt>
      <trkpt lat="45.54124" lon="3.04871">
        <ele>562.02807617188</ele>
        <time>2009-06-14T07:59:37Z</time>
      </trkpt>
      <trkpt lat="45.5414" lon="3.04873">
        <ele>563.95043945312</ele>
        <time>2009-06-14T07:59:42Z</time>
      </trkpt>
      <trkpt lat="45.54145" lon="3.0487">
        <ele>563.95043945312</ele>
        <time>2009-06-14T07:59:44Z</time>
      </trkpt>
      <trkpt lat="45.54147" lon="3.04869">
        <ele>563.95043945312</ele>
        <time>2009-06-14T07:59:45Z</time>
      </trkpt>
      <trkpt lat="45.54155" lon="3.04867">
        <ele>565.392578125</ele>
        <time>2009-06-14T07:59:49Z</time>
      </trkpt>
      <trkpt lat="45.54164" lon="3.04864">
        <ele>566.83447265625</ele>
        <time>2009-06-14T07:59:53Z</time>
      </trkpt>
      <trkpt lat="45.5417" lon="3.04863">
        <ele>567.79565429688</ele>
        <time>2009-06-14T07:59:56Z</time>
      </trkpt>
      <trkpt lat="45.54174" lon="3.04862">
        <ele>569.23779296875</ele>
        <time>2009-06-14T07:59:58Z</time>
      </trkpt>
      <trkpt lat="45.54181" lon="3.04863">
        <ele>570.19897460938</ele>
        <time>2009-06-14T08:00:02Z</time>
      </trkpt>
      <trkpt lat="45.54187" lon="3.04864">
        <ele>571.16040039062</ele>
        <time>2009-06-14T08:00:05Z</time>
      </trkpt>
      <trkpt lat="45.54193" lon="3.04865">
        <ele>572.12182617188</ele>
        <time>2009-06-14T08:00:08Z</time>
      </trkpt>
      <trkpt lat="45.542" lon="3.04867">
        <ele>574.04443359375</ele>
        <time>2009-06-14T08:00:12Z</time>
      </trkpt>
      <trkpt lat="45.54213" lon="3.04869">
        <ele>575.486328125</ele>
        <time>2009-06-14T08:00:19Z</time>
      </trkpt>
      <trkpt lat="45.54225" lon="3.04872">
        <ele>577.4091796875</ele>
        <time>2009-06-14T08:00:25Z</time>
      </trkpt>
      <trkpt lat="45.5423" lon="3.04874">
        <ele>578.37036132812</ele>
        <time>2009-06-14T08:00:28Z</time>
      </trkpt>
      <trkpt lat="45.54241" lon="3.04876">
        <ele>580.29296875</ele>
        <time>2009-06-14T08:00:34Z</time>
      </trkpt>
      <trkpt lat="45.54253" lon="3.04881">
        <ele>581.25439453125</ele>
        <time>2009-06-14T08:00:41Z</time>
      </trkpt>
      <trkpt lat="45.54264" lon="3.04886">
        <ele>582.21557617188</ele>
        <time>2009-06-14T08:00:47Z</time>
      </trkpt>
      <trkpt lat="45.54276" lon="3.0489">
        <ele>584.13818359375</ele>
        <time>2009-06-14T08:00:54Z</time>
      </trkpt>
      <trkpt lat="45.54287" lon="3.04895">
        <ele>584.61889648438</ele>
        <time>2009-06-14T08:01:00Z</time>
      </trkpt>
      <trkpt lat="45.54293" lon="3.04898">
        <ele>586.54150390625</ele>
        <time>2009-06-14T08:01:03Z</time>
      </trkpt>
      <trkpt lat="45.54304" lon="3.04912">
        <ele>587.9833984375</ele>
        <time>2009-06-14T08:01:11Z</time>
      </trkpt>
      <trkpt lat="45.54311" lon="3.04933">
        <ele>589.42553710938</ele>
        <time>2009-06-14T08:01:19Z</time>
      </trkpt>
      <trkpt lat="45.54319" lon="3.04958">
        <ele>590.86743164062</ele>
        <time>2009-06-14T08:01:28Z</time>
      </trkpt>
      <trkpt lat="45.54324" lon="3.04981">
        <ele>591.82885742188</ele>
        <time>2009-06-14T08:01:36Z</time>
      </trkpt>
      <trkpt lat="45.54325" lon="3.05011">
        <ele>592.79028320312</ele>
        <time>2009-06-14T08:01:45Z</time>
      </trkpt>
      <trkpt lat="45.54326" lon="3.05036">
        <ele>593.75146484375</ele>
        <time>2009-06-14T08:01:52Z</time>
      </trkpt>
      <trkpt lat="45.54326" lon="3.05079">
        <ele>596.15478515625</ele>
        <time>2009-06-14T08:02:02Z</time>
      </trkpt>
      <trkpt lat="45.54317" lon="3.05104">
        <ele>597.11596679688</ele>
        <time>2009-06-14T08:02:09Z</time>
      </trkpt>
      <trkpt lat="45.54307" lon="3.05125">
        <ele>598.55786132812</ele>
        <time>2009-06-14T08:02:16Z</time>
      </trkpt>
      <trkpt lat="45.54305" lon="3.05149">
        <ele>600</ele>
        <time>2009-06-14T08:02:23Z</time>
      </trkpt>
      <trkpt lat="45.54307" lon="3.05182">
        <ele>601.44189453125</ele>
        <time>2009-06-14T08:02:32Z</time>
      </trkpt>
      <trkpt lat="45.54317" lon="3.0521">
        <ele>601.44189453125</ele>
        <time>2009-06-14T08:02:39Z</time>
      </trkpt>
      <trkpt lat="45.54331" lon="3.05236">
        <ele>600</ele>
        <time>2009-06-14T08:02:46Z</time>
      </trkpt>
      <trkpt lat="45.54353" lon="3.0527">
        <ele>597.11596679688</ele>
        <time>2009-06-14T08:02:52Z</time>
      </trkpt>
      <trkpt lat="45.54361" lon="3.05284">
        <ele>596.63549804688</ele>
        <time>2009-06-14T08:02:54Z</time>
      </trkpt>
      <trkpt lat="45.5437" lon="3.05299">
        <ele>596.63549804688</ele>
        <time>2009-06-14T08:02:56Z</time>
      </trkpt>
      <trkpt lat="45.54391" lon="3.05322">
        <ele>595.67407226562</ele>
        <time>2009-06-14T08:03:00Z</time>
      </trkpt>
      <trkpt lat="45.54396" lon="3.05327">
        <ele>595.67407226562</ele>
        <time>2009-06-14T08:03:01Z</time>
      </trkpt>
      <trkpt lat="45.5441" lon="3.05344">
        <ele>595.193359375</ele>
        <time>2009-06-14T08:03:04Z</time>
      </trkpt>
      <trkpt lat="45.54428" lon="3.05368">
        <ele>596.63549804688</ele>
        <time>2009-06-14T08:03:09Z</time>
      </trkpt>
      <trkpt lat="45.54435" lon="3.05376">
        <ele>597.11596679688</ele>
        <time>2009-06-14T08:03:11Z</time>
      </trkpt>
      <trkpt lat="45.54453" lon="3.05396">
        <ele>597.11596679688</ele>
        <time>2009-06-14T08:03:16Z</time>
      </trkpt>
      <trkpt lat="45.54487" lon="3.05429">
        <ele>597.5966796875</ele>
        <time>2009-06-14T08:03:25Z</time>
      </trkpt>
      <trkpt lat="45.54508" lon="3.0545">
        <ele>599.51928710938</ele>
        <time>2009-06-14T08:03:31Z</time>
      </trkpt>
      <trkpt lat="45.54519" lon="3.0546">
        <ele>600</ele>
        <time>2009-06-14T08:03:34Z</time>
      </trkpt>
      <trkpt lat="45.54544" lon="3.05488">
        <ele>600.96118164062</ele>
        <time>2009-06-14T08:03:42Z</time>
      </trkpt>
      <trkpt lat="45.54557" lon="3.05504">
        <ele>602.8837890625</ele>
        <time>2009-06-14T08:03:47Z</time>
      </trkpt>
      <trkpt lat="45.54566" lon="3.05521">
        <ele>603.84521484375</ele>
        <time>2009-06-14T08:03:51Z</time>
      </trkpt>
      <trkpt lat="45.54569" lon="3.05531">
        <ele>603.84521484375</ele>
        <time>2009-06-14T08:03:53Z</time>
      </trkpt>
      <trkpt lat="45.54581" lon="3.05569">
        <ele>604.326171875</ele>
        <time>2009-06-14T08:04:00Z</time>
      </trkpt>
      <trkpt lat="45.54602" lon="3.05622">
        <ele>603.84521484375</ele>
        <time>2009-06-14T08:04:09Z</time>
      </trkpt>
      <trkpt lat="45.54623" lon="3.05661">
        <ele>604.806640625</ele>
        <time>2009-06-14T08:04:16Z</time>
      </trkpt>
      <trkpt lat="45.54631" lon="3.05676">
        <ele>605.76806640625</ele>
        <time>2009-06-14T08:04:19Z</time>
      </trkpt>
      <trkpt lat="45.54641" lon="3.05714">
        <ele>606.72924804688</ele>
        <time>2009-06-14T08:04:25Z</time>
      </trkpt>
      <trkpt lat="45.54653" lon="3.05734">
        <ele>606.24853515625</ele>
        <time>2009-06-14T08:04:29Z</time>
      </trkpt>
      <trkpt lat="45.5466" lon="3.05743">
        <ele>605.76806640625</ele>
        <time>2009-06-14T08:04:31Z</time>
      </trkpt>
      <trkpt lat="45.54684" lon="3.05786">
        <ele>605.76806640625</ele>
        <time>2009-06-14T08:04:38Z</time>
      </trkpt>
      <trkpt lat="45.54692" lon="3.0581">
        <ele>607.2099609375</ele>
        <time>2009-06-14T08:04:43Z</time>
      </trkpt>
      <trkpt lat="45.54697" lon="3.05827">
        <ele>609.61328125</ele>
        <time>2009-06-14T08:04:49Z</time>
      </trkpt>
      <trkpt lat="45.547" lon="3.0583">
        <ele>610.57446289062</ele>
        <time>2009-06-14T08:04:51Z</time>
      </trkpt>
      <trkpt lat="45.54708" lon="3.05839">
        <ele>612.4970703125</ele>
        <time>2009-06-14T08:04:57Z</time>
      </trkpt>
      <trkpt lat="45.54712" lon="3.05849">
        <ele>612.97778320312</ele>
        <time>2009-06-14T08:05:02Z</time>
      </trkpt>
      <trkpt lat="45.54716" lon="3.05862">
        <ele>615.38110351562</ele>
        <time>2009-06-14T08:05:09Z</time>
      </trkpt>
      <trkpt lat="45.54717" lon="3.05866">
        <ele>616.34228515625</ele>
        <time>2009-06-14T08:05:11Z</time>
      </trkpt>
      <trkpt lat="45.54722" lon="3.05883">
        <ele>618.26489257812</ele>
        <time>2009-06-14T08:05:20Z</time>
      </trkpt>
      <trkpt lat="45.54725" lon="3.0589">
        <ele>619.70703125</ele>
        <time>2009-06-14T08:05:24Z</time>
      </trkpt>
      <trkpt lat="45.54733" lon="3.05906">
        <ele>622.1103515625</ele>
        <time>2009-06-14T08:05:33Z</time>
      </trkpt>
      <trkpt lat="45.54734" lon="3.0592">
        <ele>623.07177734375</ele>
        <time>2009-06-14T08:05:39Z</time>
      </trkpt>
      <trkpt lat="45.54736" lon="3.05938">
        <ele>624.513671875</ele>
        <time>2009-06-14T08:05:47Z</time>
      </trkpt>
      <trkpt lat="45.54736" lon="3.05954">
        <ele>625.95556640625</ele>
        <time>2009-06-14T08:05:53Z</time>
      </trkpt>
      <trkpt lat="45.54741" lon="3.05976">
        <ele>627.87817382812</ele>
        <time>2009-06-14T08:06:01Z</time>
      </trkpt>
      <trkpt lat="45.54745" lon="3.05994">
        <ele>629.32006835938</ele>
        <time>2009-06-14T08:06:08Z</time>
      </trkpt>
      <trkpt lat="45.54749" lon="3.06009">
        <ele>630.28149414062</ele>
        <time>2009-06-14T08:06:14Z</time>
      </trkpt>
      <trkpt lat="45.54755" lon="3.06028">
        <ele>631.24291992188</ele>
        <time>2009-06-14T08:06:22Z</time>
      </trkpt>
      <trkpt lat="45.54762" lon="3.0604">
        <ele>633.16528320312</ele>
        <time>2009-06-14T08:06:30Z</time>
      </trkpt>
      <trkpt lat="45.5477" lon="3.06046">
        <ele>635.08813476562</ele>
        <time>2009-06-14T08:06:37Z</time>
      </trkpt>
      <trkpt lat="45.54776" lon="3.0605">
        <ele>637.0107421875</ele>
        <time>2009-06-14T08:06:44Z</time>
      </trkpt>
      <trkpt lat="45.54783" lon="3.06058">
        <ele>638.93359375</ele>
        <time>2009-06-14T08:06:51Z</time>
      </trkpt>
      <trkpt lat="45.54788" lon="3.06062">
        <ele>639.89477539062</ele>
        <time>2009-06-14T08:06:55Z</time>
      </trkpt>
      <trkpt lat="45.54797" lon="3.0607">
        <ele>642.29809570312</ele>
        <time>2009-06-14T08:07:03Z</time>
      </trkpt>
      <trkpt lat="45.54805" lon="3.06085">
        <ele>643.25927734375</ele>
        <time>2009-06-14T08:07:12Z</time>
      </trkpt>
      <trkpt lat="45.54808" lon="3.061">
        <ele>643.73999023438</ele>
        <time>2009-06-14T08:07:19Z</time>
      </trkpt>
      <trkpt lat="45.54808" lon="3.06113">
        <ele>645.18188476562</ele>
        <time>2009-06-14T08:07:25Z</time>
      </trkpt>
      <trkpt lat="45.54806" lon="3.06132">
        <ele>647.1044921875</ele>
        <time>2009-06-14T08:07:32Z</time>
      </trkpt>
      <trkpt lat="45.54805" lon="3.06148">
        <ele>648.54638671875</ele>
        <time>2009-06-14T08:07:38Z</time>
      </trkpt>
      <trkpt lat="45.54804" lon="3.06165">
        <ele>649.5078125</ele>
        <time>2009-06-14T08:07:44Z</time>
      </trkpt>
      <trkpt lat="45.54802" lon="3.06185">
        <ele>650.46923828125</ele>
        <time>2009-06-14T08:07:50Z</time>
      </trkpt>
      <trkpt lat="45.548" lon="3.06208">
        <ele>650.94970703125</ele>
        <time>2009-06-14T08:07:57Z</time>
      </trkpt>
      <trkpt lat="45.54798" lon="3.06238">
        <ele>653.35327148438</ele>
        <time>2009-06-14T08:08:06Z</time>
      </trkpt>
      <trkpt lat="45.54796" lon="3.06256">
        <ele>654.31469726562</ele>
        <time>2009-06-14T08:08:12Z</time>
      </trkpt>
      <trkpt lat="45.5479" lon="3.06281">
        <ele>656.23706054688</ele>
        <time>2009-06-14T08:08:20Z</time>
      </trkpt>
      <trkpt lat="45.54785" lon="3.06307">
        <ele>657.67919921875</ele>
        <time>2009-06-14T08:08:28Z</time>
      </trkpt>
      <trkpt lat="45.54783" lon="3.06329">
        <ele>659.60180664062</ele>
        <time>2009-06-14T08:08:35Z</time>
      </trkpt>
      <trkpt lat="45.54782" lon="3.0635">
        <ele>660.56298828125</ele>
        <time>2009-06-14T08:08:42Z</time>
      </trkpt>
      <trkpt lat="45.54784" lon="3.06364">
        <ele>662.00512695312</ele>
        <time>2009-06-14T08:08:48Z</time>
      </trkpt>
      <trkpt lat="45.54789" lon="3.06385">
        <ele>663.92749023438</ele>
        <time>2009-06-14T08:08:56Z</time>
      </trkpt>
      <trkpt lat="45.54793" lon="3.06406">
        <ele>665.85034179688</ele>
        <time>2009-06-14T08:09:04Z</time>
      </trkpt>
      <trkpt lat="45.54799" lon="3.06431">
        <ele>668.25366210938</ele>
        <time>2009-06-14T08:09:14Z</time>
      </trkpt>
      <trkpt lat="45.54803" lon="3.06446">
        <ele>670.17626953125</ele>
        <time>2009-06-14T08:09:20Z</time>
      </trkpt>
      <trkpt lat="45.54806" lon="3.06463">
        <ele>670.65698242188</ele>
        <time>2009-06-14T08:09:27Z</time>
      </trkpt>
      <trkpt lat="45.54809" lon="3.06485">
        <ele>672.57958984375</ele>
        <time>2009-06-14T08:09:35Z</time>
      </trkpt>
      <trkpt lat="45.5481" lon="3.06504">
        <ele>674.021484375</ele>
        <time>2009-06-14T08:09:42Z</time>
      </trkpt>
      <trkpt lat="45.54813" lon="3.06531">
        <ele>674.50219726562</ele>
        <time>2009-06-14T08:09:50Z</time>
      </trkpt>
      <trkpt lat="45.54818" lon="3.06554">
        <ele>675.46337890625</ele>
        <time>2009-06-14T08:09:57Z</time>
      </trkpt>
      <trkpt lat="45.54831" lon="3.06586">
        <ele>677.38623046875</ele>
        <time>2009-06-14T08:10:07Z</time>
      </trkpt>
      <trkpt lat="45.54845" lon="3.06608">
        <ele>679.30859375</ele>
        <time>2009-06-14T08:10:16Z</time>
      </trkpt>
      <trkpt lat="45.5486" lon="3.06625">
        <ele>681.2314453125</ele>
        <time>2009-06-14T08:10:25Z</time>
      </trkpt>
      <trkpt lat="45.54872" lon="3.06641">
        <ele>683.15380859375</ele>
        <time>2009-06-14T08:10:33Z</time>
      </trkpt>
      <trkpt lat="45.54883" lon="3.06664">
        <ele>685.07690429688</ele>
        <time>2009-06-14T08:10:42Z</time>
      </trkpt>
      <trkpt lat="45.54887" lon="3.06679">
        <ele>686.51879882812</ele>
        <time>2009-06-14T08:10:48Z</time>
      </trkpt>
      <trkpt lat="45.54893" lon="3.06703">
        <ele>688.44140625</ele>
        <time>2009-06-14T08:10:57Z</time>
      </trkpt>
      <trkpt lat="45.54898" lon="3.06725">
        <ele>689.88330078125</ele>
        <time>2009-06-14T08:11:05Z</time>
      </trkpt>
      <trkpt lat="45.54909" lon="3.06738">
        <ele>690.84448242188</ele>
        <time>2009-06-14T08:11:12Z</time>
      </trkpt>
      <trkpt lat="45.54915" lon="3.06744">
        <ele>692.28662109375</ele>
        <time>2009-06-14T08:11:16Z</time>
      </trkpt>
      <trkpt lat="45.54922" lon="3.06764">
        <ele>693.728515625</ele>
        <time>2009-06-14T08:11:24Z</time>
      </trkpt>
      <trkpt lat="45.54926" lon="3.06781">
        <ele>695.17041015625</ele>
        <time>2009-06-14T08:11:31Z</time>
      </trkpt>
      <trkpt lat="45.54931" lon="3.06801">
        <ele>697.09301757812</ele>
        <time>2009-06-14T08:11:39Z</time>
      </trkpt>
      <trkpt lat="45.54931" lon="3.06821">
        <ele>699.015625</ele>
        <time>2009-06-14T08:11:47Z</time>
      </trkpt>
      <trkpt lat="45.54932" lon="3.0685">
        <ele>700.9384765625</ele>
        <time>2009-06-14T08:11:57Z</time>
      </trkpt>
      <trkpt lat="45.54933" lon="3.06876">
        <ele>703.341796875</ele>
        <time>2009-06-14T08:12:06Z</time>
      </trkpt>
      <trkpt lat="45.54934" lon="3.06898">
        <ele>704.78369140625</ele>
        <time>2009-06-14T08:12:14Z</time>
      </trkpt>
      <trkpt lat="45.54938" lon="3.06912">
        <ele>706.2255859375</ele>
        <time>2009-06-14T08:12:19Z</time>
      </trkpt>
      <trkpt lat="45.54945" lon="3.06928">
        <ele>709.10961914062</ele>
        <time>2009-06-14T08:12:26Z</time>
      </trkpt>
      <trkpt lat="45.54952" lon="3.06946">
        <ele>710.55151367188</ele>
        <time>2009-06-14T08:12:34Z</time>
      </trkpt>
      <trkpt lat="45.54958" lon="3.06961">
        <ele>710.55151367188</ele>
        <time>2009-06-14T08:12:40Z</time>
      </trkpt>
      <trkpt lat="45.54967" lon="3.0698">
        <ele>710.07080078125</ele>
        <time>2009-06-14T08:12:46Z</time>
      </trkpt>
      <trkpt lat="45.54987" lon="3.07013">
        <ele>710.55151367188</ele>
        <time>2009-06-14T08:12:54Z</time>
      </trkpt>
      <trkpt lat="45.55001" lon="3.07048">
        <ele>710.07080078125</ele>
        <time>2009-06-14T08:13:00Z</time>
      </trkpt>
      <trkpt lat="45.55012" lon="3.07089">
        <ele>710.07080078125</ele>
        <time>2009-06-14T08:13:06Z</time>
      </trkpt>
      <trkpt lat="45.55015" lon="3.07134">
        <ele>710.55151367188</ele>
        <time>2009-06-14T08:13:13Z</time>
      </trkpt>
      <trkpt lat="45.55012" lon="3.07161">
        <ele>710.07080078125</ele>
        <time>2009-06-14T08:13:17Z</time>
      </trkpt>
      <trkpt lat="45.55001" lon="3.07187">
        <ele>709.59033203125</ele>
        <time>2009-06-14T08:13:21Z</time>
      </trkpt>
      <trkpt lat="45.54989" lon="3.07225">
        <ele>707.18701171875</ele>
        <time>2009-06-14T08:13:26Z</time>
      </trkpt>
      <trkpt lat="45.54992" lon="3.07242">
        <ele>708.1484375</ele>
        <time>2009-06-14T08:13:28Z</time>
      </trkpt>
      <trkpt lat="45.54995" lon="3.07249">
        <ele>708.62890625</ele>
        <time>2009-06-14T08:13:29Z</time>
      </trkpt>
      <trkpt lat="45.54997" lon="3.07255">
        <ele>708.62890625</ele>
        <time>2009-06-14T08:13:30Z</time>
      </trkpt>
      <trkpt lat="45.55002" lon="3.07268">
        <ele>709.10961914062</ele>
        <time>2009-06-14T08:13:32Z</time>
      </trkpt>
      <trkpt lat="45.55008" lon="3.07311">
        <ele>707.18701171875</ele>
        <time>2009-06-14T08:13:38Z</time>
      </trkpt>
      <trkpt lat="45.55012" lon="3.07336">
        <ele>705.26440429688</ele>
        <time>2009-06-14T08:13:41Z</time>
      </trkpt>
      <trkpt lat="45.5502" lon="3.07392">
        <ele>704.30322265625</ele>
        <time>2009-06-14T08:13:47Z</time>
      </trkpt>
      <trkpt lat="45.55027" lon="3.0743">
        <ele>702.38037109375</ele>
        <time>2009-06-14T08:13:51Z</time>
      </trkpt>
      <trkpt lat="45.5503" lon="3.0745">
        <ele>701.89990234375</ele>
        <time>2009-06-14T08:13:53Z</time>
      </trkpt>
      <trkpt lat="45.55034" lon="3.07496">
        <ele>702.38037109375</ele>
        <time>2009-06-14T08:13:58Z</time>
      </trkpt>
      <trkpt lat="45.55022" lon="3.0753">
        <ele>699.49633789062</ele>
        <time>2009-06-14T08:14:02Z</time>
      </trkpt>
      <trkpt lat="45.55006" lon="3.07562">
        <ele>698.53491210938</ele>
        <time>2009-06-14T08:14:06Z</time>
      </trkpt>
      <trkpt lat="45.55001" lon="3.07598">
        <ele>697.57373046875</ele>
        <time>2009-06-14T08:14:10Z</time>
      </trkpt>
      <trkpt lat="45.55008" lon="3.07615">
        <ele>698.05444335938</ele>
        <time>2009-06-14T08:14:12Z</time>
      </trkpt>
      <trkpt lat="45.55023" lon="3.07645">
        <ele>697.09301757812</ele>
        <time>2009-06-14T08:14:16Z</time>
      </trkpt>
      <trkpt lat="45.55028" lon="3.07677">
        <ele>698.05444335938</ele>
        <time>2009-06-14T08:14:20Z</time>
      </trkpt>
      <trkpt lat="45.55031" lon="3.0769">
        <ele>698.05444335938</ele>
        <time>2009-06-14T08:14:22Z</time>
      </trkpt>
      <trkpt lat="45.55036" lon="3.07702">
        <ele>697.57373046875</ele>
        <time>2009-06-14T08:14:24Z</time>
      </trkpt>
      <trkpt lat="45.55045" lon="3.07746">
        <ele>696.61254882812</ele>
        <time>2009-06-14T08:14:30Z</time>
      </trkpt>
      <trkpt lat="45.55057" lon="3.07791">
        <ele>695.17041015625</ele>
        <time>2009-06-14T08:14:36Z</time>
      </trkpt>
      <trkpt lat="45.55062" lon="3.07831">
        <ele>694.68969726562</ele>
        <time>2009-06-14T08:14:41Z</time>
      </trkpt>
      <trkpt lat="45.55056" lon="3.07873">
        <ele>693.24780273438</ele>
        <time>2009-06-14T08:14:46Z</time>
      </trkpt>
      <trkpt lat="45.55048" lon="3.0789">
        <ele>692.76733398438</ele>
        <time>2009-06-14T08:14:48Z</time>
      </trkpt>
      <trkpt lat="45.5503" lon="3.07922">
        <ele>690.36401367188</ele>
        <time>2009-06-14T08:14:52Z</time>
      </trkpt>
      <trkpt lat="45.55022" lon="3.07962">
        <ele>689.88330078125</ele>
        <time>2009-06-14T08:14:56Z</time>
      </trkpt>
      <trkpt lat="45.55028" lon="3.07978">
        <ele>690.36401367188</ele>
        <time>2009-06-14T08:14:58Z</time>
      </trkpt>
      <trkpt lat="45.55046" lon="3.0801">
        <ele>690.36401367188</ele>
        <time>2009-06-14T08:15:04Z</time>
      </trkpt>
      <trkpt lat="45.55062" lon="3.0803">
        <ele>689.88330078125</ele>
        <time>2009-06-14T08:15:08Z</time>
      </trkpt>
      <trkpt lat="45.55093" lon="3.08061">
        <ele>689.40258789062</ele>
        <time>2009-06-14T08:15:15Z</time>
      </trkpt>
      <trkpt lat="45.55101" lon="3.0809">
        <ele>688.92211914062</ele>
        <time>2009-06-14T08:15:20Z</time>
      </trkpt>
      <trkpt lat="45.55095" lon="3.08103">
        <ele>689.88330078125</ele>
        <time>2009-06-14T08:15:23Z</time>
      </trkpt>
      <trkpt lat="45.55077" lon="3.08123">
        <ele>688.44140625</ele>
        <time>2009-06-14T08:15:28Z</time>
      </trkpt>
      <trkpt lat="45.55066" lon="3.08149">
        <ele>687.47998046875</ele>
        <time>2009-06-14T08:15:32Z</time>
      </trkpt>
      <trkpt lat="45.55062" lon="3.08164">
        <ele>688.44140625</ele>
        <time>2009-06-14T08:15:34Z</time>
      </trkpt>
      <trkpt lat="45.55038" lon="3.08203">
        <ele>686.99926757812</ele>
        <time>2009-06-14T08:15:40Z</time>
      </trkpt>
      <trkpt lat="45.55031" lon="3.08218">
        <ele>686.99926757812</ele>
        <time>2009-06-14T08:15:42Z</time>
      </trkpt>
      <trkpt lat="45.55025" lon="3.0826">
        <ele>684.59619140625</ele>
        <time>2009-06-14T08:15:47Z</time>
      </trkpt>
      <trkpt lat="45.55035" lon="3.08285">
        <ele>684.11547851562</ele>
        <time>2009-06-14T08:15:50Z</time>
      </trkpt>
      <trkpt lat="45.5504" lon="3.08293">
        <ele>683.63452148438</ele>
        <time>2009-06-14T08:15:51Z</time>
      </trkpt>
      <trkpt lat="45.55091" lon="3.08372">
        <ele>680.27001953125</ele>
        <time>2009-06-14T08:16:01Z</time>
      </trkpt>
      <trkpt lat="45.55101" lon="3.08389">
        <ele>678.828125</ele>
        <time>2009-06-14T08:16:03Z</time>
      </trkpt>
      <trkpt lat="45.55117" lon="3.08424">
        <ele>677.38623046875</ele>
        <time>2009-06-14T08:16:07Z</time>
      </trkpt>
      <trkpt lat="45.55146" lon="3.08454">
        <ele>676.4248046875</ele>
        <time>2009-06-14T08:16:12Z</time>
      </trkpt>
      <trkpt lat="45.55153" lon="3.08456">
        <ele>675.94409179688</ele>
        <time>2009-06-14T08:16:13Z</time>
      </trkpt>
      <trkpt lat="45.55201" lon="3.0846">
        <ele>673.541015625</ele>
        <time>2009-06-14T08:16:20Z</time>
      </trkpt>
      <trkpt lat="45.55228" lon="3.08453">
        <ele>673.541015625</ele>
        <time>2009-06-14T08:16:24Z</time>
      </trkpt>
      <trkpt lat="45.5526" lon="3.08456">
        <ele>673.06030273438</ele>
        <time>2009-06-14T08:16:29Z</time>
      </trkpt>
      <trkpt lat="45.55271" lon="3.08465">
        <ele>673.06030273438</ele>
        <time>2009-06-14T08:16:31Z</time>
      </trkpt>
      <trkpt lat="45.55295" lon="3.08497">
        <ele>670.65698242188</ele>
        <time>2009-06-14T08:16:36Z</time>
      </trkpt>
      <trkpt lat="45.55304" lon="3.08513">
        <ele>669.21508789062</ele>
        <time>2009-06-14T08:16:38Z</time>
      </trkpt>
      <trkpt lat="45.55324" lon="3.0854">
        <ele>669.21508789062</ele>
        <time>2009-06-14T08:16:42Z</time>
      </trkpt>
      <trkpt lat="45.5533" lon="3.08546">
        <ele>668.734375</ele>
        <time>2009-06-14T08:16:43Z</time>
      </trkpt>
      <trkpt lat="45.55335" lon="3.08551">
        <ele>668.734375</ele>
        <time>2009-06-14T08:16:44Z</time>
      </trkpt>
      <trkpt lat="45.5536" lon="3.08574">
        <ele>666.33081054688</ele>
        <time>2009-06-14T08:16:48Z</time>
      </trkpt>
      <trkpt lat="45.55381" lon="3.08603">
        <ele>664.408203125</ele>
        <time>2009-06-14T08:16:52Z</time>
      </trkpt>
      <trkpt lat="45.55404" lon="3.08653">
        <ele>662.96630859375</ele>
        <time>2009-06-14T08:16:58Z</time>
      </trkpt>
      <trkpt lat="45.55416" lon="3.08706">
        <ele>661.5244140625</ele>
        <time>2009-06-14T08:17:04Z</time>
      </trkpt>
      <trkpt lat="45.55424" lon="3.08721">
        <ele>660.56298828125</ele>
        <time>2009-06-14T08:17:06Z</time>
      </trkpt>
      <trkpt lat="45.55429" lon="3.08728">
        <ele>659.60180664062</ele>
        <time>2009-06-14T08:17:07Z</time>
      </trkpt>
      <trkpt lat="45.55441" lon="3.08738">
        <ele>658.64038085938</ele>
        <time>2009-06-14T08:17:09Z</time>
      </trkpt>
      <trkpt lat="45.55461" lon="3.08742">
        <ele>657.67919921875</ele>
        <time>2009-06-14T08:17:12Z</time>
      </trkpt>
      <trkpt lat="45.55481" lon="3.08741">
        <ele>657.19848632812</ele>
        <time>2009-06-14T08:17:15Z</time>
      </trkpt>
      <trkpt lat="45.55494" lon="3.08741">
        <ele>656.7177734375</ele>
        <time>2009-06-14T08:17:17Z</time>
      </trkpt>
      <trkpt lat="45.55537" lon="3.08746">
        <ele>653.833984375</ele>
        <time>2009-06-14T08:17:23Z</time>
      </trkpt>
      <trkpt lat="45.5556" lon="3.08751">
        <ele>652.87255859375</ele>
        <time>2009-06-14T08:17:26Z</time>
      </trkpt>
      <trkpt lat="45.55587" lon="3.08745">
        <ele>652.87255859375</ele>
        <time>2009-06-14T08:17:30Z</time>
      </trkpt>
      <trkpt lat="45.55597" lon="3.08734">
        <ele>652.87255859375</ele>
        <time>2009-06-14T08:17:32Z</time>
      </trkpt>
      <trkpt lat="45.55623" lon="3.08721">
        <ele>651.9111328125</ele>
        <time>2009-06-14T08:17:37Z</time>
      </trkpt>
      <trkpt lat="45.55632" lon="3.08732">
        <ele>650.94970703125</ele>
        <time>2009-06-14T08:17:39Z</time>
      </trkpt>
      <trkpt lat="45.55647" lon="3.08764">
        <ele>648.06591796875</ele>
        <time>2009-06-14T08:17:43Z</time>
      </trkpt>
      <trkpt lat="45.55652" lon="3.08772">
        <ele>648.54638671875</ele>
        <time>2009-06-14T08:17:44Z</time>
      </trkpt>
      <trkpt lat="45.5566" lon="3.0879">
        <ele>648.06591796875</ele>
        <time>2009-06-14T08:17:46Z</time>
      </trkpt>
      <trkpt lat="45.55667" lon="3.08808">
        <ele>646.6240234375</ele>
        <time>2009-06-14T08:17:48Z</time>
      </trkpt>
      <trkpt lat="45.55675" lon="3.08827">
        <ele>645.18188476562</ele>
        <time>2009-06-14T08:17:50Z</time>
      </trkpt>
      <trkpt lat="45.55704" lon="3.08863">
        <ele>643.25927734375</ele>
        <time>2009-06-14T08:17:55Z</time>
      </trkpt>
      <trkpt lat="45.5571" lon="3.0887">
        <ele>643.25927734375</ele>
        <time>2009-06-14T08:17:56Z</time>
      </trkpt>
      <trkpt lat="45.55729" lon="3.08893">
        <ele>641.33666992188</ele>
        <time>2009-06-14T08:17:59Z</time>
      </trkpt>
      <trkpt lat="45.55736" lon="3.089">
        <ele>640.85595703125</ele>
        <time>2009-06-14T08:18:00Z</time>
      </trkpt>
      <trkpt lat="45.55751" lon="3.08939">
        <ele>639.89477539062</ele>
        <time>2009-06-14T08:18:04Z</time>
      </trkpt>
      <trkpt lat="45.55758" lon="3.0897">
        <ele>638.45288085938</ele>
        <time>2009-06-14T08:18:07Z</time>
      </trkpt>
      <trkpt lat="45.55774" lon="3.08993">
        <ele>638.45288085938</ele>
        <time>2009-06-14T08:18:10Z</time>
      </trkpt>
      <trkpt lat="45.55794" lon="3.09009">
        <ele>637.97216796875</ele>
        <time>2009-06-14T08:18:13Z</time>
      </trkpt>
      <trkpt lat="45.55809" lon="3.09017">
        <ele>636.04956054688</ele>
        <time>2009-06-14T08:18:15Z</time>
      </trkpt>
      <trkpt lat="45.5585" lon="3.09035">
        <ele>632.68481445312</ele>
        <time>2009-06-14T08:18:20Z</time>
      </trkpt>
      <trkpt lat="45.55876" lon="3.09044">
        <ele>632.68481445312</ele>
        <time>2009-06-14T08:18:23Z</time>
      </trkpt>
      <trkpt lat="45.55906" lon="3.09063">
        <ele>630.76220703125</ele>
        <time>2009-06-14T08:18:27Z</time>
      </trkpt>
      <trkpt lat="45.55946" lon="3.09095">
        <ele>628.35888671875</ele>
        <time>2009-06-14T08:18:33Z</time>
      </trkpt>
      <trkpt lat="45.55968" lon="3.09107">
        <ele>627.39770507812</ele>
        <time>2009-06-14T08:18:36Z</time>
      </trkpt>
      <trkpt lat="45.55994" lon="3.09134">
        <ele>625.47485351562</ele>
        <time>2009-06-14T08:18:40Z</time>
      </trkpt>
      <trkpt lat="45.56024" lon="3.09149">
        <ele>624.513671875</ele>
        <time>2009-06-14T08:18:44Z</time>
      </trkpt>
      <trkpt lat="45.56055" lon="3.09155">
        <ele>623.07177734375</ele>
        <time>2009-06-14T08:18:48Z</time>
      </trkpt>
      <trkpt lat="45.56083" lon="3.09173">
        <ele>623.07177734375</ele>
        <time>2009-06-14T08:18:52Z</time>
      </trkpt>
      <trkpt lat="45.56089" lon="3.09179">
        <ele>624.03295898438</ele>
        <time>2009-06-14T08:18:54Z</time>
      </trkpt>
      <trkpt lat="45.56094" lon="3.09173">
        <ele>624.99438476562</ele>
        <time>2009-06-14T08:18:58Z</time>
      </trkpt>
      <trkpt lat="45.56093" lon="3.09166">
        <ele>624.513671875</ele>
        <time>2009-06-14T08:19:00Z</time>
      </trkpt>
      <trkpt lat="45.56094" lon="3.09154">
        <ele>625.47485351562</ele>
        <time>2009-06-14T08:19:04Z</time>
      </trkpt>
      <trkpt lat="45.56095" lon="3.09133">
        <ele>626.9169921875</ele>
        <time>2009-06-14T08:19:10Z</time>
      </trkpt>
      <trkpt lat="45.56098" lon="3.09124">
        <ele>627.87817382812</ele>
        <time>2009-06-14T08:19:13Z</time>
      </trkpt>
      <trkpt lat="45.561" lon="3.09114">
        <ele>628.83959960938</ele>
        <time>2009-06-14T08:19:16Z</time>
      </trkpt>
      <trkpt lat="45.56101" lon="3.09111">
        <ele>629.32006835938</ele>
        <time>2009-06-14T08:19:17Z</time>
      </trkpt>
      <trkpt lat="45.56106" lon="3.09101">
        <ele>629.80078125</ele>
        <time>2009-06-14T08:19:21Z</time>
      </trkpt>
      <trkpt lat="45.56115" lon="3.09087">
        <ele>631.72338867188</ele>
        <time>2009-06-14T08:19:27Z</time>
      </trkpt>
      <trkpt lat="45.56116" lon="3.09085">
        <ele>632.2041015625</ele>
        <time>2009-06-14T08:19:28Z</time>
      </trkpt>
      <trkpt lat="45.56124" lon="3.09076">
        <ele>633.64599609375</ele>
        <time>2009-06-14T08:19:33Z</time>
      </trkpt>
      <trkpt lat="45.56132" lon="3.09072">
        <ele>633.64599609375</ele>
        <time>2009-06-14T08:19:37Z</time>
      </trkpt>
      <trkpt lat="45.56149" lon="3.09066">
        <ele>634.607421875</ele>
        <time>2009-06-14T08:19:45Z</time>
      </trkpt>
      <trkpt lat="45.56166" lon="3.09054">
        <ele>636.5302734375</ele>
        <time>2009-06-14T08:19:53Z</time>
      </trkpt>
      <trkpt lat="45.56188" lon="3.09033">
        <ele>638.93359375</ele>
        <time>2009-06-14T08:20:04Z</time>
      </trkpt>
      <trkpt lat="45.56207" lon="3.09019">
        <ele>640.85595703125</ele>
        <time>2009-06-14T08:20:13Z</time>
      </trkpt>
      <trkpt lat="45.56223" lon="3.09014">
        <ele>642.77880859375</ele>
        <time>2009-06-14T08:20:20Z</time>
      </trkpt>
      <trkpt lat="45.56234" lon="3.09011">
        <ele>643.73999023438</ele>
        <time>2009-06-14T08:20:25Z</time>
      </trkpt>
      <trkpt lat="45.56236" lon="3.08999">
        <ele>645.66259765625</ele>
        <time>2009-06-14T08:20:30Z</time>
      </trkpt>
      <trkpt lat="45.56234" lon="3.08997">
        <ele>645.18188476562</ele>
        <time>2009-06-14T08:20:31Z</time>
      </trkpt>
      <trkpt lat="45.56221" lon="3.08981">
        <ele>647.1044921875</ele>
        <time>2009-06-14T08:20:38Z</time>
      </trkpt>
      <trkpt lat="45.56207" lon="3.08965">
        <ele>647.58520507812</ele>
        <time>2009-06-14T08:20:44Z</time>
      </trkpt>
      <trkpt lat="45.56185" lon="3.0895">
        <ele>649.5078125</ele>
        <time>2009-06-14T08:20:52Z</time>
      </trkpt>
      <trkpt lat="45.56159" lon="3.08934">
        <ele>651.9111328125</ele>
        <time>2009-06-14T08:21:02Z</time>
      </trkpt>
      <trkpt lat="45.56136" lon="3.08919">
        <ele>653.35327148438</ele>
        <time>2009-06-14T08:21:12Z</time>
      </trkpt>
      <trkpt lat="45.56127" lon="3.08912">
        <ele>653.833984375</ele>
        <time>2009-06-14T08:21:16Z</time>
      </trkpt>
      <trkpt lat="45.56119" lon="3.08893">
        <ele>655.75659179688</ele>
        <time>2009-06-14T08:21:22Z</time>
      </trkpt>
      <trkpt lat="45.56115" lon="3.08879">
        <ele>656.23706054688</ele>
        <time>2009-06-14T08:21:27Z</time>
      </trkpt>
      <trkpt lat="45.56107" lon="3.08863">
        <ele>657.67919921875</ele>
        <time>2009-06-14T08:21:33Z</time>
      </trkpt>
      <trkpt lat="45.56096" lon="3.08837">
        <ele>660.08227539062</ele>
        <time>2009-06-14T08:21:42Z</time>
      </trkpt>
      <trkpt lat="45.5609" lon="3.08822">
        <ele>661.5244140625</ele>
        <time>2009-06-14T08:21:47Z</time>
      </trkpt>
      <trkpt lat="45.56083" lon="3.08803">
        <ele>662.96630859375</ele>
        <time>2009-06-14T08:21:53Z</time>
      </trkpt>
      <trkpt lat="45.56078" lon="3.08781">
        <ele>663.44702148438</ele>
        <time>2009-06-14T08:22:00Z</time>
      </trkpt>
      <trkpt lat="45.56076" lon="3.0876">
        <ele>665.36962890625</ele>
        <time>2009-06-14T08:22:06Z</time>
      </trkpt>
      <trkpt lat="45.56075" lon="3.08741">
        <ele>666.33081054688</ele>
        <time>2009-06-14T08:22:11Z</time>
      </trkpt>
      <trkpt lat="45.56071" lon="3.08722">
        <ele>667.29223632812</ele>
        <time>2009-06-14T08:22:17Z</time>
      </trkpt>
      <trkpt lat="45.56057" lon="3.08706">
        <ele>669.21508789062</ele>
        <time>2009-06-14T08:22:24Z</time>
      </trkpt>
      <trkpt lat="45.56047" lon="3.0869">
        <ele>670.17626953125</ele>
        <time>2009-06-14T08:22:30Z</time>
      </trkpt>
      <trkpt lat="45.56041" lon="3.08667">
        <ele>672.09887695312</ele>
        <time>2009-06-14T08:22:37Z</time>
      </trkpt>
      <trkpt lat="45.56039" lon="3.08635">
        <ele>674.021484375</ele>
        <time>2009-06-14T08:22:46Z</time>
      </trkpt>
      <trkpt lat="45.56038" lon="3.08611">
        <ele>674.98291015625</ele>
        <time>2009-06-14T08:22:52Z</time>
      </trkpt>
      <trkpt lat="45.56038" lon="3.08584">
        <ele>675.94409179688</ele>
        <time>2009-06-14T08:22:58Z</time>
      </trkpt>
      <trkpt lat="45.56032" lon="3.08563">
        <ele>676.4248046875</ele>
        <time>2009-06-14T08:23:03Z</time>
      </trkpt>
      <trkpt lat="45.56016" lon="3.08547">
        <ele>677.86669921875</ele>
        <time>2009-06-14T08:23:09Z</time>
      </trkpt>
      <trkpt lat="45.55994" lon="3.08529">
        <ele>678.34741210938</ele>
        <time>2009-06-14T08:23:16Z</time>
      </trkpt>
      <trkpt lat="45.55968" lon="3.08505">
        <ele>678.34741210938</ele>
        <time>2009-06-14T08:23:23Z</time>
      </trkpt>
      <trkpt lat="45.55933" lon="3.08473">
        <ele>678.828125</ele>
        <time>2009-06-14T08:23:32Z</time>
      </trkpt>
      <trkpt lat="45.559" lon="3.0845">
        <ele>678.828125</ele>
        <time>2009-06-14T08:23:39Z</time>
      </trkpt>
      <trkpt lat="45.55867" lon="3.08424">
        <ele>678.828125</ele>
        <time>2009-06-14T08:23:46Z</time>
      </trkpt>
      <trkpt lat="45.55849" lon="3.0841">
        <ele>679.78930664062</ele>
        <time>2009-06-14T08:23:50Z</time>
      </trkpt>
      <trkpt lat="45.55822" lon="3.08374">
        <ele>680.75073242188</ele>
        <time>2009-06-14T08:23:57Z</time>
      </trkpt>
      <trkpt lat="45.55818" lon="3.08368">
        <ele>680.27001953125</ele>
        <time>2009-06-14T08:23:58Z</time>
      </trkpt>
      <trkpt lat="45.55811" lon="3.08356">
        <ele>680.27001953125</ele>
        <time>2009-06-14T08:24:00Z</time>
      </trkpt>
      <trkpt lat="45.55791" lon="3.08304">
        <ele>681.7119140625</ele>
        <time>2009-06-14T08:24:08Z</time>
      </trkpt>
      <trkpt lat="45.55778" lon="3.08261">
        <ele>683.15380859375</ele>
        <time>2009-06-14T08:24:15Z</time>
      </trkpt>
      <trkpt lat="45.55775" lon="3.08242">
        <ele>684.59619140625</ele>
        <time>2009-06-14T08:24:18Z</time>
      </trkpt>
      <trkpt lat="45.5577" lon="3.08178">
        <ele>686.51879882812</ele>
        <time>2009-06-14T08:24:29Z</time>
      </trkpt>
      <trkpt lat="45.55761" lon="3.0814">
        <ele>689.40258789062</ele>
        <time>2009-06-14T08:24:37Z</time>
      </trkpt>
      <trkpt lat="45.55759" lon="3.08132">
        <ele>690.36401367188</ele>
        <time>2009-06-14T08:24:39Z</time>
      </trkpt>
      <trkpt lat="45.55751" lon="3.08109">
        <ele>691.80590820312</ele>
        <time>2009-06-14T08:24:46Z</time>
      </trkpt>
      <trkpt lat="45.55743" lon="3.08093">
        <ele>693.24780273438</ele>
        <time>2009-06-14T08:24:51Z</time>
      </trkpt>
      <trkpt lat="45.55733" lon="3.08075">
        <ele>693.24780273438</ele>
        <time>2009-06-14T08:24:56Z</time>
      </trkpt>
      <trkpt lat="45.5573" lon="3.08045">
        <ele>694.20922851562</ele>
        <time>2009-06-14T08:25:02Z</time>
      </trkpt>
      <trkpt lat="45.55739" lon="3.0803">
        <ele>694.68969726562</ele>
        <time>2009-06-14T08:25:06Z</time>
      </trkpt>
      <trkpt lat="45.55756" lon="3.08011">
        <ele>695.65112304688</ele>
        <time>2009-06-14T08:25:13Z</time>
      </trkpt>
      <trkpt lat="45.55767" lon="3.08">
        <ele>697.57373046875</ele>
        <time>2009-06-14T08:25:18Z</time>
      </trkpt>
      <trkpt lat="45.55778" lon="3.07992">
        <ele>698.53491210938</ele>
        <time>2009-06-14T08:25:23Z</time>
      </trkpt>
      <trkpt lat="45.55792" lon="3.07978">
        <ele>701.41918945312</ele>
        <time>2009-06-14T08:25:30Z</time>
      </trkpt>
      <trkpt lat="45.55804" lon="3.07956">
        <ele>703.82250976562</ele>
        <time>2009-06-14T08:25:37Z</time>
      </trkpt>
      <trkpt lat="45.55821" lon="3.07926">
        <ele>706.2255859375</ele>
        <time>2009-06-14T08:25:46Z</time>
      </trkpt>
      <trkpt lat="45.55834" lon="3.07898">
        <ele>706.70629882812</ele>
        <time>2009-06-14T08:25:53Z</time>
      </trkpt>
      <trkpt lat="45.55845" lon="3.07861">
        <ele>708.62890625</ele>
        <time>2009-06-14T08:26:01Z</time>
      </trkpt>
      <trkpt lat="45.55854" lon="3.07834">
        <ele>709.59033203125</ele>
        <time>2009-06-14T08:26:07Z</time>
      </trkpt>
      <trkpt lat="45.5587" lon="3.07799">
        <ele>710.55151367188</ele>
        <time>2009-06-14T08:26:15Z</time>
      </trkpt>
      <trkpt lat="45.55884" lon="3.07775">
        <ele>711.0322265625</ele>
        <time>2009-06-14T08:26:21Z</time>
      </trkpt>
      <trkpt lat="45.5589" lon="3.07768">
        <ele>711.51293945312</ele>
        <time>2009-06-14T08:26:23Z</time>
      </trkpt>
      <trkpt lat="45.5592" lon="3.07741">
        <ele>710.07080078125</ele>
        <time>2009-06-14T08:26:30Z</time>
      </trkpt>
      <trkpt lat="45.55925" lon="3.07738">
        <ele>710.55151367188</ele>
        <time>2009-06-14T08:26:31Z</time>
      </trkpt>
      <trkpt lat="45.55934" lon="3.07732">
        <ele>710.07080078125</ele>
        <time>2009-06-14T08:26:33Z</time>
      </trkpt>
      <trkpt lat="45.55959" lon="3.07721">
        <ele>710.07080078125</ele>
        <time>2009-06-14T08:26:38Z</time>
      </trkpt>
      <trkpt lat="45.55991" lon="3.07692">
        <ele>710.07080078125</ele>
        <time>2009-06-14T08:26:45Z</time>
      </trkpt>
      <trkpt lat="45.56019" lon="3.07652">
        <ele>711.51293945312</ele>
        <time>2009-06-14T08:26:53Z</time>
      </trkpt>
      <trkpt lat="45.56025" lon="3.07641">
        <ele>711.99365234375</ele>
        <time>2009-06-14T08:26:55Z</time>
      </trkpt>
      <trkpt lat="45.56047" lon="3.07594">
        <ele>713.435546875</ele>
        <time>2009-06-14T08:27:04Z</time>
      </trkpt>
      <trkpt lat="45.56061" lon="3.07572">
        <ele>715.8388671875</ele>
        <time>2009-06-14T08:27:10Z</time>
      </trkpt>
      <trkpt lat="45.56077" lon="3.07559">
        <ele>714.87744140625</ele>
        <time>2009-06-14T08:27:15Z</time>
      </trkpt>
      <trkpt lat="45.56091" lon="3.07545">
        <ele>714.87744140625</ele>
        <time>2009-06-14T08:27:19Z</time>
      </trkpt>
      <trkpt lat="45.56104" lon="3.07529">
        <ele>714.39672851562</ele>
        <time>2009-06-14T08:27:23Z</time>
      </trkpt>
      <trkpt lat="45.56129" lon="3.07506">
        <ele>711.51293945312</ele>
        <time>2009-06-14T08:27:28Z</time>
      </trkpt>
      <trkpt lat="45.5616" lon="3.07484">
        <ele>707.18701171875</ele>
        <time>2009-06-14T08:27:32Z</time>
      </trkpt>
      <trkpt lat="45.56186" lon="3.07467">
        <ele>704.30322265625</ele>
        <time>2009-06-14T08:27:35Z</time>
      </trkpt>
      <trkpt lat="45.56195" lon="3.07463">
        <ele>704.30322265625</ele>
        <time>2009-06-14T08:27:36Z</time>
      </trkpt>
      <trkpt lat="45.56221" lon="3.07454">
        <ele>706.2255859375</ele>
        <time>2009-06-14T08:27:39Z</time>
      </trkpt>
      <trkpt lat="45.5626" lon="3.07451">
        <ele>706.70629882812</ele>
        <time>2009-06-14T08:27:44Z</time>
      </trkpt>
      <trkpt lat="45.56295" lon="3.07451">
        <ele>707.66772460938</ele>
        <time>2009-06-14T08:27:50Z</time>
      </trkpt>
      <trkpt lat="45.56313" lon="3.07451">
        <ele>708.1484375</ele>
        <time>2009-06-14T08:27:54Z</time>
      </trkpt>
      <trkpt lat="45.56319" lon="3.07451">
        <ele>708.1484375</ele>
        <time>2009-06-14T08:27:58Z</time>
      </trkpt>
      <trkpt lat="45.56324" lon="3.07469">
        <ele>707.66772460938</ele>
        <time>2009-06-14T08:28:04Z</time>
      </trkpt>
      <trkpt lat="45.56325" lon="3.07487">
        <ele>706.70629882812</ele>
        <time>2009-06-14T08:28:09Z</time>
      </trkpt>
      <trkpt lat="45.56326" lon="3.07515">
        <ele>705.26440429688</ele>
        <time>2009-06-14T08:28:16Z</time>
      </trkpt>
      <trkpt lat="45.56327" lon="3.07528">
        <ele>705.7451171875</ele>
        <time>2009-06-14T08:28:19Z</time>
      </trkpt>
      <trkpt lat="45.56328" lon="3.0755">
        <ele>704.78369140625</ele>
        <time>2009-06-14T08:28:24Z</time>
      </trkpt>
      <trkpt lat="45.5633" lon="3.07587">
        <ele>704.30322265625</ele>
        <time>2009-06-14T08:28:32Z</time>
      </trkpt>
      <trkpt lat="45.56331" lon="3.07602">
        <ele>703.82250976562</ele>
        <time>2009-06-14T08:28:37Z</time>
      </trkpt>
      <trkpt lat="45.56334" lon="3.0762">
        <ele>703.341796875</ele>
        <time>2009-06-14T08:28:42Z</time>
      </trkpt>
      <trkpt lat="45.56335" lon="3.07637">
        <ele>702.86108398438</ele>
        <time>2009-06-14T08:28:46Z</time>
      </trkpt>
      <trkpt lat="45.56348" lon="3.07646">
        <ele>702.38037109375</ele>
        <time>2009-06-14T08:28:50Z</time>
      </trkpt>
      <trkpt lat="45.5636" lon="3.07644">
        <ele>702.38037109375</ele>
        <time>2009-06-14T08:28:53Z</time>
      </trkpt>
      <trkpt lat="45.56369" lon="3.0764">
        <ele>702.38037109375</ele>
        <time>2009-06-14T08:28:55Z</time>
      </trkpt>
      <trkpt lat="45.56403" lon="3.0763">
        <ele>701.41918945312</ele>
        <time>2009-06-14T08:29:04Z</time>
      </trkpt>
      <trkpt lat="45.56412" lon="3.07627">
        <ele>701.41918945312</ele>
        <time>2009-06-14T08:29:06Z</time>
      </trkpt>
      <trkpt lat="45.56441" lon="3.07621">
        <ele>700.4580078125</ele>
        <time>2009-06-14T08:29:13Z</time>
      </trkpt>
      <trkpt lat="45.5647" lon="3.07631">
        <ele>699.97705078125</ele>
        <time>2009-06-14T08:29:19Z</time>
      </trkpt>
      <trkpt lat="45.56475" lon="3.07633">
        <ele>699.49633789062</ele>
        <time>2009-06-14T08:29:20Z</time>
      </trkpt>
      <trkpt lat="45.56507" lon="3.07638">
        <ele>699.015625</ele>
        <time>2009-06-14T08:29:25Z</time>
      </trkpt>
      <trkpt lat="45.5652" lon="3.07639">
        <ele>699.015625</ele>
        <time>2009-06-14T08:29:27Z</time>
      </trkpt>
      <trkpt lat="45.56532" lon="3.07638">
        <ele>699.49633789062</ele>
        <time>2009-06-14T08:29:29Z</time>
      </trkpt>
      <trkpt lat="45.56559" lon="3.07634">
        <ele>699.015625</ele>
        <time>2009-06-14T08:29:34Z</time>
      </trkpt>
      <trkpt lat="45.56576" lon="3.07625">
        <ele>697.57373046875</ele>
        <time>2009-06-14T08:29:37Z</time>
      </trkpt>
      <trkpt lat="45.56583" lon="3.07611">
        <ele>696.61254882812</ele>
        <time>2009-06-14T08:29:39Z</time>
      </trkpt>
      <trkpt lat="45.56598" lon="3.07556">
        <ele>696.1318359375</ele>
        <time>2009-06-14T08:29:46Z</time>
      </trkpt>
      <trkpt lat="45.56616" lon="3.07533">
        <ele>694.20922851562</ele>
        <time>2009-06-14T08:29:50Z</time>
      </trkpt>
      <trkpt lat="45.56622" lon="3.0753">
        <ele>694.68969726562</ele>
        <time>2009-06-14T08:29:51Z</time>
      </trkpt>
      <trkpt lat="45.56651" lon="3.07521">
        <ele>694.68969726562</ele>
        <time>2009-06-14T08:29:56Z</time>
      </trkpt>
      <trkpt lat="45.56686" lon="3.07512">
        <ele>692.28662109375</ele>
        <time>2009-06-14T08:30:02Z</time>
      </trkpt>
      <trkpt lat="45.5673" lon="3.07499">
        <ele>689.40258789062</ele>
        <time>2009-06-14T08:30:08Z</time>
      </trkpt>
      <trkpt lat="45.56744" lon="3.07495">
        <ele>688.92211914062</ele>
        <time>2009-06-14T08:30:10Z</time>
      </trkpt>
      <trkpt lat="45.56787" lon="3.07479">
        <ele>687.96069335938</ele>
        <time>2009-06-14T08:30:16Z</time>
      </trkpt>
      <trkpt lat="45.56808" lon="3.07473">
        <ele>687.47998046875</ele>
        <time>2009-06-14T08:30:19Z</time>
      </trkpt>
      <trkpt lat="45.56848" lon="3.07475">
        <ele>685.55737304688</ele>
        <time>2009-06-14T08:30:25Z</time>
      </trkpt>
      <trkpt lat="45.56855" lon="3.07477">
        <ele>685.55737304688</ele>
        <time>2009-06-14T08:30:26Z</time>
      </trkpt>
      <trkpt lat="45.56886" lon="3.0749">
        <ele>685.55737304688</ele>
        <time>2009-06-14T08:30:31Z</time>
      </trkpt>
      <trkpt lat="45.56903" lon="3.07496">
        <ele>686.0380859375</ele>
        <time>2009-06-14T08:30:34Z</time>
      </trkpt>
      <trkpt lat="45.5692" lon="3.07519">
        <ele>684.11547851562</ele>
        <time>2009-06-14T08:30:38Z</time>
      </trkpt>
      <trkpt lat="45.56934" lon="3.07566">
        <ele>679.78930664062</ele>
        <time>2009-06-14T08:30:43Z</time>
      </trkpt>
      <trkpt lat="45.56951" lon="3.07609">
        <ele>678.34741210938</ele>
        <time>2009-06-14T08:30:48Z</time>
      </trkpt>
      <trkpt lat="45.56975" lon="3.07654">
        <ele>674.50219726562</ele>
        <time>2009-06-14T08:30:53Z</time>
      </trkpt>
      <trkpt lat="45.56979" lon="3.07663">
        <ele>674.50219726562</ele>
        <time>2009-06-14T08:30:54Z</time>
      </trkpt>
      <trkpt lat="45.56996" lon="3.07705">
        <ele>672.09887695312</ele>
        <time>2009-06-14T08:30:58Z</time>
      </trkpt>
      <trkpt lat="45.57004" lon="3.07727">
        <ele>672.09887695312</ele>
        <time>2009-06-14T08:31:00Z</time>
      </trkpt>
      <trkpt lat="45.57028" lon="3.07756">
        <ele>670.65698242188</ele>
        <time>2009-06-14T08:31:04Z</time>
      </trkpt>
      <trkpt lat="45.57035" lon="3.07759">
        <ele>671.6181640625</ele>
        <time>2009-06-14T08:31:05Z</time>
      </trkpt>
      <trkpt lat="45.57076" lon="3.07775">
        <ele>670.65698242188</ele>
        <time>2009-06-14T08:31:11Z</time>
      </trkpt>
      <trkpt lat="45.57115" lon="3.07791">
        <ele>669.69580078125</ele>
        <time>2009-06-14T08:31:17Z</time>
      </trkpt>
      <trkpt lat="45.57141" lon="3.07797">
        <ele>668.25366210938</ele>
        <time>2009-06-14T08:31:21Z</time>
      </trkpt>
      <trkpt lat="45.57155" lon="3.07796">
        <ele>667.77270507812</ele>
        <time>2009-06-14T08:31:23Z</time>
      </trkpt>
      <trkpt lat="45.57182" lon="3.07808">
        <ele>665.85034179688</ele>
        <time>2009-06-14T08:31:27Z</time>
      </trkpt>
      <trkpt lat="45.57194" lon="3.0782">
        <ele>664.88891601562</ele>
        <time>2009-06-14T08:31:29Z</time>
      </trkpt>
      <trkpt lat="45.57236" lon="3.07861">
        <ele>662.96630859375</ele>
        <time>2009-06-14T08:31:36Z</time>
      </trkpt>
      <trkpt lat="45.57268" lon="3.07894">
        <ele>662.48559570312</ele>
        <time>2009-06-14T08:31:42Z</time>
      </trkpt>
      <trkpt lat="45.57274" lon="3.07923">
        <ele>661.5244140625</ele>
        <time>2009-06-14T08:31:46Z</time>
      </trkpt>
      <trkpt lat="45.57273" lon="3.07965">
        <ele>661.5244140625</ele>
        <time>2009-06-14T08:31:51Z</time>
      </trkpt>
      <trkpt lat="45.57273" lon="3.07982">
        <ele>661.04370117188</ele>
        <time>2009-06-14T08:31:53Z</time>
      </trkpt>
      <trkpt lat="45.57271" lon="3.08017">
        <ele>659.60180664062</ele>
        <time>2009-06-14T08:31:57Z</time>
      </trkpt>
      <trkpt lat="45.57275" lon="3.0805">
        <ele>659.60180664062</ele>
        <time>2009-06-14T08:32:01Z</time>
      </trkpt>
      <trkpt lat="45.57279" lon="3.08055">
        <ele>659.60180664062</ele>
        <time>2009-06-14T08:32:02Z</time>
      </trkpt>
      <trkpt lat="45.57304" lon="3.08086">
        <ele>661.04370117188</ele>
        <time>2009-06-14T08:32:08Z</time>
      </trkpt>
      <trkpt lat="45.57317" lon="3.08101">
        <ele>661.04370117188</ele>
        <time>2009-06-14T08:32:11Z</time>
      </trkpt>
      <trkpt lat="45.57333" lon="3.08121">
        <ele>659.60180664062</ele>
        <time>2009-06-14T08:32:15Z</time>
      </trkpt>
      <trkpt lat="45.57367" lon="3.08145">
        <ele>656.7177734375</ele>
        <time>2009-06-14T08:32:21Z</time>
      </trkpt>
      <trkpt lat="45.57409" lon="3.0817">
        <ele>655.27587890625</ele>
        <time>2009-06-14T08:32:28Z</time>
      </trkpt>
      <trkpt lat="45.57445" lon="3.08188">
        <ele>651.43041992188</ele>
        <time>2009-06-14T08:32:34Z</time>
      </trkpt>
      <trkpt lat="45.57452" lon="3.0819">
        <ele>651.43041992188</ele>
        <time>2009-06-14T08:32:35Z</time>
      </trkpt>
      <trkpt lat="45.57488" lon="3.08201">
        <ele>647.58520507812</ele>
        <time>2009-06-14T08:32:40Z</time>
      </trkpt>
      <trkpt lat="45.5753" lon="3.08214">
        <ele>643.73999023438</ele>
        <time>2009-06-14T08:32:45Z</time>
      </trkpt>
      <trkpt lat="45.57547" lon="3.0822">
        <ele>643.25927734375</ele>
        <time>2009-06-14T08:32:47Z</time>
      </trkpt>
      <trkpt lat="45.57592" lon="3.08235">
        <ele>642.29809570312</ele>
        <time>2009-06-14T08:32:53Z</time>
      </trkpt>
      <trkpt lat="45.57598" lon="3.08237">
        <ele>642.29809570312</ele>
        <time>2009-06-14T08:32:54Z</time>
      </trkpt>
      <trkpt lat="45.57609" lon="3.08259">
        <ele>641.33666992188</ele>
        <time>2009-06-14T08:32:58Z</time>
      </trkpt>
      <trkpt lat="45.57611" lon="3.08287">
        <ele>637.49145507812</ele>
        <time>2009-06-14T08:33:01Z</time>
      </trkpt>
      <trkpt lat="45.57607" lon="3.08313">
        <ele>634.607421875</ele>
        <time>2009-06-14T08:33:05Z</time>
      </trkpt>
      <trkpt lat="45.57604" lon="3.08334">
        <ele>628.83959960938</ele>
        <time>2009-06-14T08:33:09Z</time>
      </trkpt>
      <trkpt lat="45.57609" lon="3.08361">
        <ele>626.43627929688</ele>
        <time>2009-06-14T08:33:13Z</time>
      </trkpt>
      <trkpt lat="45.57615" lon="3.08372">
        <ele>624.99438476562</ele>
        <time>2009-06-14T08:33:15Z</time>
      </trkpt>
      <trkpt lat="45.57623" lon="3.08396">
        <ele>622.59106445312</ele>
        <time>2009-06-14T08:33:18Z</time>
      </trkpt>
      <trkpt lat="45.57635" lon="3.08409">
        <ele>621.62963867188</ele>
        <time>2009-06-14T08:33:21Z</time>
      </trkpt>
      <trkpt lat="45.57649" lon="3.08419">
        <ele>618.74560546875</ele>
        <time>2009-06-14T08:33:24Z</time>
      </trkpt>
      <trkpt lat="45.57661" lon="3.08425">
        <ele>618.26489257812</ele>
        <time>2009-06-14T08:33:27Z</time>
      </trkpt>
      <trkpt lat="45.57681" lon="3.08436">
        <ele>614.41967773438</ele>
        <time>2009-06-14T08:33:32Z</time>
      </trkpt>
      <trkpt lat="45.57684" lon="3.08441">
        <ele>612.97778320312</ele>
        <time>2009-06-14T08:33:33Z</time>
      </trkpt>
      <trkpt lat="45.5769" lon="3.0845">
        <ele>611.05517578125</ele>
        <time>2009-06-14T08:33:35Z</time>
      </trkpt>
      <trkpt lat="45.57693" lon="3.08454">
        <ele>609.61328125</ele>
        <time>2009-06-14T08:33:36Z</time>
      </trkpt>
      <trkpt lat="45.57701" lon="3.0846">
        <ele>608.65185546875</ele>
        <time>2009-06-14T08:33:38Z</time>
      </trkpt>
      <trkpt lat="45.57718" lon="3.08468">
        <ele>606.72924804688</ele>
        <time>2009-06-14T08:33:41Z</time>
      </trkpt>
      <trkpt lat="45.57729" lon="3.08477">
        <ele>605.28735351562</ele>
        <time>2009-06-14T08:33:43Z</time>
      </trkpt>
      <trkpt lat="45.57743" lon="3.08486">
        <ele>605.28735351562</ele>
        <time>2009-06-14T08:33:46Z</time>
      </trkpt>
      <trkpt lat="45.57755" lon="3.08491">
        <ele>605.76806640625</ele>
        <time>2009-06-14T08:33:49Z</time>
      </trkpt>
      <trkpt lat="45.57775" lon="3.08495">
        <ele>603.84521484375</ele>
        <time>2009-06-14T08:33:54Z</time>
      </trkpt>
      <trkpt lat="45.57795" lon="3.08503">
        <ele>604.806640625</ele>
        <time>2009-06-14T08:33:58Z</time>
      </trkpt>
      <trkpt lat="45.57803" lon="3.08504">
        <ele>604.806640625</ele>
        <time>2009-06-14T08:34:02Z</time>
      </trkpt>
      <trkpt lat="45.5782" lon="3.08513">
        <ele>604.326171875</ele>
        <time>2009-06-14T08:34:07Z</time>
      </trkpt>
      <trkpt lat="45.5784" lon="3.08527">
        <ele>605.28735351562</ele>
        <time>2009-06-14T08:34:12Z</time>
      </trkpt>
      <trkpt lat="45.57846" lon="3.08537">
        <ele>606.24853515625</ele>
        <time>2009-06-14T08:34:17Z</time>
      </trkpt>
      <trkpt lat="45.57855" lon="3.08544">
        <ele>605.76806640625</ele>
        <time>2009-06-14T08:34:20Z</time>
      </trkpt>
      <trkpt lat="45.57874" lon="3.08559">
        <ele>604.806640625</ele>
        <time>2009-06-14T08:34:26Z</time>
      </trkpt>
      <trkpt lat="45.57878" lon="3.0856">
        <ele>604.326171875</ele>
        <time>2009-06-14T08:34:27Z</time>
      </trkpt>
      <trkpt lat="45.57887" lon="3.08576">
        <ele>602.8837890625</ele>
        <time>2009-06-14T08:34:31Z</time>
      </trkpt>
      <trkpt lat="45.57893" lon="3.08585">
        <ele>601.44189453125</ele>
        <time>2009-06-14T08:34:33Z</time>
      </trkpt>
      <trkpt lat="45.57904" lon="3.08611">
        <ele>600.96118164062</ele>
        <time>2009-06-14T08:34:38Z</time>
      </trkpt>
      <trkpt lat="45.57911" lon="3.08623">
        <ele>598.55786132812</ele>
        <time>2009-06-14T08:34:42Z</time>
      </trkpt>
      <trkpt lat="45.57916" lon="3.08632">
        <ele>596.63549804688</ele>
        <time>2009-06-14T08:34:44Z</time>
      </trkpt>
      <trkpt lat="45.57924" lon="3.08642">
        <ele>595.193359375</ele>
        <time>2009-06-14T08:34:47Z</time>
      </trkpt>
      <trkpt lat="45.57932" lon="3.08643">
        <ele>593.27075195312</ele>
        <time>2009-06-14T08:34:49Z</time>
      </trkpt>
      <trkpt lat="45.57953" lon="3.08636">
        <ele>592.79028320312</ele>
        <time>2009-06-14T08:34:54Z</time>
      </trkpt>
      <trkpt lat="45.57967" lon="3.08628">
        <ele>592.3095703125</ele>
        <time>2009-06-14T08:34:57Z</time>
      </trkpt>
      <trkpt lat="45.57975" lon="3.08621">
        <ele>591.82885742188</ele>
        <time>2009-06-14T08:34:59Z</time>
      </trkpt>
      <trkpt lat="45.57989" lon="3.08629">
        <ele>590.38696289062</ele>
        <time>2009-06-14T08:35:03Z</time>
      </trkpt>
      <trkpt lat="45.58012" lon="3.08646">
        <ele>589.90625</ele>
        <time>2009-06-14T08:35:08Z</time>
      </trkpt>
      <trkpt lat="45.58022" lon="3.08647">
        <ele>588.94506835938</ele>
        <time>2009-06-14T08:35:11Z</time>
      </trkpt>
      <trkpt lat="45.5803" lon="3.08659">
        <ele>587.50268554688</ele>
        <time>2009-06-14T08:35:14Z</time>
      </trkpt>
      <trkpt lat="45.58047" lon="3.08666">
        <ele>585.580078125</ele>
        <time>2009-06-14T08:35:18Z</time>
      </trkpt>
      <trkpt lat="45.5805" lon="3.08669">
        <ele>585.099609375</ele>
        <time>2009-06-14T08:35:19Z</time>
      </trkpt>
      <trkpt lat="45.58059" lon="3.08683">
        <ele>583.65747070312</ele>
        <time>2009-06-14T08:35:22Z</time>
      </trkpt>
      <trkpt lat="45.58068" lon="3.08693">
        <ele>583.65747070312</ele>
        <time>2009-06-14T08:35:24Z</time>
      </trkpt>
      <trkpt lat="45.58077" lon="3.08704">
        <ele>582.6962890625</ele>
        <time>2009-06-14T08:35:26Z</time>
      </trkpt>
      <trkpt lat="45.58081" lon="3.08709">
        <ele>580.77368164062</ele>
        <time>2009-06-14T08:35:27Z</time>
      </trkpt>
      <trkpt lat="45.5809" lon="3.08717">
        <ele>578.37036132812</ele>
        <time>2009-06-14T08:35:29Z</time>
      </trkpt>
      <trkpt lat="45.58104" lon="3.0873">
        <ele>577.8896484375</ele>
        <time>2009-06-14T08:35:32Z</time>
      </trkpt>
      <trkpt lat="45.58117" lon="3.08746">
        <ele>575.005859375</ele>
        <time>2009-06-14T08:35:36Z</time>
      </trkpt>
      <trkpt lat="45.58118" lon="3.08752">
        <ele>575.486328125</ele>
        <time>2009-06-14T08:35:37Z</time>
      </trkpt>
      <trkpt lat="45.58117" lon="3.08766">
        <ele>573.56396484375</ele>
        <time>2009-06-14T08:35:40Z</time>
      </trkpt>
      <trkpt lat="45.58126" lon="3.08773">
        <ele>573.08325195312</ele>
        <time>2009-06-14T08:35:43Z</time>
      </trkpt>
      <trkpt lat="45.5813" lon="3.08777">
        <ele>572.6025390625</ele>
        <time>2009-06-14T08:35:48Z</time>
      </trkpt>
      <trkpt lat="45.58128" lon="3.0879">
        <ele>570.6796875</ele>
        <time>2009-06-14T08:35:53Z</time>
      </trkpt>
      <trkpt lat="45.58125" lon="3.08798">
        <ele>568.75708007812</ele>
        <time>2009-06-14T08:35:56Z</time>
      </trkpt>
      <trkpt lat="45.58126" lon="3.08815">
        <ele>566.83447265625</ele>
        <time>2009-06-14T08:35:59Z</time>
      </trkpt>
      <trkpt lat="45.58131" lon="3.08831">
        <ele>563.46997070312</ele>
        <time>2009-06-14T08:36:02Z</time>
      </trkpt>
      <trkpt lat="45.58135" lon="3.08838">
        <ele>561.54736328125</ele>
        <time>2009-06-14T08:36:04Z</time>
      </trkpt>
      <trkpt lat="45.58142" lon="3.08843">
        <ele>560.10522460938</ele>
        <time>2009-06-14T08:36:06Z</time>
      </trkpt>
      <trkpt lat="45.58154" lon="3.08842">
        <ele>559.62475585938</ele>
        <time>2009-06-14T08:36:09Z</time>
      </trkpt>
      <trkpt lat="45.58159" lon="3.08832">
        <ele>557.7021484375</ele>
        <time>2009-06-14T08:36:12Z</time>
      </trkpt>
      <trkpt lat="45.58159" lon="3.08828">
        <ele>555.29858398438</ele>
        <time>2009-06-14T08:36:13Z</time>
      </trkpt>
      <trkpt lat="45.58162" lon="3.08816">
        <ele>554.33740234375</ele>
        <time>2009-06-14T08:36:16Z</time>
      </trkpt>
      <trkpt lat="45.5817" lon="3.08829">
        <ele>548.5693359375</ele>
        <time>2009-06-14T08:36:20Z</time>
      </trkpt>
      <trkpt lat="45.58179" lon="3.08852">
        <ele>545.685546875</ele>
        <time>2009-06-14T08:36:23Z</time>
      </trkpt>
      <trkpt lat="45.58191" lon="3.0888">
        <ele>541.84020996094</ele>
        <time>2009-06-14T08:36:27Z</time>
      </trkpt>
      <trkpt lat="45.58192" lon="3.08887">
        <ele>541.35949707031</ele>
        <time>2009-06-14T08:36:28Z</time>
      </trkpt>
      <trkpt lat="45.58194" lon="3.08893">
        <ele>539.91760253906</ele>
        <time>2009-06-14T08:36:29Z</time>
      </trkpt>
      <trkpt lat="45.582" lon="3.08922">
        <ele>536.55310058594</ele>
        <time>2009-06-14T08:36:33Z</time>
      </trkpt>
      <trkpt lat="45.58205" lon="3.08948">
        <ele>534.14965820312</ele>
        <time>2009-06-14T08:36:37Z</time>
      </trkpt>
      <trkpt lat="45.58206" lon="3.08959">
        <ele>532.22705078125</ele>
        <time>2009-06-14T08:36:39Z</time>
      </trkpt>
      <trkpt lat="45.58204" lon="3.08968">
        <ele>531.26574707031</ele>
        <time>2009-06-14T08:36:41Z</time>
      </trkpt>
      <trkpt lat="45.58194" lon="3.08969">
        <ele>529.82373046875</ele>
        <time>2009-06-14T08:36:44Z</time>
      </trkpt>
      <trkpt lat="45.58187" lon="3.08974">
        <ele>529.34313964844</ele>
        <time>2009-06-14T08:36:47Z</time>
      </trkpt>
      <trkpt lat="45.58188" lon="3.08976">
        <ele>528.86254882812</ele>
        <time>2009-06-14T08:36:48Z</time>
      </trkpt>
      <trkpt lat="45.58191" lon="3.08979">
        <ele>528.3818359375</ele>
        <time>2009-06-14T08:36:52Z</time>
      </trkpt>
      <trkpt lat="45.58192" lon="3.0898">
        <ele>526.93981933594</ele>
        <time>2009-06-14T08:36:56Z</time>
      </trkpt>
      <trkpt lat="45.58198" lon="3.08983">
        <ele>526.45910644531</ele>
        <time>2009-06-14T08:36:59Z</time>
      </trkpt>
      <trkpt lat="45.58204" lon="3.08987">
        <ele>525.01721191406</ele>
        <time>2009-06-14T08:37:02Z</time>
      </trkpt>
      <trkpt lat="45.5821" lon="3.0899">
        <ele>523.09460449219</ele>
        <time>2009-06-14T08:37:04Z</time>
      </trkpt>
      <trkpt lat="45.58214" lon="3.08991">
        <ele>521.65258789062</ele>
        <time>2009-06-14T08:37:05Z</time>
      </trkpt>
      <trkpt lat="45.58221" lon="3.08991">
        <ele>520.69128417969</ele>
        <time>2009-06-14T08:37:07Z</time>
      </trkpt>
      <trkpt lat="45.58228" lon="3.08993">
        <ele>518.7685546875</ele>
        <time>2009-06-14T08:37:09Z</time>
      </trkpt>
      <trkpt lat="45.58254" lon="3.09021">
        <ele>515.88464355469</ele>
        <time>2009-06-14T08:37:15Z</time>
      </trkpt>
      <trkpt lat="45.5826" lon="3.09026">
        <ele>513.00073242188</ele>
        <time>2009-06-14T08:37:16Z</time>
      </trkpt>
      <trkpt lat="45.58265" lon="3.09033">
        <ele>511.55871582031</ele>
        <time>2009-06-14T08:37:17Z</time>
      </trkpt>
      <trkpt lat="45.58282" lon="3.09063">
        <ele>508.67468261719</ele>
        <time>2009-06-14T08:37:21Z</time>
      </trkpt>
      <trkpt lat="45.58287" lon="3.09076">
        <ele>507.71350097656</ele>
        <time>2009-06-14T08:37:23Z</time>
      </trkpt>
      <trkpt lat="45.58296" lon="3.09087">
        <ele>505.31018066406</ele>
        <time>2009-06-14T08:37:25Z</time>
      </trkpt>
      <trkpt lat="45.58308" lon="3.09095">
        <ele>502.90673828125</ele>
        <time>2009-06-14T08:37:27Z</time>
      </trkpt>
      <trkpt lat="45.58332" lon="3.09108">
        <ele>501.46484375</ele>
        <time>2009-06-14T08:37:31Z</time>
      </trkpt>
      <trkpt lat="45.58339" lon="3.09116">
        <ele>501.94555664062</ele>
        <time>2009-06-14T08:37:34Z</time>
      </trkpt>
      <trkpt lat="45.58345" lon="3.0912">
        <ele>500.98413085938</ele>
        <time>2009-06-14T08:37:37Z</time>
      </trkpt>
      <trkpt lat="45.58375" lon="3.09116">
        <ele>500.02294921875</ele>
        <time>2009-06-14T08:37:43Z</time>
      </trkpt>
      <trkpt lat="45.58407" lon="3.09108">
        <ele>500.02294921875</ele>
        <time>2009-06-14T08:37:49Z</time>
      </trkpt>
      <trkpt lat="45.58437" lon="3.09102">
        <ele>500.02294921875</ele>
        <time>2009-06-14T08:37:56Z</time>
      </trkpt>
      <trkpt lat="45.58442" lon="3.09098">
        <ele>500.50354003906</ele>
        <time>2009-06-14T08:37:58Z</time>
      </trkpt>
      <trkpt lat="45.58445" lon="3.09097">
        <ele>500.98413085938</ele>
        <time>2009-06-14T08:38:01Z</time>
      </trkpt>
      <trkpt lat="45.58445" lon="3.09096">
        <ele>501.46484375</ele>
        <time>2009-06-14T08:38:07Z</time>
      </trkpt>
      <trkpt lat="45.58446" lon="3.09096">
        <ele>500.50354003906</ele>
        <time>2009-06-14T08:39:41Z</time>
      </trkpt>
      <trkpt lat="45.58446" lon="3.09096">
        <ele>500.98413085938</ele>
        <time>2009-06-14T08:39:42Z</time>
      </trkpt>
      <trkpt lat="45.58445" lon="3.09096">
        <ele>500.02294921875</ele>
        <time>2009-06-14T08:43:40Z</time>
      </trkpt>
      <trkpt lat="45.58445" lon="3.09096">
        <ele>500.02294921875</ele>
        <time>2009-06-14T08:43:41Z</time>
      </trkpt>
      <trkpt lat="45.58444" lon="3.09098">
        <ele>499.54223632812</ele>
        <time>2009-06-14T08:44:40Z</time>
      </trkpt>
      <trkpt lat="45.5844" lon="3.09102">
        <ele>500.02294921875</ele>
        <time>2009-06-14T08:44:47Z</time>
      </trkpt>
      <trkpt lat="45.5844" lon="3.09105">
        <ele>500.50354003906</ele>
        <time>2009-06-14T08:44:55Z</time>
      </trkpt>
      <trkpt lat="45.5844" lon="3.09106">
        <ele>499.0615234375</ele>
        <time>2009-06-14T08:45:07Z</time>
      </trkpt>
      <trkpt lat="45.5844" lon="3.09109">
        <ele>498.58093261719</ele>
        <time>2009-06-14T08:45:13Z</time>
      </trkpt>
      <trkpt lat="45.58442" lon="3.09127">
        <ele>497.13891601562</ele>
        <time>2009-06-14T08:45:19Z</time>
      </trkpt>
      <trkpt lat="45.5844" lon="3.09144">
        <ele>496.65832519531</ele>
        <time>2009-06-14T08:45:23Z</time>
      </trkpt>
      <trkpt lat="45.58441" lon="3.09168">
        <ele>497.13891601562</ele>
        <time>2009-06-14T08:45:28Z</time>
      </trkpt>
      <trkpt lat="45.58445" lon="3.09196">
        <ele>496.65832519531</ele>
        <time>2009-06-14T08:45:33Z</time>
      </trkpt>
      <trkpt lat="45.58448" lon="3.09233">
        <ele>496.177734375</ele>
        <time>2009-06-14T08:45:39Z</time>
      </trkpt>
      <trkpt lat="45.58447" lon="3.09269">
        <ele>495.69689941406</ele>
        <time>2009-06-14T08:45:44Z</time>
      </trkpt>
      <trkpt lat="45.58443" lon="3.0929">
        <ele>495.21618652344</ele>
        <time>2009-06-14T08:45:47Z</time>
      </trkpt>
      <trkpt lat="45.58436" lon="3.09331">
        <ele>495.69689941406</ele>
        <time>2009-06-14T08:45:53Z</time>
      </trkpt>
      <trkpt lat="45.58429" lon="3.09374">
        <ele>495.21618652344</ele>
        <time>2009-06-14T08:45:59Z</time>
      </trkpt>
      <trkpt lat="45.58425" lon="3.09395">
        <ele>495.69689941406</ele>
        <time>2009-06-14T08:46:02Z</time>
      </trkpt>
      <trkpt lat="45.58423" lon="3.09437">
        <ele>495.69689941406</ele>
        <time>2009-06-14T08:46:08Z</time>
      </trkpt>
      <trkpt lat="45.58427" lon="3.09465">
        <ele>496.177734375</ele>
        <time>2009-06-14T08:46:12Z</time>
      </trkpt>
      <trkpt lat="45.58439" lon="3.09499">
        <ele>496.177734375</ele>
        <time>2009-06-14T08:46:17Z</time>
      </trkpt>
      <trkpt lat="45.58444" lon="3.0954">
        <ele>496.65832519531</ele>
        <time>2009-06-14T08:46:23Z</time>
      </trkpt>
      <trkpt lat="45.58444" lon="3.09585">
        <ele>495.69689941406</ele>
        <time>2009-06-14T08:46:29Z</time>
      </trkpt>
      <trkpt lat="45.58444" lon="3.09629">
        <ele>495.69689941406</ele>
        <time>2009-06-14T08:46:35Z</time>
      </trkpt>
      <trkpt lat="45.58444" lon="3.09685">
        <ele>496.177734375</ele>
        <time>2009-06-14T08:46:43Z</time>
      </trkpt>
      <trkpt lat="45.58445" lon="3.09697">
        <ele>496.177734375</ele>
        <time>2009-06-14T08:46:45Z</time>
      </trkpt>
      <trkpt lat="45.58458" lon="3.09744">
        <ele>493.29357910156</ele>
        <time>2009-06-14T08:46:51Z</time>
      </trkpt>
      <trkpt lat="45.58475" lon="3.09794">
        <ele>491.37097167969</ele>
        <time>2009-06-14T08:46:57Z</time>
      </trkpt>
      <trkpt lat="45.58497" lon="3.09848">
        <ele>491.85168457031</ele>
        <time>2009-06-14T08:47:04Z</time>
      </trkpt>
      <trkpt lat="45.58516" lon="3.09887">
        <ele>490.40979003906</ele>
        <time>2009-06-14T08:47:09Z</time>
      </trkpt>
      <trkpt lat="45.5854" lon="3.09933">
        <ele>488.48718261719</ele>
        <time>2009-06-14T08:47:14Z</time>
      </trkpt>
      <trkpt lat="45.58548" lon="3.09955">
        <ele>487.52563476562</ele>
        <time>2009-06-14T08:47:16Z</time>
      </trkpt>
      <trkpt lat="45.58551" lon="3.09967">
        <ele>487.04504394531</ele>
        <time>2009-06-14T08:47:17Z</time>
      </trkpt>
      <trkpt lat="45.58568" lon="3.10012">
        <ele>487.04504394531</ele>
        <time>2009-06-14T08:47:21Z</time>
      </trkpt>
      <trkpt lat="45.58572" lon="3.10024">
        <ele>487.04504394531</ele>
        <time>2009-06-14T08:47:22Z</time>
      </trkpt>
      <trkpt lat="45.5858" lon="3.10073">
        <ele>487.04504394531</ele>
        <time>2009-06-14T08:47:26Z</time>
      </trkpt>
      <trkpt lat="45.58582" lon="3.10127">
        <ele>486.08374023438</ele>
        <time>2009-06-14T08:47:30Z</time>
      </trkpt>
      <trkpt lat="45.586" lon="3.10215">
        <ele>485.12243652344</ele>
        <time>2009-06-14T08:47:37Z</time>
      </trkpt>
      <trkpt lat="45.5862" lon="3.10274">
        <ele>486.08374023438</ele>
        <time>2009-06-14T08:47:42Z</time>
      </trkpt>
      <trkpt lat="45.58649" lon="3.10341">
        <ele>487.04504394531</ele>
        <time>2009-06-14T08:47:48Z</time>
      </trkpt>
      <trkpt lat="45.58661" lon="3.10378">
        <ele>486.08374023438</ele>
        <time>2009-06-14T08:47:51Z</time>
      </trkpt>
      <trkpt lat="45.58698" lon="3.10457">
        <ele>485.12243652344</ele>
        <time>2009-06-14T08:47:58Z</time>
      </trkpt>
      <trkpt lat="45.58717" lon="3.10487">
        <ele>484.64184570312</ele>
        <time>2009-06-14T08:48:01Z</time>
      </trkpt>
      <trkpt lat="45.58733" lon="3.10532">
        <ele>483.68041992188</ele>
        <time>2009-06-14T08:48:05Z</time>
      </trkpt>
      <trkpt lat="45.58759" lon="3.10623">
        <ele>481.7578125</ele>
        <time>2009-06-14T08:48:13Z</time>
      </trkpt>
      <trkpt lat="45.58767" lon="3.10656">
        <ele>481.27722167969</ele>
        <time>2009-06-14T08:48:16Z</time>
      </trkpt>
      <trkpt lat="45.58776" lon="3.10722">
        <ele>480.79663085938</ele>
        <time>2009-06-14T08:48:22Z</time>
      </trkpt>
      <trkpt lat="45.58783" lon="3.1079">
        <ele>480.79663085938</ele>
        <time>2009-06-14T08:48:28Z</time>
      </trkpt>
      <trkpt lat="45.58788" lon="3.10844">
        <ele>481.27722167969</ele>
        <time>2009-06-14T08:48:33Z</time>
      </trkpt>
      <trkpt lat="45.58781" lon="3.10885">
        <ele>480.79663085938</ele>
        <time>2009-06-14T08:48:37Z</time>
      </trkpt>
      <trkpt lat="45.58777" lon="3.10938">
        <ele>481.27722167969</ele>
        <time>2009-06-14T08:48:42Z</time>
      </trkpt>
      <trkpt lat="45.5878" lon="3.11016">
        <ele>480.31591796875</ele>
        <time>2009-06-14T08:48:49Z</time>
      </trkpt>
      <trkpt lat="45.58781" lon="3.11063">
        <ele>479.3544921875</ele>
        <time>2009-06-14T08:48:53Z</time>
      </trkpt>
      <trkpt lat="45.58777" lon="3.11101">
        <ele>478.87390136719</ele>
        <time>2009-06-14T08:48:56Z</time>
      </trkpt>
      <trkpt lat="45.58782" lon="3.11175">
        <ele>479.83508300781</ele>
        <time>2009-06-14T08:49:02Z</time>
      </trkpt>
      <trkpt lat="45.5878" lon="3.11254">
        <ele>480.31591796875</ele>
        <time>2009-06-14T08:49:09Z</time>
      </trkpt>
      <trkpt lat="45.58789" lon="3.11325">
        <ele>479.83508300781</ele>
        <time>2009-06-14T08:49:15Z</time>
      </trkpt>
      <trkpt lat="45.58804" lon="3.11383">
        <ele>478.87390136719</ele>
        <time>2009-06-14T08:49:20Z</time>
      </trkpt>
      <trkpt lat="45.58806" lon="3.11396">
        <ele>478.39318847656</ele>
        <time>2009-06-14T08:49:21Z</time>
      </trkpt>
      <trkpt lat="45.58807" lon="3.11444">
        <ele>478.39318847656</ele>
        <time>2009-06-14T08:49:25Z</time>
      </trkpt>
      <trkpt lat="45.58799" lon="3.11524">
        <ele>479.3544921875</ele>
        <time>2009-06-14T08:49:32Z</time>
      </trkpt>
      <trkpt lat="45.58799" lon="3.11546">
        <ele>479.83508300781</ele>
        <time>2009-06-14T08:49:34Z</time>
      </trkpt>
      <trkpt lat="45.58808" lon="3.11598">
        <ele>477.91247558594</ele>
        <time>2009-06-14T08:49:39Z</time>
      </trkpt>
      <trkpt lat="45.58813" lon="3.11626">
        <ele>479.3544921875</ele>
        <time>2009-06-14T08:49:42Z</time>
      </trkpt>
      <trkpt lat="45.5882" lon="3.11686">
        <ele>479.3544921875</ele>
        <time>2009-06-14T08:49:48Z</time>
      </trkpt>
      <trkpt lat="45.58818" lon="3.11732">
        <ele>476.95129394531</ele>
        <time>2009-06-14T08:49:52Z</time>
      </trkpt>
      <trkpt lat="45.58815" lon="3.11767">
        <ele>477.43188476562</ele>
        <time>2009-06-14T08:49:55Z</time>
      </trkpt>
      <trkpt lat="45.58804" lon="3.11814">
        <ele>474.06726074219</ele>
        <time>2009-06-14T08:49:59Z</time>
      </trkpt>
      <trkpt lat="45.58796" lon="3.1185">
        <ele>475.02868652344</ele>
        <time>2009-06-14T08:50:02Z</time>
      </trkpt>
      <trkpt lat="45.58797" lon="3.11897">
        <ele>475.50927734375</ele>
        <time>2009-06-14T08:50:06Z</time>
      </trkpt>
      <trkpt lat="45.58803" lon="3.11928">
        <ele>476.47058105469</ele>
        <time>2009-06-14T08:50:09Z</time>
      </trkpt>
      <trkpt lat="45.58809" lon="3.11943">
        <ele>477.43188476562</ele>
        <time>2009-06-14T08:50:11Z</time>
      </trkpt>
      <trkpt lat="45.58823" lon="3.11954">
        <ele>478.87390136719</ele>
        <time>2009-06-14T08:50:14Z</time>
      </trkpt>
      <trkpt lat="45.58828" lon="3.11958">
        <ele>478.87390136719</ele>
        <time>2009-06-14T08:50:17Z</time>
      </trkpt>
      <trkpt lat="45.58834" lon="3.11965">
        <ele>478.87390136719</ele>
        <time>2009-06-14T08:50:20Z</time>
      </trkpt>
      <trkpt lat="45.58834" lon="3.11982">
        <ele>477.43188476562</ele>
        <time>2009-06-14T08:50:24Z</time>
      </trkpt>
      <trkpt lat="45.5883" lon="3.11998">
        <ele>479.3544921875</ele>
        <time>2009-06-14T08:50:28Z</time>
      </trkpt>
      <trkpt lat="45.58828" lon="3.12022">
        <ele>481.27722167969</ele>
        <time>2009-06-14T08:50:35Z</time>
      </trkpt>
      <trkpt lat="45.58834" lon="3.12045">
        <ele>479.83508300781</ele>
        <time>2009-06-14T08:50:40Z</time>
      </trkpt>
      <trkpt lat="45.58841" lon="3.12083">
        <ele>480.31591796875</ele>
        <time>2009-06-14T08:50:47Z</time>
      </trkpt>
      <trkpt lat="45.58838" lon="3.12103">
        <ele>483.19982910156</ele>
        <time>2009-06-14T08:50:52Z</time>
      </trkpt>
      <trkpt lat="45.58838" lon="3.12116">
        <ele>484.64184570312</ele>
        <time>2009-06-14T08:50:56Z</time>
      </trkpt>
      <trkpt lat="45.58837" lon="3.12125">
        <ele>486.08374023438</ele>
        <time>2009-06-14T08:50:59Z</time>
      </trkpt>
      <trkpt lat="45.58836" lon="3.12133">
        <ele>487.52563476562</ele>
        <time>2009-06-14T08:51:02Z</time>
      </trkpt>
      <trkpt lat="45.58834" lon="3.12158">
        <ele>488.00646972656</ele>
        <time>2009-06-14T08:51:10Z</time>
      </trkpt>
      <trkpt lat="45.58831" lon="3.12184">
        <ele>489.44836425781</ele>
        <time>2009-06-14T08:51:16Z</time>
      </trkpt>
      <trkpt lat="45.58826" lon="3.12206">
        <ele>490.89038085938</ele>
        <time>2009-06-14T08:51:22Z</time>
      </trkpt>
      <trkpt lat="45.58827" lon="3.12232">
        <ele>489.44836425781</ele>
        <time>2009-06-14T08:51:27Z</time>
      </trkpt>
      <trkpt lat="45.58828" lon="3.12238">
        <ele>489.44836425781</ele>
        <time>2009-06-14T08:51:28Z</time>
      </trkpt>
      <trkpt lat="45.5883" lon="3.12254">
        <ele>488.00646972656</ele>
        <time>2009-06-14T08:51:30Z</time>
      </trkpt>
      <trkpt lat="45.58832" lon="3.12262">
        <ele>487.52563476562</ele>
        <time>2009-06-14T08:51:31Z</time>
      </trkpt>
      <trkpt lat="45.58839" lon="3.12288">
        <ele>485.12243652344</ele>
        <time>2009-06-14T08:51:34Z</time>
      </trkpt>
      <trkpt lat="45.58845" lon="3.12307">
        <ele>481.7578125</ele>
        <time>2009-06-14T08:51:37Z</time>
      </trkpt>
      <trkpt lat="45.5885" lon="3.12325">
        <ele>480.31591796875</ele>
        <time>2009-06-14T08:51:39Z</time>
      </trkpt>
      <trkpt lat="45.5886" lon="3.12352">
        <ele>478.87390136719</ele>
        <time>2009-06-14T08:51:43Z</time>
      </trkpt>
      <trkpt lat="45.58862" lon="3.12358">
        <ele>477.43188476562</ele>
        <time>2009-06-14T08:51:44Z</time>
      </trkpt>
      <trkpt lat="45.58861" lon="3.12387">
        <ele>476.95129394531</ele>
        <time>2009-06-14T08:51:48Z</time>
      </trkpt>
      <trkpt lat="45.58853" lon="3.124">
        <ele>475.50927734375</ele>
        <time>2009-06-14T08:51:50Z</time>
      </trkpt>
      <trkpt lat="45.58846" lon="3.1241">
        <ele>477.43188476562</ele>
        <time>2009-06-14T08:51:52Z</time>
      </trkpt>
      <trkpt lat="45.58839" lon="3.12428">
        <ele>477.43188476562</ele>
        <time>2009-06-14T08:51:55Z</time>
      </trkpt>
      <trkpt lat="45.58828" lon="3.12455">
        <ele>477.91247558594</ele>
        <time>2009-06-14T08:51:59Z</time>
      </trkpt>
      <trkpt lat="45.58821" lon="3.12481">
        <ele>479.3544921875</ele>
        <time>2009-06-14T08:52:03Z</time>
      </trkpt>
      <trkpt lat="45.58814" lon="3.12509">
        <ele>482.23852539062</ele>
        <time>2009-06-14T08:52:08Z</time>
      </trkpt>
      <trkpt lat="45.58812" lon="3.12513">
        <ele>482.23852539062</ele>
        <time>2009-06-14T08:52:09Z</time>
      </trkpt>
      <trkpt lat="45.58803" lon="3.12525">
        <ele>485.60302734375</ele>
        <time>2009-06-14T08:52:14Z</time>
      </trkpt>
      <trkpt lat="45.58801" lon="3.12526">
        <ele>485.60302734375</ele>
        <time>2009-06-14T08:52:15Z</time>
      </trkpt>
      <trkpt lat="45.58796" lon="3.12529">
        <ele>486.08374023438</ele>
        <time>2009-06-14T08:52:21Z</time>
      </trkpt>
      <trkpt lat="45.58794" lon="3.1253">
        <ele>487.04504394531</ele>
        <time>2009-06-14T08:52:28Z</time>
      </trkpt>
      <trkpt lat="45.58789" lon="3.12533">
        <ele>487.04504394531</ele>
        <time>2009-06-14T08:52:34Z</time>
      </trkpt>
      <trkpt lat="45.58789" lon="3.12534">
        <ele>488.00646972656</ele>
        <time>2009-06-14T08:52:44Z</time>
      </trkpt>
      <trkpt lat="45.58789" lon="3.12535">
        <ele>488.00646972656</ele>
        <time>2009-06-14T08:53:00Z</time>
      </trkpt>
      <trkpt lat="45.58789" lon="3.12535">
        <ele>488.48718261719</ele>
        <time>2009-06-14T08:53:06Z</time>
      </trkpt>
      <trkpt lat="45.58789" lon="3.12535">
        <ele>488.48718261719</ele>
        <time>2009-06-14T08:53:12Z</time>
      </trkpt>
      <trkpt lat="45.58786" lon="3.12536">
        <ele>488.48718261719</ele>
        <time>2009-06-14T08:53:16Z</time>
      </trkpt>
      <trkpt lat="45.58783" lon="3.12534">
        <ele>488.9677734375</ele>
        <time>2009-06-14T08:53:18Z</time>
      </trkpt>
      <trkpt lat="45.58776" lon="3.12536">
        <ele>489.44836425781</ele>
        <time>2009-06-14T08:53:22Z</time>
      </trkpt>
      <trkpt lat="45.58764" lon="3.1254">
        <ele>490.89038085938</ele>
        <time>2009-06-14T08:53:29Z</time>
      </trkpt>
      <trkpt lat="45.5876" lon="3.12545">
        <ele>489.92907714844</ele>
        <time>2009-06-14T08:53:32Z</time>
      </trkpt>
      <trkpt lat="45.58758" lon="3.12548">
        <ele>489.92907714844</ele>
        <time>2009-06-14T08:53:33Z</time>
      </trkpt>
      <trkpt lat="45.58751" lon="3.12566">
        <ele>488.00646972656</ele>
        <time>2009-06-14T08:53:37Z</time>
      </trkpt>
      <trkpt lat="45.58745" lon="3.12577">
        <ele>487.52563476562</ele>
        <time>2009-06-14T08:53:39Z</time>
      </trkpt>
      <trkpt lat="45.58742" lon="3.12582">
        <ele>486.564453125</ele>
        <time>2009-06-14T08:53:40Z</time>
      </trkpt>
      <trkpt lat="45.58735" lon="3.12605">
        <ele>483.19982910156</ele>
        <time>2009-06-14T08:53:44Z</time>
      </trkpt>
      <trkpt lat="45.58732" lon="3.1263">
        <ele>480.79663085938</ele>
        <time>2009-06-14T08:53:47Z</time>
      </trkpt>
      <trkpt lat="45.58731" lon="3.12654">
        <ele>476.95129394531</ele>
        <time>2009-06-14T08:53:50Z</time>
      </trkpt>
      <trkpt lat="45.5873" lon="3.12678">
        <ele>475.98986816406</ele>
        <time>2009-06-14T08:53:53Z</time>
      </trkpt>
      <trkpt lat="45.58731" lon="3.12687">
        <ele>474.06726074219</ele>
        <time>2009-06-14T08:53:54Z</time>
      </trkpt>
      <trkpt lat="45.58731" lon="3.12695">
        <ele>473.58666992188</ele>
        <time>2009-06-14T08:53:55Z</time>
      </trkpt>
      <trkpt lat="45.58731" lon="3.12704">
        <ele>472.62536621094</ele>
        <time>2009-06-14T08:53:56Z</time>
      </trkpt>
      <trkpt lat="45.58734" lon="3.1273">
        <ele>470.22192382812</ele>
        <time>2009-06-14T08:53:59Z</time>
      </trkpt>
      <trkpt lat="45.58735" lon="3.12746">
        <ele>468.78002929688</ele>
        <time>2009-06-14T08:54:01Z</time>
      </trkpt>
      <trkpt lat="45.58735" lon="3.12778">
        <ele>468.29931640625</ele>
        <time>2009-06-14T08:54:06Z</time>
      </trkpt>
      <trkpt lat="45.58735" lon="3.12782">
        <ele>467.81872558594</ele>
        <time>2009-06-14T08:54:10Z</time>
      </trkpt>
      <trkpt lat="45.58735" lon="3.12782">
        <ele>467.81872558594</ele>
        <time>2009-06-14T08:54:13Z</time>
      </trkpt>
      <trkpt lat="45.58735" lon="3.12782">
        <ele>467.81872558594</ele>
        <time>2009-06-14T08:54:14Z</time>
      </trkpt>
      <trkpt lat="45.58735" lon="3.12782">
        <ele>467.33813476562</ele>
        <time>2009-06-14T08:54:30Z</time>
      </trkpt>
      <trkpt lat="45.58735" lon="3.12782">
        <ele>467.33813476562</ele>
        <time>2009-06-14T08:54:34Z</time>
      </trkpt>
      <trkpt lat="45.58735" lon="3.12783">
        <ele>467.81872558594</ele>
        <time>2009-06-14T08:54:41Z</time>
      </trkpt>
      <trkpt lat="45.58733" lon="3.12787">
        <ele>467.81872558594</ele>
        <time>2009-06-14T08:54:51Z</time>
      </trkpt>
      <trkpt lat="45.58733" lon="3.12788">
        <ele>467.81872558594</ele>
        <time>2009-06-14T08:54:53Z</time>
      </trkpt>
      <trkpt lat="45.58733" lon="3.12788">
        <ele>467.81872558594</ele>
        <time>2009-06-14T08:54:54Z</time>
      </trkpt>
      <trkpt lat="45.58733" lon="3.12788">
        <ele>467.81872558594</ele>
        <time>2009-06-14T08:54:55Z</time>
      </trkpt>
      <trkpt lat="45.58733" lon="3.12788">
        <ele>468.29931640625</ele>
        <time>2009-06-14T08:55:03Z</time>
      </trkpt>
      <trkpt lat="45.58734" lon="3.12786">
        <ele>468.29931640625</ele>
        <time>2009-06-14T08:55:23Z</time>
      </trkpt>
      <trkpt lat="45.58734" lon="3.12787">
        <ele>468.29931640625</ele>
        <time>2009-06-14T08:55:27Z</time>
      </trkpt>
      <trkpt lat="45.58734" lon="3.12787">
        <ele>468.29931640625</ele>
        <time>2009-06-14T08:55:34Z</time>
      </trkpt>
      <trkpt lat="45.58734" lon="3.12787">
        <ele>468.29931640625</ele>
        <time>2009-06-14T08:55:43Z</time>
      </trkpt>
      <trkpt lat="45.58734" lon="3.12788">
        <ele>468.29931640625</ele>
        <time>2009-06-14T08:55:59Z</time>
      </trkpt>
      <trkpt lat="45.58733" lon="3.12788">
        <ele>468.29931640625</ele>
        <time>2009-06-14T08:56:06Z</time>
      </trkpt>
      <trkpt lat="45.58733" lon="3.12788">
        <ele>468.29931640625</ele>
        <time>2009-06-14T08:56:12Z</time>
      </trkpt>
      <trkpt lat="45.58733" lon="3.12788">
        <ele>468.29931640625</ele>
        <time>2009-06-14T08:57:04Z</time>
      </trkpt>
      <trkpt lat="45.58733" lon="3.12788">
        <ele>468.29931640625</ele>
        <time>2009-06-14T08:57:08Z</time>
      </trkpt>
      <trkpt lat="45.58733" lon="3.12788">
        <ele>468.29931640625</ele>
        <time>2009-06-14T08:57:09Z</time>
      </trkpt>
      <trkpt lat="45.58733" lon="3.12786">
        <ele>468.29931640625</ele>
        <time>2009-06-14T08:57:46Z</time>
      </trkpt>
      <trkpt lat="45.58733" lon="3.12786">
        <ele>468.29931640625</ele>
        <time>2009-06-14T08:57:54Z</time>
      </trkpt>
      <trkpt lat="45.58733" lon="3.12786">
        <ele>468.29931640625</ele>
        <time>2009-06-14T08:57:57Z</time>
      </trkpt>
      <trkpt lat="45.58733" lon="3.12786">
        <ele>467.81872558594</ele>
        <time>2009-06-14T08:57:58Z</time>
      </trkpt>
      <trkpt lat="45.58733" lon="3.12786">
        <ele>468.29931640625</ele>
        <time>2009-06-14T08:58:05Z</time>
      </trkpt>
      <trkpt lat="45.58733" lon="3.12786">
        <ele>468.78002929688</ele>
        <time>2009-06-14T08:58:11Z</time>
      </trkpt>
      <trkpt lat="45.58734" lon="3.12786">
        <ele>468.78002929688</ele>
        <time>2009-06-14T08:58:23Z</time>
      </trkpt>
      <trkpt lat="45.58733" lon="3.12789">
        <ele>467.81872558594</ele>
        <time>2009-06-14T08:58:36Z</time>
      </trkpt>
      <trkpt lat="45.58738" lon="3.12785">
        <ele>466.37670898438</ele>
        <time>2009-06-14T08:59:45Z</time>
      </trkpt>
      <trkpt lat="45.58738" lon="3.12786">
        <ele>466.857421875</ele>
        <time>2009-06-14T08:59:49Z</time>
      </trkpt>
      <trkpt lat="45.58738" lon="3.12789">
        <ele>466.37670898438</ele>
        <time>2009-06-14T08:59:50Z</time>
      </trkpt>
      <trkpt lat="45.58732" lon="3.12806">
        <ele>466.37670898438</ele>
        <time>2009-06-14T08:59:54Z</time>
      </trkpt>
      <trkpt lat="45.58721" lon="3.12826">
        <ele>466.37670898438</ele>
        <time>2009-06-14T08:59:59Z</time>
      </trkpt>
      <trkpt lat="45.58707" lon="3.12824">
        <ele>466.857421875</ele>
        <time>2009-06-14T09:00:04Z</time>
      </trkpt>
      <trkpt lat="45.58701" lon="3.12822">
        <ele>466.857421875</ele>
        <time>2009-06-14T09:00:06Z</time>
      </trkpt>
      <trkpt lat="45.58696" lon="3.12835">
        <ele>466.857421875</ele>
        <time>2009-06-14T09:00:11Z</time>
      </trkpt>
      <trkpt lat="45.58696" lon="3.12873">
        <ele>468.29931640625</ele>
        <time>2009-06-14T09:00:17Z</time>
      </trkpt>
      <trkpt lat="45.58694" lon="3.12889">
        <ele>468.29931640625</ele>
        <time>2009-06-14T09:00:20Z</time>
      </trkpt>
      <trkpt lat="45.58694" lon="3.12911">
        <ele>468.78002929688</ele>
        <time>2009-06-14T09:00:24Z</time>
      </trkpt>
      <trkpt lat="45.58694" lon="3.12917">
        <ele>470.22192382812</ele>
        <time>2009-06-14T09:00:25Z</time>
      </trkpt>
      <trkpt lat="45.58696" lon="3.12933">
        <ele>470.70263671875</ele>
        <time>2009-06-14T09:00:28Z</time>
      </trkpt>
      <trkpt lat="45.58699" lon="3.12947">
        <ele>472.14465332031</ele>
        <time>2009-06-14T09:00:32Z</time>
      </trkpt>
      <trkpt lat="45.58702" lon="3.1296">
        <ele>473.58666992188</ele>
        <time>2009-06-14T09:00:36Z</time>
      </trkpt>
      <trkpt lat="45.58709" lon="3.12978">
        <ele>475.98986816406</ele>
        <time>2009-06-14T09:00:42Z</time>
      </trkpt>
      <trkpt lat="45.58711" lon="3.1298">
        <ele>475.98986816406</ele>
        <time>2009-06-14T09:00:43Z</time>
      </trkpt>
      <trkpt lat="45.58715" lon="3.13004">
        <ele>477.91247558594</ele>
        <time>2009-06-14T09:00:50Z</time>
      </trkpt>
      <trkpt lat="45.58718" lon="3.13013">
        <ele>479.3544921875</ele>
        <time>2009-06-14T09:00:53Z</time>
      </trkpt>
      <trkpt lat="45.58724" lon="3.13041">
        <ele>481.27722167969</ele>
        <time>2009-06-14T09:01:01Z</time>
      </trkpt>
      <trkpt lat="45.58725" lon="3.13068">
        <ele>483.19982910156</ele>
        <time>2009-06-14T09:01:09Z</time>
      </trkpt>
      <trkpt lat="45.5872" lon="3.13097">
        <ele>484.1611328125</ele>
        <time>2009-06-14T09:01:17Z</time>
      </trkpt>
      <trkpt lat="45.58711" lon="3.13124">
        <ele>485.12243652344</ele>
        <time>2009-06-14T09:01:24Z</time>
      </trkpt>
      <trkpt lat="45.58699" lon="3.13156">
        <ele>486.08374023438</ele>
        <time>2009-06-14T09:01:32Z</time>
      </trkpt>
      <trkpt lat="45.58688" lon="3.13183">
        <ele>485.12243652344</ele>
        <time>2009-06-14T09:01:37Z</time>
      </trkpt>
      <trkpt lat="45.58674" lon="3.13215">
        <ele>484.1611328125</ele>
        <time>2009-06-14T09:01:42Z</time>
      </trkpt>
      <trkpt lat="45.58672" lon="3.13251">
        <ele>484.64184570312</ele>
        <time>2009-06-14T09:01:47Z</time>
      </trkpt>
      <trkpt lat="45.58677" lon="3.13264">
        <ele>485.12243652344</ele>
        <time>2009-06-14T09:01:49Z</time>
      </trkpt>
      <trkpt lat="45.58687" lon="3.13288">
        <ele>487.04504394531</ele>
        <time>2009-06-14T09:01:54Z</time>
      </trkpt>
      <trkpt lat="45.58697" lon="3.13314">
        <ele>488.48718261719</ele>
        <time>2009-06-14T09:02:01Z</time>
      </trkpt>
      <trkpt lat="45.58701" lon="3.13334">
        <ele>490.40979003906</ele>
        <time>2009-06-14T09:02:08Z</time>
      </trkpt>
      <trkpt lat="45.58701" lon="3.13352">
        <ele>492.81298828125</ele>
        <time>2009-06-14T09:02:15Z</time>
      </trkpt>
      <trkpt lat="45.58698" lon="3.13369">
        <ele>495.21618652344</ele>
        <time>2009-06-14T09:02:22Z</time>
      </trkpt>
      <trkpt lat="45.58698" lon="3.13376">
        <ele>496.177734375</ele>
        <time>2009-06-14T09:02:25Z</time>
      </trkpt>
      <trkpt lat="45.58696" lon="3.13395">
        <ele>498.58093261719</ele>
        <time>2009-06-14T09:02:33Z</time>
      </trkpt>
      <trkpt lat="45.58695" lon="3.13404">
        <ele>500.02294921875</ele>
        <time>2009-06-14T09:02:37Z</time>
      </trkpt>
      <trkpt lat="45.58692" lon="3.1342">
        <ele>501.46484375</ele>
        <time>2009-06-14T09:02:45Z</time>
      </trkpt>
      <trkpt lat="45.58687" lon="3.13437">
        <ele>503.38745117188</ele>
        <time>2009-06-14T09:02:54Z</time>
      </trkpt>
      <trkpt lat="45.58686" lon="3.13441">
        <ele>504.82946777344</ele>
        <time>2009-06-14T09:02:56Z</time>
      </trkpt>
      <trkpt lat="45.5868" lon="3.1346">
        <ele>506.271484375</ele>
        <time>2009-06-14T09:03:05Z</time>
      </trkpt>
      <trkpt lat="45.58674" lon="3.13478">
        <ele>508.67468261719</ele>
        <time>2009-06-14T09:03:14Z</time>
      </trkpt>
      <trkpt lat="45.58667" lon="3.13494">
        <ele>510.11669921875</ele>
        <time>2009-06-14T09:03:22Z</time>
      </trkpt>
      <trkpt lat="45.58662" lon="3.13511">
        <ele>512.03942871094</ele>
        <time>2009-06-14T09:03:30Z</time>
      </trkpt>
      <trkpt lat="45.5866" lon="3.13528">
        <ele>513.96203613281</ele>
        <time>2009-06-14T09:03:38Z</time>
      </trkpt>
      <trkpt lat="45.58658" lon="3.13549">
        <ele>515.40405273438</ele>
        <time>2009-06-14T09:03:47Z</time>
      </trkpt>
      <trkpt lat="45.58656" lon="3.13556">
        <ele>516.84594726562</ele>
        <time>2009-06-14T09:03:50Z</time>
      </trkpt>
      <trkpt lat="45.58647" lon="3.13568">
        <ele>518.7685546875</ele>
        <time>2009-06-14T09:03:57Z</time>
      </trkpt>
      <trkpt lat="45.5863" lon="3.13576">
        <ele>519.72985839844</ele>
        <time>2009-06-14T09:04:06Z</time>
      </trkpt>
      <trkpt lat="45.58611" lon="3.1358">
        <ele>521.65258789062</ele>
        <time>2009-06-14T09:04:16Z</time>
      </trkpt>
      <trkpt lat="45.58599" lon="3.13583">
        <ele>524.05578613281</ele>
        <time>2009-06-14T09:04:23Z</time>
      </trkpt>
      <trkpt lat="45.58585" lon="3.1359">
        <ele>525.01721191406</ele>
        <time>2009-06-14T09:04:31Z</time>
      </trkpt>
      <trkpt lat="45.58572" lon="3.13594">
        <ele>527.42041015625</ele>
        <time>2009-06-14T09:04:38Z</time>
      </trkpt>
      <trkpt lat="45.58567" lon="3.13595">
        <ele>528.86254882812</ele>
        <time>2009-06-14T09:04:41Z</time>
      </trkpt>
      <trkpt lat="45.5855" lon="3.136">
        <ele>529.82373046875</ele>
        <time>2009-06-14T09:04:50Z</time>
      </trkpt>
      <trkpt lat="45.58539" lon="3.13599">
        <ele>531.26574707031</ele>
        <time>2009-06-14T09:04:56Z</time>
      </trkpt>
      <trkpt lat="45.58526" lon="3.13597">
        <ele>533.18835449219</ele>
        <time>2009-06-14T09:05:03Z</time>
      </trkpt>
      <trkpt lat="45.5851" lon="3.13593">
        <ele>534.63037109375</ele>
        <time>2009-06-14T09:05:11Z</time>
      </trkpt>
      <trkpt lat="45.58501" lon="3.13591">
        <ele>536.55310058594</ele>
        <time>2009-06-14T09:05:16Z</time>
      </trkpt>
      <trkpt lat="45.58486" lon="3.13589">
        <ele>537.51428222656</ele>
        <time>2009-06-14T09:05:24Z</time>
      </trkpt>
      <trkpt lat="45.58478" lon="3.1359">
        <ele>539.43688964844</ele>
        <time>2009-06-14T09:05:28Z</time>
      </trkpt>
      <trkpt lat="45.58463" lon="3.13591">
        <ele>540.87890625</ele>
        <time>2009-06-14T09:05:36Z</time>
      </trkpt>
      <trkpt lat="45.58448" lon="3.13592">
        <ele>542.32092285156</ele>
        <time>2009-06-14T09:05:43Z</time>
      </trkpt>
      <trkpt lat="45.58433" lon="3.13594">
        <ele>545.20483398438</ele>
        <time>2009-06-14T09:05:50Z</time>
      </trkpt>
      <trkpt lat="45.58421" lon="3.13597">
        <ele>546.16625976562</ele>
        <time>2009-06-14T09:05:55Z</time>
      </trkpt>
      <trkpt lat="45.58417" lon="3.13599">
        <ele>547.60815429688</ele>
        <time>2009-06-14T09:05:57Z</time>
      </trkpt>
      <trkpt lat="45.58401" lon="3.13622">
        <ele>548.0888671875</ele>
        <time>2009-06-14T09:06:05Z</time>
      </trkpt>
      <trkpt lat="45.58386" lon="3.13641">
        <ele>549.05004882812</ele>
        <time>2009-06-14T09:06:12Z</time>
      </trkpt>
      <trkpt lat="45.58371" lon="3.13652">
        <ele>550.4921875</ele>
        <time>2009-06-14T09:06:19Z</time>
      </trkpt>
      <trkpt lat="45.58359" lon="3.13662">
        <ele>551.93408203125</ele>
        <time>2009-06-14T09:06:25Z</time>
      </trkpt>
      <trkpt lat="45.58345" lon="3.1367">
        <ele>552.89526367188</ele>
        <time>2009-06-14T09:06:31Z</time>
      </trkpt>
      <trkpt lat="45.58324" lon="3.13684">
        <ele>556.26000976562</ele>
        <time>2009-06-14T09:06:40Z</time>
      </trkpt>
      <trkpt lat="45.58306" lon="3.13691">
        <ele>557.22143554688</ele>
        <time>2009-06-14T09:06:48Z</time>
      </trkpt>
      <trkpt lat="45.58294" lon="3.13692">
        <ele>558.66333007812</ele>
        <time>2009-06-14T09:06:53Z</time>
      </trkpt>
      <trkpt lat="45.58271" lon="3.13692">
        <ele>560.5859375</ele>
        <time>2009-06-14T09:07:02Z</time>
      </trkpt>
      <trkpt lat="45.58249" lon="3.13693">
        <ele>562.9892578125</ele>
        <time>2009-06-14T09:07:11Z</time>
      </trkpt>
      <trkpt lat="45.58228" lon="3.13693">
        <ele>563.95043945312</ele>
        <time>2009-06-14T09:07:19Z</time>
      </trkpt>
      <trkpt lat="45.58203" lon="3.13698">
        <ele>564.43115234375</ele>
        <time>2009-06-14T09:07:27Z</time>
      </trkpt>
      <trkpt lat="45.58176" lon="3.13712">
        <ele>565.392578125</ele>
        <time>2009-06-14T09:07:35Z</time>
      </trkpt>
      <trkpt lat="45.58146" lon="3.13727">
        <ele>567.31518554688</ele>
        <time>2009-06-14T09:07:44Z</time>
      </trkpt>
      <trkpt lat="45.58122" lon="3.13734">
        <ele>567.79565429688</ele>
        <time>2009-06-14T09:07:51Z</time>
      </trkpt>
      <trkpt lat="45.5809" lon="3.13736">
        <ele>565.392578125</ele>
        <time>2009-06-14T09:07:58Z</time>
      </trkpt>
      <trkpt lat="45.58068" lon="3.13737">
        <ele>565.392578125</ele>
        <time>2009-06-14T09:08:03Z</time>
      </trkpt>
      <trkpt lat="45.58065" lon="3.13737">
        <ele>565.87329101562</ele>
        <time>2009-06-14T09:08:04Z</time>
      </trkpt>
      <trkpt lat="45.58052" lon="3.13751">
        <ele>565.87329101562</ele>
        <time>2009-06-14T09:08:09Z</time>
      </trkpt>
      <trkpt lat="45.58049" lon="3.13772">
        <ele>566.83447265625</ele>
        <time>2009-06-14T09:08:13Z</time>
      </trkpt>
      <trkpt lat="45.58043" lon="3.13809">
        <ele>567.79565429688</ele>
        <time>2009-06-14T09:08:20Z</time>
      </trkpt>
      <trkpt lat="45.58032" lon="3.13836">
        <ele>569.23779296875</ele>
        <time>2009-06-14T09:08:26Z</time>
      </trkpt>
      <trkpt lat="45.58017" lon="3.13869">
        <ele>570.19897460938</ele>
        <time>2009-06-14T09:08:34Z</time>
      </trkpt>
      <trkpt lat="45.58002" lon="3.13895">
        <ele>572.6025390625</ele>
        <time>2009-06-14T09:08:41Z</time>
      </trkpt>
      <trkpt lat="45.57982" lon="3.13924">
        <ele>573.08325195312</ele>
        <time>2009-06-14T09:08:49Z</time>
      </trkpt>
      <trkpt lat="45.57965" lon="3.13953">
        <ele>574.04443359375</ele>
        <time>2009-06-14T09:08:56Z</time>
      </trkpt>
      <trkpt lat="45.57948" lon="3.13982">
        <ele>575.96704101562</ele>
        <time>2009-06-14T09:09:03Z</time>
      </trkpt>
      <trkpt lat="45.57932" lon="3.1401">
        <ele>576.44775390625</ele>
        <time>2009-06-14T09:09:10Z</time>
      </trkpt>
      <trkpt lat="45.57918" lon="3.14042">
        <ele>576.44775390625</ele>
        <time>2009-06-14T09:09:16Z</time>
      </trkpt>
      <trkpt lat="45.57896" lon="3.14087">
        <ele>576.44775390625</ele>
        <time>2009-06-14T09:09:24Z</time>
      </trkpt>
      <trkpt lat="45.57877" lon="3.14123">
        <ele>575.486328125</ele>
        <time>2009-06-14T09:09:30Z</time>
      </trkpt>
      <trkpt lat="45.57854" lon="3.14159">
        <ele>577.4091796875</ele>
        <time>2009-06-14T09:09:37Z</time>
      </trkpt>
      <trkpt lat="45.5785" lon="3.14163">
        <ele>577.4091796875</ele>
        <time>2009-06-14T09:09:38Z</time>
      </trkpt>
      <trkpt lat="45.57811" lon="3.14191">
        <ele>577.4091796875</ele>
        <time>2009-06-14T09:09:47Z</time>
      </trkpt>
      <trkpt lat="45.57802" lon="3.14198">
        <ele>576.92846679688</ele>
        <time>2009-06-14T09:09:49Z</time>
      </trkpt>
      <trkpt lat="45.57793" lon="3.14205">
        <ele>576.92846679688</ele>
        <time>2009-06-14T09:09:51Z</time>
      </trkpt>
      <trkpt lat="45.5778" lon="3.14219">
        <ele>577.4091796875</ele>
        <time>2009-06-14T09:09:54Z</time>
      </trkpt>
      <trkpt lat="45.5776" lon="3.14245">
        <ele>577.4091796875</ele>
        <time>2009-06-14T09:09:59Z</time>
      </trkpt>
      <trkpt lat="45.57744" lon="3.14263">
        <ele>577.4091796875</ele>
        <time>2009-06-14T09:10:03Z</time>
      </trkpt>
      <trkpt lat="45.57727" lon="3.14287">
        <ele>577.8896484375</ele>
        <time>2009-06-14T09:10:08Z</time>
      </trkpt>
      <trkpt lat="45.577" lon="3.14326">
        <ele>579.33154296875</ele>
        <time>2009-06-14T09:10:16Z</time>
      </trkpt>
      <trkpt lat="45.5769" lon="3.14338">
        <ele>579.33154296875</ele>
        <time>2009-06-14T09:10:19Z</time>
      </trkpt>
      <trkpt lat="45.57658" lon="3.1437">
        <ele>579.33154296875</ele>
        <time>2009-06-14T09:10:27Z</time>
      </trkpt>
      <trkpt lat="45.57637" lon="3.14393">
        <ele>578.85107421875</ele>
        <time>2009-06-14T09:10:32Z</time>
      </trkpt>
      <trkpt lat="45.57596" lon="3.14439">
        <ele>578.85107421875</ele>
        <time>2009-06-14T09:10:41Z</time>
      </trkpt>
      <trkpt lat="45.57591" lon="3.14444">
        <ele>579.33154296875</ele>
        <time>2009-06-14T09:10:42Z</time>
      </trkpt>
      <trkpt lat="45.57545" lon="3.14492">
        <ele>578.85107421875</ele>
        <time>2009-06-14T09:10:52Z</time>
      </trkpt>
      <trkpt lat="45.57512" lon="3.14531">
        <ele>577.8896484375</ele>
        <time>2009-06-14T09:10:59Z</time>
      </trkpt>
      <trkpt lat="45.5748" lon="3.14566">
        <ele>577.8896484375</ele>
        <time>2009-06-14T09:11:06Z</time>
      </trkpt>
      <trkpt lat="45.57441" lon="3.14608">
        <ele>576.92846679688</ele>
        <time>2009-06-14T09:11:14Z</time>
      </trkpt>
      <trkpt lat="45.57415" lon="3.14635">
        <ele>576.44775390625</ele>
        <time>2009-06-14T09:11:19Z</time>
      </trkpt>
      <trkpt lat="45.5741" lon="3.1464">
        <ele>576.44775390625</ele>
        <time>2009-06-14T09:11:20Z</time>
      </trkpt>
      <trkpt lat="45.57393" lon="3.14666">
        <ele>574.04443359375</ele>
        <time>2009-06-14T09:11:24Z</time>
      </trkpt>
      <trkpt lat="45.57381" lon="3.14694">
        <ele>572.12182617188</ele>
        <time>2009-06-14T09:11:27Z</time>
      </trkpt>
      <trkpt lat="45.57377" lon="3.14704">
        <ele>571.64086914062</ele>
        <time>2009-06-14T09:11:28Z</time>
      </trkpt>
      <trkpt lat="45.57351" lon="3.14747">
        <ele>570.19897460938</ele>
        <time>2009-06-14T09:11:33Z</time>
      </trkpt>
      <trkpt lat="45.57327" lon="3.14775">
        <ele>568.2763671875</ele>
        <time>2009-06-14T09:11:37Z</time>
      </trkpt>
      <trkpt lat="45.57297" lon="3.14813">
        <ele>564.91186523438</ele>
        <time>2009-06-14T09:11:42Z</time>
      </trkpt>
      <trkpt lat="45.57283" lon="3.14829">
        <ele>563.95043945312</ele>
        <time>2009-06-14T09:11:44Z</time>
      </trkpt>
      <trkpt lat="45.57241" lon="3.14872">
        <ele>562.50854492188</ele>
        <time>2009-06-14T09:11:50Z</time>
      </trkpt>
      <trkpt lat="45.5723" lon="3.14885">
        <ele>563.46997070312</ele>
        <time>2009-06-14T09:11:52Z</time>
      </trkpt>
      <trkpt lat="45.572" lon="3.14928">
        <ele>561.54736328125</ele>
        <time>2009-06-14T09:11:59Z</time>
      </trkpt>
      <trkpt lat="45.5717" lon="3.14962">
        <ele>563.95043945312</ele>
        <time>2009-06-14T09:12:06Z</time>
      </trkpt>
      <trkpt lat="45.5715" lon="3.14986">
        <ele>562.50854492188</ele>
        <time>2009-06-14T09:12:11Z</time>
      </trkpt>
      <trkpt lat="45.57146" lon="3.14991">
        <ele>561.54736328125</ele>
        <time>2009-06-14T09:12:12Z</time>
      </trkpt>
      <trkpt lat="45.57109" lon="3.15025">
        <ele>561.06665039062</ele>
        <time>2009-06-14T09:12:20Z</time>
      </trkpt>
      <trkpt lat="45.57092" lon="3.1505">
        <ele>558.66333007812</ele>
        <time>2009-06-14T09:12:24Z</time>
      </trkpt>
      <trkpt lat="45.57088" lon="3.15058">
        <ele>558.18286132812</ele>
        <time>2009-06-14T09:12:25Z</time>
      </trkpt>
      <trkpt lat="45.57058" lon="3.15092">
        <ele>557.7021484375</ele>
        <time>2009-06-14T09:12:31Z</time>
      </trkpt>
      <trkpt lat="45.57034" lon="3.15109">
        <ele>556.26000976562</ele>
        <time>2009-06-14T09:12:35Z</time>
      </trkpt>
      <trkpt lat="45.57016" lon="3.15121">
        <ele>555.29858398438</ele>
        <time>2009-06-14T09:12:38Z</time>
      </trkpt>
      <trkpt lat="45.56973" lon="3.1516">
        <ele>551.45336914062</ele>
        <time>2009-06-14T09:12:45Z</time>
      </trkpt>
      <trkpt lat="45.56939" lon="3.15188">
        <ele>550.01147460938</ele>
        <time>2009-06-14T09:12:50Z</time>
      </trkpt>
      <trkpt lat="45.56901" lon="3.15221">
        <ele>547.60815429688</ele>
        <time>2009-06-14T09:12:56Z</time>
      </trkpt>
      <trkpt lat="45.56895" lon="3.15228">
        <ele>547.12744140625</ele>
        <time>2009-06-14T09:12:57Z</time>
      </trkpt>
      <trkpt lat="45.56878" lon="3.15252">
        <ele>545.685546875</ele>
        <time>2009-06-14T09:13:00Z</time>
      </trkpt>
      <trkpt lat="45.5686" lon="3.15278">
        <ele>543.76281738281</ele>
        <time>2009-06-14T09:13:03Z</time>
      </trkpt>
      <trkpt lat="45.56847" lon="3.15297">
        <ele>540.39831542969</ele>
        <time>2009-06-14T09:13:05Z</time>
      </trkpt>
      <trkpt lat="45.56833" lon="3.15316">
        <ele>538.95629882812</ele>
        <time>2009-06-14T09:13:07Z</time>
      </trkpt>
      <trkpt lat="45.56826" lon="3.15325">
        <ele>537.51428222656</ele>
        <time>2009-06-14T09:13:08Z</time>
      </trkpt>
      <trkpt lat="45.56802" lon="3.15364">
        <ele>537.99499511719</ele>
        <time>2009-06-14T09:13:12Z</time>
      </trkpt>
      <trkpt lat="45.56768" lon="3.15439">
        <ele>537.51428222656</ele>
        <time>2009-06-14T09:13:20Z</time>
      </trkpt>
      <trkpt lat="45.56748" lon="3.15486">
        <ele>535.11096191406</ele>
        <time>2009-06-14T09:13:25Z</time>
      </trkpt>
      <trkpt lat="45.56738" lon="3.15518">
        <ele>531.26574707031</ele>
        <time>2009-06-14T09:13:28Z</time>
      </trkpt>
      <trkpt lat="45.56734" lon="3.1553">
        <ele>531.26574707031</ele>
        <time>2009-06-14T09:13:29Z</time>
      </trkpt>
      <trkpt lat="45.56715" lon="3.15588">
        <ele>528.3818359375</ele>
        <time>2009-06-14T09:13:34Z</time>
      </trkpt>
      <trkpt lat="45.56702" lon="3.15625">
        <ele>525.01721191406</ele>
        <time>2009-06-14T09:13:37Z</time>
      </trkpt>
      <trkpt lat="45.56699" lon="3.15638">
        <ele>525.01721191406</ele>
        <time>2009-06-14T09:13:38Z</time>
      </trkpt>
      <trkpt lat="45.56682" lon="3.15705">
        <ele>521.17199707031</ele>
        <time>2009-06-14T09:13:43Z</time>
      </trkpt>
      <trkpt lat="45.56676" lon="3.15731">
        <ele>520.69128417969</ele>
        <time>2009-06-14T09:13:45Z</time>
      </trkpt>
      <trkpt lat="45.56651" lon="3.15816">
        <ele>518.7685546875</ele>
        <time>2009-06-14T09:13:52Z</time>
      </trkpt>
      <trkpt lat="45.5663" lon="3.15868">
        <ele>516.84594726562</ele>
        <time>2009-06-14T09:13:57Z</time>
      </trkpt>
      <trkpt lat="45.56609" lon="3.15912">
        <ele>517.32666015625</ele>
        <time>2009-06-14T09:14:02Z</time>
      </trkpt>
      <trkpt lat="45.56598" lon="3.15933">
        <ele>517.32666015625</ele>
        <time>2009-06-14T09:14:05Z</time>
      </trkpt>
      <trkpt lat="45.56589" lon="3.15954">
        <ele>516.84594726562</ele>
        <time>2009-06-14T09:14:09Z</time>
      </trkpt>
      <trkpt lat="45.56565" lon="3.15982">
        <ele>515.88464355469</ele>
        <time>2009-06-14T09:14:15Z</time>
      </trkpt>
      <trkpt lat="45.5654" lon="3.16004">
        <ele>515.40405273438</ele>
        <time>2009-06-14T09:14:20Z</time>
      </trkpt>
      <trkpt lat="45.56508" lon="3.16036">
        <ele>514.92333984375</ele>
        <time>2009-06-14T09:14:27Z</time>
      </trkpt>
      <trkpt lat="45.56502" lon="3.16055">
        <ele>514.44262695312</ele>
        <time>2009-06-14T09:14:30Z</time>
      </trkpt>
      <trkpt lat="45.56512" lon="3.16071">
        <ele>513.96203613281</ele>
        <time>2009-06-14T09:14:33Z</time>
      </trkpt>
      <trkpt lat="45.56522" lon="3.16087">
        <ele>513.4814453125</ele>
        <time>2009-06-14T09:14:36Z</time>
      </trkpt>
      <trkpt lat="45.56536" lon="3.16099">
        <ele>513.00073242188</ele>
        <time>2009-06-14T09:14:39Z</time>
      </trkpt>
      <trkpt lat="45.56558" lon="3.16112">
        <ele>512.03942871094</ele>
        <time>2009-06-14T09:14:43Z</time>
      </trkpt>
      <trkpt lat="45.56595" lon="3.16156">
        <ele>513.00073242188</ele>
        <time>2009-06-14T09:14:51Z</time>
      </trkpt>
      <trkpt lat="45.56621" lon="3.1619">
        <ele>514.44262695312</ele>
        <time>2009-06-14T09:14:57Z</time>
      </trkpt>
      <trkpt lat="45.56633" lon="3.16206">
        <ele>515.40405273438</ele>
        <time>2009-06-14T09:15:00Z</time>
      </trkpt>
      <trkpt lat="45.56641" lon="3.16215">
        <ele>515.88464355469</ele>
        <time>2009-06-14T09:15:02Z</time>
      </trkpt>
      <trkpt lat="45.56653" lon="3.16228">
        <ele>516.365234375</ele>
        <time>2009-06-14T09:15:05Z</time>
      </trkpt>
      <trkpt lat="45.56668" lon="3.16242">
        <ele>517.32666015625</ele>
        <time>2009-06-14T09:15:09Z</time>
      </trkpt>
      <trkpt lat="45.56683" lon="3.16254">
        <ele>519.24926757812</ele>
        <time>2009-06-14T09:15:13Z</time>
      </trkpt>
      <trkpt lat="45.56701" lon="3.16266">
        <ele>520.21057128906</ele>
        <time>2009-06-14T09:15:18Z</time>
      </trkpt>
      <trkpt lat="45.56713" lon="3.16271">
        <ele>521.17199707031</ele>
        <time>2009-06-14T09:15:21Z</time>
      </trkpt>
      <trkpt lat="45.56742" lon="3.16294">
        <ele>523.09460449219</ele>
        <time>2009-06-14T09:15:29Z</time>
      </trkpt>
      <trkpt lat="45.56748" lon="3.16312">
        <ele>524.05578613281</ele>
        <time>2009-06-14T09:15:33Z</time>
      </trkpt>
      <trkpt lat="45.56745" lon="3.16334">
        <ele>526.45910644531</ele>
        <time>2009-06-14T09:15:38Z</time>
      </trkpt>
      <trkpt lat="45.56733" lon="3.16357">
        <ele>528.3818359375</ele>
        <time>2009-06-14T09:15:44Z</time>
      </trkpt>
      <trkpt lat="45.56713" lon="3.16392">
        <ele>528.86254882812</ele>
        <time>2009-06-14T09:15:53Z</time>
      </trkpt>
      <trkpt lat="45.56691" lon="3.16434">
        <ele>530.78515625</ele>
        <time>2009-06-14T09:16:03Z</time>
      </trkpt>
      <trkpt lat="45.5667" lon="3.16475">
        <ele>531.26574707031</ele>
        <time>2009-06-14T09:16:12Z</time>
      </trkpt>
      <trkpt lat="45.56647" lon="3.16529">
        <ele>531.26574707031</ele>
        <time>2009-06-14T09:16:22Z</time>
      </trkpt>
      <trkpt lat="45.56633" lon="3.16582">
        <ele>531.26574707031</ele>
        <time>2009-06-14T09:16:31Z</time>
      </trkpt>
      <trkpt lat="45.56629" lon="3.16625">
        <ele>532.22705078125</ele>
        <time>2009-06-14T09:16:38Z</time>
      </trkpt>
      <trkpt lat="45.56628" lon="3.16644">
        <ele>532.22705078125</ele>
        <time>2009-06-14T09:16:41Z</time>
      </trkpt>
      <trkpt lat="45.56625" lon="3.16693">
        <ele>534.63037109375</ele>
        <time>2009-06-14T09:16:49Z</time>
      </trkpt>
      <trkpt lat="45.56625" lon="3.16746">
        <ele>537.03369140625</ele>
        <time>2009-06-14T09:16:58Z</time>
      </trkpt>
      <trkpt lat="45.56632" lon="3.16775">
        <ele>537.03369140625</ele>
        <time>2009-06-14T09:17:03Z</time>
      </trkpt>
      <trkpt lat="45.56639" lon="3.1679">
        <ele>537.99499511719</ele>
        <time>2009-06-14T09:17:06Z</time>
      </trkpt>
      <trkpt lat="45.56644" lon="3.168">
        <ele>539.43688964844</ele>
        <time>2009-06-14T09:17:08Z</time>
      </trkpt>
      <trkpt lat="45.56651" lon="3.16815">
        <ele>540.39831542969</ele>
        <time>2009-06-14T09:17:11Z</time>
      </trkpt>
      <trkpt lat="45.56675" lon="3.16855">
        <ele>542.80151367188</ele>
        <time>2009-06-14T09:17:20Z</time>
      </trkpt>
      <trkpt lat="45.56698" lon="3.16887">
        <ele>544.24365234375</ele>
        <time>2009-06-14T09:17:28Z</time>
      </trkpt>
      <trkpt lat="45.56725" lon="3.16911">
        <ele>547.12744140625</ele>
        <time>2009-06-14T09:17:36Z</time>
      </trkpt>
      <trkpt lat="45.56741" lon="3.16933">
        <ele>548.0888671875</ele>
        <time>2009-06-14T09:17:42Z</time>
      </trkpt>
      <trkpt lat="45.56739" lon="3.16952">
        <ele>549.53076171875</ele>
        <time>2009-06-14T09:17:46Z</time>
      </trkpt>
      <trkpt lat="45.56727" lon="3.1696">
        <ele>550.4921875</ele>
        <time>2009-06-14T09:17:50Z</time>
      </trkpt>
      <trkpt lat="45.56699" lon="3.16957">
        <ele>552.89526367188</ele>
        <time>2009-06-14T09:17:57Z</time>
      </trkpt>
      <trkpt lat="45.56659" lon="3.16953">
        <ele>554.81787109375</ele>
        <time>2009-06-14T09:18:07Z</time>
      </trkpt>
      <trkpt lat="45.56629" lon="3.1696">
        <ele>555.779296875</ele>
        <time>2009-06-14T09:18:15Z</time>
      </trkpt>
      <trkpt lat="45.56606" lon="3.16971">
        <ele>557.7021484375</ele>
        <time>2009-06-14T09:18:22Z</time>
      </trkpt>
      <trkpt lat="45.56572" lon="3.16988">
        <ele>560.10522460938</ele>
        <time>2009-06-14T09:18:32Z</time>
      </trkpt>
      <trkpt lat="45.56539" lon="3.17016">
        <ele>561.54736328125</ele>
        <time>2009-06-14T09:18:43Z</time>
      </trkpt>
      <trkpt lat="45.56512" lon="3.17044">
        <ele>563.95043945312</ele>
        <time>2009-06-14T09:18:53Z</time>
      </trkpt>
      <trkpt lat="45.56487" lon="3.17069">
        <ele>565.392578125</ele>
        <time>2009-06-14T09:19:02Z</time>
      </trkpt>
      <trkpt lat="45.56458" lon="3.17097">
        <ele>567.79565429688</ele>
        <time>2009-06-14T09:19:12Z</time>
      </trkpt>
      <trkpt lat="45.56432" lon="3.17123">
        <ele>570.19897460938</ele>
        <time>2009-06-14T09:19:21Z</time>
      </trkpt>
      <trkpt lat="45.56412" lon="3.17144">
        <ele>571.64086914062</ele>
        <time>2009-06-14T09:19:28Z</time>
      </trkpt>
      <trkpt lat="45.56397" lon="3.17159">
        <ele>572.6025390625</ele>
        <time>2009-06-14T09:19:33Z</time>
      </trkpt>
      <trkpt lat="45.56366" lon="3.17194">
        <ele>575.005859375</ele>
        <time>2009-06-14T09:19:44Z</time>
      </trkpt>
      <trkpt lat="45.56347" lon="3.1722">
        <ele>576.92846679688</ele>
        <time>2009-06-14T09:19:51Z</time>
      </trkpt>
      <trkpt lat="45.56333" lon="3.1724">
        <ele>577.8896484375</ele>
        <time>2009-06-14T09:19:56Z</time>
      </trkpt>
      <trkpt lat="45.56322" lon="3.17256">
        <ele>577.8896484375</ele>
        <time>2009-06-14T09:20:00Z</time>
      </trkpt>
      <trkpt lat="45.56289" lon="3.17288">
        <ele>577.8896484375</ele>
        <time>2009-06-14T09:20:09Z</time>
      </trkpt>
      <trkpt lat="45.56285" lon="3.17292">
        <ele>578.85107421875</ele>
        <time>2009-06-14T09:20:10Z</time>
      </trkpt>
      <trkpt lat="45.5625" lon="3.17341">
        <ele>579.33154296875</ele>
        <time>2009-06-14T09:20:21Z</time>
      </trkpt>
      <trkpt lat="45.56234" lon="3.1738">
        <ele>580.29296875</ele>
        <time>2009-06-14T09:20:28Z</time>
      </trkpt>
      <trkpt lat="45.56223" lon="3.17424">
        <ele>580.77368164062</ele>
        <time>2009-06-14T09:20:36Z</time>
      </trkpt>
      <trkpt lat="45.56222" lon="3.17446">
        <ele>582.6962890625</ele>
        <time>2009-06-14T09:20:41Z</time>
      </trkpt>
      <trkpt lat="45.56222" lon="3.17453">
        <ele>584.13818359375</ele>
        <time>2009-06-14T09:20:43Z</time>
      </trkpt>
      <trkpt lat="45.56222" lon="3.17471">
        <ele>585.580078125</ele>
        <time>2009-06-14T09:20:48Z</time>
      </trkpt>
      <trkpt lat="45.56219" lon="3.17489">
        <ele>587.02197265625</ele>
        <time>2009-06-14T09:20:54Z</time>
      </trkpt>
      <trkpt lat="45.56213" lon="3.17512">
        <ele>589.42553710938</ele>
        <time>2009-06-14T09:21:02Z</time>
      </trkpt>
      <trkpt lat="45.56208" lon="3.17538">
        <ele>591.34814453125</ele>
        <time>2009-06-14T09:21:11Z</time>
      </trkpt>
      <trkpt lat="45.56207" lon="3.17547">
        <ele>592.79028320312</ele>
        <time>2009-06-14T09:21:14Z</time>
      </trkpt>
      <trkpt lat="45.56202" lon="3.17569">
        <ele>595.193359375</ele>
        <time>2009-06-14T09:21:22Z</time>
      </trkpt>
      <trkpt lat="45.562" lon="3.17578">
        <ele>595.67407226562</ele>
        <time>2009-06-14T09:21:25Z</time>
      </trkpt>
      <trkpt lat="45.56201" lon="3.17587">
        <ele>597.11596679688</ele>
        <time>2009-06-14T09:21:28Z</time>
      </trkpt>
      <trkpt lat="45.56194" lon="3.176">
        <ele>599.03857421875</ele>
        <time>2009-06-14T09:21:34Z</time>
      </trkpt>
      <trkpt lat="45.56194" lon="3.17603">
        <ele>599.03857421875</ele>
        <time>2009-06-14T09:21:35Z</time>
      </trkpt>
      <trkpt lat="45.56193" lon="3.17617">
        <ele>600</ele>
        <time>2009-06-14T09:21:40Z</time>
      </trkpt>
      <trkpt lat="45.56192" lon="3.17631">
        <ele>601.44189453125</ele>
        <time>2009-06-14T09:21:45Z</time>
      </trkpt>
      <trkpt lat="45.56191" lon="3.17651">
        <ele>603.84521484375</ele>
        <time>2009-06-14T09:21:52Z</time>
      </trkpt>
      <trkpt lat="45.56191" lon="3.17671">
        <ele>605.28735351562</ele>
        <time>2009-06-14T09:21:59Z</time>
      </trkpt>
      <trkpt lat="45.56189" lon="3.17688">
        <ele>607.69067382812</ele>
        <time>2009-06-14T09:22:05Z</time>
      </trkpt>
      <trkpt lat="45.56187" lon="3.17705">
        <ele>609.13256835938</ele>
        <time>2009-06-14T09:22:11Z</time>
      </trkpt>
      <trkpt lat="45.56184" lon="3.17718">
        <ele>610.09375</ele>
        <time>2009-06-14T09:22:16Z</time>
      </trkpt>
      <trkpt lat="45.5618" lon="3.17742">
        <ele>611.05517578125</ele>
        <time>2009-06-14T09:22:24Z</time>
      </trkpt>
      <trkpt lat="45.56174" lon="3.17765">
        <ele>612.4970703125</ele>
        <time>2009-06-14T09:22:31Z</time>
      </trkpt>
      <trkpt lat="45.56165" lon="3.17799">
        <ele>612.4970703125</ele>
        <time>2009-06-14T09:22:39Z</time>
      </trkpt>
      <trkpt lat="45.56153" lon="3.1783">
        <ele>612.0166015625</ele>
        <time>2009-06-14T09:22:46Z</time>
      </trkpt>
      <trkpt lat="45.56143" lon="3.17851">
        <ele>612.0166015625</ele>
        <time>2009-06-14T09:22:51Z</time>
      </trkpt>
      <trkpt lat="45.56134" lon="3.17868">
        <ele>611.53588867188</ele>
        <time>2009-06-14T09:22:55Z</time>
      </trkpt>
      <trkpt lat="45.56131" lon="3.17872">
        <ele>611.53588867188</ele>
        <time>2009-06-14T09:22:56Z</time>
      </trkpt>
      <trkpt lat="45.56129" lon="3.17877">
        <ele>611.53588867188</ele>
        <time>2009-06-14T09:22:57Z</time>
      </trkpt>
      <trkpt lat="45.56126" lon="3.17886">
        <ele>610.57446289062</ele>
        <time>2009-06-14T09:22:59Z</time>
      </trkpt>
      <trkpt lat="45.56114" lon="3.17909">
        <ele>610.57446289062</ele>
        <time>2009-06-14T09:23:04Z</time>
      </trkpt>
      <trkpt lat="45.56104" lon="3.17931">
        <ele>609.61328125</ele>
        <time>2009-06-14T09:23:08Z</time>
      </trkpt>
      <trkpt lat="45.56083" lon="3.17983">
        <ele>609.13256835938</ele>
        <time>2009-06-14T09:23:16Z</time>
      </trkpt>
      <trkpt lat="45.56078" lon="3.17997">
        <ele>609.13256835938</ele>
        <time>2009-06-14T09:23:18Z</time>
      </trkpt>
      <trkpt lat="45.56057" lon="3.18053">
        <ele>609.13256835938</ele>
        <time>2009-06-14T09:23:26Z</time>
      </trkpt>
      <trkpt lat="45.56042" lon="3.18091">
        <ele>609.13256835938</ele>
        <time>2009-06-14T09:23:32Z</time>
      </trkpt>
      <trkpt lat="45.56038" lon="3.18104">
        <ele>609.13256835938</ele>
        <time>2009-06-14T09:23:34Z</time>
      </trkpt>
      <trkpt lat="45.5602" lon="3.18152">
        <ele>608.17138671875</ele>
        <time>2009-06-14T09:23:41Z</time>
      </trkpt>
      <trkpt lat="45.56004" lon="3.18193">
        <ele>608.17138671875</ele>
        <time>2009-06-14T09:23:47Z</time>
      </trkpt>
      <trkpt lat="45.55983" lon="3.18239">
        <ele>608.17138671875</ele>
        <time>2009-06-14T09:23:55Z</time>
      </trkpt>
      <trkpt lat="45.5598" lon="3.18244">
        <ele>608.17138671875</ele>
        <time>2009-06-14T09:23:56Z</time>
      </trkpt>
      <trkpt lat="45.55968" lon="3.18259">
        <ele>606.72924804688</ele>
        <time>2009-06-14T09:23:59Z</time>
      </trkpt>
      <trkpt lat="45.55947" lon="3.18296">
        <ele>604.806640625</ele>
        <time>2009-06-14T09:24:04Z</time>
      </trkpt>
      <trkpt lat="45.55932" lon="3.1833">
        <ele>603.84521484375</ele>
        <time>2009-06-14T09:24:08Z</time>
      </trkpt>
      <trkpt lat="45.55909" lon="3.1838">
        <ele>604.326171875</ele>
        <time>2009-06-14T09:24:15Z</time>
      </trkpt>
      <trkpt lat="45.559" lon="3.18399">
        <ele>603.36450195312</ele>
        <time>2009-06-14T09:24:18Z</time>
      </trkpt>
      <trkpt lat="45.55872" lon="3.18449">
        <ele>603.84521484375</ele>
        <time>2009-06-14T09:24:27Z</time>
      </trkpt>
      <trkpt lat="45.55859" lon="3.18473">
        <ele>603.36450195312</ele>
        <time>2009-06-14T09:24:31Z</time>
      </trkpt>
      <trkpt lat="45.55833" lon="3.18515">
        <ele>604.326171875</ele>
        <time>2009-06-14T09:24:39Z</time>
      </trkpt>
      <trkpt lat="45.55827" lon="3.18525">
        <ele>603.36450195312</ele>
        <time>2009-06-14T09:24:41Z</time>
      </trkpt>
      <trkpt lat="45.55814" lon="3.18547">
        <ele>603.36450195312</ele>
        <time>2009-06-14T09:24:45Z</time>
      </trkpt>
      <trkpt lat="45.55778" lon="3.18609">
        <ele>603.36450195312</ele>
        <time>2009-06-14T09:24:56Z</time>
      </trkpt>
      <trkpt lat="45.55761" lon="3.1864">
        <ele>602.40307617188</ele>
        <time>2009-06-14T09:25:01Z</time>
      </trkpt>
      <trkpt lat="45.55739" lon="3.18687">
        <ele>602.40307617188</ele>
        <time>2009-06-14T09:25:08Z</time>
      </trkpt>
      <trkpt lat="45.55718" lon="3.18751">
        <ele>600.48071289062</ele>
        <time>2009-06-14T09:25:17Z</time>
      </trkpt>
      <trkpt lat="45.55703" lon="3.18818">
        <ele>599.51928710938</ele>
        <time>2009-06-14T09:25:26Z</time>
      </trkpt>
      <trkpt lat="45.55691" lon="3.18879">
        <ele>599.03857421875</ele>
        <time>2009-06-14T09:25:34Z</time>
      </trkpt>
      <trkpt lat="45.55687" lon="3.1892">
        <ele>598.07739257812</ele>
        <time>2009-06-14T09:25:39Z</time>
      </trkpt>
      <trkpt lat="45.55679" lon="3.19019">
        <ele>597.11596679688</ele>
        <time>2009-06-14T09:25:51Z</time>
      </trkpt>
      <trkpt lat="45.55677" lon="3.19071">
        <ele>596.15478515625</ele>
        <time>2009-06-14T09:25:57Z</time>
      </trkpt>
      <trkpt lat="45.55682" lon="3.19116">
        <ele>594.23217773438</ele>
        <time>2009-06-14T09:26:02Z</time>
      </trkpt>
      <trkpt lat="45.55684" lon="3.19135">
        <ele>592.79028320312</ele>
        <time>2009-06-14T09:26:04Z</time>
      </trkpt>
      <trkpt lat="45.55688" lon="3.19219">
        <ele>593.75146484375</ele>
        <time>2009-06-14T09:26:13Z</time>
      </trkpt>
      <trkpt lat="45.55687" lon="3.1927">
        <ele>593.75146484375</ele>
        <time>2009-06-14T09:26:19Z</time>
      </trkpt>
      <trkpt lat="45.55684" lon="3.19341">
        <ele>593.75146484375</ele>
        <time>2009-06-14T09:26:27Z</time>
      </trkpt>
      <trkpt lat="45.55685" lon="3.19349">
        <ele>593.27075195312</ele>
        <time>2009-06-14T09:26:28Z</time>
      </trkpt>
      <trkpt lat="45.55696" lon="3.19447">
        <ele>592.3095703125</ele>
        <time>2009-06-14T09:26:39Z</time>
      </trkpt>
      <trkpt lat="45.55705" lon="3.19526">
        <ele>590.86743164062</ele>
        <time>2009-06-14T09:26:48Z</time>
      </trkpt>
      <trkpt lat="45.55717" lon="3.19596">
        <ele>588.94506835938</ele>
        <time>2009-06-14T09:26:56Z</time>
      </trkpt>
      <trkpt lat="45.55737" lon="3.19654">
        <ele>587.9833984375</ele>
        <time>2009-06-14T09:27:03Z</time>
      </trkpt>
      <trkpt lat="45.55756" lon="3.19702">
        <ele>586.54150390625</ele>
        <time>2009-06-14T09:27:09Z</time>
      </trkpt>
      <trkpt lat="45.55761" lon="3.19719">
        <ele>587.02197265625</ele>
        <time>2009-06-14T09:27:11Z</time>
      </trkpt>
      <trkpt lat="45.55764" lon="3.19728">
        <ele>585.580078125</ele>
        <time>2009-06-14T09:27:12Z</time>
      </trkpt>
      <trkpt lat="45.55766" lon="3.19736">
        <ele>586.06079101562</ele>
        <time>2009-06-14T09:27:13Z</time>
      </trkpt>
      <trkpt lat="45.5578" lon="3.19796">
        <ele>583.65747070312</ele>
        <time>2009-06-14T09:27:20Z</time>
      </trkpt>
      <trkpt lat="45.55784" lon="3.19822">
        <ele>583.1767578125</ele>
        <time>2009-06-14T09:27:23Z</time>
      </trkpt>
      <trkpt lat="45.55788" lon="3.19871">
        <ele>580.77368164062</ele>
        <time>2009-06-14T09:27:28Z</time>
      </trkpt>
      <trkpt lat="45.55787" lon="3.19926">
        <ele>576.92846679688</ele>
        <time>2009-06-14T09:27:33Z</time>
      </trkpt>
      <trkpt lat="45.55785" lon="3.19949">
        <ele>576.44775390625</ele>
        <time>2009-06-14T09:27:35Z</time>
      </trkpt>
      <trkpt lat="45.55783" lon="3.19973">
        <ele>575.486328125</ele>
        <time>2009-06-14T09:27:37Z</time>
      </trkpt>
      <trkpt lat="45.5579" lon="3.20033">
        <ele>573.56396484375</ele>
        <time>2009-06-14T09:27:42Z</time>
      </trkpt>
      <trkpt lat="45.558" lon="3.20091">
        <ele>571.64086914062</ele>
        <time>2009-06-14T09:27:47Z</time>
      </trkpt>
      <trkpt lat="45.55804" lon="3.20116">
        <ele>569.71850585938</ele>
        <time>2009-06-14T09:27:49Z</time>
      </trkpt>
      <trkpt lat="45.55815" lon="3.20178">
        <ele>565.87329101562</ele>
        <time>2009-06-14T09:27:54Z</time>
      </trkpt>
      <trkpt lat="45.55816" lon="3.2019">
        <ele>564.91186523438</ele>
        <time>2009-06-14T09:27:55Z</time>
      </trkpt>
      <trkpt lat="45.5581" lon="3.20237">
        <ele>561.06665039062</ele>
        <time>2009-06-14T09:27:59Z</time>
      </trkpt>
      <trkpt lat="45.558" lon="3.20276">
        <ele>556.26000976562</ele>
        <time>2009-06-14T09:28:02Z</time>
      </trkpt>
      <trkpt lat="45.55805" lon="3.20327">
        <ele>555.29858398438</ele>
        <time>2009-06-14T09:28:06Z</time>
      </trkpt>
      <trkpt lat="45.55809" lon="3.20339">
        <ele>554.33740234375</ele>
        <time>2009-06-14T09:28:07Z</time>
      </trkpt>
      <trkpt lat="45.55822" lon="3.20374">
        <ele>552.89526367188</ele>
        <time>2009-06-14T09:28:10Z</time>
      </trkpt>
      <trkpt lat="45.5583" lon="3.20398">
        <ele>551.45336914062</ele>
        <time>2009-06-14T09:28:12Z</time>
      </trkpt>
      <trkpt lat="45.55836" lon="3.20424">
        <ele>550.97265625</ele>
        <time>2009-06-14T09:28:14Z</time>
      </trkpt>
      <trkpt lat="45.55845" lon="3.2051">
        <ele>549.05004882812</ele>
        <time>2009-06-14T09:28:21Z</time>
      </trkpt>
      <trkpt lat="45.55849" lon="3.20582">
        <ele>548.0888671875</ele>
        <time>2009-06-14T09:28:27Z</time>
      </trkpt>
      <trkpt lat="45.5585" lon="3.20655">
        <ele>544.24365234375</ele>
        <time>2009-06-14T09:28:33Z</time>
      </trkpt>
      <trkpt lat="45.55849" lon="3.20667">
        <ele>544.72424316406</ele>
        <time>2009-06-14T09:28:34Z</time>
      </trkpt>
      <trkpt lat="45.55841" lon="3.20712">
        <ele>543.76281738281</ele>
        <time>2009-06-14T09:28:38Z</time>
      </trkpt>
      <trkpt lat="45.55836" lon="3.20736">
        <ele>542.32092285156</ele>
        <time>2009-06-14T09:28:40Z</time>
      </trkpt>
      <trkpt lat="45.55824" lon="3.20771">
        <ele>538.47570800781</ele>
        <time>2009-06-14T09:28:43Z</time>
      </trkpt>
      <trkpt lat="45.55817" lon="3.20782">
        <ele>536.55310058594</ele>
        <time>2009-06-14T09:28:44Z</time>
      </trkpt>
      <trkpt lat="45.55804" lon="3.20803">
        <ele>536.55310058594</ele>
        <time>2009-06-14T09:28:46Z</time>
      </trkpt>
      <trkpt lat="45.55798" lon="3.20813">
        <ele>536.07238769531</ele>
        <time>2009-06-14T09:28:47Z</time>
      </trkpt>
      <trkpt lat="45.55792" lon="3.20851">
        <ele>537.03369140625</ele>
        <time>2009-06-14T09:28:51Z</time>
      </trkpt>
      <trkpt lat="45.55795" lon="3.20859">
        <ele>536.07238769531</ele>
        <time>2009-06-14T09:28:52Z</time>
      </trkpt>
      <trkpt lat="45.55809" lon="3.20892">
        <ele>535.11096191406</ele>
        <time>2009-06-14T09:28:56Z</time>
      </trkpt>
      <trkpt lat="45.55816" lon="3.2091">
        <ele>534.63037109375</ele>
        <time>2009-06-14T09:28:58Z</time>
      </trkpt>
      <trkpt lat="45.55828" lon="3.20946">
        <ele>533.6689453125</ele>
        <time>2009-06-14T09:29:02Z</time>
      </trkpt>
      <trkpt lat="45.55844" lon="3.21004">
        <ele>529.82373046875</ele>
        <time>2009-06-14T09:29:08Z</time>
      </trkpt>
      <trkpt lat="45.55846" lon="3.21015">
        <ele>530.78515625</ele>
        <time>2009-06-14T09:29:09Z</time>
      </trkpt>
      <trkpt lat="45.55848" lon="3.21061">
        <ele>527.42041015625</ele>
        <time>2009-06-14T09:29:13Z</time>
      </trkpt>
      <trkpt lat="45.55848" lon="3.211">
        <ele>524.53649902344</ele>
        <time>2009-06-14T09:29:16Z</time>
      </trkpt>
      <trkpt lat="45.55848" lon="3.21127">
        <ele>521.65258789062</ele>
        <time>2009-06-14T09:29:18Z</time>
      </trkpt>
      <trkpt lat="45.55845" lon="3.21185">
        <ele>518.28784179688</ele>
        <time>2009-06-14T09:29:22Z</time>
      </trkpt>
      <trkpt lat="45.55844" lon="3.21198">
        <ele>518.28784179688</ele>
        <time>2009-06-14T09:29:23Z</time>
      </trkpt>
      <trkpt lat="45.55841" lon="3.21241">
        <ele>516.365234375</ele>
        <time>2009-06-14T09:29:26Z</time>
      </trkpt>
      <trkpt lat="45.5583" lon="3.21313">
        <ele>513.96203613281</ele>
        <time>2009-06-14T09:29:31Z</time>
      </trkpt>
      <trkpt lat="45.55826" lon="3.21358">
        <ele>509.63610839844</ele>
        <time>2009-06-14T09:29:34Z</time>
      </trkpt>
      <trkpt lat="45.55825" lon="3.21386">
        <ele>507.23278808594</ele>
        <time>2009-06-14T09:29:36Z</time>
      </trkpt>
      <trkpt lat="45.55822" lon="3.21427">
        <ele>503.38745117188</ele>
        <time>2009-06-14T09:29:39Z</time>
      </trkpt>
      <trkpt lat="45.55821" lon="3.21444">
        <ele>503.8681640625</ele>
        <time>2009-06-14T09:29:40Z</time>
      </trkpt>
      <trkpt lat="45.5582" lon="3.2146">
        <ele>502.90673828125</ele>
        <time>2009-06-14T09:29:41Z</time>
      </trkpt>
      <trkpt lat="45.55814" lon="3.21509">
        <ele>498.58093261719</ele>
        <time>2009-06-14T09:29:44Z</time>
      </trkpt>
      <trkpt lat="45.55803" lon="3.2158">
        <ele>494.25500488281</ele>
        <time>2009-06-14T09:29:48Z</time>
      </trkpt>
      <trkpt lat="45.55794" lon="3.21633">
        <ele>490.89038085938</ele>
        <time>2009-06-14T09:29:51Z</time>
      </trkpt>
      <trkpt lat="45.55786" lon="3.21688">
        <ele>487.52563476562</ele>
        <time>2009-06-14T09:29:54Z</time>
      </trkpt>
      <trkpt lat="45.55776" lon="3.21742">
        <ele>484.1611328125</ele>
        <time>2009-06-14T09:29:57Z</time>
      </trkpt>
      <trkpt lat="45.55764" lon="3.21794">
        <ele>480.79663085938</ele>
        <time>2009-06-14T09:30:00Z</time>
      </trkpt>
      <trkpt lat="45.55745" lon="3.21838">
        <ele>479.3544921875</ele>
        <time>2009-06-14T09:30:03Z</time>
      </trkpt>
      <trkpt lat="45.55712" lon="3.21906">
        <ele>476.47058105469</ele>
        <time>2009-06-14T09:30:08Z</time>
      </trkpt>
      <trkpt lat="45.55706" lon="3.21919">
        <ele>475.98986816406</ele>
        <time>2009-06-14T09:30:09Z</time>
      </trkpt>
      <trkpt lat="45.55701" lon="3.21933">
        <ele>475.50927734375</ele>
        <time>2009-06-14T09:30:10Z</time>
      </trkpt>
      <trkpt lat="45.55691" lon="3.21978">
        <ele>472.62536621094</ele>
        <time>2009-06-14T09:30:13Z</time>
      </trkpt>
      <trkpt lat="45.55687" lon="3.2201">
        <ele>471.66394042969</ele>
        <time>2009-06-14T09:30:15Z</time>
      </trkpt>
      <trkpt lat="45.55681" lon="3.2209">
        <ele>467.81872558594</ele>
        <time>2009-06-14T09:30:20Z</time>
      </trkpt>
      <trkpt lat="45.55679" lon="3.22125">
        <ele>464.4541015625</ele>
        <time>2009-06-14T09:30:22Z</time>
      </trkpt>
      <trkpt lat="45.55676" lon="3.22159">
        <ele>464.4541015625</ele>
        <time>2009-06-14T09:30:24Z</time>
      </trkpt>
      <trkpt lat="45.55661" lon="3.22221">
        <ele>462.53137207031</ele>
        <time>2009-06-14T09:30:28Z</time>
      </trkpt>
      <trkpt lat="45.55637" lon="3.22307">
        <ele>459.16687011719</ele>
        <time>2009-06-14T09:30:34Z</time>
      </trkpt>
      <trkpt lat="45.55626" lon="3.22347">
        <ele>458.20556640625</ele>
        <time>2009-06-14T09:30:37Z</time>
      </trkpt>
      <trkpt lat="45.55603" lon="3.22408">
        <ele>456.76354980469</ele>
        <time>2009-06-14T09:30:42Z</time>
      </trkpt>
      <trkpt lat="45.55573" lon="3.22476">
        <ele>456.28295898438</ele>
        <time>2009-06-14T09:30:48Z</time>
      </trkpt>
      <trkpt lat="45.55563" lon="3.22498">
        <ele>454.8408203125</ele>
        <time>2009-06-14T09:30:50Z</time>
      </trkpt>
      <trkpt lat="45.55532" lon="3.2257">
        <ele>454.8408203125</ele>
        <time>2009-06-14T09:30:57Z</time>
      </trkpt>
      <trkpt lat="45.55503" lon="3.22631">
        <ele>454.36022949219</ele>
        <time>2009-06-14T09:31:04Z</time>
      </trkpt>
      <trkpt lat="45.55476" lon="3.22663">
        <ele>454.8408203125</ele>
        <time>2009-06-14T09:31:09Z</time>
      </trkpt>
      <trkpt lat="45.55434" lon="3.22703">
        <ele>454.8408203125</ele>
        <time>2009-06-14T09:31:16Z</time>
      </trkpt>
      <trkpt lat="45.55392" lon="3.22742">
        <ele>453.87963867188</ele>
        <time>2009-06-14T09:31:23Z</time>
      </trkpt>
      <trkpt lat="45.55374" lon="3.22758">
        <ele>452.91821289062</ele>
        <time>2009-06-14T09:31:26Z</time>
      </trkpt>
      <trkpt lat="45.55355" lon="3.22776">
        <ele>451.47631835938</ele>
        <time>2009-06-14T09:31:29Z</time>
      </trkpt>
      <trkpt lat="45.55321" lon="3.22808">
        <ele>449.07299804688</ele>
        <time>2009-06-14T09:31:34Z</time>
      </trkpt>
      <trkpt lat="45.55308" lon="3.22823">
        <ele>448.59240722656</ele>
        <time>2009-06-14T09:31:36Z</time>
      </trkpt>
      <trkpt lat="45.55287" lon="3.22872">
        <ele>446.18908691406</ele>
        <time>2009-06-14T09:31:41Z</time>
      </trkpt>
      <trkpt lat="45.55285" lon="3.22883">
        <ele>447.15026855469</ele>
        <time>2009-06-14T09:31:42Z</time>
      </trkpt>
      <trkpt lat="45.55278" lon="3.22927">
        <ele>446.18908691406</ele>
        <time>2009-06-14T09:31:46Z</time>
      </trkpt>
      <trkpt lat="45.55276" lon="3.22938">
        <ele>445.70837402344</ele>
        <time>2009-06-14T09:31:47Z</time>
      </trkpt>
      <trkpt lat="45.55266" lon="3.23001">
        <ele>445.22766113281</ele>
        <time>2009-06-14T09:31:53Z</time>
      </trkpt>
      <trkpt lat="45.55263" lon="3.23022">
        <ele>444.26647949219</ele>
        <time>2009-06-14T09:31:55Z</time>
      </trkpt>
      <trkpt lat="45.55257" lon="3.23075">
        <ele>443.30505371094</ele>
        <time>2009-06-14T09:32:00Z</time>
      </trkpt>
      <trkpt lat="45.55254" lon="3.23095">
        <ele>443.78576660156</ele>
        <time>2009-06-14T09:32:02Z</time>
      </trkpt>
      <trkpt lat="45.5525" lon="3.23168">
        <ele>442.34387207031</ele>
        <time>2009-06-14T09:32:09Z</time>
      </trkpt>
      <trkpt lat="45.5524" lon="3.23249">
        <ele>440.42126464844</ele>
        <time>2009-06-14T09:32:17Z</time>
      </trkpt>
      <trkpt lat="45.55232" lon="3.23288">
        <ele>440.90185546875</ele>
        <time>2009-06-14T09:32:21Z</time>
      </trkpt>
      <trkpt lat="45.55238" lon="3.23311">
        <ele>440.42126464844</ele>
        <time>2009-06-14T09:32:25Z</time>
      </trkpt>
      <trkpt lat="45.55243" lon="3.23336">
        <ele>439.9404296875</ele>
        <time>2009-06-14T09:32:29Z</time>
      </trkpt>
      <trkpt lat="45.55245" lon="3.23374">
        <ele>438.49853515625</ele>
        <time>2009-06-14T09:32:34Z</time>
      </trkpt>
      <trkpt lat="45.55248" lon="3.23425">
        <ele>437.537109375</ele>
        <time>2009-06-14T09:32:40Z</time>
      </trkpt>
      <trkpt lat="45.5525" lon="3.23453">
        <ele>436.09521484375</ele>
        <time>2009-06-14T09:32:43Z</time>
      </trkpt>
      <trkpt lat="45.55253" lon="3.23502">
        <ele>435.13391113281</ele>
        <time>2009-06-14T09:32:48Z</time>
      </trkpt>
      <trkpt lat="45.55254" lon="3.23513">
        <ele>435.13391113281</ele>
        <time>2009-06-14T09:32:49Z</time>
      </trkpt>
      <trkpt lat="45.55259" lon="3.23591">
        <ele>433.69189453125</ele>
        <time>2009-06-14T09:32:57Z</time>
      </trkpt>
      <trkpt lat="45.55263" lon="3.23661">
        <ele>432.73071289062</ele>
        <time>2009-06-14T09:33:04Z</time>
      </trkpt>
      <trkpt lat="45.55267" lon="3.23724">
        <ele>429.84655761719</ele>
        <time>2009-06-14T09:33:10Z</time>
      </trkpt>
      <trkpt lat="45.55272" lon="3.23798">
        <ele>428.88537597656</ele>
        <time>2009-06-14T09:33:17Z</time>
      </trkpt>
      <trkpt lat="45.55275" lon="3.23862">
        <ele>427.92395019531</ele>
        <time>2009-06-14T09:33:23Z</time>
      </trkpt>
      <trkpt lat="45.55281" lon="3.23957">
        <ele>427.443359375</ele>
        <time>2009-06-14T09:33:32Z</time>
      </trkpt>
      <trkpt lat="45.55283" lon="3.23976">
        <ele>427.443359375</ele>
        <time>2009-06-14T09:33:34Z</time>
      </trkpt>
      <trkpt lat="45.55296" lon="3.24032">
        <ele>426.48205566406</ele>
        <time>2009-06-14T09:33:40Z</time>
      </trkpt>
      <trkpt lat="45.55311" lon="3.24099">
        <ele>424.55944824219</ele>
        <time>2009-06-14T09:33:47Z</time>
      </trkpt>
      <trkpt lat="45.55327" lon="3.24166">
        <ele>424.07873535156</ele>
        <time>2009-06-14T09:33:54Z</time>
      </trkpt>
      <trkpt lat="45.55339" lon="3.2422">
        <ele>424.55944824219</ele>
        <time>2009-06-14T09:34:00Z</time>
      </trkpt>
      <trkpt lat="45.55352" lon="3.24272">
        <ele>424.07873535156</ele>
        <time>2009-06-14T09:34:06Z</time>
      </trkpt>
      <trkpt lat="45.55368" lon="3.24333">
        <ele>424.55944824219</ele>
        <time>2009-06-14T09:34:13Z</time>
      </trkpt>
      <trkpt lat="45.55374" lon="3.24357">
        <ele>424.07873535156</ele>
        <time>2009-06-14T09:34:16Z</time>
      </trkpt>
      <trkpt lat="45.55374" lon="3.24375">
        <ele>424.55944824219</ele>
        <time>2009-06-14T09:34:20Z</time>
      </trkpt>
      <trkpt lat="45.55367" lon="3.24374">
        <ele>425.04016113281</ele>
        <time>2009-06-14T09:34:23Z</time>
      </trkpt>
      <trkpt lat="45.5535" lon="3.24369">
        <ele>424.55944824219</ele>
        <time>2009-06-14T09:34:29Z</time>
      </trkpt>
      <trkpt lat="45.5533" lon="3.24369">
        <ele>425.04016113281</ele>
        <time>2009-06-14T09:34:34Z</time>
      </trkpt>
      <trkpt lat="45.55308" lon="3.24373">
        <ele>424.07873535156</ele>
        <time>2009-06-14T09:34:39Z</time>
      </trkpt>
      <trkpt lat="45.55286" lon="3.24382">
        <ele>422.63671875</ele>
        <time>2009-06-14T09:34:44Z</time>
      </trkpt>
      <trkpt lat="45.55254" lon="3.24396">
        <ele>421.67541503906</ele>
        <time>2009-06-14T09:34:50Z</time>
      </trkpt>
      <trkpt lat="45.5521" lon="3.24412">
        <ele>418.79150390625</ele>
        <time>2009-06-14T09:34:57Z</time>
      </trkpt>
      <trkpt lat="45.5519" lon="3.24422">
        <ele>417.349609375</ele>
        <time>2009-06-14T09:35:00Z</time>
      </trkpt>
      <trkpt lat="45.55183" lon="3.24426">
        <ele>416.86889648438</ele>
        <time>2009-06-14T09:35:01Z</time>
      </trkpt>
      <trkpt lat="45.55177" lon="3.2443">
        <ele>416.38818359375</ele>
        <time>2009-06-14T09:35:02Z</time>
      </trkpt>
      <trkpt lat="45.55157" lon="3.24444">
        <ele>414.94616699219</ele>
        <time>2009-06-14T09:35:05Z</time>
      </trkpt>
      <trkpt lat="45.55136" lon="3.24461">
        <ele>413.50427246094</ele>
        <time>2009-06-14T09:35:08Z</time>
      </trkpt>
      <trkpt lat="45.5513" lon="3.24467">
        <ele>413.50427246094</ele>
        <time>2009-06-14T09:35:09Z</time>
      </trkpt>
      <trkpt lat="45.55114" lon="3.24488">
        <ele>411.58166503906</ele>
        <time>2009-06-14T09:35:12Z</time>
      </trkpt>
      <trkpt lat="45.55104" lon="3.24499">
        <ele>411.10095214844</ele>
        <time>2009-06-14T09:35:14Z</time>
      </trkpt>
      <trkpt lat="45.55087" lon="3.24508">
        <ele>409.65905761719</ele>
        <time>2009-06-14T09:35:17Z</time>
      </trkpt>
      <trkpt lat="45.55066" lon="3.24527">
        <ele>406.29431152344</ele>
        <time>2009-06-14T09:35:22Z</time>
      </trkpt>
      <trkpt lat="45.55053" lon="3.24568">
        <ele>404.85229492188</ele>
        <time>2009-06-14T09:35:27Z</time>
      </trkpt>
      <trkpt lat="45.55046" lon="3.24594">
        <ele>402.9296875</ele>
        <time>2009-06-14T09:35:30Z</time>
      </trkpt>
      <trkpt lat="45.55044" lon="3.24602">
        <ele>402.9296875</ele>
        <time>2009-06-14T09:35:31Z</time>
      </trkpt>
      <trkpt lat="45.55032" lon="3.24655">
        <ele>401.96850585938</ele>
        <time>2009-06-14T09:35:37Z</time>
      </trkpt>
      <trkpt lat="45.55019" lon="3.24674">
        <ele>401.00708007812</ele>
        <time>2009-06-14T09:35:41Z</time>
      </trkpt>
      <trkpt lat="45.55015" lon="3.24676">
        <ele>401.00708007812</ele>
        <time>2009-06-14T09:35:42Z</time>
      </trkpt>
      <trkpt lat="45.54984" lon="3.24684">
        <ele>400.52648925781</ele>
        <time>2009-06-14T09:35:48Z</time>
      </trkpt>
      <trkpt lat="45.54946" lon="3.24693">
        <ele>399.08435058594</ele>
        <time>2009-06-14T09:35:55Z</time>
      </trkpt>
      <trkpt lat="45.54929" lon="3.24693">
        <ele>399.08435058594</ele>
        <time>2009-06-14T09:35:58Z</time>
      </trkpt>
      <trkpt lat="45.54902" lon="3.24684">
        <ele>398.60375976562</ele>
        <time>2009-06-14T09:36:03Z</time>
      </trkpt>
      <trkpt lat="45.54885" lon="3.2468">
        <ele>398.60375976562</ele>
        <time>2009-06-14T09:36:07Z</time>
      </trkpt>
      <trkpt lat="45.54876" lon="3.24696">
        <ele>398.12316894531</ele>
        <time>2009-06-14T09:36:11Z</time>
      </trkpt>
      <trkpt lat="45.5486" lon="3.24743">
        <ele>397.64245605469</ele>
        <time>2009-06-14T09:36:19Z</time>
      </trkpt>
      <trkpt lat="45.54852" lon="3.2478">
        <ele>397.16174316406</ele>
        <time>2009-06-14T09:36:24Z</time>
      </trkpt>
      <trkpt lat="45.54844" lon="3.24831">
        <ele>397.16174316406</ele>
        <time>2009-06-14T09:36:30Z</time>
      </trkpt>
      <trkpt lat="45.54839" lon="3.24857">
        <ele>397.64245605469</ele>
        <time>2009-06-14T09:36:33Z</time>
      </trkpt>
      <trkpt lat="45.54835" lon="3.24881">
        <ele>397.16174316406</ele>
        <time>2009-06-14T09:36:36Z</time>
      </trkpt>
      <trkpt lat="45.5483" lon="3.24912">
        <ele>396.20056152344</ele>
        <time>2009-06-14T09:36:40Z</time>
      </trkpt>
      <trkpt lat="45.54827" lon="3.24934">
        <ele>397.16174316406</ele>
        <time>2009-06-14T09:36:43Z</time>
      </trkpt>
      <trkpt lat="45.54826" lon="3.24941">
        <ele>397.64245605469</ele>
        <time>2009-06-14T09:36:44Z</time>
      </trkpt>
      <trkpt lat="45.54824" lon="3.24946">
        <ele>397.64245605469</ele>
        <time>2009-06-14T09:36:45Z</time>
      </trkpt>
      <trkpt lat="45.5481" lon="3.24954">
        <ele>398.12316894531</ele>
        <time>2009-06-14T09:36:49Z</time>
      </trkpt>
      <trkpt lat="45.54781" lon="3.24948">
        <ele>397.64245605469</ele>
        <time>2009-06-14T09:36:55Z</time>
      </trkpt>
      <trkpt lat="45.54772" lon="3.24948">
        <ele>397.16174316406</ele>
        <time>2009-06-14T09:36:57Z</time>
      </trkpt>
      <trkpt lat="45.54759" lon="3.24958">
        <ele>397.64245605469</ele>
        <time>2009-06-14T09:37:01Z</time>
      </trkpt>
      <trkpt lat="45.54758" lon="3.24964">
        <ele>397.16174316406</ele>
        <time>2009-06-14T09:37:02Z</time>
      </trkpt>
      <trkpt lat="45.54754" lon="3.24993">
        <ele>397.16174316406</ele>
        <time>2009-06-14T09:37:06Z</time>
      </trkpt>
      <trkpt lat="45.54742" lon="3.25058">
        <ele>396.20056152344</ele>
        <time>2009-06-14T09:37:14Z</time>
      </trkpt>
      <trkpt lat="45.54732" lon="3.25111">
        <ele>396.20056152344</ele>
        <time>2009-06-14T09:37:20Z</time>
      </trkpt>
      <trkpt lat="45.54723" lon="3.25153">
        <ele>395.71984863281</ele>
        <time>2009-06-14T09:37:25Z</time>
      </trkpt>
      <trkpt lat="45.54716" lon="3.25182">
        <ele>395.71984863281</ele>
        <time>2009-06-14T09:37:29Z</time>
      </trkpt>
      <trkpt lat="45.54715" lon="3.25195">
        <ele>395.71984863281</ele>
        <time>2009-06-14T09:37:31Z</time>
      </trkpt>
      <trkpt lat="45.54716" lon="3.25246">
        <ele>395.23913574219</ele>
        <time>2009-06-14T09:37:38Z</time>
      </trkpt>
      <trkpt lat="45.54718" lon="3.25275">
        <ele>395.23913574219</ele>
        <time>2009-06-14T09:37:42Z</time>
      </trkpt>
      <trkpt lat="45.54711" lon="3.25297">
        <ele>394.75854492188</ele>
        <time>2009-06-14T09:37:46Z</time>
      </trkpt>
      <trkpt lat="45.54703" lon="3.25304">
        <ele>394.75854492188</ele>
        <time>2009-06-14T09:37:48Z</time>
      </trkpt>
      <trkpt lat="45.54695" lon="3.25311">
        <ele>394.27795410156</ele>
        <time>2009-06-14T09:37:50Z</time>
      </trkpt>
      <trkpt lat="45.54655" lon="3.25319">
        <ele>394.27795410156</ele>
        <time>2009-06-14T09:37:57Z</time>
      </trkpt>
      <trkpt lat="45.54625" lon="3.25322">
        <ele>393.31652832031</ele>
        <time>2009-06-14T09:38:02Z</time>
      </trkpt>
      <trkpt lat="45.54578" lon="3.25327">
        <ele>392.8359375</ele>
        <time>2009-06-14T09:38:10Z</time>
      </trkpt>
      <trkpt lat="45.5456" lon="3.25331">
        <ele>393.79724121094</ele>
        <time>2009-06-14T09:38:13Z</time>
      </trkpt>
      <trkpt lat="45.54554" lon="3.25332">
        <ele>393.79724121094</ele>
        <time>2009-06-14T09:38:14Z</time>
      </trkpt>
      <trkpt lat="45.54519" lon="3.25338">
        <ele>392.35534667969</ele>
        <time>2009-06-14T09:38:20Z</time>
      </trkpt>
      <trkpt lat="45.54472" lon="3.25344">
        <ele>393.79724121094</ele>
        <time>2009-06-14T09:38:28Z</time>
      </trkpt>
      <trkpt lat="45.5443" lon="3.25348">
        <ele>393.79724121094</ele>
        <time>2009-06-14T09:38:35Z</time>
      </trkpt>
      <trkpt lat="45.54405" lon="3.2535">
        <ele>394.27795410156</ele>
        <time>2009-06-14T09:38:40Z</time>
      </trkpt>
      <trkpt lat="45.54401" lon="3.25349">
        <ele>394.27795410156</ele>
        <time>2009-06-14T09:38:44Z</time>
      </trkpt>
      <trkpt lat="45.54385" lon="3.25354">
        <ele>393.31652832031</ele>
        <time>2009-06-14T09:38:49Z</time>
      </trkpt>
      <trkpt lat="45.5437" lon="3.25357">
        <ele>391.87451171875</ele>
        <time>2009-06-14T09:38:52Z</time>
      </trkpt>
      <trkpt lat="45.54352" lon="3.25362">
        <ele>389.95190429688</ele>
        <time>2009-06-14T09:38:55Z</time>
      </trkpt>
      <trkpt lat="45.54332" lon="3.2538">
        <ele>389.95190429688</ele>
        <time>2009-06-14T09:38:59Z</time>
      </trkpt>
      <trkpt lat="45.54332" lon="3.25396">
        <ele>389.95190429688</ele>
        <time>2009-06-14T09:39:01Z</time>
      </trkpt>
      <trkpt lat="45.54334" lon="3.25423">
        <ele>389.47119140625</ele>
        <time>2009-06-14T09:39:04Z</time>
      </trkpt>
      <trkpt lat="45.54341" lon="3.25474">
        <ele>388.99060058594</ele>
        <time>2009-06-14T09:39:10Z</time>
      </trkpt>
      <trkpt lat="45.54343" lon="3.25491">
        <ele>389.95190429688</ele>
        <time>2009-06-14T09:39:12Z</time>
      </trkpt>
      <trkpt lat="45.5435" lon="3.25542">
        <ele>388.99060058594</ele>
        <time>2009-06-14T09:39:18Z</time>
      </trkpt>
      <trkpt lat="45.54356" lon="3.25557">
        <ele>388.51000976562</ele>
        <time>2009-06-14T09:39:20Z</time>
      </trkpt>
      <trkpt lat="45.54363" lon="3.25572">
        <ele>388.99060058594</ele>
        <time>2009-06-14T09:39:22Z</time>
      </trkpt>
      <trkpt lat="45.54373" lon="3.25608">
        <ele>389.47119140625</ele>
        <time>2009-06-14T09:39:27Z</time>
      </trkpt>
      <trkpt lat="45.54373" lon="3.25614">
        <ele>388.99060058594</ele>
        <time>2009-06-14T09:39:28Z</time>
      </trkpt>
      <trkpt lat="45.54364" lon="3.25627">
        <ele>388.99060058594</ele>
        <time>2009-06-14T09:39:32Z</time>
      </trkpt>
      <trkpt lat="45.54358" lon="3.25644">
        <ele>387.54858398438</ele>
        <time>2009-06-14T09:39:35Z</time>
      </trkpt>
      <trkpt lat="45.5436" lon="3.25658">
        <ele>387.06799316406</ele>
        <time>2009-06-14T09:39:37Z</time>
      </trkpt>
      <trkpt lat="45.54373" lon="3.25695">
        <ele>387.06799316406</ele>
        <time>2009-06-14T09:39:42Z</time>
      </trkpt>
      <trkpt lat="45.54375" lon="3.2572">
        <ele>386.58740234375</ele>
        <time>2009-06-14T09:39:45Z</time>
      </trkpt>
      <trkpt lat="45.54379" lon="3.25772">
        <ele>388.029296875</ele>
        <time>2009-06-14T09:39:51Z</time>
      </trkpt>
      <trkpt lat="45.54384" lon="3.25809">
        <ele>388.029296875</ele>
        <time>2009-06-14T09:39:57Z</time>
      </trkpt>
      <trkpt lat="45.54391" lon="3.25845">
        <ele>388.029296875</ele>
        <time>2009-06-14T09:40:04Z</time>
      </trkpt>
      <trkpt lat="45.54395" lon="3.25872">
        <ele>387.06799316406</ele>
        <time>2009-06-14T09:40:09Z</time>
      </trkpt>
      <trkpt lat="45.54398" lon="3.25895">
        <ele>386.58740234375</ele>
        <time>2009-06-14T09:40:12Z</time>
      </trkpt>
      <trkpt lat="45.544" lon="3.25905">
        <ele>386.58740234375</ele>
        <time>2009-06-14T09:40:13Z</time>
      </trkpt>
      <trkpt lat="45.54404" lon="3.2594">
        <ele>382.74206542969</ele>
        <time>2009-06-14T09:40:16Z</time>
      </trkpt>
      <trkpt lat="45.54411" lon="3.25977">
        <ele>382.74206542969</ele>
        <time>2009-06-14T09:40:19Z</time>
      </trkpt>
      <trkpt lat="45.54419" lon="3.26016">
        <ele>382.26135253906</ele>
        <time>2009-06-14T09:40:22Z</time>
      </trkpt>
      <trkpt lat="45.54424" lon="3.26043">
        <ele>382.74206542969</ele>
        <time>2009-06-14T09:40:24Z</time>
      </trkpt>
      <trkpt lat="45.54427" lon="3.26072">
        <ele>381.78063964844</ele>
        <time>2009-06-14T09:40:26Z</time>
      </trkpt>
      <trkpt lat="45.54427" lon="3.26146">
        <ele>382.74206542969</ele>
        <time>2009-06-14T09:40:31Z</time>
      </trkpt>
      <trkpt lat="45.54427" lon="3.26175">
        <ele>382.74206542969</ele>
        <time>2009-06-14T09:40:33Z</time>
      </trkpt>
      <trkpt lat="45.54427" lon="3.26213">
        <ele>382.74206542969</ele>
        <time>2009-06-14T09:40:36Z</time>
      </trkpt>
      <trkpt lat="45.54437" lon="3.26258">
        <ele>383.22265625</ele>
        <time>2009-06-14T09:40:41Z</time>
      </trkpt>
      <trkpt lat="45.54447" lon="3.26279">
        <ele>381.30004882812</ele>
        <time>2009-06-14T09:40:44Z</time>
      </trkpt>
      <trkpt lat="45.54455" lon="3.2629">
        <ele>382.26135253906</ele>
        <time>2009-06-14T09:40:46Z</time>
      </trkpt>
      <trkpt lat="45.54464" lon="3.26309">
        <ele>383.22265625</ele>
        <time>2009-06-14T09:40:50Z</time>
      </trkpt>
      <trkpt lat="45.54472" lon="3.26349">
        <ele>382.74206542969</ele>
        <time>2009-06-14T09:40:56Z</time>
      </trkpt>
      <trkpt lat="45.54473" lon="3.26363">
        <ele>383.22265625</ele>
        <time>2009-06-14T09:40:58Z</time>
      </trkpt>
      <trkpt lat="45.54476" lon="3.26395">
        <ele>383.70324707031</ele>
        <time>2009-06-14T09:41:03Z</time>
      </trkpt>
      <trkpt lat="45.54484" lon="3.26442">
        <ele>383.22265625</ele>
        <time>2009-06-14T09:41:10Z</time>
      </trkpt>
      <trkpt lat="45.54495" lon="3.26493">
        <ele>381.78063964844</ele>
        <time>2009-06-14T09:41:16Z</time>
      </trkpt>
      <trkpt lat="45.54504" lon="3.26539">
        <ele>380.81945800781</ele>
        <time>2009-06-14T09:41:21Z</time>
      </trkpt>
      <trkpt lat="45.54515" lon="3.26594">
        <ele>380.81945800781</ele>
        <time>2009-06-14T09:41:27Z</time>
      </trkpt>
      <trkpt lat="45.54523" lon="3.26655">
        <ele>381.78063964844</ele>
        <time>2009-06-14T09:41:33Z</time>
      </trkpt>
      <trkpt lat="45.54536" lon="3.26739">
        <ele>380.33874511719</ele>
        <time>2009-06-14T09:41:41Z</time>
      </trkpt>
      <trkpt lat="45.54538" lon="3.26797">
        <ele>380.33874511719</ele>
        <time>2009-06-14T09:41:47Z</time>
      </trkpt>
      <trkpt lat="45.54538" lon="3.26807">
        <ele>380.33874511719</ele>
        <time>2009-06-14T09:41:48Z</time>
      </trkpt>
      <trkpt lat="45.54523" lon="3.26859">
        <ele>380.33874511719</ele>
        <time>2009-06-14T09:41:54Z</time>
      </trkpt>
      <trkpt lat="45.54518" lon="3.26879">
        <ele>379.37744140625</ele>
        <time>2009-06-14T09:41:56Z</time>
      </trkpt>
      <trkpt lat="45.54526" lon="3.26904">
        <ele>380.33874511719</ele>
        <time>2009-06-14T09:41:59Z</time>
      </trkpt>
      <trkpt lat="45.5453" lon="3.26953">
        <ele>379.85803222656</ele>
        <time>2009-06-14T09:42:04Z</time>
      </trkpt>
      <trkpt lat="45.54528" lon="3.27017">
        <ele>380.33874511719</ele>
        <time>2009-06-14T09:42:11Z</time>
      </trkpt>
      <trkpt lat="45.54527" lon="3.27048">
        <ele>380.33874511719</ele>
        <time>2009-06-14T09:42:16Z</time>
      </trkpt>
      <trkpt lat="45.54528" lon="3.27091">
        <ele>377.93542480469</ele>
        <time>2009-06-14T09:42:21Z</time>
      </trkpt>
      <trkpt lat="45.54527" lon="3.27116">
        <ele>376.49353027344</ele>
        <time>2009-06-14T09:42:23Z</time>
      </trkpt>
      <trkpt lat="45.54526" lon="3.27143">
        <ele>375.53210449219</ele>
        <time>2009-06-14T09:42:25Z</time>
      </trkpt>
      <trkpt lat="45.54526" lon="3.27165">
        <ele>378.89685058594</ele>
        <time>2009-06-14T09:42:27Z</time>
      </trkpt>
      <trkpt lat="45.54526" lon="3.27172">
        <ele>378.89685058594</ele>
        <time>2009-06-14T09:42:29Z</time>
      </trkpt>
      <trkpt lat="45.54527" lon="3.2717">
        <ele>379.85803222656</ele>
        <time>2009-06-14T09:42:31Z</time>
      </trkpt>
      <trkpt lat="45.54536" lon="3.27173">
        <ele>379.85803222656</ele>
        <time>2009-06-14T09:42:35Z</time>
      </trkpt>
      <trkpt lat="45.54539" lon="3.27174">
        <ele>378.41613769531</ele>
        <time>2009-06-14T09:42:36Z</time>
      </trkpt>
      <trkpt lat="45.54555" lon="3.27174">
        <ele>377.93542480469</ele>
        <time>2009-06-14T09:42:39Z</time>
      </trkpt>
      <trkpt lat="45.54562" lon="3.27174">
        <ele>377.93542480469</ele>
        <time>2009-06-14T09:42:40Z</time>
      </trkpt>
      <trkpt lat="45.54601" lon="3.2718">
        <ele>377.45483398438</ele>
        <time>2009-06-14T09:42:46Z</time>
      </trkpt>
      <trkpt lat="45.54623" lon="3.27183">
        <ele>377.45483398438</ele>
        <time>2009-06-14T09:42:49Z</time>
      </trkpt>
      <trkpt lat="45.54643" lon="3.27201">
        <ele>379.37744140625</ele>
        <time>2009-06-14T09:42:53Z</time>
      </trkpt>
      <trkpt lat="45.54645" lon="3.2721">
        <ele>378.89685058594</ele>
        <time>2009-06-14T09:42:54Z</time>
      </trkpt>
      <trkpt lat="45.54651" lon="3.27236">
        <ele>378.89685058594</ele>
        <time>2009-06-14T09:42:57Z</time>
      </trkpt>
      <trkpt lat="45.54662" lon="3.27254">
        <ele>379.85803222656</ele>
        <time>2009-06-14T09:43:00Z</time>
      </trkpt>
      <trkpt lat="45.54681" lon="3.27295">
        <ele>379.37744140625</ele>
        <time>2009-06-14T09:43:06Z</time>
      </trkpt>
      <trkpt lat="45.54698" lon="3.27336">
        <ele>378.89685058594</ele>
        <time>2009-06-14T09:43:11Z</time>
      </trkpt>
      <trkpt lat="45.54707" lon="3.27352">
        <ele>378.41613769531</ele>
        <time>2009-06-14T09:43:13Z</time>
      </trkpt>
      <trkpt lat="45.54733" lon="3.27386">
        <ele>377.93542480469</ele>
        <time>2009-06-14T09:43:18Z</time>
      </trkpt>
      <trkpt lat="45.54757" lon="3.27423">
        <ele>377.45483398438</ele>
        <time>2009-06-14T09:43:23Z</time>
      </trkpt>
      <trkpt lat="45.54766" lon="3.27461">
        <ele>376.49353027344</ele>
        <time>2009-06-14T09:43:27Z</time>
      </trkpt>
      <trkpt lat="45.54769" lon="3.27482">
        <ele>376.49353027344</ele>
        <time>2009-06-14T09:43:29Z</time>
      </trkpt>
      <trkpt lat="45.54778" lon="3.27517">
        <ele>377.45483398438</ele>
        <time>2009-06-14T09:43:33Z</time>
      </trkpt>
      <trkpt lat="45.5479" lon="3.27536">
        <ele>377.93542480469</ele>
        <time>2009-06-14T09:43:37Z</time>
      </trkpt>
      <trkpt lat="45.54815" lon="3.27533">
        <ele>376.97424316406</ele>
        <time>2009-06-14T09:43:42Z</time>
      </trkpt>
      <trkpt lat="45.54856" lon="3.2753">
        <ele>377.45483398438</ele>
        <time>2009-06-14T09:43:49Z</time>
      </trkpt>
      <trkpt lat="45.54905" lon="3.27538">
        <ele>376.97424316406</ele>
        <time>2009-06-14T09:43:57Z</time>
      </trkpt>
      <trkpt lat="45.54911" lon="3.2754">
        <ele>376.97424316406</ele>
        <time>2009-06-14T09:43:58Z</time>
      </trkpt>
      <trkpt lat="45.54951" lon="3.27566">
        <ele>376.97424316406</ele>
        <time>2009-06-14T09:44:05Z</time>
      </trkpt>
      <trkpt lat="45.54985" lon="3.27572">
        <ele>376.49353027344</ele>
        <time>2009-06-14T09:44:10Z</time>
      </trkpt>
      <trkpt lat="45.55021" lon="3.27572">
        <ele>376.01281738281</ele>
        <time>2009-06-14T09:44:15Z</time>
      </trkpt>
      <trkpt lat="45.55058" lon="3.27564">
        <ele>375.05151367188</ele>
        <time>2009-06-14T09:44:20Z</time>
      </trkpt>
      <trkpt lat="45.55072" lon="3.27558">
        <ele>373.60949707031</ele>
        <time>2009-06-14T09:44:22Z</time>
      </trkpt>
      <trkpt lat="45.55091" lon="3.27545">
        <ele>373.60949707031</ele>
        <time>2009-06-14T09:44:25Z</time>
      </trkpt>
      <trkpt lat="45.55111" lon="3.27518">
        <ele>374.57080078125</ele>
        <time>2009-06-14T09:44:29Z</time>
      </trkpt>
      <trkpt lat="45.55121" lon="3.27494">
        <ele>375.53210449219</ele>
        <time>2009-06-14T09:44:32Z</time>
      </trkpt>
      <trkpt lat="45.55122" lon="3.27454">
        <ele>377.93542480469</ele>
        <time>2009-06-14T09:44:37Z</time>
      </trkpt>
      <trkpt lat="45.55115" lon="3.27392">
        <ele>379.37744140625</ele>
        <time>2009-06-14T09:44:45Z</time>
      </trkpt>
      <trkpt lat="45.55111" lon="3.27362">
        <ele>380.33874511719</ele>
        <time>2009-06-14T09:44:49Z</time>
      </trkpt>
      <trkpt lat="45.55106" lon="3.27315">
        <ele>380.81945800781</ele>
        <time>2009-06-14T09:44:56Z</time>
      </trkpt>
      <trkpt lat="45.55104" lon="3.27296">
        <ele>380.81945800781</ele>
        <time>2009-06-14T09:44:59Z</time>
      </trkpt>
      <trkpt lat="45.55102" lon="3.27269">
        <ele>381.30004882812</ele>
        <time>2009-06-14T09:45:04Z</time>
      </trkpt>
      <trkpt lat="45.55087" lon="3.2724">
        <ele>373.2</ele>
        <time>2009-06-14T09:45:23Z</time>
      </trkpt>
    </trkseg>
  </trk>
</gpx>